<?xml version="1.0" encoding="UTF-8" standalone="no" ?>
<gpx xmlns="http://www.topografix.com/GPX/1/1" xmlns:xsi="http://www.w3.org/2001/XMLSchema-instance" xsi:schemaLocation="http://www.topografix.com/GPX/1/1 http://www.topografix.com/GPX/1/1/gpx.xsd" version="1.1" creator="VisuGPX - https://www.visugpx.com">
  <metadata>
    <name>05 - La Bâtie Neuve : 3 circuits</name>
    <desc><![CDATA[Cet itinéraire fait partie de la collection de EquiLiberté : www.equiliberte.org Circuit NON ACCESSIBLE aux attelages
]]></desc>
  </metadata>
  <trk>
    <name><![CDATA[05 - La Bâtie Neuve nord - Ancelle]]></name>
    <extensions>
      <line xmlns="http://www.topografix.com/GPX/gpx_style/0/2">
        <color>0000FF</color>
        <width>4</width>
      </line>
    </extensions>
    <trkseg>
      <trkpt lat="44.57463" lon="6.21465">
        <ele>990.59997558594</ele>
        <time>2016-07-14T07:20:57.000Z</time>
      </trkpt>
      <trkpt lat="44.57463" lon="6.21465">
        <ele>990.59997558594</ele>
        <time>2016-07-14T07:20:57.000Z</time>
      </trkpt>
      <trkpt lat="44.57461" lon="6.2145">
        <ele>989.20001220703</ele>
        <time>2016-07-14T07:21:13.000Z</time>
      </trkpt>
      <trkpt lat="44.57463" lon="6.21425">
        <ele>988.59997558594</ele>
        <time>2016-07-14T07:21:27.000Z</time>
      </trkpt>
      <trkpt lat="44.57467" lon="6.21412">
        <ele>989.40002441406</ele>
        <time>2016-07-14T07:21:36.000Z</time>
      </trkpt>
      <trkpt lat="44.57471" lon="6.21398">
        <ele>991</ele>
        <time>2016-07-14T07:21:45.000Z</time>
      </trkpt>
      <trkpt lat="44.57473" lon="6.21381">
        <ele>991.79998779297</ele>
        <time>2016-07-14T07:21:56.000Z</time>
      </trkpt>
      <trkpt lat="44.57473" lon="6.21365">
        <ele>991.59997558594</ele>
        <time>2016-07-14T07:22:08.000Z</time>
      </trkpt>
      <trkpt lat="44.57471" lon="6.21352">
        <ele>990.40002441406</ele>
        <time>2016-07-14T07:22:16.000Z</time>
      </trkpt>
      <trkpt lat="44.5747" lon="6.2135">
        <ele>990.20001220703</ele>
        <time>2016-07-14T07:22:17.000Z</time>
      </trkpt>
      <trkpt lat="44.57466" lon="6.21338">
        <ele>988.20001220703</ele>
        <time>2016-07-14T07:22:26.000Z</time>
      </trkpt>
      <trkpt lat="44.57465" lon="6.21336">
        <ele>987.79998779297</ele>
        <time>2016-07-14T07:22:32.000Z</time>
      </trkpt>
      <trkpt lat="44.57463" lon="6.21331">
        <ele>986.79998779297</ele>
        <time>2016-07-14T07:22:37.000Z</time>
      </trkpt>
      <trkpt lat="44.57459" lon="6.21319">
        <ele>985.20001220703</ele>
        <time>2016-07-14T07:22:45.000Z</time>
      </trkpt>
      <trkpt lat="44.57455" lon="6.21305">
        <ele>983.40002441406</ele>
        <time>2016-07-14T07:22:53.000Z</time>
      </trkpt>
      <trkpt lat="44.57452" lon="6.21291">
        <ele>982</ele>
        <time>2016-07-14T07:23:03.000Z</time>
      </trkpt>
      <trkpt lat="44.57449" lon="6.21276">
        <ele>981</ele>
        <time>2016-07-14T07:23:12.000Z</time>
      </trkpt>
      <trkpt lat="44.57445" lon="6.21263">
        <ele>979.79998779297</ele>
        <time>2016-07-14T07:23:20.000Z</time>
      </trkpt>
      <trkpt lat="44.57442" lon="6.21249">
        <ele>979</ele>
        <time>2016-07-14T07:23:28.000Z</time>
      </trkpt>
      <trkpt lat="44.57437" lon="6.212">
        <ele>976.79998779297</ele>
        <time>2016-07-14T07:23:56.000Z</time>
      </trkpt>
      <trkpt lat="44.57433" lon="6.21183">
        <ele>975.79998779297</ele>
        <time>2016-07-14T07:24:06.000Z</time>
      </trkpt>
      <trkpt lat="44.5743" lon="6.2117">
        <ele>974.79998779297</ele>
        <time>2016-07-14T07:24:13.000Z</time>
      </trkpt>
      <trkpt lat="44.57428" lon="6.21158">
        <ele>974.40002441406</ele>
        <time>2016-07-14T07:24:20.000Z</time>
      </trkpt>
      <trkpt lat="44.57426" lon="6.21145">
        <ele>973.79998779297</ele>
        <time>2016-07-14T07:24:27.000Z</time>
      </trkpt>
      <trkpt lat="44.57422" lon="6.21137">
        <ele>972.59997558594</ele>
        <time>2016-07-14T07:24:32.000Z</time>
      </trkpt>
      <trkpt lat="44.57421" lon="6.21135">
        <ele>972.20001220703</ele>
        <time>2016-07-14T07:24:39.000Z</time>
      </trkpt>
      <trkpt lat="44.57419" lon="6.21128">
        <ele>971.40002441406</ele>
        <time>2016-07-14T07:24:44.000Z</time>
      </trkpt>
      <trkpt lat="44.57411" lon="6.21113">
        <ele>968.79998779297</ele>
        <time>2016-07-14T07:24:53.000Z</time>
      </trkpt>
      <trkpt lat="44.57411" lon="6.21112">
        <ele>968.59997558594</ele>
        <time>2016-07-14T07:24:54.000Z</time>
      </trkpt>
      <trkpt lat="44.57413" lon="6.21095">
        <ele>969.20001220703</ele>
        <time>2016-07-14T07:25:03.000Z</time>
      </trkpt>
      <trkpt lat="44.57413" lon="6.21093">
        <ele>969.20001220703</ele>
        <time>2016-07-14T07:25:04.000Z</time>
      </trkpt>
      <trkpt lat="44.57414" lon="6.21085">
        <ele>969.79998779297</ele>
        <time>2016-07-14T07:25:09.000Z</time>
      </trkpt>
      <trkpt lat="44.57419" lon="6.21068">
        <ele>971.59997558594</ele>
        <time>2016-07-14T07:25:19.000Z</time>
      </trkpt>
      <trkpt lat="44.57424" lon="6.21048">
        <ele>973.59997558594</ele>
        <time>2016-07-14T07:25:30.000Z</time>
      </trkpt>
      <trkpt lat="44.57429" lon="6.21029">
        <ele>975.59997558594</ele>
        <time>2016-07-14T07:25:41.000Z</time>
      </trkpt>
      <trkpt lat="44.57435" lon="6.21012">
        <ele>977.20001220703</ele>
        <time>2016-07-14T07:25:51.000Z</time>
      </trkpt>
      <trkpt lat="44.5744" lon="6.20999">
        <ele>978.79998779297</ele>
        <time>2016-07-14T07:25:59.000Z</time>
      </trkpt>
      <trkpt lat="44.57446" lon="6.20983">
        <ele>980.40002441406</ele>
        <time>2016-07-14T07:26:09.000Z</time>
      </trkpt>
      <trkpt lat="44.57448" lon="6.20976">
        <ele>981.20001220703</ele>
        <time>2016-07-14T07:26:13.000Z</time>
      </trkpt>
      <trkpt lat="44.57448" lon="6.20966">
        <ele>981.20001220703</ele>
        <time>2016-07-14T07:26:18.000Z</time>
      </trkpt>
      <trkpt lat="44.5745" lon="6.20944">
        <ele>982.20001220703</ele>
        <time>2016-07-14T07:26:30.000Z</time>
      </trkpt>
      <trkpt lat="44.57451" lon="6.20926">
        <ele>982.59997558594</ele>
        <time>2016-07-14T07:26:40.000Z</time>
      </trkpt>
      <trkpt lat="44.57452" lon="6.20924">
        <ele>982.79998779297</ele>
        <time>2016-07-14T07:26:41.000Z</time>
      </trkpt>
      <trkpt lat="44.57453" lon="6.20922">
        <ele>983.20001220703</ele>
        <time>2016-07-14T07:26:43.000Z</time>
      </trkpt>
      <trkpt lat="44.57452" lon="6.20923">
        <ele>983</ele>
        <time>2016-07-14T07:26:53.000Z</time>
      </trkpt>
      <trkpt lat="44.57453" lon="6.20924">
        <ele>983</ele>
        <time>2016-07-14T07:27:15.000Z</time>
      </trkpt>
      <trkpt lat="44.57453" lon="6.20923">
        <ele>983</ele>
        <time>2016-07-14T07:27:19.000Z</time>
      </trkpt>
      <trkpt lat="44.57453" lon="6.20921">
        <ele>983.20001220703</ele>
        <time>2016-07-14T07:27:23.000Z</time>
      </trkpt>
      <trkpt lat="44.57456" lon="6.20904">
        <ele>984.40002441406</ele>
        <time>2016-07-14T07:27:31.000Z</time>
      </trkpt>
      <trkpt lat="44.57461" lon="6.20883">
        <ele>985.79998779297</ele>
        <time>2016-07-14T07:27:42.000Z</time>
      </trkpt>
      <trkpt lat="44.57463" lon="6.20868">
        <ele>986.40002441406</ele>
        <time>2016-07-14T07:27:50.000Z</time>
      </trkpt>
      <trkpt lat="44.57465" lon="6.20847">
        <ele>987.40002441406</ele>
        <time>2016-07-14T07:28:00.000Z</time>
      </trkpt>
      <trkpt lat="44.5747" lon="6.20831">
        <ele>988.59997558594</ele>
        <time>2016-07-14T07:28:09.000Z</time>
      </trkpt>
      <trkpt lat="44.57472" lon="6.20813">
        <ele>988.79998779297</ele>
        <time>2016-07-14T07:28:20.000Z</time>
      </trkpt>
      <trkpt lat="44.57473" lon="6.20797">
        <ele>989.59997558594</ele>
        <time>2016-07-14T07:28:29.000Z</time>
      </trkpt>
      <trkpt lat="44.57473" lon="6.20792">
        <ele>990</ele>
        <time>2016-07-14T07:28:32.000Z</time>
      </trkpt>
      <trkpt lat="44.57473" lon="6.20782">
        <ele>990.40002441406</ele>
        <time>2016-07-14T07:28:39.000Z</time>
      </trkpt>
      <trkpt lat="44.57474" lon="6.20749">
        <ele>992.20001220703</ele>
        <time>2016-07-14T07:28:58.000Z</time>
      </trkpt>
      <trkpt lat="44.57473" lon="6.20735">
        <ele>992.59997558594</ele>
        <time>2016-07-14T07:29:07.000Z</time>
      </trkpt>
      <trkpt lat="44.57473" lon="6.20719">
        <ele>992.79998779297</ele>
        <time>2016-07-14T07:29:16.000Z</time>
      </trkpt>
      <trkpt lat="44.57475" lon="6.20704">
        <ele>993</ele>
        <time>2016-07-14T07:29:24.000Z</time>
      </trkpt>
      <trkpt lat="44.57477" lon="6.20688">
        <ele>993.40002441406</ele>
        <time>2016-07-14T07:29:33.000Z</time>
      </trkpt>
      <trkpt lat="44.57477" lon="6.20682">
        <ele>993.59997558594</ele>
        <time>2016-07-14T07:29:41.000Z</time>
      </trkpt>
      <trkpt lat="44.57488" lon="6.20671">
        <ele>996.20001220703</ele>
        <time>2016-07-14T07:29:55.000Z</time>
      </trkpt>
      <trkpt lat="44.5749" lon="6.20671">
        <ele>996.59997558594</ele>
        <time>2016-07-14T07:29:56.000Z</time>
      </trkpt>
      <trkpt lat="44.575" lon="6.20661">
        <ele>999.40002441406</ele>
        <time>2016-07-14T07:30:05.000Z</time>
      </trkpt>
      <trkpt lat="44.57511" lon="6.20656">
        <ele>1002</ele>
        <time>2016-07-14T07:30:14.000Z</time>
      </trkpt>
      <trkpt lat="44.57514" lon="6.20647">
        <ele>1003</ele>
        <time>2016-07-14T07:30:20.000Z</time>
      </trkpt>
      <trkpt lat="44.57514" lon="6.20638">
        <ele>1002.799987793</ele>
        <time>2016-07-14T07:30:25.000Z</time>
      </trkpt>
      <trkpt lat="44.57513" lon="6.2062">
        <ele>1002</ele>
        <time>2016-07-14T07:30:35.000Z</time>
      </trkpt>
      <trkpt lat="44.57513" lon="6.20611">
        <ele>1001.799987793</ele>
        <time>2016-07-14T07:30:43.000Z</time>
      </trkpt>
      <trkpt lat="44.57515" lon="6.20612">
        <ele>1002.200012207</ele>
        <time>2016-07-14T07:30:58.000Z</time>
      </trkpt>
      <trkpt lat="44.57514" lon="6.20626">
        <ele>1002.4000244141</ele>
        <time>2016-07-14T07:31:06.000Z</time>
      </trkpt>
      <trkpt lat="44.57515" lon="6.20639">
        <ele>1003</ele>
        <time>2016-07-14T07:31:14.000Z</time>
      </trkpt>
      <trkpt lat="44.57515" lon="6.20638">
        <ele>1003</ele>
        <time>2016-07-14T07:31:21.000Z</time>
      </trkpt>
      <trkpt lat="44.57514" lon="6.20623">
        <ele>1002.200012207</ele>
        <time>2016-07-14T07:31:29.000Z</time>
      </trkpt>
      <trkpt lat="44.57514" lon="6.20603">
        <ele>1001.799987793</ele>
        <time>2016-07-14T07:31:39.000Z</time>
      </trkpt>
      <trkpt lat="44.57512" lon="6.20583">
        <ele>1000.799987793</ele>
        <time>2016-07-14T07:31:49.000Z</time>
      </trkpt>
      <trkpt lat="44.57511" lon="6.20567">
        <ele>1000.200012207</ele>
        <time>2016-07-14T07:31:57.000Z</time>
      </trkpt>
      <trkpt lat="44.57516" lon="6.20555">
        <ele>1001</ele>
        <time>2016-07-14T07:32:04.000Z</time>
      </trkpt>
      <trkpt lat="44.57522" lon="6.20547">
        <ele>1002.200012207</ele>
        <time>2016-07-14T07:32:10.000Z</time>
      </trkpt>
      <trkpt lat="44.57527" lon="6.20541">
        <ele>1003.5999755859</ele>
        <time>2016-07-14T07:32:15.000Z</time>
      </trkpt>
      <trkpt lat="44.57536" lon="6.2053">
        <ele>1005.5999755859</ele>
        <time>2016-07-14T07:32:23.000Z</time>
      </trkpt>
      <trkpt lat="44.57539" lon="6.20521">
        <ele>1006</ele>
        <time>2016-07-14T07:32:30.000Z</time>
      </trkpt>
      <trkpt lat="44.57536" lon="6.20513">
        <ele>1005</ele>
        <time>2016-07-14T07:32:45.000Z</time>
      </trkpt>
      <trkpt lat="44.57531" lon="6.20497">
        <ele>1003.4000244141</ele>
        <time>2016-07-14T07:32:54.000Z</time>
      </trkpt>
      <trkpt lat="44.57526" lon="6.20484">
        <ele>1001.799987793</ele>
        <time>2016-07-14T07:33:02.000Z</time>
      </trkpt>
      <trkpt lat="44.57527" lon="6.20471">
        <ele>1002</ele>
        <time>2016-07-14T07:33:09.000Z</time>
      </trkpt>
      <trkpt lat="44.57531" lon="6.20456">
        <ele>1003.5999755859</ele>
        <time>2016-07-14T07:33:18.000Z</time>
      </trkpt>
      <trkpt lat="44.57536" lon="6.20437">
        <ele>1005.4000244141</ele>
        <time>2016-07-14T07:33:29.000Z</time>
      </trkpt>
      <trkpt lat="44.57541" lon="6.20422">
        <ele>1007.200012207</ele>
        <time>2016-07-14T07:33:38.000Z</time>
      </trkpt>
      <trkpt lat="44.57543" lon="6.20404">
        <ele>1008</ele>
        <time>2016-07-14T07:33:47.000Z</time>
      </trkpt>
      <trkpt lat="44.5754" lon="6.20386">
        <ele>1007.200012207</ele>
        <time>2016-07-14T07:33:56.000Z</time>
      </trkpt>
      <trkpt lat="44.57539" lon="6.20376">
        <ele>1006.5999755859</ele>
        <time>2016-07-14T07:34:01.000Z</time>
      </trkpt>
      <trkpt lat="44.57541" lon="6.20369">
        <ele>1006.5999755859</ele>
        <time>2016-07-14T07:34:05.000Z</time>
      </trkpt>
      <trkpt lat="44.57549" lon="6.20348">
        <ele>1008</ele>
        <time>2016-07-14T07:34:17.000Z</time>
      </trkpt>
      <trkpt lat="44.57557" lon="6.20328">
        <ele>1009.4000244141</ele>
        <time>2016-07-14T07:34:28.000Z</time>
      </trkpt>
      <trkpt lat="44.57566" lon="6.20305">
        <ele>1011.200012207</ele>
        <time>2016-07-14T07:34:40.000Z</time>
      </trkpt>
      <trkpt lat="44.57566" lon="6.20304">
        <ele>1011</ele>
        <time>2016-07-14T07:34:41.000Z</time>
      </trkpt>
      <trkpt lat="44.57566" lon="6.20302">
        <ele>1011</ele>
        <time>2016-07-14T07:34:42.000Z</time>
      </trkpt>
      <trkpt lat="44.5756" lon="6.20291">
        <ele>1009</ele>
        <time>2016-07-14T07:34:49.000Z</time>
      </trkpt>
      <trkpt lat="44.5757" lon="6.2026">
        <ele>1010.4000244141</ele>
        <time>2016-07-14T07:35:07.000Z</time>
      </trkpt>
      <trkpt lat="44.5758" lon="6.20259">
        <ele>1013</ele>
        <time>2016-07-14T07:35:13.000Z</time>
      </trkpt>
      <trkpt lat="44.57587" lon="6.20251">
        <ele>1014.4000244141</ele>
        <time>2016-07-14T07:35:18.000Z</time>
      </trkpt>
      <trkpt lat="44.57594" lon="6.20238">
        <ele>1015.5999755859</ele>
        <time>2016-07-14T07:35:26.000Z</time>
      </trkpt>
      <trkpt lat="44.57604" lon="6.20221">
        <ele>1017</ele>
        <time>2016-07-14T07:35:37.000Z</time>
      </trkpt>
      <trkpt lat="44.57616" lon="6.20171">
        <ele>1017</ele>
        <time>2016-07-14T07:36:05.000Z</time>
      </trkpt>
      <trkpt lat="44.57624" lon="6.20162">
        <ele>1018.4000244141</ele>
        <time>2016-07-14T07:36:13.000Z</time>
      </trkpt>
      <trkpt lat="44.57632" lon="6.2016">
        <ele>1020</ele>
        <time>2016-07-14T07:36:19.000Z</time>
      </trkpt>
      <trkpt lat="44.57632" lon="6.20159">
        <ele>1020</ele>
        <time>2016-07-14T07:36:26.000Z</time>
      </trkpt>
      <trkpt lat="44.5763" lon="6.20158">
        <ele>1019.5999755859</ele>
        <time>2016-07-14T07:36:27.000Z</time>
      </trkpt>
      <trkpt lat="44.57631" lon="6.20152">
        <ele>1019.4000244141</ele>
        <time>2016-07-14T07:36:32.000Z</time>
      </trkpt>
      <trkpt lat="44.57636" lon="6.20146">
        <ele>1020.5999755859</ele>
        <time>2016-07-14T07:36:50.000Z</time>
      </trkpt>
      <trkpt lat="44.57643" lon="6.2013">
        <ele>1021.200012207</ele>
        <time>2016-07-14T07:36:59.000Z</time>
      </trkpt>
      <trkpt lat="44.57649" lon="6.20119">
        <ele>1022</ele>
        <time>2016-07-14T07:37:06.000Z</time>
      </trkpt>
      <trkpt lat="44.57653" lon="6.20103">
        <ele>1021.799987793</ele>
        <time>2016-07-14T07:37:14.000Z</time>
      </trkpt>
      <trkpt lat="44.57658" lon="6.20086">
        <ele>1022</ele>
        <time>2016-07-14T07:37:23.000Z</time>
      </trkpt>
      <trkpt lat="44.5766" lon="6.20078">
        <ele>1022</ele>
        <time>2016-07-14T07:37:28.000Z</time>
      </trkpt>
      <trkpt lat="44.57659" lon="6.20076">
        <ele>1021.799987793</ele>
        <time>2016-07-14T07:37:37.000Z</time>
      </trkpt>
      <trkpt lat="44.5766" lon="6.20075">
        <ele>1022</ele>
        <time>2016-07-14T07:37:43.000Z</time>
      </trkpt>
      <trkpt lat="44.57662" lon="6.20076">
        <ele>1022.4000244141</ele>
        <time>2016-07-14T07:37:49.000Z</time>
      </trkpt>
      <trkpt lat="44.57662" lon="6.20075">
        <ele>1022.4000244141</ele>
        <time>2016-07-14T07:38:00.000Z</time>
      </trkpt>
      <trkpt lat="44.57661" lon="6.20075">
        <ele>1022.200012207</ele>
        <time>2016-07-14T07:38:09.000Z</time>
      </trkpt>
      <trkpt lat="44.57662" lon="6.20075">
        <ele>1022.4000244141</ele>
        <time>2016-07-14T07:38:15.000Z</time>
      </trkpt>
      <trkpt lat="44.57661" lon="6.20078">
        <ele>1022.4000244141</ele>
        <time>2016-07-14T07:39:00.000Z</time>
      </trkpt>
      <trkpt lat="44.5766" lon="6.20077">
        <ele>1022.200012207</ele>
        <time>2016-07-14T07:39:08.000Z</time>
      </trkpt>
      <trkpt lat="44.57662" lon="6.20077">
        <ele>1022.5999755859</ele>
        <time>2016-07-14T07:39:12.000Z</time>
      </trkpt>
      <trkpt lat="44.57662" lon="6.20076">
        <ele>1022.4000244141</ele>
        <time>2016-07-14T07:40:41.000Z</time>
      </trkpt>
      <trkpt lat="44.57663" lon="6.20075">
        <ele>1022.5999755859</ele>
        <time>2016-07-14T07:40:56.000Z</time>
      </trkpt>
      <trkpt lat="44.57662" lon="6.20075">
        <ele>1022.4000244141</ele>
        <time>2016-07-14T07:41:33.000Z</time>
      </trkpt>
      <trkpt lat="44.57661" lon="6.20076">
        <ele>1022.200012207</ele>
        <time>2016-07-14T07:41:40.000Z</time>
      </trkpt>
      <trkpt lat="44.57662" lon="6.20076">
        <ele>1022.4000244141</ele>
        <time>2016-07-14T07:41:44.000Z</time>
      </trkpt>
      <trkpt lat="44.57659" lon="6.20074">
        <ele>1021.5999755859</ele>
        <time>2016-07-14T07:42:05.000Z</time>
      </trkpt>
      <trkpt lat="44.57661" lon="6.20074">
        <ele>1022</ele>
        <time>2016-07-14T07:42:09.000Z</time>
      </trkpt>
      <trkpt lat="44.5766" lon="6.20073">
        <ele>1021.799987793</ele>
        <time>2016-07-14T07:42:15.000Z</time>
      </trkpt>
      <trkpt lat="44.57659" lon="6.20073">
        <ele>1021.5999755859</ele>
        <time>2016-07-14T07:42:21.000Z</time>
      </trkpt>
      <trkpt lat="44.5766" lon="6.20074">
        <ele>1021.799987793</ele>
        <time>2016-07-14T07:42:26.000Z</time>
      </trkpt>
      <trkpt lat="44.57659" lon="6.20073">
        <ele>1021.5999755859</ele>
        <time>2016-07-14T07:42:36.000Z</time>
      </trkpt>
      <trkpt lat="44.5766" lon="6.20074">
        <ele>1022</ele>
        <time>2016-07-14T07:42:48.000Z</time>
      </trkpt>
      <trkpt lat="44.57659" lon="6.20074">
        <ele>1021.4000244141</ele>
        <time>2016-07-14T07:42:57.000Z</time>
      </trkpt>
      <trkpt lat="44.57658" lon="6.20073">
        <ele>1021.200012207</ele>
        <time>2016-07-14T07:43:02.000Z</time>
      </trkpt>
      <trkpt lat="44.57656" lon="6.20073">
        <ele>1020.799987793</ele>
        <time>2016-07-14T07:43:24.000Z</time>
      </trkpt>
      <trkpt lat="44.57657" lon="6.20073">
        <ele>1020.799987793</ele>
        <time>2016-07-14T07:43:34.000Z</time>
      </trkpt>
      <trkpt lat="44.57657" lon="6.20075">
        <ele>1021</ele>
        <time>2016-07-14T07:43:41.000Z</time>
      </trkpt>
      <trkpt lat="44.57659" lon="6.20074">
        <ele>1021.5999755859</ele>
        <time>2016-07-14T07:43:54.000Z</time>
      </trkpt>
      <trkpt lat="44.57659" lon="6.20076">
        <ele>1021.799987793</ele>
        <time>2016-07-14T07:44:01.000Z</time>
      </trkpt>
      <trkpt lat="44.57659" lon="6.20074">
        <ele>1021.5999755859</ele>
        <time>2016-07-14T07:44:13.000Z</time>
      </trkpt>
      <trkpt lat="44.5766" lon="6.20071">
        <ele>1021.5999755859</ele>
        <time>2016-07-14T07:44:19.000Z</time>
      </trkpt>
      <trkpt lat="44.57661" lon="6.2007">
        <ele>1022</ele>
        <time>2016-07-14T07:44:23.000Z</time>
      </trkpt>
      <trkpt lat="44.57662" lon="6.20072">
        <ele>1022.200012207</ele>
        <time>2016-07-14T07:44:24.000Z</time>
      </trkpt>
      <trkpt lat="44.57661" lon="6.20075">
        <ele>1022</ele>
        <time>2016-07-14T07:44:29.000Z</time>
      </trkpt>
      <trkpt lat="44.57661" lon="6.20073">
        <ele>1022</ele>
        <time>2016-07-14T07:44:36.000Z</time>
      </trkpt>
      <trkpt lat="44.57663" lon="6.2007">
        <ele>1022.200012207</ele>
        <time>2016-07-14T07:44:51.000Z</time>
      </trkpt>
      <trkpt lat="44.57662" lon="6.20068">
        <ele>1022</ele>
        <time>2016-07-14T07:44:52.000Z</time>
      </trkpt>
      <trkpt lat="44.57663" lon="6.20065">
        <ele>1022.200012207</ele>
        <time>2016-07-14T07:44:58.000Z</time>
      </trkpt>
      <trkpt lat="44.57665" lon="6.20058">
        <ele>1022.4000244141</ele>
        <time>2016-07-14T07:45:07.000Z</time>
      </trkpt>
      <trkpt lat="44.57668" lon="6.20047">
        <ele>1022.799987793</ele>
        <time>2016-07-14T07:45:14.000Z</time>
      </trkpt>
      <trkpt lat="44.57668" lon="6.2003">
        <ele>1022</ele>
        <time>2016-07-14T07:45:22.000Z</time>
      </trkpt>
      <trkpt lat="44.57668" lon="6.20017">
        <ele>1021.200012207</ele>
        <time>2016-07-14T07:45:28.000Z</time>
      </trkpt>
      <trkpt lat="44.57688" lon="6.19979">
        <ele>1023</ele>
        <time>2016-07-14T07:45:52.000Z</time>
      </trkpt>
      <trkpt lat="44.57695" lon="6.19943">
        <ele>1021</ele>
        <time>2016-07-14T07:46:11.000Z</time>
      </trkpt>
      <trkpt lat="44.57699" lon="6.19925">
        <ele>1020.4000244141</ele>
        <time>2016-07-14T07:46:21.000Z</time>
      </trkpt>
      <trkpt lat="44.57705" lon="6.19912">
        <ele>1020.200012207</ele>
        <time>2016-07-14T07:46:30.000Z</time>
      </trkpt>
      <trkpt lat="44.57717" lon="6.19888">
        <ele>1019.5999755859</ele>
        <time>2016-07-14T07:46:45.000Z</time>
      </trkpt>
      <trkpt lat="44.57721" lon="6.19881">
        <ele>1019.4000244141</ele>
        <time>2016-07-14T07:46:50.000Z</time>
      </trkpt>
      <trkpt lat="44.57727" lon="6.19871">
        <ele>1019.200012207</ele>
        <time>2016-07-14T07:46:58.000Z</time>
      </trkpt>
      <trkpt lat="44.57728" lon="6.1987">
        <ele>1019.200012207</ele>
        <time>2016-07-14T07:46:59.000Z</time>
      </trkpt>
      <trkpt lat="44.57738" lon="6.19859">
        <ele>1019.5999755859</ele>
        <time>2016-07-14T07:47:08.000Z</time>
      </trkpt>
      <trkpt lat="44.57747" lon="6.1985">
        <ele>1020</ele>
        <time>2016-07-14T07:47:13.000Z</time>
      </trkpt>
      <trkpt lat="44.57758" lon="6.19835">
        <ele>1020.4000244141</ele>
        <time>2016-07-14T07:47:19.000Z</time>
      </trkpt>
      <trkpt lat="44.57761" lon="6.19824">
        <ele>1020</ele>
        <time>2016-07-14T07:47:24.000Z</time>
      </trkpt>
      <trkpt lat="44.57765" lon="6.19814">
        <ele>1019.799987793</ele>
        <time>2016-07-14T07:47:31.000Z</time>
      </trkpt>
      <trkpt lat="44.57767" lon="6.1981">
        <ele>1019.799987793</ele>
        <time>2016-07-14T07:47:34.000Z</time>
      </trkpt>
      <trkpt lat="44.57761" lon="6.1981">
        <ele>1018.5999755859</ele>
        <time>2016-07-14T07:47:40.000Z</time>
      </trkpt>
      <trkpt lat="44.5776" lon="6.19809">
        <ele>1018.4000244141</ele>
        <time>2016-07-14T07:47:41.000Z</time>
      </trkpt>
      <trkpt lat="44.57755" lon="6.19774">
        <ele>1015.200012207</ele>
        <time>2016-07-14T07:47:58.000Z</time>
      </trkpt>
      <trkpt lat="44.57755" lon="6.19758">
        <ele>1013.5999755859</ele>
        <time>2016-07-14T07:48:05.000Z</time>
      </trkpt>
      <trkpt lat="44.57755" lon="6.1974">
        <ele>1012</ele>
        <time>2016-07-14T07:48:12.000Z</time>
      </trkpt>
      <trkpt lat="44.57761" lon="6.19729">
        <ele>1011.5999755859</ele>
        <time>2016-07-14T07:48:19.000Z</time>
      </trkpt>
      <trkpt lat="44.57767" lon="6.19714">
        <ele>1011.5999755859</ele>
        <time>2016-07-14T07:48:27.000Z</time>
      </trkpt>
      <trkpt lat="44.57765" lon="6.1968">
        <ele>1009.5999755859</ele>
        <time>2016-07-14T07:48:45.000Z</time>
      </trkpt>
      <trkpt lat="44.57764" lon="6.19676">
        <ele>1009.200012207</ele>
        <time>2016-07-14T07:48:47.000Z</time>
      </trkpt>
      <trkpt lat="44.57769" lon="6.1967">
        <ele>1009.799987793</ele>
        <time>2016-07-14T07:48:52.000Z</time>
      </trkpt>
      <trkpt lat="44.57775" lon="6.19666">
        <ele>1010.5999755859</ele>
        <time>2016-07-14T07:48:57.000Z</time>
      </trkpt>
      <trkpt lat="44.57777" lon="6.19661">
        <ele>1010.5999755859</ele>
        <time>2016-07-14T07:49:00.000Z</time>
      </trkpt>
      <trkpt lat="44.5777" lon="6.19652">
        <ele>1009.200012207</ele>
        <time>2016-07-14T07:49:06.000Z</time>
      </trkpt>
      <trkpt lat="44.57767" lon="6.19648">
        <ele>1008.4000244141</ele>
        <time>2016-07-14T07:49:11.000Z</time>
      </trkpt>
      <trkpt lat="44.57767" lon="6.19646">
        <ele>1008.200012207</ele>
        <time>2016-07-14T07:49:12.000Z</time>
      </trkpt>
      <trkpt lat="44.57771" lon="6.19637">
        <ele>1008</ele>
        <time>2016-07-14T07:49:17.000Z</time>
      </trkpt>
      <trkpt lat="44.57776" lon="6.19627">
        <ele>1008</ele>
        <time>2016-07-14T07:49:23.000Z</time>
      </trkpt>
      <trkpt lat="44.57775" lon="6.19626">
        <ele>1007.799987793</ele>
        <time>2016-07-14T07:49:28.000Z</time>
      </trkpt>
      <trkpt lat="44.5777" lon="6.19636">
        <ele>1007.799987793</ele>
        <time>2016-07-14T07:49:36.000Z</time>
      </trkpt>
      <trkpt lat="44.57768" lon="6.19639">
        <ele>1007.799987793</ele>
        <time>2016-07-14T07:49:38.000Z</time>
      </trkpt>
      <trkpt lat="44.57764" lon="6.19645">
        <ele>1007.799987793</ele>
        <time>2016-07-14T07:49:43.000Z</time>
      </trkpt>
      <trkpt lat="44.57762" lon="6.19647">
        <ele>1007.5999755859</ele>
        <time>2016-07-14T07:49:46.000Z</time>
      </trkpt>
      <trkpt lat="44.57759" lon="6.19653">
        <ele>1007.4000244141</ele>
        <time>2016-07-14T07:49:51.000Z</time>
      </trkpt>
      <trkpt lat="44.57756" lon="6.19651">
        <ele>1006.799987793</ele>
        <time>2016-07-14T07:49:55.000Z</time>
      </trkpt>
      <trkpt lat="44.57758" lon="6.19652">
        <ele>1007.200012207</ele>
        <time>2016-07-14T07:50:04.000Z</time>
      </trkpt>
      <trkpt lat="44.5776" lon="6.19659">
        <ele>1007.799987793</ele>
        <time>2016-07-14T07:50:09.000Z</time>
      </trkpt>
      <trkpt lat="44.57761" lon="6.1966">
        <ele>1008</ele>
        <time>2016-07-14T07:50:10.000Z</time>
      </trkpt>
      <trkpt lat="44.57764" lon="6.19665">
        <ele>1008.799987793</ele>
        <time>2016-07-14T07:50:14.000Z</time>
      </trkpt>
      <trkpt lat="44.57764" lon="6.1967">
        <ele>1009</ele>
        <time>2016-07-14T07:50:20.000Z</time>
      </trkpt>
      <trkpt lat="44.5776" lon="6.19675">
        <ele>1008.5999755859</ele>
        <time>2016-07-14T07:50:25.000Z</time>
      </trkpt>
      <trkpt lat="44.57752" lon="6.19676">
        <ele>1007.4000244141</ele>
        <time>2016-07-14T07:50:31.000Z</time>
      </trkpt>
      <trkpt lat="44.57747" lon="6.19667">
        <ele>1006.200012207</ele>
        <time>2016-07-14T07:50:37.000Z</time>
      </trkpt>
      <trkpt lat="44.57743" lon="6.19645">
        <ele>1004.5999755859</ele>
        <time>2016-07-14T07:50:49.000Z</time>
      </trkpt>
      <trkpt lat="44.57738" lon="6.19638">
        <ele>1003</ele>
        <time>2016-07-14T07:50:55.000Z</time>
      </trkpt>
      <trkpt lat="44.57732" lon="6.19629">
        <ele>1001</ele>
        <time>2016-07-14T07:51:02.000Z</time>
      </trkpt>
      <trkpt lat="44.5773" lon="6.19626">
        <ele>1000.4000244141</ele>
        <time>2016-07-14T07:51:04.000Z</time>
      </trkpt>
      <trkpt lat="44.57721" lon="6.19616">
        <ele>997.79998779297</ele>
        <time>2016-07-14T07:51:13.000Z</time>
      </trkpt>
      <trkpt lat="44.57713" lon="6.1961">
        <ele>996</ele>
        <time>2016-07-14T07:51:19.000Z</time>
      </trkpt>
      <trkpt lat="44.577" lon="6.19602">
        <ele>993</ele>
        <time>2016-07-14T07:51:29.000Z</time>
      </trkpt>
      <trkpt lat="44.57685" lon="6.19597">
        <ele>988.79998779297</ele>
        <time>2016-07-14T07:51:40.000Z</time>
      </trkpt>
      <trkpt lat="44.57673" lon="6.19586">
        <ele>984.79998779297</ele>
        <time>2016-07-14T07:51:51.000Z</time>
      </trkpt>
      <trkpt lat="44.57673" lon="6.19585">
        <ele>984.59997558594</ele>
        <time>2016-07-14T07:51:52.000Z</time>
      </trkpt>
      <trkpt lat="44.57673" lon="6.19584">
        <ele>984.59997558594</ele>
        <time>2016-07-14T07:51:53.000Z</time>
      </trkpt>
      <trkpt lat="44.57677" lon="6.19589">
        <ele>986.20001220703</ele>
        <time>2016-07-14T07:52:08.000Z</time>
      </trkpt>
      <trkpt lat="44.57678" lon="6.19591">
        <ele>986.59997558594</ele>
        <time>2016-07-14T07:52:09.000Z</time>
      </trkpt>
      <trkpt lat="44.57683" lon="6.19601">
        <ele>988.79998779297</ele>
        <time>2016-07-14T07:52:14.000Z</time>
      </trkpt>
      <trkpt lat="44.57682" lon="6.19604">
        <ele>989</ele>
        <time>2016-07-14T07:52:15.000Z</time>
      </trkpt>
      <trkpt lat="44.57684" lon="6.1962">
        <ele>991</ele>
        <time>2016-07-14T07:52:24.000Z</time>
      </trkpt>
      <trkpt lat="44.57689" lon="6.19629">
        <ele>993.40002441406</ele>
        <time>2016-07-14T07:52:31.000Z</time>
      </trkpt>
      <trkpt lat="44.57697" lon="6.19631">
        <ele>995.40002441406</ele>
        <time>2016-07-14T07:52:37.000Z</time>
      </trkpt>
      <trkpt lat="44.57699" lon="6.19634">
        <ele>996.40002441406</ele>
        <time>2016-07-14T07:52:40.000Z</time>
      </trkpt>
      <trkpt lat="44.57701" lon="6.19639">
        <ele>997.40002441406</ele>
        <time>2016-07-14T07:52:43.000Z</time>
      </trkpt>
      <trkpt lat="44.57699" lon="6.19647">
        <ele>997.59997558594</ele>
        <time>2016-07-14T07:52:47.000Z</time>
      </trkpt>
      <trkpt lat="44.57696" lon="6.19662">
        <ele>997.79998779297</ele>
        <time>2016-07-14T07:52:55.000Z</time>
      </trkpt>
      <trkpt lat="44.57697" lon="6.19663">
        <ele>997.79998779297</ele>
        <time>2016-07-14T07:52:56.000Z</time>
      </trkpt>
      <trkpt lat="44.577" lon="6.19675">
        <ele>999.40002441406</ele>
        <time>2016-07-14T07:53:04.000Z</time>
      </trkpt>
      <trkpt lat="44.57704" lon="6.19684">
        <ele>1000.799987793</ele>
        <time>2016-07-14T07:53:10.000Z</time>
      </trkpt>
      <trkpt lat="44.57713" lon="6.19691">
        <ele>1002.4000244141</ele>
        <time>2016-07-14T07:53:14.000Z</time>
      </trkpt>
      <trkpt lat="44.57716" lon="6.19693">
        <ele>1003</ele>
        <time>2016-07-14T07:53:15.000Z</time>
      </trkpt>
      <trkpt lat="44.57729" lon="6.19712">
        <ele>1006</ele>
        <time>2016-07-14T07:53:22.000Z</time>
      </trkpt>
      <trkpt lat="44.57737" lon="6.19725">
        <ele>1008</ele>
        <time>2016-07-14T07:53:27.000Z</time>
      </trkpt>
      <trkpt lat="44.57741" lon="6.19737">
        <ele>1009.5999755859</ele>
        <time>2016-07-14T07:53:33.000Z</time>
      </trkpt>
      <trkpt lat="44.57742" lon="6.19743">
        <ele>1010.200012207</ele>
        <time>2016-07-14T07:53:36.000Z</time>
      </trkpt>
      <trkpt lat="44.57739" lon="6.19747">
        <ele>1010.200012207</ele>
        <time>2016-07-14T07:53:40.000Z</time>
      </trkpt>
      <trkpt lat="44.57737" lon="6.19758">
        <ele>1011</ele>
        <time>2016-07-14T07:53:49.000Z</time>
      </trkpt>
      <trkpt lat="44.57738" lon="6.19761">
        <ele>1011.4000244141</ele>
        <time>2016-07-14T07:53:51.000Z</time>
      </trkpt>
      <trkpt lat="44.57743" lon="6.19762">
        <ele>1012.4000244141</ele>
        <time>2016-07-14T07:53:55.000Z</time>
      </trkpt>
      <trkpt lat="44.57752" lon="6.19758">
        <ele>1013.200012207</ele>
        <time>2016-07-14T07:54:01.000Z</time>
      </trkpt>
      <trkpt lat="44.57759" lon="6.19766">
        <ele>1015</ele>
        <time>2016-07-14T07:54:08.000Z</time>
      </trkpt>
      <trkpt lat="44.57759" lon="6.19778">
        <ele>1016.200012207</ele>
        <time>2016-07-14T07:54:14.000Z</time>
      </trkpt>
      <trkpt lat="44.57762" lon="6.19793">
        <ele>1017.799987793</ele>
        <time>2016-07-14T07:54:22.000Z</time>
      </trkpt>
      <trkpt lat="44.57765" lon="6.19807">
        <ele>1019.200012207</ele>
        <time>2016-07-14T07:54:29.000Z</time>
      </trkpt>
      <trkpt lat="44.57766" lon="6.19808">
        <ele>1019.5999755859</ele>
        <time>2016-07-14T07:54:30.000Z</time>
      </trkpt>
      <trkpt lat="44.57776" lon="6.19797">
        <ele>1020.4000244141</ele>
        <time>2016-07-14T07:54:42.000Z</time>
      </trkpt>
      <trkpt lat="44.5779" lon="6.19788">
        <ele>1021.799987793</ele>
        <time>2016-07-14T07:54:52.000Z</time>
      </trkpt>
      <trkpt lat="44.57795" lon="6.19771">
        <ele>1021</ele>
        <time>2016-07-14T07:54:57.000Z</time>
      </trkpt>
      <trkpt lat="44.57803" lon="6.19752">
        <ele>1020.5999755859</ele>
        <time>2016-07-14T07:55:03.000Z</time>
      </trkpt>
      <trkpt lat="44.57811" lon="6.19742">
        <ele>1021</ele>
        <time>2016-07-14T07:55:10.000Z</time>
      </trkpt>
      <trkpt lat="44.57825" lon="6.19732">
        <ele>1022.200012207</ele>
        <time>2016-07-14T07:55:21.000Z</time>
      </trkpt>
      <trkpt lat="44.57833" lon="6.19727">
        <ele>1023</ele>
        <time>2016-07-14T07:55:28.000Z</time>
      </trkpt>
      <trkpt lat="44.57847" lon="6.19722">
        <ele>1025.1999511719</ele>
        <time>2016-07-14T07:55:40.000Z</time>
      </trkpt>
      <trkpt lat="44.57848" lon="6.19719">
        <ele>1025.1999511719</ele>
        <time>2016-07-14T07:55:42.000Z</time>
      </trkpt>
      <trkpt lat="44.57848" lon="6.19704">
        <ele>1024.4000244141</ele>
        <time>2016-07-14T07:55:49.000Z</time>
      </trkpt>
      <trkpt lat="44.57844" lon="6.19687">
        <ele>1022.799987793</ele>
        <time>2016-07-14T07:55:58.000Z</time>
      </trkpt>
      <trkpt lat="44.57841" lon="6.19668">
        <ele>1021.200012207</ele>
        <time>2016-07-14T07:56:08.000Z</time>
      </trkpt>
      <trkpt lat="44.57838" lon="6.1965">
        <ele>1019.5999755859</ele>
        <time>2016-07-14T07:56:17.000Z</time>
      </trkpt>
      <trkpt lat="44.57834" lon="6.19632">
        <ele>1017.799987793</ele>
        <time>2016-07-14T07:56:26.000Z</time>
      </trkpt>
      <trkpt lat="44.57833" lon="6.19621">
        <ele>1017</ele>
        <time>2016-07-14T07:56:31.000Z</time>
      </trkpt>
      <trkpt lat="44.57838" lon="6.19615">
        <ele>1017.200012207</ele>
        <time>2016-07-14T07:56:38.000Z</time>
      </trkpt>
      <trkpt lat="44.57841" lon="6.196">
        <ele>1017.799987793</ele>
        <time>2016-07-14T07:56:48.000Z</time>
      </trkpt>
      <trkpt lat="44.57842" lon="6.1959">
        <ele>1018</ele>
        <time>2016-07-14T07:56:53.000Z</time>
      </trkpt>
      <trkpt lat="44.57845" lon="6.19574">
        <ele>1018.799987793</ele>
        <time>2016-07-14T07:57:01.000Z</time>
      </trkpt>
      <trkpt lat="44.57845" lon="6.19562">
        <ele>1018.799987793</ele>
        <time>2016-07-14T07:57:07.000Z</time>
      </trkpt>
      <trkpt lat="44.57853" lon="6.19559">
        <ele>1020.4000244141</ele>
        <time>2016-07-14T07:57:13.000Z</time>
      </trkpt>
      <trkpt lat="44.57856" lon="6.19549">
        <ele>1021</ele>
        <time>2016-07-14T07:57:20.000Z</time>
      </trkpt>
      <trkpt lat="44.57857" lon="6.19547">
        <ele>1021.200012207</ele>
        <time>2016-07-14T07:57:22.000Z</time>
      </trkpt>
      <trkpt lat="44.57862" lon="6.19539">
        <ele>1023</ele>
        <time>2016-07-14T07:57:27.000Z</time>
      </trkpt>
      <trkpt lat="44.57863" lon="6.19537">
        <ele>1023.200012207</ele>
        <time>2016-07-14T07:57:29.000Z</time>
      </trkpt>
      <trkpt lat="44.57866" lon="6.19529">
        <ele>1024.4000244141</ele>
        <time>2016-07-14T07:57:34.000Z</time>
      </trkpt>
      <trkpt lat="44.57866" lon="6.19517">
        <ele>1024.4000244141</ele>
        <time>2016-07-14T07:57:41.000Z</time>
      </trkpt>
      <trkpt lat="44.57866" lon="6.19507">
        <ele>1024.8000488281</ele>
        <time>2016-07-14T07:57:47.000Z</time>
      </trkpt>
      <trkpt lat="44.57863" lon="6.19503">
        <ele>1024</ele>
        <time>2016-07-14T07:57:52.000Z</time>
      </trkpt>
      <trkpt lat="44.57863" lon="6.19496">
        <ele>1024</ele>
        <time>2016-07-14T07:57:57.000Z</time>
      </trkpt>
      <trkpt lat="44.57869" lon="6.19488">
        <ele>1026</ele>
        <time>2016-07-14T07:58:04.000Z</time>
      </trkpt>
      <trkpt lat="44.5787" lon="6.19487">
        <ele>1026.5999755859</ele>
        <time>2016-07-14T07:58:05.000Z</time>
      </trkpt>
      <trkpt lat="44.57877" lon="6.19479">
        <ele>1028.4000244141</ele>
        <time>2016-07-14T07:58:12.000Z</time>
      </trkpt>
      <trkpt lat="44.57879" lon="6.19477">
        <ele>1028.8000488281</ele>
        <time>2016-07-14T07:58:17.000Z</time>
      </trkpt>
      <trkpt lat="44.57879" lon="6.19474">
        <ele>1028.8000488281</ele>
        <time>2016-07-14T07:58:28.000Z</time>
      </trkpt>
      <trkpt lat="44.57882" lon="6.19465">
        <ele>1029</ele>
        <time>2016-07-14T07:58:39.000Z</time>
      </trkpt>
      <trkpt lat="44.5788" lon="6.19444">
        <ele>1027.5999755859</ele>
        <time>2016-07-14T07:58:52.000Z</time>
      </trkpt>
      <trkpt lat="44.5788" lon="6.19442">
        <ele>1027.5999755859</ele>
        <time>2016-07-14T07:58:53.000Z</time>
      </trkpt>
      <trkpt lat="44.57887" lon="6.19433">
        <ele>1029</ele>
        <time>2016-07-14T07:59:00.000Z</time>
      </trkpt>
      <trkpt lat="44.57891" lon="6.19423">
        <ele>1029.4000244141</ele>
        <time>2016-07-14T07:59:06.000Z</time>
      </trkpt>
      <trkpt lat="44.57892" lon="6.19421">
        <ele>1029.5999755859</ele>
        <time>2016-07-14T07:59:07.000Z</time>
      </trkpt>
      <trkpt lat="44.579" lon="6.19413">
        <ele>1031.1999511719</ele>
        <time>2016-07-14T07:59:14.000Z</time>
      </trkpt>
      <trkpt lat="44.57901" lon="6.1941">
        <ele>1031.5999755859</ele>
        <time>2016-07-14T07:59:16.000Z</time>
      </trkpt>
      <trkpt lat="44.57905" lon="6.19403">
        <ele>1032</ele>
        <time>2016-07-14T07:59:22.000Z</time>
      </trkpt>
      <trkpt lat="44.57908" lon="6.19394">
        <ele>1032.4000244141</ele>
        <time>2016-07-14T07:59:27.000Z</time>
      </trkpt>
      <trkpt lat="44.57909" lon="6.19393">
        <ele>1032.5999755859</ele>
        <time>2016-07-14T07:59:28.000Z</time>
      </trkpt>
      <trkpt lat="44.5791" lon="6.1938">
        <ele>1031.4000244141</ele>
        <time>2016-07-14T07:59:35.000Z</time>
      </trkpt>
      <trkpt lat="44.57916" lon="6.1936">
        <ele>1030.4000244141</ele>
        <time>2016-07-14T07:59:48.000Z</time>
      </trkpt>
      <trkpt lat="44.57918" lon="6.19344">
        <ele>1030.1999511719</ele>
        <time>2016-07-14T07:59:56.000Z</time>
      </trkpt>
      <trkpt lat="44.57918" lon="6.19337">
        <ele>1029.8000488281</ele>
        <time>2016-07-14T08:00:00.000Z</time>
      </trkpt>
      <trkpt lat="44.57919" lon="6.19333">
        <ele>1029.5999755859</ele>
        <time>2016-07-14T08:00:02.000Z</time>
      </trkpt>
      <trkpt lat="44.57923" lon="6.19321">
        <ele>1030.4000244141</ele>
        <time>2016-07-14T08:00:09.000Z</time>
      </trkpt>
      <trkpt lat="44.57927" lon="6.19311">
        <ele>1031</ele>
        <time>2016-07-14T08:00:16.000Z</time>
      </trkpt>
      <trkpt lat="44.57926" lon="6.19307">
        <ele>1030.4000244141</ele>
        <time>2016-07-14T08:00:18.000Z</time>
      </trkpt>
      <trkpt lat="44.57929" lon="6.19299">
        <ele>1030.1999511719</ele>
        <time>2016-07-14T08:00:22.000Z</time>
      </trkpt>
      <trkpt lat="44.57934" lon="6.1929">
        <ele>1031</ele>
        <time>2016-07-14T08:00:29.000Z</time>
      </trkpt>
      <trkpt lat="44.5794" lon="6.19275">
        <ele>1031.8000488281</ele>
        <time>2016-07-14T08:00:37.000Z</time>
      </trkpt>
      <trkpt lat="44.57941" lon="6.19274">
        <ele>1032</ele>
        <time>2016-07-14T08:00:38.000Z</time>
      </trkpt>
      <trkpt lat="44.57943" lon="6.19263">
        <ele>1032</ele>
        <time>2016-07-14T08:00:43.000Z</time>
      </trkpt>
      <trkpt lat="44.57951" lon="6.19251">
        <ele>1033.5999755859</ele>
        <time>2016-07-14T08:00:52.000Z</time>
      </trkpt>
      <trkpt lat="44.57955" lon="6.19248">
        <ele>1034.5999755859</ele>
        <time>2016-07-14T08:00:57.000Z</time>
      </trkpt>
      <trkpt lat="44.57961" lon="6.19241">
        <ele>1036</ele>
        <time>2016-07-14T08:01:04.000Z</time>
      </trkpt>
      <trkpt lat="44.57969" lon="6.19232">
        <ele>1037.1999511719</ele>
        <time>2016-07-14T08:01:12.000Z</time>
      </trkpt>
      <trkpt lat="44.57971" lon="6.19232">
        <ele>1037.5999755859</ele>
        <time>2016-07-14T08:01:13.000Z</time>
      </trkpt>
      <trkpt lat="44.57973" lon="6.19226">
        <ele>1037.5999755859</ele>
        <time>2016-07-14T08:01:24.000Z</time>
      </trkpt>
      <trkpt lat="44.57974" lon="6.19224">
        <ele>1037.5999755859</ele>
        <time>2016-07-14T08:01:27.000Z</time>
      </trkpt>
      <trkpt lat="44.57975" lon="6.19218">
        <ele>1037.4000244141</ele>
        <time>2016-07-14T08:01:34.000Z</time>
      </trkpt>
      <trkpt lat="44.57976" lon="6.19216">
        <ele>1037.5999755859</ele>
        <time>2016-07-14T08:01:35.000Z</time>
      </trkpt>
      <trkpt lat="44.57978" lon="6.1921">
        <ele>1037.8000488281</ele>
        <time>2016-07-14T08:01:39.000Z</time>
      </trkpt>
      <trkpt lat="44.57979" lon="6.19207">
        <ele>1037.8000488281</ele>
        <time>2016-07-14T08:01:41.000Z</time>
      </trkpt>
      <trkpt lat="44.57978" lon="6.19204">
        <ele>1037.4000244141</ele>
        <time>2016-07-14T08:01:49.000Z</time>
      </trkpt>
      <trkpt lat="44.57977" lon="6.19195">
        <ele>1036.4000244141</ele>
        <time>2016-07-14T08:02:06.000Z</time>
      </trkpt>
      <trkpt lat="44.57972" lon="6.19177">
        <ele>1033.5999755859</ele>
        <time>2016-07-14T08:02:17.000Z</time>
      </trkpt>
      <trkpt lat="44.57968" lon="6.19168">
        <ele>1032</ele>
        <time>2016-07-14T08:02:23.000Z</time>
      </trkpt>
      <trkpt lat="44.57963" lon="6.19153">
        <ele>1029.8000488281</ele>
        <time>2016-07-14T08:02:31.000Z</time>
      </trkpt>
      <trkpt lat="44.57956" lon="6.19131">
        <ele>1027</ele>
        <time>2016-07-14T08:02:43.000Z</time>
      </trkpt>
      <trkpt lat="44.57954" lon="6.19113">
        <ele>1026</ele>
        <time>2016-07-14T08:02:52.000Z</time>
      </trkpt>
      <trkpt lat="44.57952" lon="6.19101">
        <ele>1025.1999511719</ele>
        <time>2016-07-14T08:02:58.000Z</time>
      </trkpt>
      <trkpt lat="44.5795" lon="6.19082">
        <ele>1024.1999511719</ele>
        <time>2016-07-14T08:03:07.000Z</time>
      </trkpt>
      <trkpt lat="44.5795" lon="6.19068">
        <ele>1023.799987793</ele>
        <time>2016-07-14T08:03:14.000Z</time>
      </trkpt>
      <trkpt lat="44.5795" lon="6.19057">
        <ele>1023.4000244141</ele>
        <time>2016-07-14T08:03:20.000Z</time>
      </trkpt>
      <trkpt lat="44.5795" lon="6.19036">
        <ele>1022.200012207</ele>
        <time>2016-07-14T08:03:29.000Z</time>
      </trkpt>
      <trkpt lat="44.57952" lon="6.19012">
        <ele>1021.4000244141</ele>
        <time>2016-07-14T08:03:41.000Z</time>
      </trkpt>
      <trkpt lat="44.57953" lon="6.19008">
        <ele>1021.4000244141</ele>
        <time>2016-07-14T08:03:43.000Z</time>
      </trkpt>
      <trkpt lat="44.57958" lon="6.18991">
        <ele>1021.799987793</ele>
        <time>2016-07-14T08:03:52.000Z</time>
      </trkpt>
      <trkpt lat="44.5796" lon="6.18982">
        <ele>1022</ele>
        <time>2016-07-14T08:03:57.000Z</time>
      </trkpt>
      <trkpt lat="44.57965" lon="6.1897">
        <ele>1022.799987793</ele>
        <time>2016-07-14T08:04:04.000Z</time>
      </trkpt>
      <trkpt lat="44.57969" lon="6.18961">
        <ele>1023.5999755859</ele>
        <time>2016-07-14T08:04:10.000Z</time>
      </trkpt>
      <trkpt lat="44.57979" lon="6.18948">
        <ele>1025.8000488281</ele>
        <time>2016-07-14T08:04:20.000Z</time>
      </trkpt>
      <trkpt lat="44.57989" lon="6.1894">
        <ele>1028.4000244141</ele>
        <time>2016-07-14T08:04:28.000Z</time>
      </trkpt>
      <trkpt lat="44.58001" lon="6.18936">
        <ele>1031.4000244141</ele>
        <time>2016-07-14T08:04:37.000Z</time>
      </trkpt>
      <trkpt lat="44.58012" lon="6.18934">
        <ele>1033.5999755859</ele>
        <time>2016-07-14T08:04:45.000Z</time>
      </trkpt>
      <trkpt lat="44.58027" lon="6.18919">
        <ele>1035.1999511719</ele>
        <time>2016-07-14T08:04:58.000Z</time>
      </trkpt>
      <trkpt lat="44.58037" lon="6.18907">
        <ele>1036</ele>
        <time>2016-07-14T08:05:08.000Z</time>
      </trkpt>
      <trkpt lat="44.58044" lon="6.189">
        <ele>1036.8000488281</ele>
        <time>2016-07-14T08:05:16.000Z</time>
      </trkpt>
      <trkpt lat="44.58045" lon="6.189">
        <ele>1037</ele>
        <time>2016-07-14T08:05:17.000Z</time>
      </trkpt>
      <trkpt lat="44.58049" lon="6.18908">
        <ele>1038.8000488281</ele>
        <time>2016-07-14T08:05:24.000Z</time>
      </trkpt>
      <trkpt lat="44.58053" lon="6.18914">
        <ele>1040.4000244141</ele>
        <time>2016-07-14T08:05:28.000Z</time>
      </trkpt>
      <trkpt lat="44.58053" lon="6.18934">
        <ele>1043</ele>
        <time>2016-07-14T08:05:40.000Z</time>
      </trkpt>
      <trkpt lat="44.58034" lon="6.18948">
        <ele>1041</ele>
        <time>2016-07-14T08:05:56.000Z</time>
      </trkpt>
      <trkpt lat="44.58031" lon="6.18957">
        <ele>1041.1999511719</ele>
        <time>2016-07-14T08:06:02.000Z</time>
      </trkpt>
      <trkpt lat="44.58034" lon="6.18971">
        <ele>1043.8000488281</ele>
        <time>2016-07-14T08:06:10.000Z</time>
      </trkpt>
      <trkpt lat="44.58038" lon="6.18971">
        <ele>1044.8000488281</ele>
        <time>2016-07-14T08:06:14.000Z</time>
      </trkpt>
      <trkpt lat="44.5805" lon="6.18963">
        <ele>1046.4000244141</ele>
        <time>2016-07-14T08:06:23.000Z</time>
      </trkpt>
      <trkpt lat="44.58059" lon="6.18953">
        <ele>1046.8000488281</ele>
        <time>2016-07-14T08:06:31.000Z</time>
      </trkpt>
      <trkpt lat="44.58071" lon="6.18943">
        <ele>1048</ele>
        <time>2016-07-14T08:06:41.000Z</time>
      </trkpt>
      <trkpt lat="44.58077" lon="6.18944">
        <ele>1049.5999755859</ele>
        <time>2016-07-14T08:06:47.000Z</time>
      </trkpt>
      <trkpt lat="44.58078" lon="6.18946">
        <ele>1050</ele>
        <time>2016-07-14T08:06:48.000Z</time>
      </trkpt>
      <trkpt lat="44.58078" lon="6.18956">
        <ele>1051.4000244141</ele>
        <time>2016-07-14T08:06:53.000Z</time>
      </trkpt>
      <trkpt lat="44.58076" lon="6.1896">
        <ele>1051.5999755859</ele>
        <time>2016-07-14T08:06:56.000Z</time>
      </trkpt>
      <trkpt lat="44.58072" lon="6.18977">
        <ele>1052.8000488281</ele>
        <time>2016-07-14T08:07:05.000Z</time>
      </trkpt>
      <trkpt lat="44.58073" lon="6.18994">
        <ele>1054.8000488281</ele>
        <time>2016-07-14T08:07:14.000Z</time>
      </trkpt>
      <trkpt lat="44.58075" lon="6.18995">
        <ele>1055.4000244141</ele>
        <time>2016-07-14T08:07:16.000Z</time>
      </trkpt>
      <trkpt lat="44.58083" lon="6.18993">
        <ele>1056.8000488281</ele>
        <time>2016-07-14T08:07:22.000Z</time>
      </trkpt>
      <trkpt lat="44.58084" lon="6.18992">
        <ele>1057</ele>
        <time>2016-07-14T08:07:23.000Z</time>
      </trkpt>
      <trkpt lat="44.58089" lon="6.18984">
        <ele>1057.1999511719</ele>
        <time>2016-07-14T08:07:29.000Z</time>
      </trkpt>
      <trkpt lat="44.58094" lon="6.18962">
        <ele>1055.5999755859</ele>
        <time>2016-07-14T08:07:41.000Z</time>
      </trkpt>
      <trkpt lat="44.58109" lon="6.18965">
        <ele>1059.4000244141</ele>
        <time>2016-07-14T08:07:54.000Z</time>
      </trkpt>
      <trkpt lat="44.58109" lon="6.18966">
        <ele>1059.5999755859</ele>
        <time>2016-07-14T08:07:56.000Z</time>
      </trkpt>
      <trkpt lat="44.58111" lon="6.18972">
        <ele>1060.5999755859</ele>
        <time>2016-07-14T08:07:58.000Z</time>
      </trkpt>
      <trkpt lat="44.58118" lon="6.18987">
        <ele>1064</ele>
        <time>2016-07-14T08:08:08.000Z</time>
      </trkpt>
      <trkpt lat="44.58124" lon="6.19005">
        <ele>1067.1999511719</ele>
        <time>2016-07-14T08:08:18.000Z</time>
      </trkpt>
      <trkpt lat="44.58128" lon="6.19018">
        <ele>1069.4000244141</ele>
        <time>2016-07-14T08:08:26.000Z</time>
      </trkpt>
      <trkpt lat="44.5813" lon="6.19046">
        <ele>1072.8000488281</ele>
        <time>2016-07-14T08:08:42.000Z</time>
      </trkpt>
      <trkpt lat="44.58131" lon="6.1906">
        <ele>1074.1999511719</ele>
        <time>2016-07-14T08:08:51.000Z</time>
      </trkpt>
      <trkpt lat="44.58132" lon="6.19073">
        <ele>1076</ele>
        <time>2016-07-14T08:08:58.000Z</time>
      </trkpt>
      <trkpt lat="44.5813" lon="6.19087">
        <ele>1076.5999755859</ele>
        <time>2016-07-14T08:09:06.000Z</time>
      </trkpt>
      <trkpt lat="44.58129" lon="6.19096">
        <ele>1076.8000488281</ele>
        <time>2016-07-14T08:09:13.000Z</time>
      </trkpt>
      <trkpt lat="44.58127" lon="6.1911">
        <ele>1077.1999511719</ele>
        <time>2016-07-14T08:09:21.000Z</time>
      </trkpt>
      <trkpt lat="44.58128" lon="6.1912">
        <ele>1078.4000244141</ele>
        <time>2016-07-14T08:09:27.000Z</time>
      </trkpt>
      <trkpt lat="44.58133" lon="6.1912">
        <ele>1079.8000488281</ele>
        <time>2016-07-14T08:09:32.000Z</time>
      </trkpt>
      <trkpt lat="44.58136" lon="6.19117">
        <ele>1080.4000244141</ele>
        <time>2016-07-14T08:09:34.000Z</time>
      </trkpt>
      <trkpt lat="44.58142" lon="6.19098">
        <ele>1081</ele>
        <time>2016-07-14T08:09:45.000Z</time>
      </trkpt>
      <trkpt lat="44.58145" lon="6.1908">
        <ele>1080.4000244141</ele>
        <time>2016-07-14T08:09:55.000Z</time>
      </trkpt>
      <trkpt lat="44.58149" lon="6.19065">
        <ele>1079.5999755859</ele>
        <time>2016-07-14T08:10:04.000Z</time>
      </trkpt>
      <trkpt lat="44.58156" lon="6.19056">
        <ele>1080.4000244141</ele>
        <time>2016-07-14T08:10:10.000Z</time>
      </trkpt>
      <trkpt lat="44.5816" lon="6.19051">
        <ele>1081.1999511719</ele>
        <time>2016-07-14T08:10:14.000Z</time>
      </trkpt>
      <trkpt lat="44.58165" lon="6.19052">
        <ele>1082.5999755859</ele>
        <time>2016-07-14T08:10:18.000Z</time>
      </trkpt>
      <trkpt lat="44.58168" lon="6.19058">
        <ele>1083.8000488281</ele>
        <time>2016-07-14T08:10:22.000Z</time>
      </trkpt>
      <trkpt lat="44.58168" lon="6.19075">
        <ele>1085.8000488281</ele>
        <time>2016-07-14T08:10:31.000Z</time>
      </trkpt>
      <trkpt lat="44.58163" lon="6.19111">
        <ele>1088.5999755859</ele>
        <time>2016-07-14T08:10:53.000Z</time>
      </trkpt>
      <trkpt lat="44.58167" lon="6.19121">
        <ele>1090.5999755859</ele>
        <time>2016-07-14T08:11:00.000Z</time>
      </trkpt>
      <trkpt lat="44.58169" lon="6.19121">
        <ele>1091</ele>
        <time>2016-07-14T08:11:01.000Z</time>
      </trkpt>
      <trkpt lat="44.58172" lon="6.19122">
        <ele>1092.1999511719</ele>
        <time>2016-07-14T08:11:04.000Z</time>
      </trkpt>
      <trkpt lat="44.58179" lon="6.19118">
        <ele>1094</ele>
        <time>2016-07-14T08:11:10.000Z</time>
      </trkpt>
      <trkpt lat="44.58189" lon="6.19107">
        <ele>1095.1999511719</ele>
        <time>2016-07-14T08:11:20.000Z</time>
      </trkpt>
      <trkpt lat="44.58195" lon="6.19098">
        <ele>1095.5999755859</ele>
        <time>2016-07-14T08:11:26.000Z</time>
      </trkpt>
      <trkpt lat="44.58199" lon="6.19089">
        <ele>1095.5999755859</ele>
        <time>2016-07-14T08:11:32.000Z</time>
      </trkpt>
      <trkpt lat="44.58205" lon="6.19074">
        <ele>1095.4000244141</ele>
        <time>2016-07-14T08:11:42.000Z</time>
      </trkpt>
      <trkpt lat="44.58211" lon="6.19057">
        <ele>1095.4000244141</ele>
        <time>2016-07-14T08:11:52.000Z</time>
      </trkpt>
      <trkpt lat="44.58217" lon="6.19052">
        <ele>1097</ele>
        <time>2016-07-14T08:11:57.000Z</time>
      </trkpt>
      <trkpt lat="44.58225" lon="6.19057">
        <ele>1099.8000488281</ele>
        <time>2016-07-14T08:12:04.000Z</time>
      </trkpt>
      <trkpt lat="44.58232" lon="6.19067">
        <ele>1102.5999755859</ele>
        <time>2016-07-14T08:12:11.000Z</time>
      </trkpt>
      <trkpt lat="44.58232" lon="6.19078">
        <ele>1103.8000488281</ele>
        <time>2016-07-14T08:12:17.000Z</time>
      </trkpt>
      <trkpt lat="44.58229" lon="6.19086">
        <ele>1103.4000244141</ele>
        <time>2016-07-14T08:12:22.000Z</time>
      </trkpt>
      <trkpt lat="44.58225" lon="6.19098">
        <ele>1103.8000488281</ele>
        <time>2016-07-14T08:12:30.000Z</time>
      </trkpt>
      <trkpt lat="44.58224" lon="6.19103">
        <ele>1104.1999511719</ele>
        <time>2016-07-14T08:12:32.000Z</time>
      </trkpt>
      <trkpt lat="44.58224" lon="6.19111">
        <ele>1105.1999511719</ele>
        <time>2016-07-14T08:12:37.000Z</time>
      </trkpt>
      <trkpt lat="44.58223" lon="6.19125">
        <ele>1106.5999755859</ele>
        <time>2016-07-14T08:12:45.000Z</time>
      </trkpt>
      <trkpt lat="44.58226" lon="6.1913">
        <ele>1108</ele>
        <time>2016-07-14T08:12:49.000Z</time>
      </trkpt>
      <trkpt lat="44.58234" lon="6.19129">
        <ele>1110.1999511719</ele>
        <time>2016-07-14T08:12:56.000Z</time>
      </trkpt>
      <trkpt lat="44.58244" lon="6.19117">
        <ele>1111.4000244141</ele>
        <time>2016-07-14T08:13:06.000Z</time>
      </trkpt>
      <trkpt lat="44.58253" lon="6.19105">
        <ele>1112.5999755859</ele>
        <time>2016-07-14T08:13:14.000Z</time>
      </trkpt>
      <trkpt lat="44.58259" lon="6.19094">
        <ele>1113.4000244141</ele>
        <time>2016-07-14T08:13:22.000Z</time>
      </trkpt>
      <trkpt lat="44.58266" lon="6.19081">
        <ele>1114.4000244141</ele>
        <time>2016-07-14T08:13:31.000Z</time>
      </trkpt>
      <trkpt lat="44.58278" lon="6.19072">
        <ele>1117</ele>
        <time>2016-07-14T08:13:42.000Z</time>
      </trkpt>
      <trkpt lat="44.58281" lon="6.19074">
        <ele>1118.1999511719</ele>
        <time>2016-07-14T08:13:44.000Z</time>
      </trkpt>
      <trkpt lat="44.58286" lon="6.19087">
        <ele>1120.8000488281</ele>
        <time>2016-07-14T08:13:52.000Z</time>
      </trkpt>
      <trkpt lat="44.58285" lon="6.19102">
        <ele>1122</ele>
        <time>2016-07-14T08:14:01.000Z</time>
      </trkpt>
      <trkpt lat="44.58284" lon="6.19114">
        <ele>1122.8000488281</ele>
        <time>2016-07-14T08:14:07.000Z</time>
      </trkpt>
      <trkpt lat="44.58284" lon="6.19122">
        <ele>1123.8000488281</ele>
        <time>2016-07-14T08:14:12.000Z</time>
      </trkpt>
      <trkpt lat="44.58278" lon="6.19137">
        <ele>1123.1999511719</ele>
        <time>2016-07-14T08:14:22.000Z</time>
      </trkpt>
      <trkpt lat="44.58275" lon="6.1915">
        <ele>1123.5999755859</ele>
        <time>2016-07-14T08:14:30.000Z</time>
      </trkpt>
      <trkpt lat="44.58279" lon="6.19158">
        <ele>1125.5999755859</ele>
        <time>2016-07-14T08:14:36.000Z</time>
      </trkpt>
      <trkpt lat="44.58282" lon="6.19158">
        <ele>1126.5999755859</ele>
        <time>2016-07-14T08:14:39.000Z</time>
      </trkpt>
      <trkpt lat="44.58289" lon="6.19149">
        <ele>1127.5999755859</ele>
        <time>2016-07-14T08:14:46.000Z</time>
      </trkpt>
      <trkpt lat="44.58301" lon="6.19128">
        <ele>1128.5999755859</ele>
        <time>2016-07-14T08:15:00.000Z</time>
      </trkpt>
      <trkpt lat="44.58307" lon="6.1912">
        <ele>1129.4000244141</ele>
        <time>2016-07-14T08:15:06.000Z</time>
      </trkpt>
      <trkpt lat="44.58309" lon="6.19118">
        <ele>1130</ele>
        <time>2016-07-14T08:15:08.000Z</time>
      </trkpt>
      <trkpt lat="44.58316" lon="6.1912">
        <ele>1131.8000488281</ele>
        <time>2016-07-14T08:15:12.000Z</time>
      </trkpt>
      <trkpt lat="44.58318" lon="6.19131">
        <ele>1133.4000244141</ele>
        <time>2016-07-14T08:15:20.000Z</time>
      </trkpt>
      <trkpt lat="44.58316" lon="6.19143">
        <ele>1134</ele>
        <time>2016-07-14T08:15:26.000Z</time>
      </trkpt>
      <trkpt lat="44.58309" lon="6.19154">
        <ele>1133.4000244141</ele>
        <time>2016-07-14T08:15:34.000Z</time>
      </trkpt>
      <trkpt lat="44.58304" lon="6.19171">
        <ele>1133.4000244141</ele>
        <time>2016-07-14T08:15:44.000Z</time>
      </trkpt>
      <trkpt lat="44.58314" lon="6.19177">
        <ele>1136.8000488281</ele>
        <time>2016-07-14T08:15:56.000Z</time>
      </trkpt>
      <trkpt lat="44.58326" lon="6.19158">
        <ele>1138.1999511719</ele>
        <time>2016-07-14T08:16:10.000Z</time>
      </trkpt>
      <trkpt lat="44.58335" lon="6.19142">
        <ele>1138.8000488281</ele>
        <time>2016-07-14T08:16:20.000Z</time>
      </trkpt>
      <trkpt lat="44.58345" lon="6.19125">
        <ele>1140</ele>
        <time>2016-07-14T08:16:31.000Z</time>
      </trkpt>
      <trkpt lat="44.58354" lon="6.19111">
        <ele>1141</ele>
        <time>2016-07-14T08:16:41.000Z</time>
      </trkpt>
      <trkpt lat="44.5837" lon="6.19099">
        <ele>1144</ele>
        <time>2016-07-14T08:16:55.000Z</time>
      </trkpt>
      <trkpt lat="44.58372" lon="6.19101">
        <ele>1144.5999755859</ele>
        <time>2016-07-14T08:16:56.000Z</time>
      </trkpt>
      <trkpt lat="44.5837" lon="6.19118">
        <ele>1145.8000488281</ele>
        <time>2016-07-14T08:17:06.000Z</time>
      </trkpt>
      <trkpt lat="44.58366" lon="6.19133">
        <ele>1146.4000244141</ele>
        <time>2016-07-14T08:17:14.000Z</time>
      </trkpt>
      <trkpt lat="44.58368" lon="6.19142">
        <ele>1147.5999755859</ele>
        <time>2016-07-14T08:17:20.000Z</time>
      </trkpt>
      <trkpt lat="44.58375" lon="6.1914">
        <ele>1149</ele>
        <time>2016-07-14T08:17:26.000Z</time>
      </trkpt>
      <trkpt lat="44.58392" lon="6.19116">
        <ele>1150.4000244141</ele>
        <time>2016-07-14T08:17:44.000Z</time>
      </trkpt>
      <trkpt lat="44.58403" lon="6.19112">
        <ele>1152.5999755859</ele>
        <time>2016-07-14T08:17:53.000Z</time>
      </trkpt>
      <trkpt lat="44.5841" lon="6.19129">
        <ele>1155.5999755859</ele>
        <time>2016-07-14T08:18:05.000Z</time>
      </trkpt>
      <trkpt lat="44.58408" lon="6.19141">
        <ele>1156.4000244141</ele>
        <time>2016-07-14T08:18:12.000Z</time>
      </trkpt>
      <trkpt lat="44.584" lon="6.19158">
        <ele>1155.8000488281</ele>
        <time>2016-07-14T08:18:22.000Z</time>
      </trkpt>
      <trkpt lat="44.58392" lon="6.19174">
        <ele>1155.5999755859</ele>
        <time>2016-07-14T08:18:32.000Z</time>
      </trkpt>
      <trkpt lat="44.58386" lon="6.19191">
        <ele>1156</ele>
        <time>2016-07-14T08:18:42.000Z</time>
      </trkpt>
      <trkpt lat="44.58393" lon="6.19214">
        <ele>1159.8000488281</ele>
        <time>2016-07-14T08:18:56.000Z</time>
      </trkpt>
      <trkpt lat="44.58401" lon="6.19219">
        <ele>1161.8000488281</ele>
        <time>2016-07-14T08:19:04.000Z</time>
      </trkpt>
      <trkpt lat="44.58403" lon="6.1922">
        <ele>1162.1999511719</ele>
        <time>2016-07-14T08:19:06.000Z</time>
      </trkpt>
      <trkpt lat="44.58407" lon="6.1922">
        <ele>1163.1999511719</ele>
        <time>2016-07-14T08:19:10.000Z</time>
      </trkpt>
      <trkpt lat="44.58421" lon="6.19219">
        <ele>1165.8000488281</ele>
        <time>2016-07-14T08:19:20.000Z</time>
      </trkpt>
      <trkpt lat="44.58432" lon="6.19218">
        <ele>1168</ele>
        <time>2016-07-14T08:19:29.000Z</time>
      </trkpt>
      <trkpt lat="44.58439" lon="6.19226">
        <ele>1170.1999511719</ele>
        <time>2016-07-14T08:19:36.000Z</time>
      </trkpt>
      <trkpt lat="44.58436" lon="6.19242">
        <ele>1171.4000244141</ele>
        <time>2016-07-14T08:19:46.000Z</time>
      </trkpt>
      <trkpt lat="44.58427" lon="6.19258">
        <ele>1171.1999511719</ele>
        <time>2016-07-14T08:19:56.000Z</time>
      </trkpt>
      <trkpt lat="44.58422" lon="6.19271">
        <ele>1171.8000488281</ele>
        <time>2016-07-14T08:20:05.000Z</time>
      </trkpt>
      <trkpt lat="44.58421" lon="6.19289">
        <ele>1173.1999511719</ele>
        <time>2016-07-14T08:20:14.000Z</time>
      </trkpt>
      <trkpt lat="44.58425" lon="6.19307">
        <ele>1176</ele>
        <time>2016-07-14T08:20:24.000Z</time>
      </trkpt>
      <trkpt lat="44.58433" lon="6.19313">
        <ele>1178</ele>
        <time>2016-07-14T08:20:31.000Z</time>
      </trkpt>
      <trkpt lat="44.58439" lon="6.19307">
        <ele>1179</ele>
        <time>2016-07-14T08:20:37.000Z</time>
      </trkpt>
      <trkpt lat="44.58449" lon="6.19295">
        <ele>1179.8000488281</ele>
        <time>2016-07-14T08:20:49.000Z</time>
      </trkpt>
      <trkpt lat="44.58454" lon="6.19294">
        <ele>1180.5999755859</ele>
        <time>2016-07-14T08:20:52.000Z</time>
      </trkpt>
      <trkpt lat="44.58464" lon="6.19282">
        <ele>1181.4000244141</ele>
        <time>2016-07-14T08:21:03.000Z</time>
      </trkpt>
      <trkpt lat="44.58474" lon="6.19275">
        <ele>1182.8000488281</ele>
        <time>2016-07-14T08:21:12.000Z</time>
      </trkpt>
      <trkpt lat="44.58485" lon="6.19265">
        <ele>1184.1999511719</ele>
        <time>2016-07-14T08:21:23.000Z</time>
      </trkpt>
      <trkpt lat="44.58493" lon="6.19254">
        <ele>1184.4000244141</ele>
        <time>2016-07-14T08:21:31.000Z</time>
      </trkpt>
      <trkpt lat="44.58502" lon="6.19237">
        <ele>1184</ele>
        <time>2016-07-14T08:21:42.000Z</time>
      </trkpt>
      <trkpt lat="44.58512" lon="6.19226">
        <ele>1184.4000244141</ele>
        <time>2016-07-14T08:21:52.000Z</time>
      </trkpt>
      <trkpt lat="44.58514" lon="6.19226">
        <ele>1184.8000488281</ele>
        <time>2016-07-14T08:21:55.000Z</time>
      </trkpt>
      <trkpt lat="44.58519" lon="6.1923">
        <ele>1186.1999511719</ele>
        <time>2016-07-14T08:21:59.000Z</time>
      </trkpt>
      <trkpt lat="44.58518" lon="6.19234">
        <ele>1186.5999755859</ele>
        <time>2016-07-14T08:22:01.000Z</time>
      </trkpt>
      <trkpt lat="44.58515" lon="6.19248">
        <ele>1187.8000488281</ele>
        <time>2016-07-14T08:22:08.000Z</time>
      </trkpt>
      <trkpt lat="44.58512" lon="6.19257">
        <ele>1188.5999755859</ele>
        <time>2016-07-14T08:22:14.000Z</time>
      </trkpt>
      <trkpt lat="44.58514" lon="6.19275">
        <ele>1191.1999511719</ele>
        <time>2016-07-14T08:22:26.000Z</time>
      </trkpt>
      <trkpt lat="44.58519" lon="6.19271">
        <ele>1191.5999755859</ele>
        <time>2016-07-14T08:22:39.000Z</time>
      </trkpt>
      <trkpt lat="44.58534" lon="6.19265">
        <ele>1193.5999755859</ele>
        <time>2016-07-14T08:22:50.000Z</time>
      </trkpt>
      <trkpt lat="44.58545" lon="6.19258">
        <ele>1195.1999511719</ele>
        <time>2016-07-14T08:22:59.000Z</time>
      </trkpt>
      <trkpt lat="44.58554" lon="6.19251">
        <ele>1196.1999511719</ele>
        <time>2016-07-14T08:23:07.000Z</time>
      </trkpt>
      <trkpt lat="44.58559" lon="6.19235">
        <ele>1196.1999511719</ele>
        <time>2016-07-14T08:23:16.000Z</time>
      </trkpt>
      <trkpt lat="44.58557" lon="6.19221">
        <ele>1194.5999755859</ele>
        <time>2016-07-14T08:23:24.000Z</time>
      </trkpt>
      <trkpt lat="44.58556" lon="6.1922">
        <ele>1194.4000244141</ele>
        <time>2016-07-14T08:23:25.000Z</time>
      </trkpt>
      <trkpt lat="44.58548" lon="6.19211">
        <ele>1191.8000488281</ele>
        <time>2016-07-14T08:23:32.000Z</time>
      </trkpt>
      <trkpt lat="44.58545" lon="6.19193">
        <ele>1190.4000244141</ele>
        <time>2016-07-14T08:23:41.000Z</time>
      </trkpt>
      <trkpt lat="44.58547" lon="6.19177">
        <ele>1190.1999511719</ele>
        <time>2016-07-14T08:23:49.000Z</time>
      </trkpt>
      <trkpt lat="44.58548" lon="6.19163">
        <ele>1190.1999511719</ele>
        <time>2016-07-14T08:23:57.000Z</time>
      </trkpt>
      <trkpt lat="44.5855" lon="6.19151">
        <ele>1190.1999511719</ele>
        <time>2016-07-14T08:24:04.000Z</time>
      </trkpt>
      <trkpt lat="44.5855" lon="6.19149">
        <ele>1190</ele>
        <time>2016-07-14T08:24:05.000Z</time>
      </trkpt>
      <trkpt lat="44.5855" lon="6.19141">
        <ele>1189.5999755859</ele>
        <time>2016-07-14T08:24:12.000Z</time>
      </trkpt>
      <trkpt lat="44.58557" lon="6.19126">
        <ele>1190.4000244141</ele>
        <time>2016-07-14T08:24:20.000Z</time>
      </trkpt>
      <trkpt lat="44.58558" lon="6.19124">
        <ele>1190.5999755859</ele>
        <time>2016-07-14T08:24:25.000Z</time>
      </trkpt>
      <trkpt lat="44.58565" lon="6.19113">
        <ele>1191.5999755859</ele>
        <time>2016-07-14T08:24:33.000Z</time>
      </trkpt>
      <trkpt lat="44.58573" lon="6.19106">
        <ele>1193.4000244141</ele>
        <time>2016-07-14T08:24:39.000Z</time>
      </trkpt>
      <trkpt lat="44.58581" lon="6.19094">
        <ele>1194</ele>
        <time>2016-07-14T08:24:47.000Z</time>
      </trkpt>
      <trkpt lat="44.58582" lon="6.19087">
        <ele>1193.5999755859</ele>
        <time>2016-07-14T08:24:53.000Z</time>
      </trkpt>
      <trkpt lat="44.58583" lon="6.19079">
        <ele>1193</ele>
        <time>2016-07-14T08:25:14.000Z</time>
      </trkpt>
      <trkpt lat="44.58584" lon="6.19063">
        <ele>1191.8000488281</ele>
        <time>2016-07-14T08:25:22.000Z</time>
      </trkpt>
      <trkpt lat="44.58596" lon="6.19008">
        <ele>1193.5999755859</ele>
        <time>2016-07-14T08:25:53.000Z</time>
      </trkpt>
      <trkpt lat="44.58603" lon="6.18999">
        <ele>1195</ele>
        <time>2016-07-14T08:26:00.000Z</time>
      </trkpt>
      <trkpt lat="44.58611" lon="6.18987">
        <ele>1196.5999755859</ele>
        <time>2016-07-14T08:26:09.000Z</time>
      </trkpt>
      <trkpt lat="44.58614" lon="6.1898">
        <ele>1197</ele>
        <time>2016-07-14T08:26:14.000Z</time>
      </trkpt>
      <trkpt lat="44.58617" lon="6.18965">
        <ele>1196.5999755859</ele>
        <time>2016-07-14T08:26:22.000Z</time>
      </trkpt>
      <trkpt lat="44.5862" lon="6.18949">
        <ele>1195.5999755859</ele>
        <time>2016-07-14T08:26:31.000Z</time>
      </trkpt>
      <trkpt lat="44.58626" lon="6.18929">
        <ele>1194.8000488281</ele>
        <time>2016-07-14T08:26:41.000Z</time>
      </trkpt>
      <trkpt lat="44.5863" lon="6.18913">
        <ele>1194.1999511719</ele>
        <time>2016-07-14T08:26:50.000Z</time>
      </trkpt>
      <trkpt lat="44.58632" lon="6.18909">
        <ele>1194.1999511719</ele>
        <time>2016-07-14T08:26:52.000Z</time>
      </trkpt>
      <trkpt lat="44.58635" lon="6.18903">
        <ele>1194.5999755859</ele>
        <time>2016-07-14T08:26:57.000Z</time>
      </trkpt>
      <trkpt lat="44.58636" lon="6.18905">
        <ele>1195</ele>
        <time>2016-07-14T08:27:01.000Z</time>
      </trkpt>
      <trkpt lat="44.58632" lon="6.18906">
        <ele>1194</ele>
        <time>2016-07-14T08:27:06.000Z</time>
      </trkpt>
      <trkpt lat="44.58628" lon="6.18902">
        <ele>1192.8000488281</ele>
        <time>2016-07-14T08:27:13.000Z</time>
      </trkpt>
      <trkpt lat="44.58628" lon="6.18901">
        <ele>1192.5999755859</ele>
        <time>2016-07-14T08:27:14.000Z</time>
      </trkpt>
      <trkpt lat="44.58627" lon="6.18892">
        <ele>1192</ele>
        <time>2016-07-14T08:27:19.000Z</time>
      </trkpt>
      <trkpt lat="44.58628" lon="6.18888">
        <ele>1192</ele>
        <time>2016-07-14T08:27:21.000Z</time>
      </trkpt>
      <trkpt lat="44.58633" lon="6.18879">
        <ele>1192.5999755859</ele>
        <time>2016-07-14T08:27:27.000Z</time>
      </trkpt>
      <trkpt lat="44.58634" lon="6.1887">
        <ele>1192</ele>
        <time>2016-07-14T08:27:34.000Z</time>
      </trkpt>
      <trkpt lat="44.58632" lon="6.18859">
        <ele>1191</ele>
        <time>2016-07-14T08:27:42.000Z</time>
      </trkpt>
      <trkpt lat="44.58633" lon="6.18845">
        <ele>1190.1999511719</ele>
        <time>2016-07-14T08:27:50.000Z</time>
      </trkpt>
      <trkpt lat="44.58634" lon="6.18839">
        <ele>1190</ele>
        <time>2016-07-14T08:27:52.000Z</time>
      </trkpt>
      <trkpt lat="44.58635" lon="6.18828">
        <ele>1189.4000244141</ele>
        <time>2016-07-14T08:27:59.000Z</time>
      </trkpt>
      <trkpt lat="44.58636" lon="6.1882">
        <ele>1188.8000488281</ele>
        <time>2016-07-14T08:28:05.000Z</time>
      </trkpt>
      <trkpt lat="44.58635" lon="6.18813">
        <ele>1188</ele>
        <time>2016-07-14T08:28:22.000Z</time>
      </trkpt>
      <trkpt lat="44.58634" lon="6.18806">
        <ele>1187.5999755859</ele>
        <time>2016-07-14T08:28:28.000Z</time>
      </trkpt>
      <trkpt lat="44.58632" lon="6.18795">
        <ele>1186.5999755859</ele>
        <time>2016-07-14T08:28:35.000Z</time>
      </trkpt>
      <trkpt lat="44.58632" lon="6.18792">
        <ele>1186.5999755859</ele>
        <time>2016-07-14T08:28:36.000Z</time>
      </trkpt>
      <trkpt lat="44.58635" lon="6.18781">
        <ele>1187</ele>
        <time>2016-07-14T08:28:42.000Z</time>
      </trkpt>
      <trkpt lat="44.58635" lon="6.18779">
        <ele>1187</ele>
        <time>2016-07-14T08:28:44.000Z</time>
      </trkpt>
      <trkpt lat="44.58633" lon="6.18772">
        <ele>1186</ele>
        <time>2016-07-14T08:28:48.000Z</time>
      </trkpt>
      <trkpt lat="44.58632" lon="6.18769">
        <ele>1185.5999755859</ele>
        <time>2016-07-14T08:28:50.000Z</time>
      </trkpt>
      <trkpt lat="44.58628" lon="6.18764">
        <ele>1184.5999755859</ele>
        <time>2016-07-14T08:28:54.000Z</time>
      </trkpt>
      <trkpt lat="44.58619" lon="6.18762">
        <ele>1182.4000244141</ele>
        <time>2016-07-14T08:29:02.000Z</time>
      </trkpt>
      <trkpt lat="44.58612" lon="6.18759">
        <ele>1181</ele>
        <time>2016-07-14T08:29:07.000Z</time>
      </trkpt>
      <trkpt lat="44.58615" lon="6.18744">
        <ele>1181</ele>
        <time>2016-07-14T08:29:16.000Z</time>
      </trkpt>
      <trkpt lat="44.58616" lon="6.18731">
        <ele>1180.8000488281</ele>
        <time>2016-07-14T08:29:23.000Z</time>
      </trkpt>
      <trkpt lat="44.58619" lon="6.18718">
        <ele>1180.8000488281</ele>
        <time>2016-07-14T08:29:30.000Z</time>
      </trkpt>
      <trkpt lat="44.58622" lon="6.18706">
        <ele>1181</ele>
        <time>2016-07-14T08:29:37.000Z</time>
      </trkpt>
      <trkpt lat="44.58623" lon="6.18695">
        <ele>1180.8000488281</ele>
        <time>2016-07-14T08:29:44.000Z</time>
      </trkpt>
      <trkpt lat="44.58623" lon="6.18683">
        <ele>1180.4000244141</ele>
        <time>2016-07-14T08:29:50.000Z</time>
      </trkpt>
      <trkpt lat="44.58621" lon="6.18677">
        <ele>1179.8000488281</ele>
        <time>2016-07-14T08:29:55.000Z</time>
      </trkpt>
      <trkpt lat="44.58621" lon="6.18673">
        <ele>1179.5999755859</ele>
        <time>2016-07-14T08:29:58.000Z</time>
      </trkpt>
      <trkpt lat="44.58622" lon="6.18645">
        <ele>1178.8000488281</ele>
        <time>2016-07-14T08:30:14.000Z</time>
      </trkpt>
      <trkpt lat="44.58623" lon="6.18631">
        <ele>1177.4000244141</ele>
        <time>2016-07-14T08:30:21.000Z</time>
      </trkpt>
      <trkpt lat="44.58626" lon="6.18616">
        <ele>1176.4000244141</ele>
        <time>2016-07-14T08:30:30.000Z</time>
      </trkpt>
      <trkpt lat="44.58629" lon="6.18607">
        <ele>1176.1999511719</ele>
        <time>2016-07-14T08:30:35.000Z</time>
      </trkpt>
      <trkpt lat="44.5863" lon="6.18604">
        <ele>1175.8000488281</ele>
        <time>2016-07-14T08:30:37.000Z</time>
      </trkpt>
      <trkpt lat="44.58633" lon="6.18597">
        <ele>1175.8000488281</ele>
        <time>2016-07-14T08:30:42.000Z</time>
      </trkpt>
      <trkpt lat="44.58634" lon="6.18594">
        <ele>1175.5999755859</ele>
        <time>2016-07-14T08:30:44.000Z</time>
      </trkpt>
      <trkpt lat="44.5864" lon="6.18574">
        <ele>1174.5999755859</ele>
        <time>2016-07-14T08:30:58.000Z</time>
      </trkpt>
      <trkpt lat="44.58644" lon="6.18569">
        <ele>1175</ele>
        <time>2016-07-14T08:31:18.000Z</time>
      </trkpt>
      <trkpt lat="44.58645" lon="6.18568">
        <ele>1175.1999511719</ele>
        <time>2016-07-14T08:31:19.000Z</time>
      </trkpt>
      <trkpt lat="44.58657" lon="6.18561">
        <ele>1176.8000488281</ele>
        <time>2016-07-14T08:31:29.000Z</time>
      </trkpt>
      <trkpt lat="44.58667" lon="6.18547">
        <ele>1178.5999755859</ele>
        <time>2016-07-14T08:31:39.000Z</time>
      </trkpt>
      <trkpt lat="44.58673" lon="6.18531">
        <ele>1179.4000244141</ele>
        <time>2016-07-14T08:31:48.000Z</time>
      </trkpt>
      <trkpt lat="44.58677" lon="6.18514">
        <ele>1179.4000244141</ele>
        <time>2016-07-14T08:31:57.000Z</time>
      </trkpt>
      <trkpt lat="44.58675" lon="6.18501">
        <ele>1178.4000244141</ele>
        <time>2016-07-14T08:32:04.000Z</time>
      </trkpt>
      <trkpt lat="44.58677" lon="6.18485">
        <ele>1177.8000488281</ele>
        <time>2016-07-14T08:32:12.000Z</time>
      </trkpt>
      <trkpt lat="44.5868" lon="6.18468">
        <ele>1178</ele>
        <time>2016-07-14T08:32:21.000Z</time>
      </trkpt>
      <trkpt lat="44.58685" lon="6.18447">
        <ele>1178.4000244141</ele>
        <time>2016-07-14T08:32:31.000Z</time>
      </trkpt>
      <trkpt lat="44.5869" lon="6.18424">
        <ele>1179.1999511719</ele>
        <time>2016-07-14T08:32:43.000Z</time>
      </trkpt>
      <trkpt lat="44.58693" lon="6.18409">
        <ele>1179.5999755859</ele>
        <time>2016-07-14T08:32:51.000Z</time>
      </trkpt>
      <trkpt lat="44.58696" lon="6.18388">
        <ele>1179.5999755859</ele>
        <time>2016-07-14T08:33:02.000Z</time>
      </trkpt>
      <trkpt lat="44.58696" lon="6.18381">
        <ele>1179.4000244141</ele>
        <time>2016-07-14T08:33:05.000Z</time>
      </trkpt>
      <trkpt lat="44.58698" lon="6.18368">
        <ele>1179.4000244141</ele>
        <time>2016-07-14T08:33:12.000Z</time>
      </trkpt>
      <trkpt lat="44.587" lon="6.18347">
        <ele>1179.5999755859</ele>
        <time>2016-07-14T08:33:22.000Z</time>
      </trkpt>
      <trkpt lat="44.58702" lon="6.18327">
        <ele>1179.5999755859</ele>
        <time>2016-07-14T08:33:32.000Z</time>
      </trkpt>
      <trkpt lat="44.58703" lon="6.18303">
        <ele>1179</ele>
        <time>2016-07-14T08:33:44.000Z</time>
      </trkpt>
      <trkpt lat="44.58703" lon="6.18287">
        <ele>1178.5999755859</ele>
        <time>2016-07-14T08:33:52.000Z</time>
      </trkpt>
      <trkpt lat="44.58708" lon="6.18274">
        <ele>1179.4000244141</ele>
        <time>2016-07-14T08:34:00.000Z</time>
      </trkpt>
      <trkpt lat="44.58716" lon="6.18259">
        <ele>1181</ele>
        <time>2016-07-14T08:34:10.000Z</time>
      </trkpt>
      <trkpt lat="44.58721" lon="6.18245">
        <ele>1182</ele>
        <time>2016-07-14T08:34:19.000Z</time>
      </trkpt>
      <trkpt lat="44.58725" lon="6.18226">
        <ele>1182.4000244141</ele>
        <time>2016-07-14T08:34:30.000Z</time>
      </trkpt>
      <trkpt lat="44.58728" lon="6.18212">
        <ele>1182.5999755859</ele>
        <time>2016-07-14T08:34:37.000Z</time>
      </trkpt>
      <trkpt lat="44.58732" lon="6.18197">
        <ele>1183.1999511719</ele>
        <time>2016-07-14T08:34:46.000Z</time>
      </trkpt>
      <trkpt lat="44.58733" lon="6.18191">
        <ele>1183.4000244141</ele>
        <time>2016-07-14T08:34:52.000Z</time>
      </trkpt>
      <trkpt lat="44.58734" lon="6.18188">
        <ele>1183.5999755859</ele>
        <time>2016-07-14T08:34:58.000Z</time>
      </trkpt>
      <trkpt lat="44.58737" lon="6.18181">
        <ele>1184.1999511719</ele>
        <time>2016-07-14T08:35:02.000Z</time>
      </trkpt>
      <trkpt lat="44.58746" lon="6.18164">
        <ele>1184</ele>
        <time>2016-07-14T08:35:13.000Z</time>
      </trkpt>
      <trkpt lat="44.58754" lon="6.18154">
        <ele>1184.8000488281</ele>
        <time>2016-07-14T08:35:21.000Z</time>
      </trkpt>
      <trkpt lat="44.58766" lon="6.18144">
        <ele>1186.1999511719</ele>
        <time>2016-07-14T08:35:30.000Z</time>
      </trkpt>
      <trkpt lat="44.58777" lon="6.18136">
        <ele>1188</ele>
        <time>2016-07-14T08:35:39.000Z</time>
      </trkpt>
      <trkpt lat="44.58786" lon="6.18125">
        <ele>1188.8000488281</ele>
        <time>2016-07-14T08:35:48.000Z</time>
      </trkpt>
      <trkpt lat="44.5879" lon="6.18114">
        <ele>1188.8000488281</ele>
        <time>2016-07-14T08:35:55.000Z</time>
      </trkpt>
      <trkpt lat="44.58797" lon="6.18101">
        <ele>1189</ele>
        <time>2016-07-14T08:36:04.000Z</time>
      </trkpt>
      <trkpt lat="44.588" lon="6.18097">
        <ele>1189.1999511719</ele>
        <time>2016-07-14T08:36:07.000Z</time>
      </trkpt>
      <trkpt lat="44.588" lon="6.18096">
        <ele>1189.1999511719</ele>
        <time>2016-07-14T08:36:17.000Z</time>
      </trkpt>
      <trkpt lat="44.58801" lon="6.18092">
        <ele>1189</ele>
        <time>2016-07-14T08:36:23.000Z</time>
      </trkpt>
      <trkpt lat="44.58801" lon="6.18089">
        <ele>1189</ele>
        <time>2016-07-14T08:36:27.000Z</time>
      </trkpt>
      <trkpt lat="44.588" lon="6.18075">
        <ele>1187.5999755859</ele>
        <time>2016-07-14T08:36:34.000Z</time>
      </trkpt>
      <trkpt lat="44.58805" lon="6.1806">
        <ele>1187.8000488281</ele>
        <time>2016-07-14T08:36:44.000Z</time>
      </trkpt>
      <trkpt lat="44.58817" lon="6.1805">
        <ele>1190</ele>
        <time>2016-07-14T08:36:56.000Z</time>
      </trkpt>
      <trkpt lat="44.58823" lon="6.18042">
        <ele>1191.1999511719</ele>
        <time>2016-07-14T08:37:03.000Z</time>
      </trkpt>
      <trkpt lat="44.58826" lon="6.18031">
        <ele>1191.5999755859</ele>
        <time>2016-07-14T08:37:11.000Z</time>
      </trkpt>
      <trkpt lat="44.58827" lon="6.18017">
        <ele>1191.5999755859</ele>
        <time>2016-07-14T08:37:19.000Z</time>
      </trkpt>
      <trkpt lat="44.58832" lon="6.18004">
        <ele>1192.8000488281</ele>
        <time>2016-07-14T08:37:27.000Z</time>
      </trkpt>
      <trkpt lat="44.58837" lon="6.17993">
        <ele>1194.1999511719</ele>
        <time>2016-07-14T08:37:34.000Z</time>
      </trkpt>
      <trkpt lat="44.58841" lon="6.1798">
        <ele>1195</ele>
        <time>2016-07-14T08:37:42.000Z</time>
      </trkpt>
      <trkpt lat="44.58841" lon="6.1796">
        <ele>1195</ele>
        <time>2016-07-14T08:37:52.000Z</time>
      </trkpt>
      <trkpt lat="44.58845" lon="6.17945">
        <ele>1195.4000244141</ele>
        <time>2016-07-14T08:38:01.000Z</time>
      </trkpt>
      <trkpt lat="44.5885" lon="6.17932">
        <ele>1195.5999755859</ele>
        <time>2016-07-14T08:38:09.000Z</time>
      </trkpt>
      <trkpt lat="44.58855" lon="6.17916">
        <ele>1195.5999755859</ele>
        <time>2016-07-14T08:38:17.000Z</time>
      </trkpt>
      <trkpt lat="44.58857" lon="6.17908">
        <ele>1195.5999755859</ele>
        <time>2016-07-14T08:38:21.000Z</time>
      </trkpt>
      <trkpt lat="44.58858" lon="6.179">
        <ele>1195.4000244141</ele>
        <time>2016-07-14T08:38:25.000Z</time>
      </trkpt>
      <trkpt lat="44.58862" lon="6.17886">
        <ele>1195</ele>
        <time>2016-07-14T08:38:32.000Z</time>
      </trkpt>
      <trkpt lat="44.58865" lon="6.17875">
        <ele>1195.1999511719</ele>
        <time>2016-07-14T08:38:38.000Z</time>
      </trkpt>
      <trkpt lat="44.58869" lon="6.17865">
        <ele>1195.4000244141</ele>
        <time>2016-07-14T08:38:44.000Z</time>
      </trkpt>
      <trkpt lat="44.58871" lon="6.17863">
        <ele>1195.5999755859</ele>
        <time>2016-07-14T08:38:46.000Z</time>
      </trkpt>
      <trkpt lat="44.58879" lon="6.17848">
        <ele>1196</ele>
        <time>2016-07-14T08:38:55.000Z</time>
      </trkpt>
      <trkpt lat="44.58885" lon="6.17837">
        <ele>1196.4000244141</ele>
        <time>2016-07-14T08:39:02.000Z</time>
      </trkpt>
      <trkpt lat="44.58893" lon="6.17825">
        <ele>1197</ele>
        <time>2016-07-14T08:39:10.000Z</time>
      </trkpt>
      <trkpt lat="44.58893" lon="6.17823">
        <ele>1197.1999511719</ele>
        <time>2016-07-14T08:39:11.000Z</time>
      </trkpt>
      <trkpt lat="44.58903" lon="6.17806">
        <ele>1197.8000488281</ele>
        <time>2016-07-14T08:39:22.000Z</time>
      </trkpt>
      <trkpt lat="44.58913" lon="6.17793">
        <ele>1198.4000244141</ele>
        <time>2016-07-14T08:39:31.000Z</time>
      </trkpt>
      <trkpt lat="44.58921" lon="6.17783">
        <ele>1199</ele>
        <time>2016-07-14T08:39:38.000Z</time>
      </trkpt>
      <trkpt lat="44.58931" lon="6.17769">
        <ele>1199.8000488281</ele>
        <time>2016-07-14T08:39:48.000Z</time>
      </trkpt>
      <trkpt lat="44.58941" lon="6.17758">
        <ele>1200.5999755859</ele>
        <time>2016-07-14T08:39:57.000Z</time>
      </trkpt>
      <trkpt lat="44.58952" lon="6.17741">
        <ele>1201.1999511719</ele>
        <time>2016-07-14T08:40:08.000Z</time>
      </trkpt>
      <trkpt lat="44.58963" lon="6.17722">
        <ele>1201.5999755859</ele>
        <time>2016-07-14T08:40:20.000Z</time>
      </trkpt>
      <trkpt lat="44.5897" lon="6.17705">
        <ele>1202</ele>
        <time>2016-07-14T08:40:30.000Z</time>
      </trkpt>
      <trkpt lat="44.58975" lon="6.17689">
        <ele>1202</ele>
        <time>2016-07-14T08:40:39.000Z</time>
      </trkpt>
      <trkpt lat="44.58979" lon="6.17676">
        <ele>1202.1999511719</ele>
        <time>2016-07-14T08:40:47.000Z</time>
      </trkpt>
      <trkpt lat="44.5898" lon="6.17664">
        <ele>1202</ele>
        <time>2016-07-14T08:40:54.000Z</time>
      </trkpt>
      <trkpt lat="44.58981" lon="6.17648">
        <ele>1201.8000488281</ele>
        <time>2016-07-14T08:41:02.000Z</time>
      </trkpt>
      <trkpt lat="44.58981" lon="6.17628">
        <ele>1201.4000244141</ele>
        <time>2016-07-14T08:41:11.000Z</time>
      </trkpt>
      <trkpt lat="44.58983" lon="6.17612">
        <ele>1201.5999755859</ele>
        <time>2016-07-14T08:41:19.000Z</time>
      </trkpt>
      <trkpt lat="44.58987" lon="6.17593">
        <ele>1202.1999511719</ele>
        <time>2016-07-14T08:41:29.000Z</time>
      </trkpt>
      <trkpt lat="44.58992" lon="6.17569">
        <ele>1203.5999755859</ele>
        <time>2016-07-14T08:41:42.000Z</time>
      </trkpt>
      <trkpt lat="44.58996" lon="6.17548">
        <ele>1204.4000244141</ele>
        <time>2016-07-14T08:41:53.000Z</time>
      </trkpt>
      <trkpt lat="44.59001" lon="6.17527">
        <ele>1205.1999511719</ele>
        <time>2016-07-14T08:42:04.000Z</time>
      </trkpt>
      <trkpt lat="44.59007" lon="6.1751">
        <ele>1205.4000244141</ele>
        <time>2016-07-14T08:42:13.000Z</time>
      </trkpt>
      <trkpt lat="44.59014" lon="6.17494">
        <ele>1206</ele>
        <time>2016-07-14T08:42:23.000Z</time>
      </trkpt>
      <trkpt lat="44.59019" lon="6.17488">
        <ele>1206.8000488281</ele>
        <time>2016-07-14T08:42:28.000Z</time>
      </trkpt>
      <trkpt lat="44.5902" lon="6.17488">
        <ele>1206.8000488281</ele>
        <time>2016-07-14T08:42:29.000Z</time>
      </trkpt>
      <trkpt lat="44.59018" lon="6.17488">
        <ele>1206.4000244141</ele>
        <time>2016-07-14T08:42:37.000Z</time>
      </trkpt>
      <trkpt lat="44.59016" lon="6.17488">
        <ele>1206.1999511719</ele>
        <time>2016-07-14T08:42:39.000Z</time>
      </trkpt>
      <trkpt lat="44.59014" lon="6.17491">
        <ele>1205.8000488281</ele>
        <time>2016-07-14T08:42:43.000Z</time>
      </trkpt>
      <trkpt lat="44.59013" lon="6.17494">
        <ele>1205.8000488281</ele>
        <time>2016-07-14T08:42:59.000Z</time>
      </trkpt>
      <trkpt lat="44.59017" lon="6.17491">
        <ele>1206.4000244141</ele>
        <time>2016-07-14T08:43:05.000Z</time>
      </trkpt>
      <trkpt lat="44.59021" lon="6.17485">
        <ele>1207</ele>
        <time>2016-07-14T08:43:12.000Z</time>
      </trkpt>
      <trkpt lat="44.59022" lon="6.17484">
        <ele>1207</ele>
        <time>2016-07-14T08:43:21.000Z</time>
      </trkpt>
      <trkpt lat="44.59026" lon="6.17483">
        <ele>1207.8000488281</ele>
        <time>2016-07-14T08:43:26.000Z</time>
      </trkpt>
      <trkpt lat="44.59034" lon="6.1748">
        <ele>1209</ele>
        <time>2016-07-14T08:43:32.000Z</time>
      </trkpt>
      <trkpt lat="44.59053" lon="6.17473">
        <ele>1212.5999755859</ele>
        <time>2016-07-14T08:43:48.000Z</time>
      </trkpt>
      <trkpt lat="44.59064" lon="6.17468">
        <ele>1214.8000488281</ele>
        <time>2016-07-14T08:43:57.000Z</time>
      </trkpt>
      <trkpt lat="44.59073" lon="6.17462">
        <ele>1216.5999755859</ele>
        <time>2016-07-14T08:44:06.000Z</time>
      </trkpt>
      <trkpt lat="44.59081" lon="6.17459">
        <ele>1218</ele>
        <time>2016-07-14T08:44:12.000Z</time>
      </trkpt>
      <trkpt lat="44.5909" lon="6.17458">
        <ele>1219.8000488281</ele>
        <time>2016-07-14T08:44:20.000Z</time>
      </trkpt>
      <trkpt lat="44.59099" lon="6.17456">
        <ele>1221.4000244141</ele>
        <time>2016-07-14T08:44:27.000Z</time>
      </trkpt>
      <trkpt lat="44.59107" lon="6.17454">
        <ele>1222.5999755859</ele>
        <time>2016-07-14T08:44:34.000Z</time>
      </trkpt>
      <trkpt lat="44.59114" lon="6.17451">
        <ele>1223.8000488281</ele>
        <time>2016-07-14T08:44:41.000Z</time>
      </trkpt>
      <trkpt lat="44.59123" lon="6.17452">
        <ele>1225.1999511719</ele>
        <time>2016-07-14T08:44:48.000Z</time>
      </trkpt>
      <trkpt lat="44.5913" lon="6.17459">
        <ele>1226.5999755859</ele>
        <time>2016-07-14T08:44:55.000Z</time>
      </trkpt>
      <trkpt lat="44.59132" lon="6.1747">
        <ele>1227.1999511719</ele>
        <time>2016-07-14T08:45:02.000Z</time>
      </trkpt>
      <trkpt lat="44.59133" lon="6.17472">
        <ele>1227.4000244141</ele>
        <time>2016-07-14T08:45:03.000Z</time>
      </trkpt>
      <trkpt lat="44.5914" lon="6.17474">
        <ele>1228.5999755859</ele>
        <time>2016-07-14T08:45:10.000Z</time>
      </trkpt>
      <trkpt lat="44.59142" lon="6.17471">
        <ele>1228.8000488281</ele>
        <time>2016-07-14T08:45:12.000Z</time>
      </trkpt>
      <trkpt lat="44.59147" lon="6.17457">
        <ele>1229.4000244141</ele>
        <time>2016-07-14T08:45:20.000Z</time>
      </trkpt>
      <trkpt lat="44.59156" lon="6.17446">
        <ele>1230.5999755859</ele>
        <time>2016-07-14T08:45:29.000Z</time>
      </trkpt>
      <trkpt lat="44.59163" lon="6.17438">
        <ele>1231.5999755859</ele>
        <time>2016-07-14T08:45:37.000Z</time>
      </trkpt>
      <trkpt lat="44.5917" lon="6.17426">
        <ele>1232.5999755859</ele>
        <time>2016-07-14T08:45:45.000Z</time>
      </trkpt>
      <trkpt lat="44.59172" lon="6.17407">
        <ele>1232.8000488281</ele>
        <time>2016-07-14T08:45:55.000Z</time>
      </trkpt>
      <trkpt lat="44.59172" lon="6.17394">
        <ele>1232.8000488281</ele>
        <time>2016-07-14T08:46:03.000Z</time>
      </trkpt>
      <trkpt lat="44.59174" lon="6.17391">
        <ele>1233</ele>
        <time>2016-07-14T08:46:08.000Z</time>
      </trkpt>
      <trkpt lat="44.59182" lon="6.17395">
        <ele>1234.4000244141</ele>
        <time>2016-07-14T08:46:15.000Z</time>
      </trkpt>
      <trkpt lat="44.59192" lon="6.174">
        <ele>1236.4000244141</ele>
        <time>2016-07-14T08:46:23.000Z</time>
      </trkpt>
      <trkpt lat="44.59208" lon="6.17403">
        <ele>1239.1999511719</ele>
        <time>2016-07-14T08:46:35.000Z</time>
      </trkpt>
      <trkpt lat="44.59218" lon="6.17407">
        <ele>1240.8000488281</ele>
        <time>2016-07-14T08:46:43.000Z</time>
      </trkpt>
      <trkpt lat="44.59229" lon="6.1741">
        <ele>1242.8000488281</ele>
        <time>2016-07-14T08:46:52.000Z</time>
      </trkpt>
      <trkpt lat="44.59237" lon="6.17413">
        <ele>1244.1999511719</ele>
        <time>2016-07-14T08:47:00.000Z</time>
      </trkpt>
      <trkpt lat="44.59244" lon="6.17416">
        <ele>1245.4000244141</ele>
        <time>2016-07-14T08:47:06.000Z</time>
      </trkpt>
      <trkpt lat="44.59254" lon="6.17416">
        <ele>1247.1999511719</ele>
        <time>2016-07-14T08:47:13.000Z</time>
      </trkpt>
      <trkpt lat="44.59266" lon="6.17419">
        <ele>1249.1999511719</ele>
        <time>2016-07-14T08:47:22.000Z</time>
      </trkpt>
      <trkpt lat="44.59275" lon="6.17421">
        <ele>1250.8000488281</ele>
        <time>2016-07-14T08:47:30.000Z</time>
      </trkpt>
      <trkpt lat="44.59284" lon="6.17431">
        <ele>1252.4000244141</ele>
        <time>2016-07-14T08:47:40.000Z</time>
      </trkpt>
      <trkpt lat="44.59289" lon="6.17436">
        <ele>1253.1999511719</ele>
        <time>2016-07-14T08:47:44.000Z</time>
      </trkpt>
      <trkpt lat="44.59297" lon="6.17443">
        <ele>1254.1999511719</ele>
        <time>2016-07-14T08:47:52.000Z</time>
      </trkpt>
      <trkpt lat="44.59302" lon="6.17447">
        <ele>1255</ele>
        <time>2016-07-14T08:47:59.000Z</time>
      </trkpt>
      <trkpt lat="44.59309" lon="6.17452">
        <ele>1256</ele>
        <time>2016-07-14T08:48:25.000Z</time>
      </trkpt>
      <trkpt lat="44.59317" lon="6.1746">
        <ele>1257.1999511719</ele>
        <time>2016-07-14T08:48:34.000Z</time>
      </trkpt>
      <trkpt lat="44.59324" lon="6.17467">
        <ele>1258.1999511719</ele>
        <time>2016-07-14T08:48:40.000Z</time>
      </trkpt>
      <trkpt lat="44.5933" lon="6.1747">
        <ele>1259.1999511719</ele>
        <time>2016-07-14T08:48:46.000Z</time>
      </trkpt>
      <trkpt lat="44.59334" lon="6.1746">
        <ele>1259.8000488281</ele>
        <time>2016-07-14T08:48:53.000Z</time>
      </trkpt>
      <trkpt lat="44.59334" lon="6.17446">
        <ele>1260</ele>
        <time>2016-07-14T08:49:01.000Z</time>
      </trkpt>
      <trkpt lat="44.59333" lon="6.1743">
        <ele>1260</ele>
        <time>2016-07-14T08:49:11.000Z</time>
      </trkpt>
      <trkpt lat="44.59332" lon="6.17415">
        <ele>1260</ele>
        <time>2016-07-14T08:49:20.000Z</time>
      </trkpt>
      <trkpt lat="44.59332" lon="6.17401">
        <ele>1260.4000244141</ele>
        <time>2016-07-14T08:49:28.000Z</time>
      </trkpt>
      <trkpt lat="44.59335" lon="6.17384">
        <ele>1260.8000488281</ele>
        <time>2016-07-14T08:49:37.000Z</time>
      </trkpt>
      <trkpt lat="44.59337" lon="6.17373">
        <ele>1261.4000244141</ele>
        <time>2016-07-14T08:49:45.000Z</time>
      </trkpt>
      <trkpt lat="44.59338" lon="6.17372">
        <ele>1261.5999755859</ele>
        <time>2016-07-14T08:49:46.000Z</time>
      </trkpt>
      <trkpt lat="44.59342" lon="6.1738">
        <ele>1262.1999511719</ele>
        <time>2016-07-14T08:49:53.000Z</time>
      </trkpt>
      <trkpt lat="44.59346" lon="6.17397">
        <ele>1262.4000244141</ele>
        <time>2016-07-14T08:50:03.000Z</time>
      </trkpt>
      <trkpt lat="44.59353" lon="6.17407">
        <ele>1263.4000244141</ele>
        <time>2016-07-14T08:50:11.000Z</time>
      </trkpt>
      <trkpt lat="44.5936" lon="6.17415">
        <ele>1264.4000244141</ele>
        <time>2016-07-14T08:50:19.000Z</time>
      </trkpt>
      <trkpt lat="44.59368" lon="6.17422">
        <ele>1265.5999755859</ele>
        <time>2016-07-14T08:50:26.000Z</time>
      </trkpt>
      <trkpt lat="44.59377" lon="6.17438">
        <ele>1267.8000488281</ele>
        <time>2016-07-14T08:50:37.000Z</time>
      </trkpt>
      <trkpt lat="44.59387" lon="6.17454">
        <ele>1270</ele>
        <time>2016-07-14T08:50:48.000Z</time>
      </trkpt>
      <trkpt lat="44.59396" lon="6.1747">
        <ele>1272.1999511719</ele>
        <time>2016-07-14T08:50:59.000Z</time>
      </trkpt>
      <trkpt lat="44.59403" lon="6.17481">
        <ele>1274</ele>
        <time>2016-07-14T08:51:07.000Z</time>
      </trkpt>
      <trkpt lat="44.59411" lon="6.17491">
        <ele>1276.4000244141</ele>
        <time>2016-07-14T08:51:16.000Z</time>
      </trkpt>
      <trkpt lat="44.59417" lon="6.17502">
        <ele>1278.8000488281</ele>
        <time>2016-07-14T08:51:24.000Z</time>
      </trkpt>
      <trkpt lat="44.5942" lon="6.17516">
        <ele>1280.4000244141</ele>
        <time>2016-07-14T08:51:32.000Z</time>
      </trkpt>
      <trkpt lat="44.59423" lon="6.17534">
        <ele>1282</ele>
        <time>2016-07-14T08:51:42.000Z</time>
      </trkpt>
      <trkpt lat="44.59423" lon="6.17536">
        <ele>1282.1999511719</ele>
        <time>2016-07-14T08:51:43.000Z</time>
      </trkpt>
      <trkpt lat="44.59421" lon="6.17548">
        <ele>1282</ele>
        <time>2016-07-14T08:51:50.000Z</time>
      </trkpt>
      <trkpt lat="44.59413" lon="6.17551">
        <ele>1280</ele>
        <time>2016-07-14T08:51:57.000Z</time>
      </trkpt>
      <trkpt lat="44.594" lon="6.17551">
        <ele>1276.4000244141</ele>
        <time>2016-07-14T08:52:07.000Z</time>
      </trkpt>
      <trkpt lat="44.59393" lon="6.1756">
        <ele>1274.8000488281</ele>
        <time>2016-07-14T08:52:14.000Z</time>
      </trkpt>
      <trkpt lat="44.59391" lon="6.17576">
        <ele>1275.1999511719</ele>
        <time>2016-07-14T08:52:23.000Z</time>
      </trkpt>
      <trkpt lat="44.59392" lon="6.17592">
        <ele>1275.8000488281</ele>
        <time>2016-07-14T08:52:31.000Z</time>
      </trkpt>
      <trkpt lat="44.59397" lon="6.17604">
        <ele>1277.4000244141</ele>
        <time>2016-07-14T08:52:39.000Z</time>
      </trkpt>
      <trkpt lat="44.59403" lon="6.17617">
        <ele>1279.4000244141</ele>
        <time>2016-07-14T08:52:48.000Z</time>
      </trkpt>
      <trkpt lat="44.59406" lon="6.17627">
        <ele>1280.5999755859</ele>
        <time>2016-07-14T08:52:55.000Z</time>
      </trkpt>
      <trkpt lat="44.59411" lon="6.17646">
        <ele>1282.4000244141</ele>
        <time>2016-07-14T08:53:06.000Z</time>
      </trkpt>
      <trkpt lat="44.59414" lon="6.17661">
        <ele>1284.1999511719</ele>
        <time>2016-07-14T08:53:15.000Z</time>
      </trkpt>
      <trkpt lat="44.59415" lon="6.17663">
        <ele>1284.4000244141</ele>
        <time>2016-07-14T08:53:16.000Z</time>
      </trkpt>
      <trkpt lat="44.59422" lon="6.17671">
        <ele>1287.1999511719</ele>
        <time>2016-07-14T08:53:24.000Z</time>
      </trkpt>
      <trkpt lat="44.59423" lon="6.17673">
        <ele>1287.5999755859</ele>
        <time>2016-07-14T08:53:25.000Z</time>
      </trkpt>
      <trkpt lat="44.59429" lon="6.17681">
        <ele>1289.5999755859</ele>
        <time>2016-07-14T08:53:32.000Z</time>
      </trkpt>
      <trkpt lat="44.59436" lon="6.17687">
        <ele>1292.1999511719</ele>
        <time>2016-07-14T08:53:39.000Z</time>
      </trkpt>
      <trkpt lat="44.59445" lon="6.17693">
        <ele>1295.1999511719</ele>
        <time>2016-07-14T08:53:47.000Z</time>
      </trkpt>
      <trkpt lat="44.59455" lon="6.17699">
        <ele>1298.4000244141</ele>
        <time>2016-07-14T08:53:56.000Z</time>
      </trkpt>
      <trkpt lat="44.59466" lon="6.17705">
        <ele>1302</ele>
        <time>2016-07-14T08:54:06.000Z</time>
      </trkpt>
      <trkpt lat="44.59476" lon="6.1771">
        <ele>1304.8000488281</ele>
        <time>2016-07-14T08:54:14.000Z</time>
      </trkpt>
      <trkpt lat="44.59482" lon="6.17706">
        <ele>1306.4000244141</ele>
        <time>2016-07-14T08:54:20.000Z</time>
      </trkpt>
      <trkpt lat="44.59486" lon="6.1769">
        <ele>1306.5999755859</ele>
        <time>2016-07-14T08:54:29.000Z</time>
      </trkpt>
      <trkpt lat="44.5949" lon="6.17672">
        <ele>1306.1999511719</ele>
        <time>2016-07-14T08:54:39.000Z</time>
      </trkpt>
      <trkpt lat="44.595" lon="6.1767">
        <ele>1308.1999511719</ele>
        <time>2016-07-14T08:54:51.000Z</time>
      </trkpt>
      <trkpt lat="44.59499" lon="6.17677">
        <ele>1308.8000488281</ele>
        <time>2016-07-14T08:54:55.000Z</time>
      </trkpt>
      <trkpt lat="44.59499" lon="6.177">
        <ele>1310.5999755859</ele>
        <time>2016-07-14T08:55:07.000Z</time>
      </trkpt>
      <trkpt lat="44.59499" lon="6.17719">
        <ele>1311.8000488281</ele>
        <time>2016-07-14T08:55:17.000Z</time>
      </trkpt>
      <trkpt lat="44.595" lon="6.17737">
        <ele>1313.1999511719</ele>
        <time>2016-07-14T08:55:27.000Z</time>
      </trkpt>
      <trkpt lat="44.59501" lon="6.17756">
        <ele>1314.8000488281</ele>
        <time>2016-07-14T08:55:37.000Z</time>
      </trkpt>
      <trkpt lat="44.59504" lon="6.1777">
        <ele>1316.4000244141</ele>
        <time>2016-07-14T08:55:45.000Z</time>
      </trkpt>
      <trkpt lat="44.59505" lon="6.17773">
        <ele>1316.8000488281</ele>
        <time>2016-07-14T08:55:51.000Z</time>
      </trkpt>
      <trkpt lat="44.59503" lon="6.17771">
        <ele>1316.4000244141</ele>
        <time>2016-07-14T08:56:11.000Z</time>
      </trkpt>
      <trkpt lat="44.59504" lon="6.17775">
        <ele>1317</ele>
        <time>2016-07-14T08:56:18.000Z</time>
      </trkpt>
      <trkpt lat="44.59504" lon="6.17776">
        <ele>1316.8000488281</ele>
        <time>2016-07-14T08:57:37.000Z</time>
      </trkpt>
      <trkpt lat="44.59506" lon="6.17775">
        <ele>1317.4000244141</ele>
        <time>2016-07-14T09:00:29.000Z</time>
      </trkpt>
      <trkpt lat="44.59504" lon="6.17774">
        <ele>1316.5999755859</ele>
        <time>2016-07-14T09:02:07.000Z</time>
      </trkpt>
      <trkpt lat="44.59503" lon="6.17773">
        <ele>1316.4000244141</ele>
        <time>2016-07-14T09:02:17.000Z</time>
      </trkpt>
      <trkpt lat="44.59505" lon="6.17772">
        <ele>1317</ele>
        <time>2016-07-14T09:02:58.000Z</time>
      </trkpt>
      <trkpt lat="44.59504" lon="6.17774">
        <ele>1316.8000488281</ele>
        <time>2016-07-14T09:03:22.000Z</time>
      </trkpt>
      <trkpt lat="44.59503" lon="6.17773">
        <ele>1316.4000244141</ele>
        <time>2016-07-14T09:03:26.000Z</time>
      </trkpt>
      <trkpt lat="44.59502" lon="6.17781">
        <ele>1316.8000488281</ele>
        <time>2016-07-14T09:04:03.000Z</time>
      </trkpt>
      <trkpt lat="44.59501" lon="6.17795">
        <ele>1317.4000244141</ele>
        <time>2016-07-14T09:04:11.000Z</time>
      </trkpt>
      <trkpt lat="44.595" lon="6.17811">
        <ele>1318.4000244141</ele>
        <time>2016-07-14T09:04:20.000Z</time>
      </trkpt>
      <trkpt lat="44.59499" lon="6.17823">
        <ele>1318.8000488281</ele>
        <time>2016-07-14T09:04:27.000Z</time>
      </trkpt>
      <trkpt lat="44.59498" lon="6.17832">
        <ele>1319.1999511719</ele>
        <time>2016-07-14T09:04:32.000Z</time>
      </trkpt>
      <trkpt lat="44.59492" lon="6.17848">
        <ele>1318.8000488281</ele>
        <time>2016-07-14T09:04:42.000Z</time>
      </trkpt>
      <trkpt lat="44.59489" lon="6.1786">
        <ele>1319.1999511719</ele>
        <time>2016-07-14T09:04:49.000Z</time>
      </trkpt>
      <trkpt lat="44.59484" lon="6.17874">
        <ele>1319.5999755859</ele>
        <time>2016-07-14T09:04:58.000Z</time>
      </trkpt>
      <trkpt lat="44.59478" lon="6.17894">
        <ele>1320.4000244141</ele>
        <time>2016-07-14T09:05:10.000Z</time>
      </trkpt>
      <trkpt lat="44.59473" lon="6.17912">
        <ele>1320.4000244141</ele>
        <time>2016-07-14T09:05:21.000Z</time>
      </trkpt>
      <trkpt lat="44.59467" lon="6.17929">
        <ele>1321.1999511719</ele>
        <time>2016-07-14T09:05:32.000Z</time>
      </trkpt>
      <trkpt lat="44.59463" lon="6.17945">
        <ele>1322.1999511719</ele>
        <time>2016-07-14T09:05:41.000Z</time>
      </trkpt>
      <trkpt lat="44.59461" lon="6.17974">
        <ele>1325.1999511719</ele>
        <time>2016-07-14T09:05:58.000Z</time>
      </trkpt>
      <trkpt lat="44.59467" lon="6.1799">
        <ele>1327.5999755859</ele>
        <time>2016-07-14T09:06:08.000Z</time>
      </trkpt>
      <trkpt lat="44.59473" lon="6.18008">
        <ele>1330</ele>
        <time>2016-07-14T09:06:19.000Z</time>
      </trkpt>
      <trkpt lat="44.59475" lon="6.18027">
        <ele>1331.4000244141</ele>
        <time>2016-07-14T09:06:29.000Z</time>
      </trkpt>
      <trkpt lat="44.59475" lon="6.18051">
        <ele>1332.8000488281</ele>
        <time>2016-07-14T09:06:42.000Z</time>
      </trkpt>
      <trkpt lat="44.59474" lon="6.18072">
        <ele>1333.8000488281</ele>
        <time>2016-07-14T09:06:54.000Z</time>
      </trkpt>
      <trkpt lat="44.5947" lon="6.18095">
        <ele>1334.5999755859</ele>
        <time>2016-07-14T09:07:07.000Z</time>
      </trkpt>
      <trkpt lat="44.59467" lon="6.18114">
        <ele>1335</ele>
        <time>2016-07-14T09:07:18.000Z</time>
      </trkpt>
      <trkpt lat="44.59465" lon="6.18125">
        <ele>1335.4000244141</ele>
        <time>2016-07-14T09:07:25.000Z</time>
      </trkpt>
      <trkpt lat="44.59465" lon="6.18127">
        <ele>1335.4000244141</ele>
        <time>2016-07-14T09:07:27.000Z</time>
      </trkpt>
      <trkpt lat="44.59463" lon="6.18133">
        <ele>1335.5999755859</ele>
        <time>2016-07-14T09:07:32.000Z</time>
      </trkpt>
      <trkpt lat="44.59458" lon="6.18154">
        <ele>1335.8000488281</ele>
        <time>2016-07-14T09:07:44.000Z</time>
      </trkpt>
      <trkpt lat="44.59455" lon="6.18171">
        <ele>1336.1999511719</ele>
        <time>2016-07-14T09:07:54.000Z</time>
      </trkpt>
      <trkpt lat="44.59453" lon="6.18187">
        <ele>1336.8000488281</ele>
        <time>2016-07-14T09:08:03.000Z</time>
      </trkpt>
      <trkpt lat="44.59452" lon="6.18207">
        <ele>1337.8000488281</ele>
        <time>2016-07-14T09:08:14.000Z</time>
      </trkpt>
      <trkpt lat="44.59455" lon="6.18221">
        <ele>1339.1999511719</ele>
        <time>2016-07-14T09:08:22.000Z</time>
      </trkpt>
      <trkpt lat="44.59461" lon="6.18238">
        <ele>1340.8000488281</ele>
        <time>2016-07-14T09:08:32.000Z</time>
      </trkpt>
      <trkpt lat="44.59471" lon="6.18252">
        <ele>1342.5999755859</ele>
        <time>2016-07-14T09:08:43.000Z</time>
      </trkpt>
      <trkpt lat="44.59482" lon="6.18264">
        <ele>1345</ele>
        <time>2016-07-14T09:08:54.000Z</time>
      </trkpt>
      <trkpt lat="44.5949" lon="6.18271">
        <ele>1346.4000244141</ele>
        <time>2016-07-14T09:09:02.000Z</time>
      </trkpt>
      <trkpt lat="44.59495" lon="6.18282">
        <ele>1347.4000244141</ele>
        <time>2016-07-14T09:09:08.000Z</time>
      </trkpt>
      <trkpt lat="44.59499" lon="6.18301">
        <ele>1348.1999511719</ele>
        <time>2016-07-14T09:09:18.000Z</time>
      </trkpt>
      <trkpt lat="44.59501" lon="6.18318">
        <ele>1349</ele>
        <time>2016-07-14T09:09:27.000Z</time>
      </trkpt>
      <trkpt lat="44.59504" lon="6.18332">
        <ele>1350.5999755859</ele>
        <time>2016-07-14T09:09:35.000Z</time>
      </trkpt>
      <trkpt lat="44.59508" lon="6.18337">
        <ele>1351.8000488281</ele>
        <time>2016-07-14T09:09:39.000Z</time>
      </trkpt>
      <trkpt lat="44.5952" lon="6.18336">
        <ele>1353.8000488281</ele>
        <time>2016-07-14T09:09:48.000Z</time>
      </trkpt>
      <trkpt lat="44.59526" lon="6.18331">
        <ele>1354.5999755859</ele>
        <time>2016-07-14T09:09:53.000Z</time>
      </trkpt>
      <trkpt lat="44.59526" lon="6.18335">
        <ele>1355</ele>
        <time>2016-07-14T09:09:59.000Z</time>
      </trkpt>
      <trkpt lat="44.59524" lon="6.18336">
        <ele>1354.8000488281</ele>
        <time>2016-07-14T09:10:01.000Z</time>
      </trkpt>
      <trkpt lat="44.59515" lon="6.18341">
        <ele>1353.1999511719</ele>
        <time>2016-07-14T09:10:08.000Z</time>
      </trkpt>
      <trkpt lat="44.59514" lon="6.18342">
        <ele>1353.1999511719</ele>
        <time>2016-07-14T09:10:09.000Z</time>
      </trkpt>
      <trkpt lat="44.59518" lon="6.18347">
        <ele>1354.4000244141</ele>
        <time>2016-07-14T09:10:15.000Z</time>
      </trkpt>
      <trkpt lat="44.59519" lon="6.18347">
        <ele>1354.5999755859</ele>
        <time>2016-07-14T09:10:16.000Z</time>
      </trkpt>
      <trkpt lat="44.59529" lon="6.18342">
        <ele>1356</ele>
        <time>2016-07-14T09:10:24.000Z</time>
      </trkpt>
      <trkpt lat="44.59535" lon="6.18331">
        <ele>1356.5999755859</ele>
        <time>2016-07-14T09:10:32.000Z</time>
      </trkpt>
      <trkpt lat="44.5954" lon="6.18318">
        <ele>1356.8000488281</ele>
        <time>2016-07-14T09:10:40.000Z</time>
      </trkpt>
      <trkpt lat="44.59543" lon="6.18304">
        <ele>1357.1999511719</ele>
        <time>2016-07-14T09:10:48.000Z</time>
      </trkpt>
      <trkpt lat="44.59545" lon="6.18289">
        <ele>1357.8000488281</ele>
        <time>2016-07-14T09:10:56.000Z</time>
      </trkpt>
      <trkpt lat="44.59548" lon="6.18276">
        <ele>1358.8000488281</ele>
        <time>2016-07-14T09:11:04.000Z</time>
      </trkpt>
      <trkpt lat="44.59551" lon="6.18262">
        <ele>1359.5999755859</ele>
        <time>2016-07-14T09:11:12.000Z</time>
      </trkpt>
      <trkpt lat="44.59552" lon="6.18258">
        <ele>1359.8000488281</ele>
        <time>2016-07-14T09:11:14.000Z</time>
      </trkpt>
      <trkpt lat="44.59555" lon="6.18243">
        <ele>1360.5999755859</ele>
        <time>2016-07-14T09:11:23.000Z</time>
      </trkpt>
      <trkpt lat="44.59561" lon="6.18222">
        <ele>1361.8000488281</ele>
        <time>2016-07-14T09:11:35.000Z</time>
      </trkpt>
      <trkpt lat="44.59563" lon="6.18214">
        <ele>1362</ele>
        <time>2016-07-14T09:11:39.000Z</time>
      </trkpt>
      <trkpt lat="44.59568" lon="6.18199">
        <ele>1362.4000244141</ele>
        <time>2016-07-14T09:11:48.000Z</time>
      </trkpt>
      <trkpt lat="44.59573" lon="6.18187">
        <ele>1363.1999511719</ele>
        <time>2016-07-14T09:11:56.000Z</time>
      </trkpt>
      <trkpt lat="44.59578" lon="6.18177">
        <ele>1363.8000488281</ele>
        <time>2016-07-14T09:12:03.000Z</time>
      </trkpt>
      <trkpt lat="44.59583" lon="6.18165">
        <ele>1364.4000244141</ele>
        <time>2016-07-14T09:12:10.000Z</time>
      </trkpt>
      <trkpt lat="44.59589" lon="6.18153">
        <ele>1365.5999755859</ele>
        <time>2016-07-14T09:12:18.000Z</time>
      </trkpt>
      <trkpt lat="44.59599" lon="6.18137">
        <ele>1367.1999511719</ele>
        <time>2016-07-14T09:12:29.000Z</time>
      </trkpt>
      <trkpt lat="44.5961" lon="6.1812">
        <ele>1368.5999755859</ele>
        <time>2016-07-14T09:12:41.000Z</time>
      </trkpt>
      <trkpt lat="44.59622" lon="6.18105">
        <ele>1370</ele>
        <time>2016-07-14T09:12:53.000Z</time>
      </trkpt>
      <trkpt lat="44.59636" lon="6.18094">
        <ele>1373</ele>
        <time>2016-07-14T09:13:05.000Z</time>
      </trkpt>
      <trkpt lat="44.59649" lon="6.18089">
        <ele>1375.4000244141</ele>
        <time>2016-07-14T09:13:15.000Z</time>
      </trkpt>
      <trkpt lat="44.59662" lon="6.1808">
        <ele>1376.5999755859</ele>
        <time>2016-07-14T09:13:26.000Z</time>
      </trkpt>
      <trkpt lat="44.59674" lon="6.1807">
        <ele>1377</ele>
        <time>2016-07-14T09:13:36.000Z</time>
      </trkpt>
      <trkpt lat="44.59679" lon="6.18061">
        <ele>1376.5999755859</ele>
        <time>2016-07-14T09:13:43.000Z</time>
      </trkpt>
      <trkpt lat="44.59688" lon="6.18051">
        <ele>1377.1999511719</ele>
        <time>2016-07-14T09:13:51.000Z</time>
      </trkpt>
      <trkpt lat="44.597" lon="6.18039">
        <ele>1377.5999755859</ele>
        <time>2016-07-14T09:14:02.000Z</time>
      </trkpt>
      <trkpt lat="44.59709" lon="6.18029">
        <ele>1378.1999511719</ele>
        <time>2016-07-14T09:14:10.000Z</time>
      </trkpt>
      <trkpt lat="44.5972" lon="6.18018">
        <ele>1378.8000488281</ele>
        <time>2016-07-14T09:14:20.000Z</time>
      </trkpt>
      <trkpt lat="44.59732" lon="6.18004">
        <ele>1379.8000488281</ele>
        <time>2016-07-14T09:14:32.000Z</time>
      </trkpt>
      <trkpt lat="44.59732" lon="6.18003">
        <ele>1379.5999755859</ele>
        <time>2016-07-14T09:14:41.000Z</time>
      </trkpt>
      <trkpt lat="44.59735" lon="6.18001">
        <ele>1380.4000244141</ele>
        <time>2016-07-14T09:14:46.000Z</time>
      </trkpt>
      <trkpt lat="44.59741" lon="6.17994">
        <ele>1381</ele>
        <time>2016-07-14T09:14:52.000Z</time>
      </trkpt>
      <trkpt lat="44.59749" lon="6.17984">
        <ele>1382</ele>
        <time>2016-07-14T09:15:01.000Z</time>
      </trkpt>
      <trkpt lat="44.59754" lon="6.17977">
        <ele>1382.5999755859</ele>
        <time>2016-07-14T09:15:08.000Z</time>
      </trkpt>
      <trkpt lat="44.59755" lon="6.17975">
        <ele>1382.5999755859</ele>
        <time>2016-07-14T09:15:15.000Z</time>
      </trkpt>
      <trkpt lat="44.59756" lon="6.17977">
        <ele>1383</ele>
        <time>2016-07-14T09:16:24.000Z</time>
      </trkpt>
      <trkpt lat="44.59757" lon="6.17976">
        <ele>1383.1999511719</ele>
        <time>2016-07-14T09:19:03.000Z</time>
      </trkpt>
      <trkpt lat="44.59754" lon="6.17979">
        <ele>1382.8000488281</ele>
        <time>2016-07-14T09:19:09.000Z</time>
      </trkpt>
      <trkpt lat="44.59754" lon="6.17981">
        <ele>1382.8000488281</ele>
        <time>2016-07-14T09:19:17.000Z</time>
      </trkpt>
      <trkpt lat="44.59755" lon="6.17982">
        <ele>1383</ele>
        <time>2016-07-14T09:20:06.000Z</time>
      </trkpt>
      <trkpt lat="44.59757" lon="6.17977">
        <ele>1383.4000244141</ele>
        <time>2016-07-14T09:20:19.000Z</time>
      </trkpt>
      <trkpt lat="44.59757" lon="6.17976">
        <ele>1383.4000244141</ele>
        <time>2016-07-14T09:22:11.000Z</time>
      </trkpt>
      <trkpt lat="44.59755" lon="6.17982">
        <ele>1383</ele>
        <time>2016-07-14T09:23:11.000Z</time>
      </trkpt>
      <trkpt lat="44.59757" lon="6.1798">
        <ele>1383.4000244141</ele>
        <time>2016-07-14T09:23:16.000Z</time>
      </trkpt>
      <trkpt lat="44.59757" lon="6.17979">
        <ele>1383.4000244141</ele>
        <time>2016-07-14T09:23:17.000Z</time>
      </trkpt>
      <trkpt lat="44.59758" lon="6.17979">
        <ele>1383.5999755859</ele>
        <time>2016-07-14T09:23:28.000Z</time>
      </trkpt>
      <trkpt lat="44.59758" lon="6.17978">
        <ele>1383.4000244141</ele>
        <time>2016-07-14T09:24:24.000Z</time>
      </trkpt>
      <trkpt lat="44.59761" lon="6.17975">
        <ele>1384.1999511719</ele>
        <time>2016-07-14T09:25:43.000Z</time>
      </trkpt>
      <trkpt lat="44.59762" lon="6.17974">
        <ele>1384.1999511719</ele>
        <time>2016-07-14T09:25:44.000Z</time>
      </trkpt>
      <trkpt lat="44.59765" lon="6.17967">
        <ele>1384.5999755859</ele>
        <time>2016-07-14T09:25:51.000Z</time>
      </trkpt>
      <trkpt lat="44.59765" lon="6.17966">
        <ele>1384.5999755859</ele>
        <time>2016-07-14T09:25:52.000Z</time>
      </trkpt>
      <trkpt lat="44.59769" lon="6.17958">
        <ele>1385</ele>
        <time>2016-07-14T09:25:59.000Z</time>
      </trkpt>
      <trkpt lat="44.59774" lon="6.17947">
        <ele>1385.1999511719</ele>
        <time>2016-07-14T09:26:08.000Z</time>
      </trkpt>
      <trkpt lat="44.59779" lon="6.17938">
        <ele>1385.4000244141</ele>
        <time>2016-07-14T09:26:16.000Z</time>
      </trkpt>
      <trkpt lat="44.59782" lon="6.17931">
        <ele>1385.4000244141</ele>
        <time>2016-07-14T09:26:22.000Z</time>
      </trkpt>
      <trkpt lat="44.59786" lon="6.17924">
        <ele>1385.8000488281</ele>
        <time>2016-07-14T09:26:28.000Z</time>
      </trkpt>
      <trkpt lat="44.59795" lon="6.17917">
        <ele>1387</ele>
        <time>2016-07-14T09:26:37.000Z</time>
      </trkpt>
      <trkpt lat="44.59797" lon="6.17917">
        <ele>1387.4000244141</ele>
        <time>2016-07-14T09:26:39.000Z</time>
      </trkpt>
      <trkpt lat="44.59796" lon="6.17923">
        <ele>1387.8000488281</ele>
        <time>2016-07-14T09:26:43.000Z</time>
      </trkpt>
      <trkpt lat="44.59795" lon="6.17929">
        <ele>1388</ele>
        <time>2016-07-14T09:26:47.000Z</time>
      </trkpt>
      <trkpt lat="44.59795" lon="6.1793">
        <ele>1388.1999511719</ele>
        <time>2016-07-14T09:26:55.000Z</time>
      </trkpt>
      <trkpt lat="44.59796" lon="6.17932">
        <ele>1388.5999755859</ele>
        <time>2016-07-14T09:27:03.000Z</time>
      </trkpt>
      <trkpt lat="44.59795" lon="6.1793">
        <ele>1388.1999511719</ele>
        <time>2016-07-14T09:27:11.000Z</time>
      </trkpt>
      <trkpt lat="44.59793" lon="6.17935">
        <ele>1388.1999511719</ele>
        <time>2016-07-14T09:27:16.000Z</time>
      </trkpt>
      <trkpt lat="44.59793" lon="6.17941">
        <ele>1388.5999755859</ele>
        <time>2016-07-14T09:27:21.000Z</time>
      </trkpt>
      <trkpt lat="44.59793" lon="6.17949">
        <ele>1389.4000244141</ele>
        <time>2016-07-14T09:27:27.000Z</time>
      </trkpt>
      <trkpt lat="44.59798" lon="6.17955">
        <ele>1390.8000488281</ele>
        <time>2016-07-14T09:27:33.000Z</time>
      </trkpt>
      <trkpt lat="44.598" lon="6.17966">
        <ele>1392.1999511719</ele>
        <time>2016-07-14T09:27:43.000Z</time>
      </trkpt>
      <trkpt lat="44.59799" lon="6.17967">
        <ele>1392.1999511719</ele>
        <time>2016-07-14T09:27:44.000Z</time>
      </trkpt>
      <trkpt lat="44.59801" lon="6.17969">
        <ele>1392.5999755859</ele>
        <time>2016-07-14T09:27:49.000Z</time>
      </trkpt>
      <trkpt lat="44.59799" lon="6.17974">
        <ele>1392.8000488281</ele>
        <time>2016-07-14T09:27:54.000Z</time>
      </trkpt>
      <trkpt lat="44.59798" lon="6.17979">
        <ele>1392.8000488281</ele>
        <time>2016-07-14T09:28:00.000Z</time>
      </trkpt>
      <trkpt lat="44.59797" lon="6.17988">
        <ele>1393.1999511719</ele>
        <time>2016-07-14T09:28:08.000Z</time>
      </trkpt>
      <trkpt lat="44.59795" lon="6.17999">
        <ele>1393.5999755859</ele>
        <time>2016-07-14T09:28:15.000Z</time>
      </trkpt>
      <trkpt lat="44.5979" lon="6.18008">
        <ele>1393.8000488281</ele>
        <time>2016-07-14T09:28:21.000Z</time>
      </trkpt>
      <trkpt lat="44.59785" lon="6.18018">
        <ele>1393.8000488281</ele>
        <time>2016-07-14T09:28:28.000Z</time>
      </trkpt>
      <trkpt lat="44.59779" lon="6.18026">
        <ele>1393.1999511719</ele>
        <time>2016-07-14T09:28:35.000Z</time>
      </trkpt>
      <trkpt lat="44.59779" lon="6.18028">
        <ele>1393.4000244141</ele>
        <time>2016-07-14T09:28:37.000Z</time>
      </trkpt>
      <trkpt lat="44.59779" lon="6.18036">
        <ele>1394</ele>
        <time>2016-07-14T09:28:44.000Z</time>
      </trkpt>
      <trkpt lat="44.59779" lon="6.18047">
        <ele>1395.1999511719</ele>
        <time>2016-07-14T09:28:50.000Z</time>
      </trkpt>
      <trkpt lat="44.59777" lon="6.18051">
        <ele>1395.1999511719</ele>
        <time>2016-07-14T09:28:53.000Z</time>
      </trkpt>
      <trkpt lat="44.59777" lon="6.1806">
        <ele>1396.1999511719</ele>
        <time>2016-07-14T09:28:58.000Z</time>
      </trkpt>
      <trkpt lat="44.59771" lon="6.18067">
        <ele>1396</ele>
        <time>2016-07-14T09:29:05.000Z</time>
      </trkpt>
      <trkpt lat="44.5977" lon="6.18068">
        <ele>1396</ele>
        <time>2016-07-14T09:29:06.000Z</time>
      </trkpt>
      <trkpt lat="44.59766" lon="6.18068">
        <ele>1395.4000244141</ele>
        <time>2016-07-14T09:29:13.000Z</time>
      </trkpt>
      <trkpt lat="44.59763" lon="6.1807">
        <ele>1395</ele>
        <time>2016-07-14T09:29:17.000Z</time>
      </trkpt>
      <trkpt lat="44.59761" lon="6.18073">
        <ele>1395</ele>
        <time>2016-07-14T09:29:23.000Z</time>
      </trkpt>
      <trkpt lat="44.59756" lon="6.18084">
        <ele>1395.5999755859</ele>
        <time>2016-07-14T09:30:22.000Z</time>
      </trkpt>
      <trkpt lat="44.59755" lon="6.18085">
        <ele>1395.5999755859</ele>
        <time>2016-07-14T09:30:30.000Z</time>
      </trkpt>
      <trkpt lat="44.59755" lon="6.18087">
        <ele>1395.8000488281</ele>
        <time>2016-07-14T09:30:56.000Z</time>
      </trkpt>
      <trkpt lat="44.59755" lon="6.18085">
        <ele>1395.5999755859</ele>
        <time>2016-07-14T09:31:34.000Z</time>
      </trkpt>
      <trkpt lat="44.59759" lon="6.18078">
        <ele>1395.4000244141</ele>
        <time>2016-07-14T09:31:42.000Z</time>
      </trkpt>
      <trkpt lat="44.5976" lon="6.18077">
        <ele>1395.4000244141</ele>
        <time>2016-07-14T09:31:43.000Z</time>
      </trkpt>
      <trkpt lat="44.59764" lon="6.18075">
        <ele>1395.8000488281</ele>
        <time>2016-07-14T09:31:47.000Z</time>
      </trkpt>
      <trkpt lat="44.59766" lon="6.18073">
        <ele>1396</ele>
        <time>2016-07-14T09:31:51.000Z</time>
      </trkpt>
      <trkpt lat="44.59768" lon="6.18073">
        <ele>1396.1999511719</ele>
        <time>2016-07-14T09:32:03.000Z</time>
      </trkpt>
      <trkpt lat="44.5977" lon="6.18065">
        <ele>1395.4000244141</ele>
        <time>2016-07-14T09:32:18.000Z</time>
      </trkpt>
      <trkpt lat="44.59771" lon="6.18059">
        <ele>1394.8000488281</ele>
        <time>2016-07-14T09:32:22.000Z</time>
      </trkpt>
      <trkpt lat="44.59774" lon="6.18052">
        <ele>1394.4000244141</ele>
        <time>2016-07-14T09:32:29.000Z</time>
      </trkpt>
      <trkpt lat="44.59774" lon="6.18051">
        <ele>1394.4000244141</ele>
        <time>2016-07-14T09:32:30.000Z</time>
      </trkpt>
      <trkpt lat="44.59776" lon="6.18046">
        <ele>1394.4000244141</ele>
        <time>2016-07-14T09:32:35.000Z</time>
      </trkpt>
      <trkpt lat="44.59777" lon="6.1804">
        <ele>1394.1999511719</ele>
        <time>2016-07-14T09:32:40.000Z</time>
      </trkpt>
      <trkpt lat="44.5978" lon="6.18034">
        <ele>1394.1999511719</ele>
        <time>2016-07-14T09:32:47.000Z</time>
      </trkpt>
      <trkpt lat="44.59781" lon="6.18031">
        <ele>1394.1999511719</ele>
        <time>2016-07-14T09:32:49.000Z</time>
      </trkpt>
      <trkpt lat="44.59786" lon="6.18023">
        <ele>1394.4000244141</ele>
        <time>2016-07-14T09:32:56.000Z</time>
      </trkpt>
      <trkpt lat="44.59791" lon="6.18015">
        <ele>1394.5999755859</ele>
        <time>2016-07-14T09:33:02.000Z</time>
      </trkpt>
      <trkpt lat="44.59793" lon="6.18009">
        <ele>1394.4000244141</ele>
        <time>2016-07-14T09:33:07.000Z</time>
      </trkpt>
      <trkpt lat="44.59795" lon="6.18004">
        <ele>1394.1999511719</ele>
        <time>2016-07-14T09:33:11.000Z</time>
      </trkpt>
      <trkpt lat="44.59798" lon="6.17995">
        <ele>1393.8000488281</ele>
        <time>2016-07-14T09:33:18.000Z</time>
      </trkpt>
      <trkpt lat="44.59799" lon="6.17991">
        <ele>1393.8000488281</ele>
        <time>2016-07-14T09:33:24.000Z</time>
      </trkpt>
      <trkpt lat="44.598" lon="6.17988">
        <ele>1393.5999755859</ele>
        <time>2016-07-14T09:33:28.000Z</time>
      </trkpt>
      <trkpt lat="44.59801" lon="6.17983">
        <ele>1393.5999755859</ele>
        <time>2016-07-14T09:33:32.000Z</time>
      </trkpt>
      <trkpt lat="44.598" lon="6.17978">
        <ele>1393.1999511719</ele>
        <time>2016-07-14T09:33:36.000Z</time>
      </trkpt>
      <trkpt lat="44.59798" lon="6.1797">
        <ele>1392.1999511719</ele>
        <time>2016-07-14T09:33:41.000Z</time>
      </trkpt>
      <trkpt lat="44.59796" lon="6.1796">
        <ele>1390.8000488281</ele>
        <time>2016-07-14T09:33:48.000Z</time>
      </trkpt>
      <trkpt lat="44.59792" lon="6.17953">
        <ele>1389.4000244141</ele>
        <time>2016-07-14T09:33:54.000Z</time>
      </trkpt>
      <trkpt lat="44.59791" lon="6.17948">
        <ele>1388.5999755859</ele>
        <time>2016-07-14T09:33:57.000Z</time>
      </trkpt>
      <trkpt lat="44.59793" lon="6.17936">
        <ele>1388.1999511719</ele>
        <time>2016-07-14T09:34:04.000Z</time>
      </trkpt>
      <trkpt lat="44.59794" lon="6.17936">
        <ele>1388.4000244141</ele>
        <time>2016-07-14T09:34:05.000Z</time>
      </trkpt>
      <trkpt lat="44.59793" lon="6.17933">
        <ele>1388</ele>
        <time>2016-07-14T09:34:32.000Z</time>
      </trkpt>
      <trkpt lat="44.59793" lon="6.17928">
        <ele>1387.5999755859</ele>
        <time>2016-07-14T09:34:55.000Z</time>
      </trkpt>
      <trkpt lat="44.59794" lon="6.17924">
        <ele>1387.4000244141</ele>
        <time>2016-07-14T09:34:59.000Z</time>
      </trkpt>
      <trkpt lat="44.59795" lon="6.17918">
        <ele>1387.1999511719</ele>
        <time>2016-07-14T09:35:03.000Z</time>
      </trkpt>
      <trkpt lat="44.59799" lon="6.1791">
        <ele>1387.4000244141</ele>
        <time>2016-07-14T09:35:09.000Z</time>
      </trkpt>
      <trkpt lat="44.598" lon="6.17908">
        <ele>1387.1999511719</ele>
        <time>2016-07-14T09:35:10.000Z</time>
      </trkpt>
      <trkpt lat="44.598" lon="6.17907">
        <ele>1387.1999511719</ele>
        <time>2016-07-14T09:35:11.000Z</time>
      </trkpt>
      <trkpt lat="44.598" lon="6.17908">
        <ele>1387.1999511719</ele>
        <time>2016-07-14T09:35:16.000Z</time>
      </trkpt>
      <trkpt lat="44.59799" lon="6.17908">
        <ele>1387.1999511719</ele>
        <time>2016-07-14T09:35:20.000Z</time>
      </trkpt>
      <trkpt lat="44.59801" lon="6.17905">
        <ele>1387</ele>
        <time>2016-07-14T09:35:25.000Z</time>
      </trkpt>
      <trkpt lat="44.59805" lon="6.17903">
        <ele>1387.5999755859</ele>
        <time>2016-07-14T09:35:29.000Z</time>
      </trkpt>
      <trkpt lat="44.5982" lon="6.17899">
        <ele>1390</ele>
        <time>2016-07-14T09:35:41.000Z</time>
      </trkpt>
      <trkpt lat="44.59837" lon="6.17896">
        <ele>1392.5999755859</ele>
        <time>2016-07-14T09:35:54.000Z</time>
      </trkpt>
      <trkpt lat="44.59849" lon="6.17893">
        <ele>1394.4000244141</ele>
        <time>2016-07-14T09:36:03.000Z</time>
      </trkpt>
      <trkpt lat="44.59862" lon="6.1789">
        <ele>1396.5999755859</ele>
        <time>2016-07-14T09:36:12.000Z</time>
      </trkpt>
      <trkpt lat="44.59873" lon="6.17891">
        <ele>1398.1999511719</ele>
        <time>2016-07-14T09:36:20.000Z</time>
      </trkpt>
      <trkpt lat="44.59886" lon="6.17894">
        <ele>1399.5999755859</ele>
        <time>2016-07-14T09:36:29.000Z</time>
      </trkpt>
      <trkpt lat="44.59896" lon="6.17896">
        <ele>1400.8000488281</ele>
        <time>2016-07-14T09:36:37.000Z</time>
      </trkpt>
      <trkpt lat="44.59905" lon="6.17897">
        <ele>1401.8000488281</ele>
        <time>2016-07-14T09:36:44.000Z</time>
      </trkpt>
      <trkpt lat="44.59917" lon="6.17898">
        <ele>1403</ele>
        <time>2016-07-14T09:36:53.000Z</time>
      </trkpt>
      <trkpt lat="44.59927" lon="6.179">
        <ele>1404.1999511719</ele>
        <time>2016-07-14T09:37:01.000Z</time>
      </trkpt>
      <trkpt lat="44.59935" lon="6.17904">
        <ele>1405.1999511719</ele>
        <time>2016-07-14T09:37:08.000Z</time>
      </trkpt>
      <trkpt lat="44.59939" lon="6.17909">
        <ele>1406.1999511719</ele>
        <time>2016-07-14T09:37:14.000Z</time>
      </trkpt>
      <trkpt lat="44.59939" lon="6.17913">
        <ele>1406.5999755859</ele>
        <time>2016-07-14T09:37:30.000Z</time>
      </trkpt>
      <trkpt lat="44.5993" lon="6.17918">
        <ele>1406.1999511719</ele>
        <time>2016-07-14T09:37:38.000Z</time>
      </trkpt>
      <trkpt lat="44.59925" lon="6.1792">
        <ele>1406</ele>
        <time>2016-07-14T09:37:42.000Z</time>
      </trkpt>
      <trkpt lat="44.59919" lon="6.17924">
        <ele>1405.8000488281</ele>
        <time>2016-07-14T09:37:48.000Z</time>
      </trkpt>
      <trkpt lat="44.59912" lon="6.17934">
        <ele>1406</ele>
        <time>2016-07-14T09:37:55.000Z</time>
      </trkpt>
      <trkpt lat="44.59911" lon="6.17943">
        <ele>1406.8000488281</ele>
        <time>2016-07-14T09:38:00.000Z</time>
      </trkpt>
      <trkpt lat="44.59916" lon="6.17958">
        <ele>1409</ele>
        <time>2016-07-14T09:38:08.000Z</time>
      </trkpt>
      <trkpt lat="44.59917" lon="6.17959">
        <ele>1409.1999511719</ele>
        <time>2016-07-14T09:38:09.000Z</time>
      </trkpt>
      <trkpt lat="44.59926" lon="6.17971">
        <ele>1411.4000244141</ele>
        <time>2016-07-14T09:38:18.000Z</time>
      </trkpt>
      <trkpt lat="44.59933" lon="6.17979">
        <ele>1412.8000488281</ele>
        <time>2016-07-14T09:38:25.000Z</time>
      </trkpt>
      <trkpt lat="44.5994" lon="6.17983">
        <ele>1413.5999755859</ele>
        <time>2016-07-14T09:38:32.000Z</time>
      </trkpt>
      <trkpt lat="44.59948" lon="6.1799">
        <ele>1415</ele>
        <time>2016-07-14T09:38:40.000Z</time>
      </trkpt>
      <trkpt lat="44.5996" lon="6.17997">
        <ele>1416.4000244141</ele>
        <time>2016-07-14T09:38:50.000Z</time>
      </trkpt>
      <trkpt lat="44.59964" lon="6.17996">
        <ele>1416.8000488281</ele>
        <time>2016-07-14T09:38:55.000Z</time>
      </trkpt>
      <trkpt lat="44.59966" lon="6.17996">
        <ele>1416.8000488281</ele>
        <time>2016-07-14T09:38:57.000Z</time>
      </trkpt>
      <trkpt lat="44.59972" lon="6.17997">
        <ele>1417.4000244141</ele>
        <time>2016-07-14T09:39:03.000Z</time>
      </trkpt>
      <trkpt lat="44.59986" lon="6.17997">
        <ele>1418.5999755859</ele>
        <time>2016-07-14T09:39:14.000Z</time>
      </trkpt>
      <trkpt lat="44.59999" lon="6.18">
        <ele>1420.1999511719</ele>
        <time>2016-07-14T09:39:23.000Z</time>
      </trkpt>
      <trkpt lat="44.60007" lon="6.1801">
        <ele>1421.5999755859</ele>
        <time>2016-07-14T09:39:31.000Z</time>
      </trkpt>
      <trkpt lat="44.60008" lon="6.18029">
        <ele>1423</ele>
        <time>2016-07-14T09:39:44.000Z</time>
      </trkpt>
      <trkpt lat="44.59998" lon="6.18037">
        <ele>1423.1999511719</ele>
        <time>2016-07-14T09:39:54.000Z</time>
      </trkpt>
      <trkpt lat="44.59991" lon="6.18044">
        <ele>1423.5999755859</ele>
        <time>2016-07-14T09:40:01.000Z</time>
      </trkpt>
      <trkpt lat="44.59983" lon="6.18054">
        <ele>1424</ele>
        <time>2016-07-14T09:40:09.000Z</time>
      </trkpt>
      <trkpt lat="44.59974" lon="6.18068">
        <ele>1425</ele>
        <time>2016-07-14T09:40:19.000Z</time>
      </trkpt>
      <trkpt lat="44.59964" lon="6.18079">
        <ele>1426.1999511719</ele>
        <time>2016-07-14T09:40:28.000Z</time>
      </trkpt>
      <trkpt lat="44.59955" lon="6.18088">
        <ele>1427.8000488281</ele>
        <time>2016-07-14T09:40:36.000Z</time>
      </trkpt>
      <trkpt lat="44.5994" lon="6.18098">
        <ele>1428</ele>
        <time>2016-07-14T09:40:48.000Z</time>
      </trkpt>
      <trkpt lat="44.59928" lon="6.18103">
        <ele>1427.4000244141</ele>
        <time>2016-07-14T09:40:57.000Z</time>
      </trkpt>
      <trkpt lat="44.59915" lon="6.1811">
        <ele>1427</ele>
        <time>2016-07-14T09:41:07.000Z</time>
      </trkpt>
      <trkpt lat="44.59904" lon="6.18116">
        <ele>1426.4000244141</ele>
        <time>2016-07-14T09:41:16.000Z</time>
      </trkpt>
      <trkpt lat="44.59896" lon="6.18115">
        <ele>1425.1999511719</ele>
        <time>2016-07-14T09:41:22.000Z</time>
      </trkpt>
      <trkpt lat="44.59894" lon="6.18104">
        <ele>1423</ele>
        <time>2016-07-14T09:41:30.000Z</time>
      </trkpt>
      <trkpt lat="44.59896" lon="6.18099">
        <ele>1422.4000244141</ele>
        <time>2016-07-14T09:41:36.000Z</time>
      </trkpt>
      <trkpt lat="44.59894" lon="6.18099">
        <ele>1422</ele>
        <time>2016-07-14T09:41:53.000Z</time>
      </trkpt>
      <trkpt lat="44.59897" lon="6.18098">
        <ele>1422.1999511719</ele>
        <time>2016-07-14T09:42:10.000Z</time>
      </trkpt>
      <trkpt lat="44.59899" lon="6.18096">
        <ele>1422.1999511719</ele>
        <time>2016-07-14T09:42:13.000Z</time>
      </trkpt>
      <trkpt lat="44.59899" lon="6.18086">
        <ele>1420.5999755859</ele>
        <time>2016-07-14T09:42:19.000Z</time>
      </trkpt>
      <trkpt lat="44.59902" lon="6.18081">
        <ele>1420</ele>
        <time>2016-07-14T09:42:29.000Z</time>
      </trkpt>
      <trkpt lat="44.599" lon="6.1808">
        <ele>1419.5999755859</ele>
        <time>2016-07-14T09:42:34.000Z</time>
      </trkpt>
      <trkpt lat="44.59898" lon="6.18076">
        <ele>1418.5999755859</ele>
        <time>2016-07-14T09:42:40.000Z</time>
      </trkpt>
      <trkpt lat="44.59899" lon="6.18078">
        <ele>1419</ele>
        <time>2016-07-14T09:42:53.000Z</time>
      </trkpt>
      <trkpt lat="44.599" lon="6.18079">
        <ele>1419.4000244141</ele>
        <time>2016-07-14T09:42:58.000Z</time>
      </trkpt>
      <trkpt lat="44.59898" lon="6.18082">
        <ele>1419.5999755859</ele>
        <time>2016-07-14T09:43:04.000Z</time>
      </trkpt>
      <trkpt lat="44.59896" lon="6.1808">
        <ele>1419.1999511719</ele>
        <time>2016-07-14T09:43:09.000Z</time>
      </trkpt>
      <trkpt lat="44.59898" lon="6.18076">
        <ele>1418.5999755859</ele>
        <time>2016-07-14T09:43:12.000Z</time>
      </trkpt>
      <trkpt lat="44.59905" lon="6.18069">
        <ele>1418.1999511719</ele>
        <time>2016-07-14T09:43:19.000Z</time>
      </trkpt>
      <trkpt lat="44.59907" lon="6.18069">
        <ele>1418.4000244141</ele>
        <time>2016-07-14T09:43:22.000Z</time>
      </trkpt>
      <trkpt lat="44.59908" lon="6.18069">
        <ele>1418.5999755859</ele>
        <time>2016-07-14T09:43:29.000Z</time>
      </trkpt>
      <trkpt lat="44.59903" lon="6.1807">
        <ele>1418.1999511719</ele>
        <time>2016-07-14T09:43:35.000Z</time>
      </trkpt>
      <trkpt lat="44.599" lon="6.18073">
        <ele>1418.4000244141</ele>
        <time>2016-07-14T09:43:38.000Z</time>
      </trkpt>
      <trkpt lat="44.599" lon="6.18079">
        <ele>1419.1999511719</ele>
        <time>2016-07-14T09:43:42.000Z</time>
      </trkpt>
      <trkpt lat="44.59901" lon="6.18083">
        <ele>1420.1999511719</ele>
        <time>2016-07-14T09:43:49.000Z</time>
      </trkpt>
      <trkpt lat="44.599" lon="6.18093">
        <ele>1421.8000488281</ele>
        <time>2016-07-14T09:43:55.000Z</time>
      </trkpt>
      <trkpt lat="44.59895" lon="6.18097">
        <ele>1421.8000488281</ele>
        <time>2016-07-14T09:44:01.000Z</time>
      </trkpt>
      <trkpt lat="44.59895" lon="6.18096">
        <ele>1421.5999755859</ele>
        <time>2016-07-14T09:44:02.000Z</time>
      </trkpt>
      <trkpt lat="44.59895" lon="6.18101">
        <ele>1422.5999755859</ele>
        <time>2016-07-14T09:44:16.000Z</time>
      </trkpt>
      <trkpt lat="44.59896" lon="6.18109">
        <ele>1424</ele>
        <time>2016-07-14T09:44:21.000Z</time>
      </trkpt>
      <trkpt lat="44.599" lon="6.18116">
        <ele>1425.5999755859</ele>
        <time>2016-07-14T09:44:28.000Z</time>
      </trkpt>
      <trkpt lat="44.59901" lon="6.18116">
        <ele>1425.8000488281</ele>
        <time>2016-07-14T09:44:30.000Z</time>
      </trkpt>
      <trkpt lat="44.59903" lon="6.18114">
        <ele>1426</ele>
        <time>2016-07-14T09:44:36.000Z</time>
      </trkpt>
      <trkpt lat="44.59912" lon="6.18111">
        <ele>1426.5999755859</ele>
        <time>2016-07-14T09:44:45.000Z</time>
      </trkpt>
      <trkpt lat="44.59915" lon="6.18109">
        <ele>1426.5999755859</ele>
        <time>2016-07-14T09:44:53.000Z</time>
      </trkpt>
      <trkpt lat="44.59919" lon="6.18108">
        <ele>1427</ele>
        <time>2016-07-14T09:45:05.000Z</time>
      </trkpt>
      <trkpt lat="44.59927" lon="6.18104">
        <ele>1427.4000244141</ele>
        <time>2016-07-14T09:45:12.000Z</time>
      </trkpt>
      <trkpt lat="44.59936" lon="6.181">
        <ele>1427.8000488281</ele>
        <time>2016-07-14T09:45:20.000Z</time>
      </trkpt>
      <trkpt lat="44.59942" lon="6.18093">
        <ele>1427.4000244141</ele>
        <time>2016-07-14T09:45:28.000Z</time>
      </trkpt>
      <trkpt lat="44.59947" lon="6.1809">
        <ele>1427.5999755859</ele>
        <time>2016-07-14T09:45:39.000Z</time>
      </trkpt>
      <trkpt lat="44.59957" lon="6.18085">
        <ele>1427.1999511719</ele>
        <time>2016-07-14T09:45:47.000Z</time>
      </trkpt>
      <trkpt lat="44.59961" lon="6.1808">
        <ele>1426.4000244141</ele>
        <time>2016-07-14T09:45:51.000Z</time>
      </trkpt>
      <trkpt lat="44.59968" lon="6.18074">
        <ele>1425.5999755859</ele>
        <time>2016-07-14T09:45:58.000Z</time>
      </trkpt>
      <trkpt lat="44.59974" lon="6.18067">
        <ele>1425</ele>
        <time>2016-07-14T09:46:04.000Z</time>
      </trkpt>
      <trkpt lat="44.59982" lon="6.18058">
        <ele>1424.5999755859</ele>
        <time>2016-07-14T09:46:12.000Z</time>
      </trkpt>
      <trkpt lat="44.59983" lon="6.18057">
        <ele>1424.4000244141</ele>
        <time>2016-07-14T09:46:13.000Z</time>
      </trkpt>
      <trkpt lat="44.59989" lon="6.1805">
        <ele>1424</ele>
        <time>2016-07-14T09:46:19.000Z</time>
      </trkpt>
      <trkpt lat="44.59994" lon="6.18048">
        <ele>1424.1999511719</ele>
        <time>2016-07-14T09:46:22.000Z</time>
      </trkpt>
      <trkpt lat="44.59998" lon="6.18044">
        <ele>1424</ele>
        <time>2016-07-14T09:46:26.000Z</time>
      </trkpt>
      <trkpt lat="44.60003" lon="6.18038">
        <ele>1423.5999755859</ele>
        <time>2016-07-14T09:46:33.000Z</time>
      </trkpt>
      <trkpt lat="44.60007" lon="6.18034">
        <ele>1423.4000244141</ele>
        <time>2016-07-14T09:46:41.000Z</time>
      </trkpt>
      <trkpt lat="44.60014" lon="6.18029">
        <ele>1423.5999755859</ele>
        <time>2016-07-14T09:46:53.000Z</time>
      </trkpt>
      <trkpt lat="44.60018" lon="6.18021">
        <ele>1423.4000244141</ele>
        <time>2016-07-14T09:47:27.000Z</time>
      </trkpt>
      <trkpt lat="44.6002" lon="6.18021">
        <ele>1423.5999755859</ele>
        <time>2016-07-14T09:47:29.000Z</time>
      </trkpt>
      <trkpt lat="44.60028" lon="6.18032">
        <ele>1425.1999511719</ele>
        <time>2016-07-14T09:47:39.000Z</time>
      </trkpt>
      <trkpt lat="44.60031" lon="6.18035">
        <ele>1425.8000488281</ele>
        <time>2016-07-14T09:47:55.000Z</time>
      </trkpt>
      <trkpt lat="44.60032" lon="6.18038">
        <ele>1426</ele>
        <time>2016-07-14T09:48:01.000Z</time>
      </trkpt>
      <trkpt lat="44.60034" lon="6.18041">
        <ele>1426.4000244141</ele>
        <time>2016-07-14T09:48:49.000Z</time>
      </trkpt>
      <trkpt lat="44.60033" lon="6.18039">
        <ele>1426.1999511719</ele>
        <time>2016-07-14T09:48:57.000Z</time>
      </trkpt>
      <trkpt lat="44.6003" lon="6.18041">
        <ele>1426</ele>
        <time>2016-07-14T09:49:09.000Z</time>
      </trkpt>
      <trkpt lat="44.60029" lon="6.18039">
        <ele>1425.8000488281</ele>
        <time>2016-07-14T09:49:43.000Z</time>
      </trkpt>
      <trkpt lat="44.60027" lon="6.18039">
        <ele>1425.5999755859</ele>
        <time>2016-07-14T09:50:48.000Z</time>
      </trkpt>
      <trkpt lat="44.60027" lon="6.1804">
        <ele>1425.5999755859</ele>
        <time>2016-07-14T09:50:56.000Z</time>
      </trkpt>
      <trkpt lat="44.60028" lon="6.18043">
        <ele>1426</ele>
        <time>2016-07-14T09:51:05.000Z</time>
      </trkpt>
      <trkpt lat="44.60028" lon="6.1804">
        <ele>1425.8000488281</ele>
        <time>2016-07-14T09:51:12.000Z</time>
      </trkpt>
      <trkpt lat="44.60027" lon="6.18041">
        <ele>1425.8000488281</ele>
        <time>2016-07-14T09:51:25.000Z</time>
      </trkpt>
      <trkpt lat="44.60028" lon="6.1804">
        <ele>1425.8000488281</ele>
        <time>2016-07-14T09:51:32.000Z</time>
      </trkpt>
      <trkpt lat="44.60029" lon="6.18039">
        <ele>1425.8000488281</ele>
        <time>2016-07-14T09:51:42.000Z</time>
      </trkpt>
      <trkpt lat="44.60029" lon="6.18038">
        <ele>1425.5999755859</ele>
        <time>2016-07-14T09:52:11.000Z</time>
      </trkpt>
      <trkpt lat="44.60027" lon="6.18036">
        <ele>1425.4000244141</ele>
        <time>2016-07-14T09:52:26.000Z</time>
      </trkpt>
      <trkpt lat="44.60025" lon="6.18036">
        <ele>1425.1999511719</ele>
        <time>2016-07-14T09:52:33.000Z</time>
      </trkpt>
      <trkpt lat="44.60034" lon="6.18039">
        <ele>1426.4000244141</ele>
        <time>2016-07-14T09:52:42.000Z</time>
      </trkpt>
      <trkpt lat="44.60043" lon="6.18047">
        <ele>1427.1999511719</ele>
        <time>2016-07-14T09:52:50.000Z</time>
      </trkpt>
      <trkpt lat="44.60054" lon="6.18056">
        <ele>1428.4000244141</ele>
        <time>2016-07-14T09:53:00.000Z</time>
      </trkpt>
      <trkpt lat="44.60064" lon="6.18058">
        <ele>1428.8000488281</ele>
        <time>2016-07-14T09:53:08.000Z</time>
      </trkpt>
      <trkpt lat="44.60067" lon="6.18056">
        <ele>1428.8000488281</ele>
        <time>2016-07-14T09:53:11.000Z</time>
      </trkpt>
      <trkpt lat="44.60072" lon="6.18041">
        <ele>1427.8000488281</ele>
        <time>2016-07-14T09:53:20.000Z</time>
      </trkpt>
      <trkpt lat="44.6008" lon="6.18028">
        <ele>1427.1999511719</ele>
        <time>2016-07-14T09:53:29.000Z</time>
      </trkpt>
      <trkpt lat="44.60081" lon="6.18027">
        <ele>1427.1999511719</ele>
        <time>2016-07-14T09:53:30.000Z</time>
      </trkpt>
      <trkpt lat="44.60081" lon="6.18024">
        <ele>1427</ele>
        <time>2016-07-14T09:53:36.000Z</time>
      </trkpt>
      <trkpt lat="44.60081" lon="6.18027">
        <ele>1427.1999511719</ele>
        <time>2016-07-14T09:53:42.000Z</time>
      </trkpt>
      <trkpt lat="44.60088" lon="6.18031">
        <ele>1427.8000488281</ele>
        <time>2016-07-14T09:53:48.000Z</time>
      </trkpt>
      <trkpt lat="44.60092" lon="6.18033">
        <ele>1428</ele>
        <time>2016-07-14T09:53:51.000Z</time>
      </trkpt>
      <trkpt lat="44.60096" lon="6.18033">
        <ele>1428.1999511719</ele>
        <time>2016-07-14T09:53:54.000Z</time>
      </trkpt>
      <trkpt lat="44.60101" lon="6.18035">
        <ele>1428.5999755859</ele>
        <time>2016-07-14T09:53:58.000Z</time>
      </trkpt>
      <trkpt lat="44.6011" lon="6.18037">
        <ele>1429.1999511719</ele>
        <time>2016-07-14T09:54:06.000Z</time>
      </trkpt>
      <trkpt lat="44.60109" lon="6.18036">
        <ele>1429</ele>
        <time>2016-07-14T09:54:11.000Z</time>
      </trkpt>
      <trkpt lat="44.60113" lon="6.18038">
        <ele>1429.4000244141</ele>
        <time>2016-07-14T09:54:22.000Z</time>
      </trkpt>
      <trkpt lat="44.60123" lon="6.18036">
        <ele>1429.8000488281</ele>
        <time>2016-07-14T09:54:29.000Z</time>
      </trkpt>
      <trkpt lat="44.60142" lon="6.18033">
        <ele>1431</ele>
        <time>2016-07-14T09:54:44.000Z</time>
      </trkpt>
      <trkpt lat="44.60149" lon="6.18034">
        <ele>1431.5999755859</ele>
        <time>2016-07-14T09:54:50.000Z</time>
      </trkpt>
      <trkpt lat="44.60154" lon="6.18035">
        <ele>1432</ele>
        <time>2016-07-14T09:54:55.000Z</time>
      </trkpt>
      <trkpt lat="44.60155" lon="6.18035">
        <ele>1432</ele>
        <time>2016-07-14T09:54:56.000Z</time>
      </trkpt>
      <trkpt lat="44.60164" lon="6.18038">
        <ele>1433</ele>
        <time>2016-07-14T09:55:04.000Z</time>
      </trkpt>
      <trkpt lat="44.60177" lon="6.18041">
        <ele>1434</ele>
        <time>2016-07-14T09:55:13.000Z</time>
      </trkpt>
      <trkpt lat="44.60189" lon="6.18041">
        <ele>1435.1999511719</ele>
        <time>2016-07-14T09:55:21.000Z</time>
      </trkpt>
      <trkpt lat="44.60198" lon="6.18042">
        <ele>1436.4000244141</ele>
        <time>2016-07-14T09:55:28.000Z</time>
      </trkpt>
      <trkpt lat="44.60207" lon="6.18039">
        <ele>1437.5999755859</ele>
        <time>2016-07-14T09:55:35.000Z</time>
      </trkpt>
      <trkpt lat="44.60214" lon="6.18033">
        <ele>1439</ele>
        <time>2016-07-14T09:55:43.000Z</time>
      </trkpt>
      <trkpt lat="44.60223" lon="6.1803">
        <ele>1440.4000244141</ele>
        <time>2016-07-14T09:55:51.000Z</time>
      </trkpt>
      <trkpt lat="44.60224" lon="6.1803">
        <ele>1440.5999755859</ele>
        <time>2016-07-14T09:55:52.000Z</time>
      </trkpt>
      <trkpt lat="44.60229" lon="6.18032">
        <ele>1441.5999755859</ele>
        <time>2016-07-14T09:55:58.000Z</time>
      </trkpt>
      <trkpt lat="44.60233" lon="6.18029">
        <ele>1442.4000244141</ele>
        <time>2016-07-14T09:56:02.000Z</time>
      </trkpt>
      <trkpt lat="44.60238" lon="6.18028">
        <ele>1443.1999511719</ele>
        <time>2016-07-14T09:56:07.000Z</time>
      </trkpt>
      <trkpt lat="44.6025" lon="6.18021">
        <ele>1445</ele>
        <time>2016-07-14T09:56:18.000Z</time>
      </trkpt>
      <trkpt lat="44.60261" lon="6.18015">
        <ele>1446</ele>
        <time>2016-07-14T09:56:28.000Z</time>
      </trkpt>
      <trkpt lat="44.6027" lon="6.18012">
        <ele>1447</ele>
        <time>2016-07-14T09:56:36.000Z</time>
      </trkpt>
      <trkpt lat="44.60278" lon="6.1801">
        <ele>1448</ele>
        <time>2016-07-14T09:56:43.000Z</time>
      </trkpt>
      <trkpt lat="44.60291" lon="6.18008">
        <ele>1449.5999755859</ele>
        <time>2016-07-14T09:56:53.000Z</time>
      </trkpt>
      <trkpt lat="44.60302" lon="6.18006">
        <ele>1450.8000488281</ele>
        <time>2016-07-14T09:57:01.000Z</time>
      </trkpt>
      <trkpt lat="44.60314" lon="6.18003">
        <ele>1452</ele>
        <time>2016-07-14T09:57:11.000Z</time>
      </trkpt>
      <trkpt lat="44.60328" lon="6.17999">
        <ele>1452.4000244141</ele>
        <time>2016-07-14T09:57:22.000Z</time>
      </trkpt>
      <trkpt lat="44.6034" lon="6.17997">
        <ele>1452.8000488281</ele>
        <time>2016-07-14T09:57:32.000Z</time>
      </trkpt>
      <trkpt lat="44.60345" lon="6.17997">
        <ele>1453</ele>
        <time>2016-07-14T09:57:36.000Z</time>
      </trkpt>
      <trkpt lat="44.60349" lon="6.17997">
        <ele>1453.4000244141</ele>
        <time>2016-07-14T09:57:40.000Z</time>
      </trkpt>
      <trkpt lat="44.60365" lon="6.17998">
        <ele>1454.4000244141</ele>
        <time>2016-07-14T09:57:53.000Z</time>
      </trkpt>
      <trkpt lat="44.60378" lon="6.18002">
        <ele>1455.4000244141</ele>
        <time>2016-07-14T09:58:03.000Z</time>
      </trkpt>
      <trkpt lat="44.60382" lon="6.18004">
        <ele>1456</ele>
        <time>2016-07-14T09:58:09.000Z</time>
      </trkpt>
      <trkpt lat="44.60392" lon="6.18011">
        <ele>1457.1999511719</ele>
        <time>2016-07-14T09:58:17.000Z</time>
      </trkpt>
      <trkpt lat="44.60403" lon="6.18017">
        <ele>1458.4000244141</ele>
        <time>2016-07-14T09:58:26.000Z</time>
      </trkpt>
      <trkpt lat="44.60414" lon="6.18019">
        <ele>1459.1999511719</ele>
        <time>2016-07-14T09:58:36.000Z</time>
      </trkpt>
      <trkpt lat="44.60415" lon="6.18014">
        <ele>1458.4000244141</ele>
        <time>2016-07-14T09:58:41.000Z</time>
      </trkpt>
      <trkpt lat="44.60415" lon="6.18002">
        <ele>1456.8000488281</ele>
        <time>2016-07-14T09:58:50.000Z</time>
      </trkpt>
      <trkpt lat="44.60415" lon="6.17994">
        <ele>1455.8000488281</ele>
        <time>2016-07-14T09:58:58.000Z</time>
      </trkpt>
      <trkpt lat="44.60414" lon="6.17983">
        <ele>1454.4000244141</ele>
        <time>2016-07-14T09:59:05.000Z</time>
      </trkpt>
      <trkpt lat="44.60414" lon="6.1797">
        <ele>1452.8000488281</ele>
        <time>2016-07-14T09:59:14.000Z</time>
      </trkpt>
      <trkpt lat="44.60415" lon="6.17968">
        <ele>1452.8000488281</ele>
        <time>2016-07-14T09:59:15.000Z</time>
      </trkpt>
      <trkpt lat="44.60416" lon="6.1796">
        <ele>1452</ele>
        <time>2016-07-14T09:59:21.000Z</time>
      </trkpt>
      <trkpt lat="44.60417" lon="6.17959">
        <ele>1451.8000488281</ele>
        <time>2016-07-14T09:59:23.000Z</time>
      </trkpt>
      <trkpt lat="44.60418" lon="6.17958">
        <ele>1451.8000488281</ele>
        <time>2016-07-14T09:59:33.000Z</time>
      </trkpt>
      <trkpt lat="44.60418" lon="6.17956">
        <ele>1451.8000488281</ele>
        <time>2016-07-14T09:59:55.000Z</time>
      </trkpt>
      <trkpt lat="44.60419" lon="6.17949">
        <ele>1451</ele>
        <time>2016-07-14T10:01:16.000Z</time>
      </trkpt>
      <trkpt lat="44.60423" lon="6.17935">
        <ele>1450</ele>
        <time>2016-07-14T10:01:24.000Z</time>
      </trkpt>
      <trkpt lat="44.60426" lon="6.17921">
        <ele>1449</ele>
        <time>2016-07-14T10:01:32.000Z</time>
      </trkpt>
      <trkpt lat="44.60427" lon="6.17906">
        <ele>1447.8000488281</ele>
        <time>2016-07-14T10:01:40.000Z</time>
      </trkpt>
      <trkpt lat="44.60428" lon="6.17887">
        <ele>1446</ele>
        <time>2016-07-14T10:01:51.000Z</time>
      </trkpt>
      <trkpt lat="44.60429" lon="6.17873">
        <ele>1444</ele>
        <time>2016-07-14T10:02:01.000Z</time>
      </trkpt>
      <trkpt lat="44.60431" lon="6.17863">
        <ele>1443.1999511719</ele>
        <time>2016-07-14T10:02:08.000Z</time>
      </trkpt>
      <trkpt lat="44.60432" lon="6.17849">
        <ele>1442.1999511719</ele>
        <time>2016-07-14T10:02:16.000Z</time>
      </trkpt>
      <trkpt lat="44.60433" lon="6.17838">
        <ele>1441.4000244141</ele>
        <time>2016-07-14T10:02:23.000Z</time>
      </trkpt>
      <trkpt lat="44.60433" lon="6.17827">
        <ele>1440.5999755859</ele>
        <time>2016-07-14T10:02:30.000Z</time>
      </trkpt>
      <trkpt lat="44.60433" lon="6.17821">
        <ele>1440</ele>
        <time>2016-07-14T10:02:34.000Z</time>
      </trkpt>
      <trkpt lat="44.60434" lon="6.17817">
        <ele>1439.8000488281</ele>
        <time>2016-07-14T10:02:41.000Z</time>
      </trkpt>
      <trkpt lat="44.60433" lon="6.17806">
        <ele>1438.4000244141</ele>
        <time>2016-07-14T10:02:49.000Z</time>
      </trkpt>
      <trkpt lat="44.60432" lon="6.17792">
        <ele>1436.4000244141</ele>
        <time>2016-07-14T10:02:57.000Z</time>
      </trkpt>
      <trkpt lat="44.60432" lon="6.17777">
        <ele>1435.4000244141</ele>
        <time>2016-07-14T10:03:05.000Z</time>
      </trkpt>
      <trkpt lat="44.60434" lon="6.17764">
        <ele>1434.4000244141</ele>
        <time>2016-07-14T10:03:12.000Z</time>
      </trkpt>
      <trkpt lat="44.60435" lon="6.17748">
        <ele>1433.1999511719</ele>
        <time>2016-07-14T10:03:20.000Z</time>
      </trkpt>
      <trkpt lat="44.60438" lon="6.17735">
        <ele>1432.5999755859</ele>
        <time>2016-07-14T10:03:27.000Z</time>
      </trkpt>
      <trkpt lat="44.60442" lon="6.17725">
        <ele>1432.4000244141</ele>
        <time>2016-07-14T10:03:33.000Z</time>
      </trkpt>
      <trkpt lat="44.60445" lon="6.17712">
        <ele>1432.1999511719</ele>
        <time>2016-07-14T10:03:41.000Z</time>
      </trkpt>
      <trkpt lat="44.60445" lon="6.177">
        <ele>1431.4000244141</ele>
        <time>2016-07-14T10:03:47.000Z</time>
      </trkpt>
      <trkpt lat="44.60446" lon="6.17691">
        <ele>1431</ele>
        <time>2016-07-14T10:03:52.000Z</time>
      </trkpt>
      <trkpt lat="44.60447" lon="6.17681">
        <ele>1430.5999755859</ele>
        <time>2016-07-14T10:03:57.000Z</time>
      </trkpt>
      <trkpt lat="44.6045" lon="6.17667">
        <ele>1430</ele>
        <time>2016-07-14T10:04:05.000Z</time>
      </trkpt>
      <trkpt lat="44.60454" lon="6.17653">
        <ele>1429.5999755859</ele>
        <time>2016-07-14T10:04:13.000Z</time>
      </trkpt>
      <trkpt lat="44.60462" lon="6.17635">
        <ele>1428.4000244141</ele>
        <time>2016-07-14T10:04:23.000Z</time>
      </trkpt>
      <trkpt lat="44.60466" lon="6.17622">
        <ele>1427.1999511719</ele>
        <time>2016-07-14T10:04:31.000Z</time>
      </trkpt>
      <trkpt lat="44.60475" lon="6.17595">
        <ele>1425</ele>
        <time>2016-07-14T10:04:46.000Z</time>
      </trkpt>
      <trkpt lat="44.60478" lon="6.17587">
        <ele>1424.4000244141</ele>
        <time>2016-07-14T10:04:51.000Z</time>
      </trkpt>
      <trkpt lat="44.60486" lon="6.17572">
        <ele>1424.4000244141</ele>
        <time>2016-07-14T10:05:02.000Z</time>
      </trkpt>
      <trkpt lat="44.60488" lon="6.17569">
        <ele>1424.4000244141</ele>
        <time>2016-07-14T10:05:07.000Z</time>
      </trkpt>
      <trkpt lat="44.60487" lon="6.1757">
        <ele>1424.4000244141</ele>
        <time>2016-07-14T10:05:12.000Z</time>
      </trkpt>
      <trkpt lat="44.60487" lon="6.17569">
        <ele>1424.4000244141</ele>
        <time>2016-07-14T10:05:24.000Z</time>
      </trkpt>
      <trkpt lat="44.60492" lon="6.17556">
        <ele>1424</ele>
        <time>2016-07-14T10:05:32.000Z</time>
      </trkpt>
      <trkpt lat="44.60499" lon="6.17542">
        <ele>1423.4000244141</ele>
        <time>2016-07-14T10:05:41.000Z</time>
      </trkpt>
      <trkpt lat="44.60509" lon="6.17523">
        <ele>1423.1999511719</ele>
        <time>2016-07-14T10:05:53.000Z</time>
      </trkpt>
      <trkpt lat="44.60519" lon="6.17504">
        <ele>1423.8000488281</ele>
        <time>2016-07-14T10:06:05.000Z</time>
      </trkpt>
      <trkpt lat="44.6053" lon="6.17483">
        <ele>1424.4000244141</ele>
        <time>2016-07-14T10:06:18.000Z</time>
      </trkpt>
      <trkpt lat="44.60541" lon="6.17462">
        <ele>1423.5999755859</ele>
        <time>2016-07-14T10:06:31.000Z</time>
      </trkpt>
      <trkpt lat="44.60543" lon="6.17455">
        <ele>1423.1999511719</ele>
        <time>2016-07-14T10:06:35.000Z</time>
      </trkpt>
      <trkpt lat="44.6054" lon="6.17447">
        <ele>1422.4000244141</ele>
        <time>2016-07-14T10:06:40.000Z</time>
      </trkpt>
      <trkpt lat="44.60541" lon="6.17446">
        <ele>1422.4000244141</ele>
        <time>2016-07-14T10:06:46.000Z</time>
      </trkpt>
      <trkpt lat="44.60546" lon="6.1745">
        <ele>1422.5999755859</ele>
        <time>2016-07-14T10:06:51.000Z</time>
      </trkpt>
      <trkpt lat="44.60547" lon="6.1745">
        <ele>1422.5999755859</ele>
        <time>2016-07-14T10:06:52.000Z</time>
      </trkpt>
      <trkpt lat="44.60551" lon="6.17447">
        <ele>1422.4000244141</ele>
        <time>2016-07-14T10:06:56.000Z</time>
      </trkpt>
      <trkpt lat="44.60557" lon="6.17436">
        <ele>1421.4000244141</ele>
        <time>2016-07-14T10:07:03.000Z</time>
      </trkpt>
      <trkpt lat="44.60569" lon="6.17418">
        <ele>1420.8000488281</ele>
        <time>2016-07-14T10:07:15.000Z</time>
      </trkpt>
      <trkpt lat="44.60577" lon="6.17403">
        <ele>1421.4000244141</ele>
        <time>2016-07-14T10:07:25.000Z</time>
      </trkpt>
      <trkpt lat="44.60585" lon="6.17395">
        <ele>1422.1999511719</ele>
        <time>2016-07-14T10:07:32.000Z</time>
      </trkpt>
      <trkpt lat="44.60588" lon="6.17388">
        <ele>1421.8000488281</ele>
        <time>2016-07-14T10:07:36.000Z</time>
      </trkpt>
      <trkpt lat="44.60589" lon="6.17378">
        <ele>1421</ele>
        <time>2016-07-14T10:07:43.000Z</time>
      </trkpt>
      <trkpt lat="44.6059" lon="6.17378">
        <ele>1421.1999511719</ele>
        <time>2016-07-14T10:07:44.000Z</time>
      </trkpt>
      <trkpt lat="44.60593" lon="6.17377">
        <ele>1421.4000244141</ele>
        <time>2016-07-14T10:07:47.000Z</time>
      </trkpt>
      <trkpt lat="44.60603" lon="6.17366">
        <ele>1422</ele>
        <time>2016-07-14T10:07:56.000Z</time>
      </trkpt>
      <trkpt lat="44.60611" lon="6.17354">
        <ele>1422.5999755859</ele>
        <time>2016-07-14T10:08:04.000Z</time>
      </trkpt>
      <trkpt lat="44.60621" lon="6.1734">
        <ele>1423</ele>
        <time>2016-07-14T10:08:14.000Z</time>
      </trkpt>
      <trkpt lat="44.60634" lon="6.17326">
        <ele>1422.4000244141</ele>
        <time>2016-07-14T10:08:26.000Z</time>
      </trkpt>
      <trkpt lat="44.60658" lon="6.17303">
        <ele>1423.8000488281</ele>
        <time>2016-07-14T10:08:48.000Z</time>
      </trkpt>
      <trkpt lat="44.60667" lon="6.17295">
        <ele>1423.8000488281</ele>
        <time>2016-07-14T10:08:56.000Z</time>
      </trkpt>
      <trkpt lat="44.60675" lon="6.17287">
        <ele>1424</ele>
        <time>2016-07-14T10:09:04.000Z</time>
      </trkpt>
      <trkpt lat="44.60686" lon="6.17277">
        <ele>1425.8000488281</ele>
        <time>2016-07-14T10:09:14.000Z</time>
      </trkpt>
      <trkpt lat="44.607" lon="6.17265">
        <ele>1428.4000244141</ele>
        <time>2016-07-14T10:09:26.000Z</time>
      </trkpt>
      <trkpt lat="44.6071" lon="6.17252">
        <ele>1430</ele>
        <time>2016-07-14T10:09:36.000Z</time>
      </trkpt>
      <trkpt lat="44.60716" lon="6.17242">
        <ele>1431</ele>
        <time>2016-07-14T10:09:43.000Z</time>
      </trkpt>
      <trkpt lat="44.6072" lon="6.17236">
        <ele>1431.8000488281</ele>
        <time>2016-07-14T10:09:48.000Z</time>
      </trkpt>
      <trkpt lat="44.60729" lon="6.17226">
        <ele>1433.1999511719</ele>
        <time>2016-07-14T10:09:57.000Z</time>
      </trkpt>
      <trkpt lat="44.60735" lon="6.17213">
        <ele>1433.4000244141</ele>
        <time>2016-07-14T10:10:06.000Z</time>
      </trkpt>
      <trkpt lat="44.60747" lon="6.17197">
        <ele>1434</ele>
        <time>2016-07-14T10:10:18.000Z</time>
      </trkpt>
      <trkpt lat="44.6076" lon="6.17187">
        <ele>1434.8000488281</ele>
        <time>2016-07-14T10:10:29.000Z</time>
      </trkpt>
      <trkpt lat="44.6077" lon="6.17181">
        <ele>1435.5999755859</ele>
        <time>2016-07-14T10:10:37.000Z</time>
      </trkpt>
      <trkpt lat="44.60781" lon="6.17172">
        <ele>1436.1999511719</ele>
        <time>2016-07-14T10:10:47.000Z</time>
      </trkpt>
      <trkpt lat="44.60791" lon="6.17161">
        <ele>1436.8000488281</ele>
        <time>2016-07-14T10:10:56.000Z</time>
      </trkpt>
      <trkpt lat="44.60798" lon="6.17153">
        <ele>1437</ele>
        <time>2016-07-14T10:11:02.000Z</time>
      </trkpt>
      <trkpt lat="44.60805" lon="6.17138">
        <ele>1436.1999511719</ele>
        <time>2016-07-14T10:11:11.000Z</time>
      </trkpt>
      <trkpt lat="44.6081" lon="6.17129">
        <ele>1435.8000488281</ele>
        <time>2016-07-14T10:11:18.000Z</time>
      </trkpt>
      <trkpt lat="44.60818" lon="6.17112">
        <ele>1434.5999755859</ele>
        <time>2016-07-14T10:11:28.000Z</time>
      </trkpt>
      <trkpt lat="44.60819" lon="6.1711">
        <ele>1434.5999755859</ele>
        <time>2016-07-14T10:11:29.000Z</time>
      </trkpt>
      <trkpt lat="44.60828" lon="6.17093">
        <ele>1433.5999755859</ele>
        <time>2016-07-14T10:11:40.000Z</time>
      </trkpt>
      <trkpt lat="44.60837" lon="6.17079">
        <ele>1433.4000244141</ele>
        <time>2016-07-14T10:11:50.000Z</time>
      </trkpt>
      <trkpt lat="44.60848" lon="6.17068">
        <ele>1433.5999755859</ele>
        <time>2016-07-14T10:12:00.000Z</time>
      </trkpt>
      <trkpt lat="44.60861" lon="6.1706">
        <ele>1434.1999511719</ele>
        <time>2016-07-14T10:12:10.000Z</time>
      </trkpt>
      <trkpt lat="44.60874" lon="6.17052">
        <ele>1435</ele>
        <time>2016-07-14T10:12:22.000Z</time>
      </trkpt>
      <trkpt lat="44.60887" lon="6.17044">
        <ele>1435.8000488281</ele>
        <time>2016-07-14T10:12:33.000Z</time>
      </trkpt>
      <trkpt lat="44.60901" lon="6.1704">
        <ele>1437</ele>
        <time>2016-07-14T10:12:44.000Z</time>
      </trkpt>
      <trkpt lat="44.60914" lon="6.17038">
        <ele>1438.1999511719</ele>
        <time>2016-07-14T10:12:55.000Z</time>
      </trkpt>
      <trkpt lat="44.60923" lon="6.17045">
        <ele>1439.8000488281</ele>
        <time>2016-07-14T10:13:03.000Z</time>
      </trkpt>
      <trkpt lat="44.60932" lon="6.17061">
        <ele>1442</ele>
        <time>2016-07-14T10:13:14.000Z</time>
      </trkpt>
      <trkpt lat="44.60939" lon="6.17077">
        <ele>1444</ele>
        <time>2016-07-14T10:13:24.000Z</time>
      </trkpt>
      <trkpt lat="44.60947" lon="6.17094">
        <ele>1446.1999511719</ele>
        <time>2016-07-14T10:13:34.000Z</time>
      </trkpt>
      <trkpt lat="44.60956" lon="6.17117">
        <ele>1448.8000488281</ele>
        <time>2016-07-14T10:13:48.000Z</time>
      </trkpt>
      <trkpt lat="44.6096" lon="6.17135">
        <ele>1450.1999511719</ele>
        <time>2016-07-14T10:13:58.000Z</time>
      </trkpt>
      <trkpt lat="44.60959" lon="6.1715">
        <ele>1451.4000244141</ele>
        <time>2016-07-14T10:14:06.000Z</time>
      </trkpt>
      <trkpt lat="44.60959" lon="6.17167">
        <ele>1452.5999755859</ele>
        <time>2016-07-14T10:14:15.000Z</time>
      </trkpt>
      <trkpt lat="44.60963" lon="6.17182">
        <ele>1453.5999755859</ele>
        <time>2016-07-14T10:14:23.000Z</time>
      </trkpt>
      <trkpt lat="44.60968" lon="6.17195">
        <ele>1454.4000244141</ele>
        <time>2016-07-14T10:14:31.000Z</time>
      </trkpt>
      <trkpt lat="44.6097" lon="6.17213">
        <ele>1455.8000488281</ele>
        <time>2016-07-14T10:14:41.000Z</time>
      </trkpt>
      <trkpt lat="44.6097" lon="6.17216">
        <ele>1456</ele>
        <time>2016-07-14T10:14:43.000Z</time>
      </trkpt>
      <trkpt lat="44.60974" lon="6.17228">
        <ele>1456.8000488281</ele>
        <time>2016-07-14T10:14:53.000Z</time>
      </trkpt>
      <trkpt lat="44.60975" lon="6.17229">
        <ele>1456.5999755859</ele>
        <time>2016-07-14T10:15:03.000Z</time>
      </trkpt>
      <trkpt lat="44.60981" lon="6.17236">
        <ele>1456.4000244141</ele>
        <time>2016-07-14T10:15:10.000Z</time>
      </trkpt>
      <trkpt lat="44.60991" lon="6.17238">
        <ele>1456.1999511719</ele>
        <time>2016-07-14T10:15:18.000Z</time>
      </trkpt>
      <trkpt lat="44.61004" lon="6.17239">
        <ele>1456</ele>
        <time>2016-07-14T10:15:28.000Z</time>
      </trkpt>
      <trkpt lat="44.61015" lon="6.17246">
        <ele>1455.5999755859</ele>
        <time>2016-07-14T10:15:37.000Z</time>
      </trkpt>
      <trkpt lat="44.61022" lon="6.17246">
        <ele>1455.4000244141</ele>
        <time>2016-07-14T10:15:42.000Z</time>
      </trkpt>
      <trkpt lat="44.6103" lon="6.17247">
        <ele>1455.4000244141</ele>
        <time>2016-07-14T10:15:50.000Z</time>
      </trkpt>
      <trkpt lat="44.61039" lon="6.17246">
        <ele>1455</ele>
        <time>2016-07-14T10:15:58.000Z</time>
      </trkpt>
      <trkpt lat="44.61052" lon="6.17243">
        <ele>1454</ele>
        <time>2016-07-14T10:16:08.000Z</time>
      </trkpt>
      <trkpt lat="44.61061" lon="6.17238">
        <ele>1453.5999755859</ele>
        <time>2016-07-14T10:16:16.000Z</time>
      </trkpt>
      <trkpt lat="44.61065" lon="6.17231">
        <ele>1453.8000488281</ele>
        <time>2016-07-14T10:16:22.000Z</time>
      </trkpt>
      <trkpt lat="44.61068" lon="6.17234">
        <ele>1453.1999511719</ele>
        <time>2016-07-14T10:16:28.000Z</time>
      </trkpt>
      <trkpt lat="44.61068" lon="6.17236">
        <ele>1453.1999511719</ele>
        <time>2016-07-14T10:16:29.000Z</time>
      </trkpt>
      <trkpt lat="44.61068" lon="6.17239">
        <ele>1453</ele>
        <time>2016-07-14T10:16:31.000Z</time>
      </trkpt>
      <trkpt lat="44.61068" lon="6.17241">
        <ele>1452.8000488281</ele>
        <time>2016-07-14T10:16:39.000Z</time>
      </trkpt>
      <trkpt lat="44.61066" lon="6.17234">
        <ele>1453.4000244141</ele>
        <time>2016-07-14T10:17:41.000Z</time>
      </trkpt>
      <trkpt lat="44.61071" lon="6.17221">
        <ele>1453.1999511719</ele>
        <time>2016-07-14T10:17:49.000Z</time>
      </trkpt>
      <trkpt lat="44.6108" lon="6.17213">
        <ele>1452.1999511719</ele>
        <time>2016-07-14T10:17:57.000Z</time>
      </trkpt>
      <trkpt lat="44.6109" lon="6.17212">
        <ele>1451.1999511719</ele>
        <time>2016-07-14T10:18:05.000Z</time>
      </trkpt>
      <trkpt lat="44.61102" lon="6.1721">
        <ele>1450.4000244141</ele>
        <time>2016-07-14T10:18:14.000Z</time>
      </trkpt>
      <trkpt lat="44.61114" lon="6.17203">
        <ele>1450.4000244141</ele>
        <time>2016-07-14T10:18:24.000Z</time>
      </trkpt>
      <trkpt lat="44.61122" lon="6.17197">
        <ele>1450</ele>
        <time>2016-07-14T10:18:31.000Z</time>
      </trkpt>
      <trkpt lat="44.61134" lon="6.17191">
        <ele>1449.1999511719</ele>
        <time>2016-07-14T10:18:40.000Z</time>
      </trkpt>
      <trkpt lat="44.61145" lon="6.17185">
        <ele>1448.4000244141</ele>
        <time>2016-07-14T10:18:50.000Z</time>
      </trkpt>
      <trkpt lat="44.61146" lon="6.17183">
        <ele>1448.1999511719</ele>
        <time>2016-07-14T10:18:57.000Z</time>
      </trkpt>
      <trkpt lat="44.61149" lon="6.17176">
        <ele>1448</ele>
        <time>2016-07-14T10:19:09.000Z</time>
      </trkpt>
      <trkpt lat="44.61157" lon="6.17168">
        <ele>1448.1999511719</ele>
        <time>2016-07-14T10:19:17.000Z</time>
      </trkpt>
      <trkpt lat="44.61166" lon="6.17164">
        <ele>1448.1999511719</ele>
        <time>2016-07-14T10:19:24.000Z</time>
      </trkpt>
      <trkpt lat="44.6117" lon="6.17161">
        <ele>1448.1999511719</ele>
        <time>2016-07-14T10:19:31.000Z</time>
      </trkpt>
      <trkpt lat="44.61174" lon="6.1716">
        <ele>1448</ele>
        <time>2016-07-14T10:19:48.000Z</time>
      </trkpt>
      <trkpt lat="44.61185" lon="6.17155">
        <ele>1448</ele>
        <time>2016-07-14T10:19:57.000Z</time>
      </trkpt>
      <trkpt lat="44.61192" lon="6.17149">
        <ele>1448</ele>
        <time>2016-07-14T10:20:03.000Z</time>
      </trkpt>
      <trkpt lat="44.61197" lon="6.17148">
        <ele>1448</ele>
        <time>2016-07-14T10:20:06.000Z</time>
      </trkpt>
      <trkpt lat="44.61204" lon="6.17148">
        <ele>1447.5999755859</ele>
        <time>2016-07-14T10:20:11.000Z</time>
      </trkpt>
      <trkpt lat="44.61217" lon="6.1714">
        <ele>1445.5999755859</ele>
        <time>2016-07-14T10:20:20.000Z</time>
      </trkpt>
      <trkpt lat="44.61236" lon="6.17128">
        <ele>1442.1999511719</ele>
        <time>2016-07-14T10:20:28.000Z</time>
      </trkpt>
      <trkpt lat="44.6125" lon="6.17121">
        <ele>1439.5999755859</ele>
        <time>2016-07-14T10:20:36.000Z</time>
      </trkpt>
      <trkpt lat="44.61266" lon="6.17115">
        <ele>1438.1999511719</ele>
        <time>2016-07-14T10:20:47.000Z</time>
      </trkpt>
      <trkpt lat="44.61281" lon="6.17112">
        <ele>1437.8000488281</ele>
        <time>2016-07-14T10:20:58.000Z</time>
      </trkpt>
      <trkpt lat="44.61291" lon="6.17108">
        <ele>1437.1999511719</ele>
        <time>2016-07-14T10:21:06.000Z</time>
      </trkpt>
      <trkpt lat="44.61306" lon="6.17102">
        <ele>1436</ele>
        <time>2016-07-14T10:21:18.000Z</time>
      </trkpt>
      <trkpt lat="44.6132" lon="6.17095">
        <ele>1435</ele>
        <time>2016-07-14T10:21:29.000Z</time>
      </trkpt>
      <trkpt lat="44.6133" lon="6.17092">
        <ele>1434.8000488281</ele>
        <time>2016-07-14T10:21:37.000Z</time>
      </trkpt>
      <trkpt lat="44.61342" lon="6.17086">
        <ele>1434.8000488281</ele>
        <time>2016-07-14T10:21:47.000Z</time>
      </trkpt>
      <trkpt lat="44.61355" lon="6.17082">
        <ele>1434.5999755859</ele>
        <time>2016-07-14T10:21:57.000Z</time>
      </trkpt>
      <trkpt lat="44.61367" lon="6.1708">
        <ele>1434.4000244141</ele>
        <time>2016-07-14T10:22:06.000Z</time>
      </trkpt>
      <trkpt lat="44.61376" lon="6.17076">
        <ele>1433.8000488281</ele>
        <time>2016-07-14T10:22:13.000Z</time>
      </trkpt>
      <trkpt lat="44.61385" lon="6.17069">
        <ele>1433.8000488281</ele>
        <time>2016-07-14T10:22:21.000Z</time>
      </trkpt>
      <trkpt lat="44.61394" lon="6.17062">
        <ele>1434.4000244141</ele>
        <time>2016-07-14T10:22:29.000Z</time>
      </trkpt>
      <trkpt lat="44.61405" lon="6.17057">
        <ele>1433.5999755859</ele>
        <time>2016-07-14T10:22:38.000Z</time>
      </trkpt>
      <trkpt lat="44.61428" lon="6.17045">
        <ele>1431.4000244141</ele>
        <time>2016-07-14T10:22:57.000Z</time>
      </trkpt>
      <trkpt lat="44.61439" lon="6.17037">
        <ele>1430.4000244141</ele>
        <time>2016-07-14T10:23:06.000Z</time>
      </trkpt>
      <trkpt lat="44.61449" lon="6.17031">
        <ele>1429.4000244141</ele>
        <time>2016-07-14T10:23:14.000Z</time>
      </trkpt>
      <trkpt lat="44.61459" lon="6.17027">
        <ele>1428.4000244141</ele>
        <time>2016-07-14T10:23:22.000Z</time>
      </trkpt>
      <trkpt lat="44.6147" lon="6.17023">
        <ele>1427</ele>
        <time>2016-07-14T10:23:31.000Z</time>
      </trkpt>
      <trkpt lat="44.61481" lon="6.17026">
        <ele>1426.5999755859</ele>
        <time>2016-07-14T10:23:40.000Z</time>
      </trkpt>
      <trkpt lat="44.61493" lon="6.17032">
        <ele>1426.4000244141</ele>
        <time>2016-07-14T10:23:49.000Z</time>
      </trkpt>
      <trkpt lat="44.61502" lon="6.17036">
        <ele>1426.4000244141</ele>
        <time>2016-07-14T10:23:57.000Z</time>
      </trkpt>
      <trkpt lat="44.61512" lon="6.17037">
        <ele>1425.8000488281</ele>
        <time>2016-07-14T10:24:05.000Z</time>
      </trkpt>
      <trkpt lat="44.61527" lon="6.17038">
        <ele>1424.8000488281</ele>
        <time>2016-07-14T10:24:16.000Z</time>
      </trkpt>
      <trkpt lat="44.61539" lon="6.17042">
        <ele>1424.1999511719</ele>
        <time>2016-07-14T10:24:26.000Z</time>
      </trkpt>
      <trkpt lat="44.61547" lon="6.17046">
        <ele>1423.4000244141</ele>
        <time>2016-07-14T10:24:33.000Z</time>
      </trkpt>
      <trkpt lat="44.61559" lon="6.1705">
        <ele>1422</ele>
        <time>2016-07-14T10:24:42.000Z</time>
      </trkpt>
      <trkpt lat="44.61568" lon="6.17054">
        <ele>1421</ele>
        <time>2016-07-14T10:24:49.000Z</time>
      </trkpt>
      <trkpt lat="44.61582" lon="6.17051">
        <ele>1418.4000244141</ele>
        <time>2016-07-14T10:24:59.000Z</time>
      </trkpt>
      <trkpt lat="44.61592" lon="6.17051">
        <ele>1416.8000488281</ele>
        <time>2016-07-14T10:25:07.000Z</time>
      </trkpt>
      <trkpt lat="44.61602" lon="6.17051">
        <ele>1415.4000244141</ele>
        <time>2016-07-14T10:25:15.000Z</time>
      </trkpt>
      <trkpt lat="44.61615" lon="6.17049">
        <ele>1414</ele>
        <time>2016-07-14T10:25:25.000Z</time>
      </trkpt>
      <trkpt lat="44.61626" lon="6.17045">
        <ele>1412.8000488281</ele>
        <time>2016-07-14T10:25:35.000Z</time>
      </trkpt>
      <trkpt lat="44.61635" lon="6.1704">
        <ele>1411.5999755859</ele>
        <time>2016-07-14T10:25:43.000Z</time>
      </trkpt>
      <trkpt lat="44.61639" lon="6.17038">
        <ele>1411</ele>
        <time>2016-07-14T10:25:48.000Z</time>
      </trkpt>
      <trkpt lat="44.61641" lon="6.17037">
        <ele>1410.8000488281</ele>
        <time>2016-07-14T10:25:56.000Z</time>
      </trkpt>
      <trkpt lat="44.61645" lon="6.17034">
        <ele>1410.1999511719</ele>
        <time>2016-07-14T10:26:02.000Z</time>
      </trkpt>
      <trkpt lat="44.61653" lon="6.17028">
        <ele>1409</ele>
        <time>2016-07-14T10:26:10.000Z</time>
      </trkpt>
      <trkpt lat="44.61661" lon="6.17023">
        <ele>1408</ele>
        <time>2016-07-14T10:26:17.000Z</time>
      </trkpt>
      <trkpt lat="44.6167" lon="6.17012">
        <ele>1408</ele>
        <time>2016-07-14T10:26:27.000Z</time>
      </trkpt>
      <trkpt lat="44.6168" lon="6.17001">
        <ele>1408.4000244141</ele>
        <time>2016-07-14T10:26:37.000Z</time>
      </trkpt>
      <trkpt lat="44.61688" lon="6.16989">
        <ele>1408.8000488281</ele>
        <time>2016-07-14T10:26:46.000Z</time>
      </trkpt>
      <trkpt lat="44.61691" lon="6.16984">
        <ele>1409</ele>
        <time>2016-07-14T10:26:50.000Z</time>
      </trkpt>
      <trkpt lat="44.61694" lon="6.16981">
        <ele>1409</ele>
        <time>2016-07-14T10:26:53.000Z</time>
      </trkpt>
      <trkpt lat="44.61703" lon="6.1697">
        <ele>1408.4000244141</ele>
        <time>2016-07-14T10:27:04.000Z</time>
      </trkpt>
      <trkpt lat="44.6171" lon="6.16964">
        <ele>1407</ele>
        <time>2016-07-14T10:27:10.000Z</time>
      </trkpt>
      <trkpt lat="44.61722" lon="6.16956">
        <ele>1404.5999755859</ele>
        <time>2016-07-14T10:27:19.000Z</time>
      </trkpt>
      <trkpt lat="44.61735" lon="6.16947">
        <ele>1402</ele>
        <time>2016-07-14T10:27:29.000Z</time>
      </trkpt>
      <trkpt lat="44.61743" lon="6.16942">
        <ele>1400.4000244141</ele>
        <time>2016-07-14T10:27:35.000Z</time>
      </trkpt>
      <trkpt lat="44.61757" lon="6.16931">
        <ele>1399.5999755859</ele>
        <time>2016-07-14T10:27:47.000Z</time>
      </trkpt>
      <trkpt lat="44.61766" lon="6.16921">
        <ele>1399.5999755859</ele>
        <time>2016-07-14T10:27:55.000Z</time>
      </trkpt>
      <trkpt lat="44.61778" lon="6.16907">
        <ele>1399.5999755859</ele>
        <time>2016-07-14T10:28:07.000Z</time>
      </trkpt>
      <trkpt lat="44.61788" lon="6.1689">
        <ele>1399.1999511719</ele>
        <time>2016-07-14T10:28:18.000Z</time>
      </trkpt>
      <trkpt lat="44.61794" lon="6.16876">
        <ele>1397</ele>
        <time>2016-07-14T10:28:27.000Z</time>
      </trkpt>
      <trkpt lat="44.61801" lon="6.16859">
        <ele>1394.4000244141</ele>
        <time>2016-07-14T10:28:38.000Z</time>
      </trkpt>
      <trkpt lat="44.61807" lon="6.16844">
        <ele>1392.1999511719</ele>
        <time>2016-07-14T10:28:47.000Z</time>
      </trkpt>
      <trkpt lat="44.61816" lon="6.16827">
        <ele>1390.8000488281</ele>
        <time>2016-07-14T10:28:58.000Z</time>
      </trkpt>
      <trkpt lat="44.61821" lon="6.16819">
        <ele>1390.8000488281</ele>
        <time>2016-07-14T10:29:05.000Z</time>
      </trkpt>
      <trkpt lat="44.61831" lon="6.16806">
        <ele>1389.4000244141</ele>
        <time>2016-07-14T10:29:15.000Z</time>
      </trkpt>
      <trkpt lat="44.61846" lon="6.16792">
        <ele>1385.5999755859</ele>
        <time>2016-07-14T10:29:28.000Z</time>
      </trkpt>
      <trkpt lat="44.61857" lon="6.16783">
        <ele>1385</ele>
        <time>2016-07-14T10:29:37.000Z</time>
      </trkpt>
      <trkpt lat="44.6187" lon="6.16775">
        <ele>1384.8000488281</ele>
        <time>2016-07-14T10:29:47.000Z</time>
      </trkpt>
      <trkpt lat="44.61883" lon="6.16768">
        <ele>1383.8000488281</ele>
        <time>2016-07-14T10:29:56.000Z</time>
      </trkpt>
      <trkpt lat="44.619" lon="6.16758">
        <ele>1382.4000244141</ele>
        <time>2016-07-14T10:30:09.000Z</time>
      </trkpt>
      <trkpt lat="44.61913" lon="6.16748">
        <ele>1383.1999511719</ele>
        <time>2016-07-14T10:30:20.000Z</time>
      </trkpt>
      <trkpt lat="44.61927" lon="6.1674">
        <ele>1383.8000488281</ele>
        <time>2016-07-14T10:30:31.000Z</time>
      </trkpt>
      <trkpt lat="44.61943" lon="6.16725">
        <ele>1384.4000244141</ele>
        <time>2016-07-14T10:30:44.000Z</time>
      </trkpt>
      <trkpt lat="44.61952" lon="6.1672">
        <ele>1385</ele>
        <time>2016-07-14T10:30:51.000Z</time>
      </trkpt>
      <trkpt lat="44.6196" lon="6.16708">
        <ele>1385</ele>
        <time>2016-07-14T10:31:00.000Z</time>
      </trkpt>
      <trkpt lat="44.61968" lon="6.16693">
        <ele>1385</ele>
        <time>2016-07-14T10:31:11.000Z</time>
      </trkpt>
      <trkpt lat="44.61975" lon="6.1668">
        <ele>1385</ele>
        <time>2016-07-14T10:31:20.000Z</time>
      </trkpt>
      <trkpt lat="44.61983" lon="6.16664">
        <ele>1385.4000244141</ele>
        <time>2016-07-14T10:31:30.000Z</time>
      </trkpt>
      <trkpt lat="44.61993" lon="6.16646">
        <ele>1386.4000244141</ele>
        <time>2016-07-14T10:31:42.000Z</time>
      </trkpt>
      <trkpt lat="44.61998" lon="6.16637">
        <ele>1386.1999511719</ele>
        <time>2016-07-14T10:31:49.000Z</time>
      </trkpt>
      <trkpt lat="44.61998" lon="6.16636">
        <ele>1386</ele>
        <time>2016-07-14T10:31:55.000Z</time>
      </trkpt>
      <trkpt lat="44.61997" lon="6.16637">
        <ele>1386</ele>
        <time>2016-07-14T10:32:04.000Z</time>
      </trkpt>
      <trkpt lat="44.61997" lon="6.16637">
        <ele>1386</ele>
        <time>2016-07-14T10:33:14.000Z</time>
      </trkpt>
      <trkpt lat="44.61999" lon="6.16634">
        <ele>1386</ele>
        <time>2016-07-14T10:33:48.000Z</time>
      </trkpt>
      <trkpt lat="44.61998" lon="6.16633">
        <ele>1385.8000488281</ele>
        <time>2016-07-14T10:34:14.000Z</time>
      </trkpt>
      <trkpt lat="44.62006" lon="6.16626">
        <ele>1385.5999755859</ele>
        <time>2016-07-14T10:34:21.000Z</time>
      </trkpt>
      <trkpt lat="44.62009" lon="6.16618">
        <ele>1385.1999511719</ele>
        <time>2016-07-14T10:34:26.000Z</time>
      </trkpt>
      <trkpt lat="44.62014" lon="6.16611">
        <ele>1384.8000488281</ele>
        <time>2016-07-14T10:34:31.000Z</time>
      </trkpt>
      <trkpt lat="44.62015" lon="6.1661">
        <ele>1384.8000488281</ele>
        <time>2016-07-14T10:34:32.000Z</time>
      </trkpt>
      <trkpt lat="44.6202" lon="6.16598">
        <ele>1384</ele>
        <time>2016-07-14T10:34:39.000Z</time>
      </trkpt>
      <trkpt lat="44.62028" lon="6.16571">
        <ele>1382.4000244141</ele>
        <time>2016-07-14T10:34:54.000Z</time>
      </trkpt>
      <trkpt lat="44.62031" lon="6.16559">
        <ele>1381.5999755859</ele>
        <time>2016-07-14T10:35:01.000Z</time>
      </trkpt>
      <trkpt lat="44.62033" lon="6.16547">
        <ele>1380.1999511719</ele>
        <time>2016-07-14T10:35:08.000Z</time>
      </trkpt>
      <trkpt lat="44.62033" lon="6.16545">
        <ele>1379.8000488281</ele>
        <time>2016-07-14T10:35:09.000Z</time>
      </trkpt>
      <trkpt lat="44.62035" lon="6.1654">
        <ele>1379.1999511719</ele>
        <time>2016-07-14T10:35:13.000Z</time>
      </trkpt>
      <trkpt lat="44.62037" lon="6.16526">
        <ele>1377.1999511719</ele>
        <time>2016-07-14T10:35:21.000Z</time>
      </trkpt>
      <trkpt lat="44.62039" lon="6.16515">
        <ele>1375.4000244141</ele>
        <time>2016-07-14T10:35:27.000Z</time>
      </trkpt>
      <trkpt lat="44.62042" lon="6.16506">
        <ele>1373.8000488281</ele>
        <time>2016-07-14T10:35:33.000Z</time>
      </trkpt>
      <trkpt lat="44.62043" lon="6.16503">
        <ele>1373.4000244141</ele>
        <time>2016-07-14T10:35:35.000Z</time>
      </trkpt>
      <trkpt lat="44.62044" lon="6.16499">
        <ele>1372.8000488281</ele>
        <time>2016-07-14T10:35:37.000Z</time>
      </trkpt>
      <trkpt lat="44.62048" lon="6.16474">
        <ele>1369.5999755859</ele>
        <time>2016-07-14T10:35:51.000Z</time>
      </trkpt>
      <trkpt lat="44.6205" lon="6.16463">
        <ele>1368.1999511719</ele>
        <time>2016-07-14T10:35:58.000Z</time>
      </trkpt>
      <trkpt lat="44.62053" lon="6.1645">
        <ele>1366.4000244141</ele>
        <time>2016-07-14T10:36:05.000Z</time>
      </trkpt>
      <trkpt lat="44.62056" lon="6.16441">
        <ele>1365</ele>
        <time>2016-07-14T10:36:11.000Z</time>
      </trkpt>
      <trkpt lat="44.62057" lon="6.1644">
        <ele>1364.8000488281</ele>
        <time>2016-07-14T10:36:12.000Z</time>
      </trkpt>
      <trkpt lat="44.62056" lon="6.16439">
        <ele>1364.8000488281</ele>
        <time>2016-07-14T10:36:18.000Z</time>
      </trkpt>
      <trkpt lat="44.62055" lon="6.1644">
        <ele>1365</ele>
        <time>2016-07-14T10:36:23.000Z</time>
      </trkpt>
      <trkpt lat="44.62058" lon="6.16442">
        <ele>1365.1999511719</ele>
        <time>2016-07-14T10:36:38.000Z</time>
      </trkpt>
      <trkpt lat="44.6206" lon="6.16435">
        <ele>1364</ele>
        <time>2016-07-14T10:36:49.000Z</time>
      </trkpt>
      <trkpt lat="44.62065" lon="6.16426">
        <ele>1362.5999755859</ele>
        <time>2016-07-14T10:36:55.000Z</time>
      </trkpt>
      <trkpt lat="44.62072" lon="6.16416">
        <ele>1361.8000488281</ele>
        <time>2016-07-14T10:37:02.000Z</time>
      </trkpt>
      <trkpt lat="44.62079" lon="6.16405">
        <ele>1361.1999511719</ele>
        <time>2016-07-14T10:37:09.000Z</time>
      </trkpt>
      <trkpt lat="44.62085" lon="6.16401">
        <ele>1360.8000488281</ele>
        <time>2016-07-14T10:37:14.000Z</time>
      </trkpt>
      <trkpt lat="44.62089" lon="6.16399">
        <ele>1360.5999755859</ele>
        <time>2016-07-14T10:37:17.000Z</time>
      </trkpt>
      <trkpt lat="44.62096" lon="6.16394">
        <ele>1360.1999511719</ele>
        <time>2016-07-14T10:37:23.000Z</time>
      </trkpt>
      <trkpt lat="44.62106" lon="6.16389">
        <ele>1359.8000488281</ele>
        <time>2016-07-14T10:37:30.000Z</time>
      </trkpt>
      <trkpt lat="44.62109" lon="6.16387">
        <ele>1359.5999755859</ele>
        <time>2016-07-14T10:37:33.000Z</time>
      </trkpt>
      <trkpt lat="44.62124" lon="6.16381">
        <ele>1358.5999755859</ele>
        <time>2016-07-14T10:37:44.000Z</time>
      </trkpt>
      <trkpt lat="44.62135" lon="6.16376">
        <ele>1357.5999755859</ele>
        <time>2016-07-14T10:37:53.000Z</time>
      </trkpt>
      <trkpt lat="44.62139" lon="6.16375">
        <ele>1357.1999511719</ele>
        <time>2016-07-14T10:37:56.000Z</time>
      </trkpt>
      <trkpt lat="44.62149" lon="6.16371">
        <ele>1356.1999511719</ele>
        <time>2016-07-14T10:38:05.000Z</time>
      </trkpt>
      <trkpt lat="44.62159" lon="6.16372">
        <ele>1355.4000244141</ele>
        <time>2016-07-14T10:38:13.000Z</time>
      </trkpt>
      <trkpt lat="44.6217" lon="6.16373">
        <ele>1354.8000488281</ele>
        <time>2016-07-14T10:38:22.000Z</time>
      </trkpt>
      <trkpt lat="44.62182" lon="6.16374">
        <ele>1354</ele>
        <time>2016-07-14T10:38:32.000Z</time>
      </trkpt>
      <trkpt lat="44.62188" lon="6.16374">
        <ele>1354</ele>
        <time>2016-07-14T10:38:38.000Z</time>
      </trkpt>
      <trkpt lat="44.62195" lon="6.16374">
        <ele>1354</ele>
        <time>2016-07-14T10:38:43.000Z</time>
      </trkpt>
      <trkpt lat="44.62202" lon="6.16372">
        <ele>1354</ele>
        <time>2016-07-14T10:38:48.000Z</time>
      </trkpt>
      <trkpt lat="44.62214" lon="6.16367">
        <ele>1353</ele>
        <time>2016-07-14T10:38:57.000Z</time>
      </trkpt>
      <trkpt lat="44.62227" lon="6.16361">
        <ele>1352</ele>
        <time>2016-07-14T10:39:07.000Z</time>
      </trkpt>
      <trkpt lat="44.6223" lon="6.1636">
        <ele>1351.5999755859</ele>
        <time>2016-07-14T10:39:11.000Z</time>
      </trkpt>
      <trkpt lat="44.62238" lon="6.16358">
        <ele>1351</ele>
        <time>2016-07-14T10:39:18.000Z</time>
      </trkpt>
      <trkpt lat="44.62239" lon="6.16358">
        <ele>1350.8000488281</ele>
        <time>2016-07-14T10:39:19.000Z</time>
      </trkpt>
      <trkpt lat="44.62249" lon="6.16355">
        <ele>1350</ele>
        <time>2016-07-14T10:39:27.000Z</time>
      </trkpt>
      <trkpt lat="44.62258" lon="6.16356">
        <ele>1349.4000244141</ele>
        <time>2016-07-14T10:39:33.000Z</time>
      </trkpt>
      <trkpt lat="44.62269" lon="6.16356">
        <ele>1348.5999755859</ele>
        <time>2016-07-14T10:39:42.000Z</time>
      </trkpt>
      <trkpt lat="44.62282" lon="6.16356">
        <ele>1347.8000488281</ele>
        <time>2016-07-14T10:39:51.000Z</time>
      </trkpt>
      <trkpt lat="44.62294" lon="6.16362">
        <ele>1346.8000488281</ele>
        <time>2016-07-14T10:40:00.000Z</time>
      </trkpt>
      <trkpt lat="44.62299" lon="6.1637">
        <ele>1346.1999511719</ele>
        <time>2016-07-14T10:40:06.000Z</time>
      </trkpt>
      <trkpt lat="44.62305" lon="6.16378">
        <ele>1345.5999755859</ele>
        <time>2016-07-14T10:40:12.000Z</time>
      </trkpt>
      <trkpt lat="44.6231" lon="6.16385">
        <ele>1345</ele>
        <time>2016-07-14T10:40:19.000Z</time>
      </trkpt>
      <trkpt lat="44.62311" lon="6.16383">
        <ele>1345</ele>
        <time>2016-07-14T10:40:24.000Z</time>
      </trkpt>
      <trkpt lat="44.62312" lon="6.16385">
        <ele>1345</ele>
        <time>2016-07-14T10:40:40.000Z</time>
      </trkpt>
      <trkpt lat="44.62315" lon="6.16395">
        <ele>1344.4000244141</ele>
        <time>2016-07-14T10:40:46.000Z</time>
      </trkpt>
      <trkpt lat="44.62321" lon="6.16406">
        <ele>1344.1999511719</ele>
        <time>2016-07-14T10:40:53.000Z</time>
      </trkpt>
      <trkpt lat="44.62327" lon="6.16421">
        <ele>1344.1999511719</ele>
        <time>2016-07-14T10:41:02.000Z</time>
      </trkpt>
      <trkpt lat="44.62332" lon="6.16438">
        <ele>1344.1999511719</ele>
        <time>2016-07-14T10:41:11.000Z</time>
      </trkpt>
      <trkpt lat="44.62335" lon="6.16453">
        <ele>1344</ele>
        <time>2016-07-14T10:41:19.000Z</time>
      </trkpt>
      <trkpt lat="44.62335" lon="6.16455">
        <ele>1344</ele>
        <time>2016-07-14T10:41:20.000Z</time>
      </trkpt>
      <trkpt lat="44.62335" lon="6.16458">
        <ele>1344</ele>
        <time>2016-07-14T10:41:22.000Z</time>
      </trkpt>
      <trkpt lat="44.62332" lon="6.16465">
        <ele>1344.1999511719</ele>
        <time>2016-07-14T10:41:28.000Z</time>
      </trkpt>
      <trkpt lat="44.62333" lon="6.16464">
        <ele>1344.1999511719</ele>
        <time>2016-07-14T10:41:33.000Z</time>
      </trkpt>
      <trkpt lat="44.62331" lon="6.16465">
        <ele>1344.1999511719</ele>
        <time>2016-07-14T10:41:47.000Z</time>
      </trkpt>
      <trkpt lat="44.62332" lon="6.16467">
        <ele>1344.1999511719</ele>
        <time>2016-07-14T10:41:50.000Z</time>
      </trkpt>
      <trkpt lat="44.62333" lon="6.16467">
        <ele>1344.1999511719</ele>
        <time>2016-07-14T10:41:57.000Z</time>
      </trkpt>
      <trkpt lat="44.62333" lon="6.16468">
        <ele>1344.1999511719</ele>
        <time>2016-07-14T10:42:01.000Z</time>
      </trkpt>
      <trkpt lat="44.62333" lon="6.1647">
        <ele>1344.1999511719</ele>
        <time>2016-07-14T10:42:09.000Z</time>
      </trkpt>
      <trkpt lat="44.62334" lon="6.16466">
        <ele>1344.1999511719</ele>
        <time>2016-07-14T10:42:24.000Z</time>
      </trkpt>
      <trkpt lat="44.62333" lon="6.16465">
        <ele>1344.1999511719</ele>
        <time>2016-07-14T10:42:30.000Z</time>
      </trkpt>
      <trkpt lat="44.62332" lon="6.16466">
        <ele>1344.1999511719</ele>
        <time>2016-07-14T10:42:41.000Z</time>
      </trkpt>
      <trkpt lat="44.62332" lon="6.16468">
        <ele>1344.1999511719</ele>
        <time>2016-07-14T10:42:47.000Z</time>
      </trkpt>
      <trkpt lat="44.62334" lon="6.16466">
        <ele>1344</ele>
        <time>2016-07-14T10:42:51.000Z</time>
      </trkpt>
      <trkpt lat="44.62332" lon="6.16469">
        <ele>1344.1999511719</ele>
        <time>2016-07-14T10:42:54.000Z</time>
      </trkpt>
      <trkpt lat="44.62332" lon="6.16471">
        <ele>1344.1999511719</ele>
        <time>2016-07-14T10:43:00.000Z</time>
      </trkpt>
      <trkpt lat="44.62332" lon="6.16472">
        <ele>1344.1999511719</ele>
        <time>2016-07-14T10:43:12.000Z</time>
      </trkpt>
      <trkpt lat="44.62332" lon="6.1647">
        <ele>1344.1999511719</ele>
        <time>2016-07-14T10:43:33.000Z</time>
      </trkpt>
      <trkpt lat="44.62333" lon="6.16469">
        <ele>1344.1999511719</ele>
        <time>2016-07-14T10:43:47.000Z</time>
      </trkpt>
      <trkpt lat="44.62331" lon="6.16467">
        <ele>1344.1999511719</ele>
        <time>2016-07-14T10:45:58.000Z</time>
      </trkpt>
      <trkpt lat="44.6234" lon="6.16468">
        <ele>1343.8000488281</ele>
        <time>2016-07-14T11:31:51.000Z</time>
      </trkpt>
      <trkpt lat="44.62343" lon="6.16478">
        <ele>1343.5999755859</ele>
        <time>2016-07-14T11:31:58.000Z</time>
      </trkpt>
      <trkpt lat="44.62347" lon="6.16491">
        <ele>1343.4000244141</ele>
        <time>2016-07-14T11:32:06.000Z</time>
      </trkpt>
      <trkpt lat="44.62351" lon="6.16505">
        <ele>1343</ele>
        <time>2016-07-14T11:32:14.000Z</time>
      </trkpt>
      <trkpt lat="44.62354" lon="6.16517">
        <ele>1343</ele>
        <time>2016-07-14T11:32:21.000Z</time>
      </trkpt>
      <trkpt lat="44.62358" lon="6.16536">
        <ele>1342.5999755859</ele>
        <time>2016-07-14T11:32:31.000Z</time>
      </trkpt>
      <trkpt lat="44.62357" lon="6.16553">
        <ele>1342.8000488281</ele>
        <time>2016-07-14T11:32:40.000Z</time>
      </trkpt>
      <trkpt lat="44.62351" lon="6.16568">
        <ele>1343.8000488281</ele>
        <time>2016-07-14T11:32:49.000Z</time>
      </trkpt>
      <trkpt lat="44.62342" lon="6.16585">
        <ele>1344.8000488281</ele>
        <time>2016-07-14T11:33:00.000Z</time>
      </trkpt>
      <trkpt lat="44.62339" lon="6.16598">
        <ele>1345.4000244141</ele>
        <time>2016-07-14T11:33:07.000Z</time>
      </trkpt>
      <trkpt lat="44.62339" lon="6.16612">
        <ele>1345.4000244141</ele>
        <time>2016-07-14T11:33:14.000Z</time>
      </trkpt>
      <trkpt lat="44.62338" lon="6.16627">
        <ele>1346.1999511719</ele>
        <time>2016-07-14T11:33:22.000Z</time>
      </trkpt>
      <trkpt lat="44.62338" lon="6.16641">
        <ele>1346.8000488281</ele>
        <time>2016-07-14T11:33:29.000Z</time>
      </trkpt>
      <trkpt lat="44.62339" lon="6.16662">
        <ele>1347</ele>
        <time>2016-07-14T11:33:40.000Z</time>
      </trkpt>
      <trkpt lat="44.62342" lon="6.16678">
        <ele>1346.5999755859</ele>
        <time>2016-07-14T11:33:49.000Z</time>
      </trkpt>
      <trkpt lat="44.62346" lon="6.16693">
        <ele>1346</ele>
        <time>2016-07-14T11:33:57.000Z</time>
      </trkpt>
      <trkpt lat="44.6235" lon="6.16708">
        <ele>1345.5999755859</ele>
        <time>2016-07-14T11:34:05.000Z</time>
      </trkpt>
      <trkpt lat="44.6235" lon="6.1672">
        <ele>1345</ele>
        <time>2016-07-14T11:34:12.000Z</time>
      </trkpt>
      <trkpt lat="44.62351" lon="6.16732">
        <ele>1344.1999511719</ele>
        <time>2016-07-14T11:34:19.000Z</time>
      </trkpt>
      <trkpt lat="44.62354" lon="6.16747">
        <ele>1342.1999511719</ele>
        <time>2016-07-14T11:34:27.000Z</time>
      </trkpt>
      <trkpt lat="44.62359" lon="6.16766">
        <ele>1339.4000244141</ele>
        <time>2016-07-14T11:34:39.000Z</time>
      </trkpt>
      <trkpt lat="44.62363" lon="6.16783">
        <ele>1337</ele>
        <time>2016-07-14T11:34:49.000Z</time>
      </trkpt>
      <trkpt lat="44.62364" lon="6.16792">
        <ele>1335.8000488281</ele>
        <time>2016-07-14T11:34:55.000Z</time>
      </trkpt>
      <trkpt lat="44.62365" lon="6.16804">
        <ele>1334.1999511719</ele>
        <time>2016-07-14T11:35:03.000Z</time>
      </trkpt>
      <trkpt lat="44.62366" lon="6.16807">
        <ele>1333.8000488281</ele>
        <time>2016-07-14T11:35:06.000Z</time>
      </trkpt>
      <trkpt lat="44.62369" lon="6.16815">
        <ele>1332.5999755859</ele>
        <time>2016-07-14T11:35:13.000Z</time>
      </trkpt>
      <trkpt lat="44.6237" lon="6.16817">
        <ele>1332.1999511719</ele>
        <time>2016-07-14T11:35:14.000Z</time>
      </trkpt>
      <trkpt lat="44.62376" lon="6.16826">
        <ele>1329.5999755859</ele>
        <time>2016-07-14T11:35:21.000Z</time>
      </trkpt>
      <trkpt lat="44.62384" lon="6.16836">
        <ele>1326.4000244141</ele>
        <time>2016-07-14T11:35:30.000Z</time>
      </trkpt>
      <trkpt lat="44.62389" lon="6.16849">
        <ele>1323.4000244141</ele>
        <time>2016-07-14T11:35:38.000Z</time>
      </trkpt>
      <trkpt lat="44.62388" lon="6.16857">
        <ele>1323</ele>
        <time>2016-07-14T11:35:44.000Z</time>
      </trkpt>
      <trkpt lat="44.62382" lon="6.16872">
        <ele>1323</ele>
        <time>2016-07-14T11:35:54.000Z</time>
      </trkpt>
      <trkpt lat="44.62381" lon="6.16874">
        <ele>1323.1999511719</ele>
        <time>2016-07-14T11:35:55.000Z</time>
      </trkpt>
      <trkpt lat="44.62377" lon="6.16884">
        <ele>1323</ele>
        <time>2016-07-14T11:36:02.000Z</time>
      </trkpt>
      <trkpt lat="44.62374" lon="6.16897">
        <ele>1322</ele>
        <time>2016-07-14T11:36:09.000Z</time>
      </trkpt>
      <trkpt lat="44.62369" lon="6.1691">
        <ele>1321.1999511719</ele>
        <time>2016-07-14T11:36:17.000Z</time>
      </trkpt>
      <trkpt lat="44.62366" lon="6.16921">
        <ele>1319.5999755859</ele>
        <time>2016-07-14T11:36:24.000Z</time>
      </trkpt>
      <trkpt lat="44.62362" lon="6.16933">
        <ele>1318.1999511719</ele>
        <time>2016-07-14T11:36:32.000Z</time>
      </trkpt>
      <trkpt lat="44.62361" lon="6.16936">
        <ele>1317.5999755859</ele>
        <time>2016-07-14T11:36:34.000Z</time>
      </trkpt>
      <trkpt lat="44.62355" lon="6.16951">
        <ele>1315.8000488281</ele>
        <time>2016-07-14T11:36:43.000Z</time>
      </trkpt>
      <trkpt lat="44.62353" lon="6.16955">
        <ele>1315.4000244141</ele>
        <time>2016-07-14T11:36:47.000Z</time>
      </trkpt>
      <trkpt lat="44.62348" lon="6.16966">
        <ele>1314.5999755859</ele>
        <time>2016-07-14T11:36:54.000Z</time>
      </trkpt>
      <trkpt lat="44.62345" lon="6.16976">
        <ele>1314</ele>
        <time>2016-07-14T11:37:01.000Z</time>
      </trkpt>
      <trkpt lat="44.62339" lon="6.16989">
        <ele>1313</ele>
        <time>2016-07-14T11:37:09.000Z</time>
      </trkpt>
      <trkpt lat="44.62333" lon="6.17">
        <ele>1312</ele>
        <time>2016-07-14T11:37:16.000Z</time>
      </trkpt>
      <trkpt lat="44.62327" lon="6.17011">
        <ele>1311.1999511719</ele>
        <time>2016-07-14T11:37:23.000Z</time>
      </trkpt>
      <trkpt lat="44.62321" lon="6.1702">
        <ele>1311.1999511719</ele>
        <time>2016-07-14T11:37:30.000Z</time>
      </trkpt>
      <trkpt lat="44.62317" lon="6.17026">
        <ele>1312.1999511719</ele>
        <time>2016-07-14T11:37:35.000Z</time>
      </trkpt>
      <trkpt lat="44.62311" lon="6.17033">
        <ele>1313.5999755859</ele>
        <time>2016-07-14T11:37:42.000Z</time>
      </trkpt>
      <trkpt lat="44.62306" lon="6.17038">
        <ele>1314.5999755859</ele>
        <time>2016-07-14T11:37:47.000Z</time>
      </trkpt>
      <trkpt lat="44.62303" lon="6.17045">
        <ele>1314.8000488281</ele>
        <time>2016-07-14T11:37:52.000Z</time>
      </trkpt>
      <trkpt lat="44.62301" lon="6.17055">
        <ele>1314.5999755859</ele>
        <time>2016-07-14T11:37:58.000Z</time>
      </trkpt>
      <trkpt lat="44.623" lon="6.17059">
        <ele>1314.5999755859</ele>
        <time>2016-07-14T11:38:01.000Z</time>
      </trkpt>
      <trkpt lat="44.623" lon="6.17062">
        <ele>1314.1999511719</ele>
        <time>2016-07-14T11:38:03.000Z</time>
      </trkpt>
      <trkpt lat="44.62299" lon="6.17066">
        <ele>1313.4000244141</ele>
        <time>2016-07-14T11:38:06.000Z</time>
      </trkpt>
      <trkpt lat="44.62298" lon="6.1707">
        <ele>1312.8000488281</ele>
        <time>2016-07-14T11:38:09.000Z</time>
      </trkpt>
      <trkpt lat="44.62294" lon="6.17075">
        <ele>1313</ele>
        <time>2016-07-14T11:38:15.000Z</time>
      </trkpt>
      <trkpt lat="44.62293" lon="6.17077">
        <ele>1312.5999755859</ele>
        <time>2016-07-14T11:38:16.000Z</time>
      </trkpt>
      <trkpt lat="44.62291" lon="6.17082">
        <ele>1312.1999511719</ele>
        <time>2016-07-14T11:38:19.000Z</time>
      </trkpt>
      <trkpt lat="44.62287" lon="6.17088">
        <ele>1312</ele>
        <time>2016-07-14T11:38:25.000Z</time>
      </trkpt>
      <trkpt lat="44.62287" lon="6.17091">
        <ele>1311.1999511719</ele>
        <time>2016-07-14T11:38:27.000Z</time>
      </trkpt>
      <trkpt lat="44.62285" lon="6.17096">
        <ele>1310.8000488281</ele>
        <time>2016-07-14T11:38:31.000Z</time>
      </trkpt>
      <trkpt lat="44.62282" lon="6.17105">
        <ele>1308.8000488281</ele>
        <time>2016-07-14T11:38:39.000Z</time>
      </trkpt>
      <trkpt lat="44.62281" lon="6.17109">
        <ele>1308.1999511719</ele>
        <time>2016-07-14T11:38:41.000Z</time>
      </trkpt>
      <trkpt lat="44.62277" lon="6.1712">
        <ele>1306</ele>
        <time>2016-07-14T11:38:48.000Z</time>
      </trkpt>
      <trkpt lat="44.62277" lon="6.17121">
        <ele>1305.8000488281</ele>
        <time>2016-07-14T11:38:49.000Z</time>
      </trkpt>
      <trkpt lat="44.62274" lon="6.17129">
        <ele>1304.1999511719</ele>
        <time>2016-07-14T11:38:59.000Z</time>
      </trkpt>
      <trkpt lat="44.62272" lon="6.17137">
        <ele>1303</ele>
        <time>2016-07-14T11:39:05.000Z</time>
      </trkpt>
      <trkpt lat="44.62269" lon="6.17141">
        <ele>1302.5999755859</ele>
        <time>2016-07-14T11:39:08.000Z</time>
      </trkpt>
      <trkpt lat="44.62264" lon="6.17148">
        <ele>1302.1999511719</ele>
        <time>2016-07-14T11:39:15.000Z</time>
      </trkpt>
      <trkpt lat="44.62259" lon="6.17151">
        <ele>1302</ele>
        <time>2016-07-14T11:39:21.000Z</time>
      </trkpt>
      <trkpt lat="44.62257" lon="6.17151">
        <ele>1302.4000244141</ele>
        <time>2016-07-14T11:39:32.000Z</time>
      </trkpt>
      <trkpt lat="44.62257" lon="6.17152">
        <ele>1302.1999511719</ele>
        <time>2016-07-14T11:39:40.000Z</time>
      </trkpt>
      <trkpt lat="44.62252" lon="6.17155">
        <ele>1302.4000244141</ele>
        <time>2016-07-14T11:39:47.000Z</time>
      </trkpt>
      <trkpt lat="44.62246" lon="6.17162">
        <ele>1301.8000488281</ele>
        <time>2016-07-14T11:39:54.000Z</time>
      </trkpt>
      <trkpt lat="44.62245" lon="6.17163">
        <ele>1301.5999755859</ele>
        <time>2016-07-14T11:39:55.000Z</time>
      </trkpt>
      <trkpt lat="44.62239" lon="6.17175">
        <ele>1299.5999755859</ele>
        <time>2016-07-14T11:40:02.000Z</time>
      </trkpt>
      <trkpt lat="44.62231" lon="6.17186">
        <ele>1298.4000244141</ele>
        <time>2016-07-14T11:40:10.000Z</time>
      </trkpt>
      <trkpt lat="44.62222" lon="6.17198">
        <ele>1296.5999755859</ele>
        <time>2016-07-14T11:40:19.000Z</time>
      </trkpt>
      <trkpt lat="44.62215" lon="6.17205">
        <ele>1295.8000488281</ele>
        <time>2016-07-14T11:40:25.000Z</time>
      </trkpt>
      <trkpt lat="44.62215" lon="6.17206">
        <ele>1295.5999755859</ele>
        <time>2016-07-14T11:40:26.000Z</time>
      </trkpt>
      <trkpt lat="44.62212" lon="6.1721">
        <ele>1295.1999511719</ele>
        <time>2016-07-14T11:40:30.000Z</time>
      </trkpt>
      <trkpt lat="44.62208" lon="6.17213">
        <ele>1294.8000488281</ele>
        <time>2016-07-14T11:40:34.000Z</time>
      </trkpt>
      <trkpt lat="44.62203" lon="6.17222">
        <ele>1293.4000244141</ele>
        <time>2016-07-14T11:40:40.000Z</time>
      </trkpt>
      <trkpt lat="44.62199" lon="6.17229">
        <ele>1292.5999755859</ele>
        <time>2016-07-14T11:40:45.000Z</time>
      </trkpt>
      <trkpt lat="44.62193" lon="6.17236">
        <ele>1293.1999511719</ele>
        <time>2016-07-14T11:40:50.000Z</time>
      </trkpt>
      <trkpt lat="44.62191" lon="6.17237">
        <ele>1293.5999755859</ele>
        <time>2016-07-14T11:40:51.000Z</time>
      </trkpt>
      <trkpt lat="44.62183" lon="6.17242">
        <ele>1295</ele>
        <time>2016-07-14T11:40:58.000Z</time>
      </trkpt>
      <trkpt lat="44.62182" lon="6.17244">
        <ele>1295</ele>
        <time>2016-07-14T11:40:59.000Z</time>
      </trkpt>
      <trkpt lat="44.62174" lon="6.17257">
        <ele>1295.1999511719</ele>
        <time>2016-07-14T11:41:07.000Z</time>
      </trkpt>
      <trkpt lat="44.62173" lon="6.17259">
        <ele>1295.4000244141</ele>
        <time>2016-07-14T11:41:08.000Z</time>
      </trkpt>
      <trkpt lat="44.6217" lon="6.17262">
        <ele>1295.4000244141</ele>
        <time>2016-07-14T11:41:11.000Z</time>
      </trkpt>
      <trkpt lat="44.62168" lon="6.17269">
        <ele>1294.8000488281</ele>
        <time>2016-07-14T11:41:15.000Z</time>
      </trkpt>
      <trkpt lat="44.62166" lon="6.17275">
        <ele>1294.4000244141</ele>
        <time>2016-07-14T11:41:19.000Z</time>
      </trkpt>
      <trkpt lat="44.62165" lon="6.17278">
        <ele>1294.8000488281</ele>
        <time>2016-07-14T11:41:21.000Z</time>
      </trkpt>
      <trkpt lat="44.62159" lon="6.17282">
        <ele>1296.8000488281</ele>
        <time>2016-07-14T11:41:26.000Z</time>
      </trkpt>
      <trkpt lat="44.62154" lon="6.17284">
        <ele>1298.1999511719</ele>
        <time>2016-07-14T11:41:30.000Z</time>
      </trkpt>
      <trkpt lat="44.62153" lon="6.17294">
        <ele>1297.8000488281</ele>
        <time>2016-07-14T11:41:36.000Z</time>
      </trkpt>
      <trkpt lat="44.62153" lon="6.17298">
        <ele>1297.8000488281</ele>
        <time>2016-07-14T11:41:38.000Z</time>
      </trkpt>
      <trkpt lat="44.6215" lon="6.17311">
        <ele>1297.8000488281</ele>
        <time>2016-07-14T11:41:44.000Z</time>
      </trkpt>
      <trkpt lat="44.62145" lon="6.17324">
        <ele>1299</ele>
        <time>2016-07-14T11:41:51.000Z</time>
      </trkpt>
      <trkpt lat="44.6214" lon="6.17335">
        <ele>1299.8000488281</ele>
        <time>2016-07-14T11:41:57.000Z</time>
      </trkpt>
      <trkpt lat="44.62136" lon="6.1735">
        <ele>1298.4000244141</ele>
        <time>2016-07-14T11:42:05.000Z</time>
      </trkpt>
      <trkpt lat="44.62134" lon="6.17362">
        <ele>1297.1999511719</ele>
        <time>2016-07-14T11:42:11.000Z</time>
      </trkpt>
      <trkpt lat="44.62133" lon="6.17364">
        <ele>1297</ele>
        <time>2016-07-14T11:42:12.000Z</time>
      </trkpt>
      <trkpt lat="44.62133" lon="6.17365">
        <ele>1297</ele>
        <time>2016-07-14T11:42:13.000Z</time>
      </trkpt>
      <trkpt lat="44.62132" lon="6.17373">
        <ele>1295.8000488281</ele>
        <time>2016-07-14T11:42:17.000Z</time>
      </trkpt>
      <trkpt lat="44.62128" lon="6.17387">
        <ele>1294.5999755859</ele>
        <time>2016-07-14T11:42:24.000Z</time>
      </trkpt>
      <trkpt lat="44.62129" lon="6.17402">
        <ele>1293</ele>
        <time>2016-07-14T11:42:33.000Z</time>
      </trkpt>
      <trkpt lat="44.62129" lon="6.17409">
        <ele>1292.4000244141</ele>
        <time>2016-07-14T11:42:38.000Z</time>
      </trkpt>
      <trkpt lat="44.62128" lon="6.17416">
        <ele>1292.1999511719</ele>
        <time>2016-07-14T11:42:55.000Z</time>
      </trkpt>
      <trkpt lat="44.62129" lon="6.17426">
        <ele>1291.1999511719</ele>
        <time>2016-07-14T11:43:02.000Z</time>
      </trkpt>
      <trkpt lat="44.62129" lon="6.17436">
        <ele>1290.1999511719</ele>
        <time>2016-07-14T11:43:08.000Z</time>
      </trkpt>
      <trkpt lat="44.62129" lon="6.1745">
        <ele>1289</ele>
        <time>2016-07-14T11:43:15.000Z</time>
      </trkpt>
      <trkpt lat="44.62131" lon="6.17464">
        <ele>1287.5999755859</ele>
        <time>2016-07-14T11:43:22.000Z</time>
      </trkpt>
      <trkpt lat="44.62132" lon="6.17466">
        <ele>1287.1999511719</ele>
        <time>2016-07-14T11:43:23.000Z</time>
      </trkpt>
      <trkpt lat="44.62135" lon="6.17475">
        <ele>1285.5999755859</ele>
        <time>2016-07-14T11:43:28.000Z</time>
      </trkpt>
      <trkpt lat="44.62143" lon="6.17492">
        <ele>1283.5999755859</ele>
        <time>2016-07-14T11:43:39.000Z</time>
      </trkpt>
      <trkpt lat="44.6215" lon="6.17501">
        <ele>1282.4000244141</ele>
        <time>2016-07-14T11:43:46.000Z</time>
      </trkpt>
      <trkpt lat="44.6215" lon="6.17503">
        <ele>1282.1999511719</ele>
        <time>2016-07-14T11:43:47.000Z</time>
      </trkpt>
      <trkpt lat="44.62158" lon="6.17518">
        <ele>1280.5999755859</ele>
        <time>2016-07-14T11:43:56.000Z</time>
      </trkpt>
      <trkpt lat="44.62166" lon="6.17531">
        <ele>1278.5999755859</ele>
        <time>2016-07-14T11:44:05.000Z</time>
      </trkpt>
      <trkpt lat="44.62169" lon="6.17544">
        <ele>1277.4000244141</ele>
        <time>2016-07-14T11:44:12.000Z</time>
      </trkpt>
      <trkpt lat="44.6217" lon="6.17546">
        <ele>1277.1999511719</ele>
        <time>2016-07-14T11:44:13.000Z</time>
      </trkpt>
      <trkpt lat="44.62166" lon="6.17563">
        <ele>1277</ele>
        <time>2016-07-14T11:44:21.000Z</time>
      </trkpt>
      <trkpt lat="44.62162" lon="6.17574">
        <ele>1278.1999511719</ele>
        <time>2016-07-14T11:44:28.000Z</time>
      </trkpt>
      <trkpt lat="44.62153" lon="6.17596">
        <ele>1280.5999755859</ele>
        <time>2016-07-14T11:44:40.000Z</time>
      </trkpt>
      <trkpt lat="44.62145" lon="6.17611">
        <ele>1281</ele>
        <time>2016-07-14T11:44:49.000Z</time>
      </trkpt>
      <trkpt lat="44.62136" lon="6.17626">
        <ele>1281.5999755859</ele>
        <time>2016-07-14T11:44:58.000Z</time>
      </trkpt>
      <trkpt lat="44.62127" lon="6.17643">
        <ele>1282.1999511719</ele>
        <time>2016-07-14T11:45:08.000Z</time>
      </trkpt>
      <trkpt lat="44.62119" lon="6.17651">
        <ele>1282.5999755859</ele>
        <time>2016-07-14T11:45:15.000Z</time>
      </trkpt>
      <trkpt lat="44.6211" lon="6.17656">
        <ele>1283.1999511719</ele>
        <time>2016-07-14T11:45:22.000Z</time>
      </trkpt>
      <trkpt lat="44.62102" lon="6.17661">
        <ele>1283.5999755859</ele>
        <time>2016-07-14T11:45:28.000Z</time>
      </trkpt>
      <trkpt lat="44.62095" lon="6.17676">
        <ele>1283.4000244141</ele>
        <time>2016-07-14T11:45:37.000Z</time>
      </trkpt>
      <trkpt lat="44.62086" lon="6.17694">
        <ele>1283.1999511719</ele>
        <time>2016-07-14T11:45:48.000Z</time>
      </trkpt>
      <trkpt lat="44.62087" lon="6.17696">
        <ele>1283</ele>
        <time>2016-07-14T11:45:55.000Z</time>
      </trkpt>
      <trkpt lat="44.62091" lon="6.17698">
        <ele>1282.4000244141</ele>
        <time>2016-07-14T11:46:13.000Z</time>
      </trkpt>
      <trkpt lat="44.62102" lon="6.17703">
        <ele>1281</ele>
        <time>2016-07-14T11:46:22.000Z</time>
      </trkpt>
      <trkpt lat="44.62114" lon="6.17718">
        <ele>1279</ele>
        <time>2016-07-14T11:46:33.000Z</time>
      </trkpt>
      <trkpt lat="44.62122" lon="6.17737">
        <ele>1277.8000488281</ele>
        <time>2016-07-14T11:46:44.000Z</time>
      </trkpt>
      <trkpt lat="44.62131" lon="6.17759">
        <ele>1277.1999511719</ele>
        <time>2016-07-14T11:46:56.000Z</time>
      </trkpt>
      <trkpt lat="44.62132" lon="6.17761">
        <ele>1277.1999511719</ele>
        <time>2016-07-14T11:46:57.000Z</time>
      </trkpt>
      <trkpt lat="44.62141" lon="6.17764">
        <ele>1276.8000488281</ele>
        <time>2016-07-14T11:47:04.000Z</time>
      </trkpt>
      <trkpt lat="44.62151" lon="6.17769">
        <ele>1276.4000244141</ele>
        <time>2016-07-14T11:47:12.000Z</time>
      </trkpt>
      <trkpt lat="44.62164" lon="6.17777">
        <ele>1275.8000488281</ele>
        <time>2016-07-14T11:47:22.000Z</time>
      </trkpt>
      <trkpt lat="44.62176" lon="6.17785">
        <ele>1275.1999511719</ele>
        <time>2016-07-14T11:47:31.000Z</time>
      </trkpt>
      <trkpt lat="44.62184" lon="6.17787">
        <ele>1274.8000488281</ele>
        <time>2016-07-14T11:47:39.000Z</time>
      </trkpt>
      <trkpt lat="44.62189" lon="6.17788">
        <ele>1274.4000244141</ele>
        <time>2016-07-14T11:47:49.000Z</time>
      </trkpt>
      <trkpt lat="44.62202" lon="6.17791">
        <ele>1273.5999755859</ele>
        <time>2016-07-14T11:47:58.000Z</time>
      </trkpt>
      <trkpt lat="44.62221" lon="6.17793">
        <ele>1274</ele>
        <time>2016-07-14T11:48:11.000Z</time>
      </trkpt>
      <trkpt lat="44.62233" lon="6.17798">
        <ele>1274.4000244141</ele>
        <time>2016-07-14T11:48:20.000Z</time>
      </trkpt>
      <trkpt lat="44.62235" lon="6.17801">
        <ele>1274.5999755859</ele>
        <time>2016-07-14T11:48:23.000Z</time>
      </trkpt>
      <trkpt lat="44.62239" lon="6.17797">
        <ele>1274.5999755859</ele>
        <time>2016-07-14T11:48:28.000Z</time>
      </trkpt>
      <trkpt lat="44.6224" lon="6.17795">
        <ele>1274.5999755859</ele>
        <time>2016-07-14T11:48:29.000Z</time>
      </trkpt>
      <trkpt lat="44.62241" lon="6.17794">
        <ele>1274.5999755859</ele>
        <time>2016-07-14T11:48:30.000Z</time>
      </trkpt>
      <trkpt lat="44.62242" lon="6.17793">
        <ele>1274.5999755859</ele>
        <time>2016-07-14T11:48:31.000Z</time>
      </trkpt>
      <trkpt lat="44.62259" lon="6.17806">
        <ele>1275.1999511719</ele>
        <time>2016-07-14T11:48:44.000Z</time>
      </trkpt>
      <trkpt lat="44.62273" lon="6.17812">
        <ele>1275.8000488281</ele>
        <time>2016-07-14T11:48:54.000Z</time>
      </trkpt>
      <trkpt lat="44.6229" lon="6.1782">
        <ele>1276.4000244141</ele>
        <time>2016-07-14T11:49:07.000Z</time>
      </trkpt>
      <trkpt lat="44.62302" lon="6.17826">
        <ele>1277.4000244141</ele>
        <time>2016-07-14T11:49:16.000Z</time>
      </trkpt>
      <trkpt lat="44.6231" lon="6.17833">
        <ele>1278</ele>
        <time>2016-07-14T11:49:23.000Z</time>
      </trkpt>
      <trkpt lat="44.62329" lon="6.17834">
        <ele>1279.4000244141</ele>
        <time>2016-07-14T11:49:38.000Z</time>
      </trkpt>
      <trkpt lat="44.62331" lon="6.17834">
        <ele>1279.5999755859</ele>
        <time>2016-07-14T11:49:40.000Z</time>
      </trkpt>
      <trkpt lat="44.62331" lon="6.17838">
        <ele>1279.5999755859</ele>
        <time>2016-07-14T11:49:45.000Z</time>
      </trkpt>
      <trkpt lat="44.62327" lon="6.17853">
        <ele>1279.4000244141</ele>
        <time>2016-07-14T11:49:53.000Z</time>
      </trkpt>
      <trkpt lat="44.62327" lon="6.17872">
        <ele>1280</ele>
        <time>2016-07-14T11:50:02.000Z</time>
      </trkpt>
      <trkpt lat="44.62327" lon="6.1789">
        <ele>1280.4000244141</ele>
        <time>2016-07-14T11:50:10.000Z</time>
      </trkpt>
      <trkpt lat="44.62327" lon="6.17908">
        <ele>1281</ele>
        <time>2016-07-14T11:50:18.000Z</time>
      </trkpt>
      <trkpt lat="44.62327" lon="6.17923">
        <ele>1281.5999755859</ele>
        <time>2016-07-14T11:50:25.000Z</time>
      </trkpt>
      <trkpt lat="44.62329" lon="6.17939">
        <ele>1282.1999511719</ele>
        <time>2016-07-14T11:50:32.000Z</time>
      </trkpt>
      <trkpt lat="44.62328" lon="6.17962">
        <ele>1283.8000488281</ele>
        <time>2016-07-14T11:50:43.000Z</time>
      </trkpt>
      <trkpt lat="44.62319" lon="6.17979">
        <ele>1284.8000488281</ele>
        <time>2016-07-14T11:50:53.000Z</time>
      </trkpt>
      <trkpt lat="44.6231" lon="6.17992">
        <ele>1285.4000244141</ele>
        <time>2016-07-14T11:51:02.000Z</time>
      </trkpt>
      <trkpt lat="44.62302" lon="6.1801">
        <ele>1286.8000488281</ele>
        <time>2016-07-14T11:51:10.000Z</time>
      </trkpt>
      <trkpt lat="44.62301" lon="6.18021">
        <ele>1288</ele>
        <time>2016-07-14T11:51:16.000Z</time>
      </trkpt>
      <trkpt lat="44.62304" lon="6.18031">
        <ele>1288.8000488281</ele>
        <time>2016-07-14T11:51:20.000Z</time>
      </trkpt>
      <trkpt lat="44.62297" lon="6.18051">
        <ele>1290.8000488281</ele>
        <time>2016-07-14T11:51:26.000Z</time>
      </trkpt>
      <trkpt lat="44.62284" lon="6.18068">
        <ele>1292</ele>
        <time>2016-07-14T11:51:33.000Z</time>
      </trkpt>
      <trkpt lat="44.62277" lon="6.18075">
        <ele>1291.4000244141</ele>
        <time>2016-07-14T11:51:38.000Z</time>
      </trkpt>
      <trkpt lat="44.62268" lon="6.18085">
        <ele>1290.8000488281</ele>
        <time>2016-07-14T11:51:43.000Z</time>
      </trkpt>
      <trkpt lat="44.6226" lon="6.18102">
        <ele>1290.4000244141</ele>
        <time>2016-07-14T11:51:49.000Z</time>
      </trkpt>
      <trkpt lat="44.62262" lon="6.18118">
        <ele>1291.1999511719</ele>
        <time>2016-07-14T11:51:54.000Z</time>
      </trkpt>
      <trkpt lat="44.62264" lon="6.18127">
        <ele>1291.8000488281</ele>
        <time>2016-07-14T11:51:58.000Z</time>
      </trkpt>
      <trkpt lat="44.62263" lon="6.18131">
        <ele>1292</ele>
        <time>2016-07-14T11:52:00.000Z</time>
      </trkpt>
      <trkpt lat="44.6226" lon="6.18145">
        <ele>1292.5999755859</ele>
        <time>2016-07-14T11:52:07.000Z</time>
      </trkpt>
      <trkpt lat="44.62252" lon="6.18157">
        <ele>1292.1999511719</ele>
        <time>2016-07-14T11:52:16.000Z</time>
      </trkpt>
      <trkpt lat="44.6224" lon="6.18166">
        <ele>1291.4000244141</ele>
        <time>2016-07-14T11:52:26.000Z</time>
      </trkpt>
      <trkpt lat="44.62232" lon="6.18174">
        <ele>1291</ele>
        <time>2016-07-14T11:52:33.000Z</time>
      </trkpt>
      <trkpt lat="44.62228" lon="6.18186">
        <ele>1291</ele>
        <time>2016-07-14T11:52:40.000Z</time>
      </trkpt>
      <trkpt lat="44.6222" lon="6.18224">
        <ele>1291.5999755859</ele>
        <time>2016-07-14T11:52:59.000Z</time>
      </trkpt>
      <trkpt lat="44.62215" lon="6.18244">
        <ele>1291.5999755859</ele>
        <time>2016-07-14T11:53:09.000Z</time>
      </trkpt>
      <trkpt lat="44.62209" lon="6.18265">
        <ele>1292.5999755859</ele>
        <time>2016-07-14T11:53:20.000Z</time>
      </trkpt>
      <trkpt lat="44.62206" lon="6.18285">
        <ele>1293.5999755859</ele>
        <time>2016-07-14T11:53:30.000Z</time>
      </trkpt>
      <trkpt lat="44.62205" lon="6.18323">
        <ele>1295.1999511719</ele>
        <time>2016-07-14T11:53:48.000Z</time>
      </trkpt>
      <trkpt lat="44.62204" lon="6.18342">
        <ele>1295.4000244141</ele>
        <time>2016-07-14T11:53:57.000Z</time>
      </trkpt>
      <trkpt lat="44.62204" lon="6.18356">
        <ele>1295.5999755859</ele>
        <time>2016-07-14T11:54:04.000Z</time>
      </trkpt>
      <trkpt lat="44.622" lon="6.18374">
        <ele>1295.5999755859</ele>
        <time>2016-07-14T11:54:13.000Z</time>
      </trkpt>
      <trkpt lat="44.62197" lon="6.18386">
        <ele>1295.4000244141</ele>
        <time>2016-07-14T11:54:20.000Z</time>
      </trkpt>
      <trkpt lat="44.62193" lon="6.18405">
        <ele>1295.1999511719</ele>
        <time>2016-07-14T11:54:30.000Z</time>
      </trkpt>
      <trkpt lat="44.62188" lon="6.18425">
        <ele>1295</ele>
        <time>2016-07-14T11:54:40.000Z</time>
      </trkpt>
      <trkpt lat="44.62187" lon="6.18441">
        <ele>1295.1999511719</ele>
        <time>2016-07-14T11:54:48.000Z</time>
      </trkpt>
      <trkpt lat="44.62187" lon="6.18461">
        <ele>1295.4000244141</ele>
        <time>2016-07-14T11:54:58.000Z</time>
      </trkpt>
      <trkpt lat="44.62185" lon="6.18483">
        <ele>1295.5999755859</ele>
        <time>2016-07-14T11:55:08.000Z</time>
      </trkpt>
      <trkpt lat="44.62183" lon="6.18503">
        <ele>1296.4000244141</ele>
        <time>2016-07-14T11:55:18.000Z</time>
      </trkpt>
      <trkpt lat="44.62181" lon="6.18525">
        <ele>1297.1999511719</ele>
        <time>2016-07-14T11:55:29.000Z</time>
      </trkpt>
      <trkpt lat="44.62177" lon="6.18542">
        <ele>1297.5999755859</ele>
        <time>2016-07-14T11:55:38.000Z</time>
      </trkpt>
      <trkpt lat="44.62172" lon="6.18562">
        <ele>1297.8000488281</ele>
        <time>2016-07-14T11:55:48.000Z</time>
      </trkpt>
      <trkpt lat="44.62166" lon="6.18577">
        <ele>1297.4000244141</ele>
        <time>2016-07-14T11:55:56.000Z</time>
      </trkpt>
      <trkpt lat="44.62157" lon="6.18598">
        <ele>1296.5999755859</ele>
        <time>2016-07-14T11:56:07.000Z</time>
      </trkpt>
      <trkpt lat="44.62149" lon="6.18619">
        <ele>1296</ele>
        <time>2016-07-14T11:56:18.000Z</time>
      </trkpt>
      <trkpt lat="44.62145" lon="6.1863">
        <ele>1295.5999755859</ele>
        <time>2016-07-14T11:56:24.000Z</time>
      </trkpt>
      <trkpt lat="44.62139" lon="6.18649">
        <ele>1295.1999511719</ele>
        <time>2016-07-14T11:56:33.000Z</time>
      </trkpt>
      <trkpt lat="44.62139" lon="6.18664">
        <ele>1295.5999755859</ele>
        <time>2016-07-14T11:56:40.000Z</time>
      </trkpt>
      <trkpt lat="44.62142" lon="6.18679">
        <ele>1296.8000488281</ele>
        <time>2016-07-14T11:56:48.000Z</time>
      </trkpt>
      <trkpt lat="44.62145" lon="6.18692">
        <ele>1297.8000488281</ele>
        <time>2016-07-14T11:56:55.000Z</time>
      </trkpt>
      <trkpt lat="44.62145" lon="6.18705">
        <ele>1298.4000244141</ele>
        <time>2016-07-14T11:57:02.000Z</time>
      </trkpt>
      <trkpt lat="44.62144" lon="6.18725">
        <ele>1299.5999755859</ele>
        <time>2016-07-14T11:57:12.000Z</time>
      </trkpt>
      <trkpt lat="44.62145" lon="6.18742">
        <ele>1300.1999511719</ele>
        <time>2016-07-14T11:57:21.000Z</time>
      </trkpt>
      <trkpt lat="44.62152" lon="6.18779">
        <ele>1301.5999755859</ele>
        <time>2016-07-14T11:57:41.000Z</time>
      </trkpt>
      <trkpt lat="44.62153" lon="6.188">
        <ele>1302.1999511719</ele>
        <time>2016-07-14T11:57:52.000Z</time>
      </trkpt>
      <trkpt lat="44.62153" lon="6.18817">
        <ele>1302.5999755859</ele>
        <time>2016-07-14T11:58:01.000Z</time>
      </trkpt>
      <trkpt lat="44.62153" lon="6.18838">
        <ele>1303</ele>
        <time>2016-07-14T11:58:12.000Z</time>
      </trkpt>
      <trkpt lat="44.6215" lon="6.18859">
        <ele>1303</ele>
        <time>2016-07-14T11:58:23.000Z</time>
      </trkpt>
      <trkpt lat="44.62145" lon="6.18879">
        <ele>1302.5999755859</ele>
        <time>2016-07-14T11:58:34.000Z</time>
      </trkpt>
      <trkpt lat="44.62142" lon="6.18893">
        <ele>1302.1999511719</ele>
        <time>2016-07-14T11:58:41.000Z</time>
      </trkpt>
      <trkpt lat="44.62139" lon="6.1891">
        <ele>1302.4000244141</ele>
        <time>2016-07-14T11:58:50.000Z</time>
      </trkpt>
      <trkpt lat="44.62137" lon="6.18924">
        <ele>1302</ele>
        <time>2016-07-14T11:58:57.000Z</time>
      </trkpt>
      <trkpt lat="44.62134" lon="6.18946">
        <ele>1301.4000244141</ele>
        <time>2016-07-14T11:59:08.000Z</time>
      </trkpt>
      <trkpt lat="44.62132" lon="6.18962">
        <ele>1301</ele>
        <time>2016-07-14T11:59:17.000Z</time>
      </trkpt>
      <trkpt lat="44.62131" lon="6.1898">
        <ele>1300.5999755859</ele>
        <time>2016-07-14T11:59:26.000Z</time>
      </trkpt>
      <trkpt lat="44.62128" lon="6.18992">
        <ele>1300.1999511719</ele>
        <time>2016-07-14T11:59:35.000Z</time>
      </trkpt>
      <trkpt lat="44.62128" lon="6.18995">
        <ele>1300.1999511719</ele>
        <time>2016-07-14T11:59:51.000Z</time>
      </trkpt>
      <trkpt lat="44.62127" lon="6.19003">
        <ele>1300.1999511719</ele>
        <time>2016-07-14T12:00:17.000Z</time>
      </trkpt>
      <trkpt lat="44.62125" lon="6.19019">
        <ele>1300.1999511719</ele>
        <time>2016-07-14T12:00:26.000Z</time>
      </trkpt>
      <trkpt lat="44.62124" lon="6.19042">
        <ele>1300.1999511719</ele>
        <time>2016-07-14T12:00:38.000Z</time>
      </trkpt>
      <trkpt lat="44.62122" lon="6.19056">
        <ele>1300.1999511719</ele>
        <time>2016-07-14T12:00:45.000Z</time>
      </trkpt>
      <trkpt lat="44.62119" lon="6.19072">
        <ele>1300.4000244141</ele>
        <time>2016-07-14T12:00:53.000Z</time>
      </trkpt>
      <trkpt lat="44.62119" lon="6.19092">
        <ele>1301.1999511719</ele>
        <time>2016-07-14T12:01:03.000Z</time>
      </trkpt>
      <trkpt lat="44.62121" lon="6.19118">
        <ele>1302.1999511719</ele>
        <time>2016-07-14T12:01:16.000Z</time>
      </trkpt>
      <trkpt lat="44.6212" lon="6.19127">
        <ele>1302.4000244141</ele>
        <time>2016-07-14T12:01:23.000Z</time>
      </trkpt>
      <trkpt lat="44.6212" lon="6.19129">
        <ele>1302.5999755859</ele>
        <time>2016-07-14T12:01:49.000Z</time>
      </trkpt>
      <trkpt lat="44.6212" lon="6.19132">
        <ele>1302.5999755859</ele>
        <time>2016-07-14T12:01:53.000Z</time>
      </trkpt>
      <trkpt lat="44.62119" lon="6.19138">
        <ele>1302.8000488281</ele>
        <time>2016-07-14T12:02:00.000Z</time>
      </trkpt>
      <trkpt lat="44.62118" lon="6.19132">
        <ele>1302.5999755859</ele>
        <time>2016-07-14T12:02:06.000Z</time>
      </trkpt>
      <trkpt lat="44.62119" lon="6.19132">
        <ele>1302.5999755859</ele>
        <time>2016-07-14T12:02:12.000Z</time>
      </trkpt>
      <trkpt lat="44.62119" lon="6.19133">
        <ele>1302.5999755859</ele>
        <time>2016-07-14T12:02:27.000Z</time>
      </trkpt>
      <trkpt lat="44.62119" lon="6.1914">
        <ele>1302.8000488281</ele>
        <time>2016-07-14T12:02:34.000Z</time>
      </trkpt>
      <trkpt lat="44.62119" lon="6.19161">
        <ele>1303.4000244141</ele>
        <time>2016-07-14T12:02:42.000Z</time>
      </trkpt>
      <trkpt lat="44.62116" lon="6.19175">
        <ele>1303.8000488281</ele>
        <time>2016-07-14T12:02:49.000Z</time>
      </trkpt>
      <trkpt lat="44.62115" lon="6.19188">
        <ele>1304</ele>
        <time>2016-07-14T12:02:56.000Z</time>
      </trkpt>
      <trkpt lat="44.62112" lon="6.192">
        <ele>1304.4000244141</ele>
        <time>2016-07-14T12:03:03.000Z</time>
      </trkpt>
      <trkpt lat="44.62109" lon="6.19213">
        <ele>1304.5999755859</ele>
        <time>2016-07-14T12:03:10.000Z</time>
      </trkpt>
      <trkpt lat="44.62106" lon="6.1922">
        <ele>1304.8000488281</ele>
        <time>2016-07-14T12:03:14.000Z</time>
      </trkpt>
      <trkpt lat="44.62101" lon="6.19228">
        <ele>1305</ele>
        <time>2016-07-14T12:03:19.000Z</time>
      </trkpt>
      <trkpt lat="44.62096" lon="6.19238">
        <ele>1305.1999511719</ele>
        <time>2016-07-14T12:03:26.000Z</time>
      </trkpt>
      <trkpt lat="44.62095" lon="6.19241">
        <ele>1305.4000244141</ele>
        <time>2016-07-14T12:03:28.000Z</time>
      </trkpt>
      <trkpt lat="44.62094" lon="6.19249">
        <ele>1305.5999755859</ele>
        <time>2016-07-14T12:03:32.000Z</time>
      </trkpt>
      <trkpt lat="44.62097" lon="6.19263">
        <ele>1305.8000488281</ele>
        <time>2016-07-14T12:03:40.000Z</time>
      </trkpt>
      <trkpt lat="44.621" lon="6.1928">
        <ele>1306.1999511719</ele>
        <time>2016-07-14T12:03:49.000Z</time>
      </trkpt>
      <trkpt lat="44.62102" lon="6.19291">
        <ele>1306.4000244141</ele>
        <time>2016-07-14T12:03:55.000Z</time>
      </trkpt>
      <trkpt lat="44.62101" lon="6.19304">
        <ele>1306.5999755859</ele>
        <time>2016-07-14T12:04:02.000Z</time>
      </trkpt>
      <trkpt lat="44.62099" lon="6.19318">
        <ele>1307</ele>
        <time>2016-07-14T12:04:09.000Z</time>
      </trkpt>
      <trkpt lat="44.62094" lon="6.19333">
        <ele>1307.1999511719</ele>
        <time>2016-07-14T12:04:17.000Z</time>
      </trkpt>
      <trkpt lat="44.62091" lon="6.19343">
        <ele>1307.4000244141</ele>
        <time>2016-07-14T12:04:23.000Z</time>
      </trkpt>
      <trkpt lat="44.62086" lon="6.19356">
        <ele>1307.5999755859</ele>
        <time>2016-07-14T12:04:31.000Z</time>
      </trkpt>
      <trkpt lat="44.62081" lon="6.19365">
        <ele>1307.8000488281</ele>
        <time>2016-07-14T12:04:37.000Z</time>
      </trkpt>
      <trkpt lat="44.6208" lon="6.19366">
        <ele>1307.8000488281</ele>
        <time>2016-07-14T12:04:38.000Z</time>
      </trkpt>
      <trkpt lat="44.62068" lon="6.19376">
        <ele>1308</ele>
        <time>2016-07-14T12:04:48.000Z</time>
      </trkpt>
      <trkpt lat="44.62054" lon="6.19386">
        <ele>1308</ele>
        <time>2016-07-14T12:04:58.000Z</time>
      </trkpt>
      <trkpt lat="44.62045" lon="6.19397">
        <ele>1308.1999511719</ele>
        <time>2016-07-14T12:05:06.000Z</time>
      </trkpt>
      <trkpt lat="44.62039" lon="6.1941">
        <ele>1308.4000244141</ele>
        <time>2016-07-14T12:05:13.000Z</time>
      </trkpt>
      <trkpt lat="44.62039" lon="6.19417">
        <ele>1308.5999755859</ele>
        <time>2016-07-14T12:05:19.000Z</time>
      </trkpt>
      <trkpt lat="44.62037" lon="6.19422">
        <ele>1308.5999755859</ele>
        <time>2016-07-14T12:05:47.000Z</time>
      </trkpt>
      <trkpt lat="44.62033" lon="6.19424">
        <ele>1308.8000488281</ele>
        <time>2016-07-14T12:06:09.000Z</time>
      </trkpt>
      <trkpt lat="44.62021" lon="6.19422">
        <ele>1309.5999755859</ele>
        <time>2016-07-14T12:06:18.000Z</time>
      </trkpt>
      <trkpt lat="44.62008" lon="6.19418">
        <ele>1310.1999511719</ele>
        <time>2016-07-14T12:06:27.000Z</time>
      </trkpt>
      <trkpt lat="44.61998" lon="6.19414">
        <ele>1310.8000488281</ele>
        <time>2016-07-14T12:06:35.000Z</time>
      </trkpt>
      <trkpt lat="44.61979" lon="6.19409">
        <ele>1311.8000488281</ele>
        <time>2016-07-14T12:06:47.000Z</time>
      </trkpt>
      <trkpt lat="44.61966" lon="6.19405">
        <ele>1312.4000244141</ele>
        <time>2016-07-14T12:06:56.000Z</time>
      </trkpt>
      <trkpt lat="44.61954" lon="6.19398">
        <ele>1313</ele>
        <time>2016-07-14T12:07:05.000Z</time>
      </trkpt>
      <trkpt lat="44.61942" lon="6.19389">
        <ele>1313.4000244141</ele>
        <time>2016-07-14T12:07:13.000Z</time>
      </trkpt>
      <trkpt lat="44.61935" lon="6.1938">
        <ele>1313.4000244141</ele>
        <time>2016-07-14T12:07:19.000Z</time>
      </trkpt>
      <trkpt lat="44.61927" lon="6.19372">
        <ele>1313.5999755859</ele>
        <time>2016-07-14T12:07:25.000Z</time>
      </trkpt>
      <trkpt lat="44.61915" lon="6.19365">
        <ele>1314</ele>
        <time>2016-07-14T12:07:34.000Z</time>
      </trkpt>
      <trkpt lat="44.61899" lon="6.19358">
        <ele>1314.5999755859</ele>
        <time>2016-07-14T12:07:45.000Z</time>
      </trkpt>
      <trkpt lat="44.61884" lon="6.1935">
        <ele>1315.1999511719</ele>
        <time>2016-07-14T12:07:56.000Z</time>
      </trkpt>
      <trkpt lat="44.61873" lon="6.19346">
        <ele>1315.5999755859</ele>
        <time>2016-07-14T12:08:04.000Z</time>
      </trkpt>
      <trkpt lat="44.61853" lon="6.19339">
        <ele>1318.1999511719</ele>
        <time>2016-07-14T12:08:18.000Z</time>
      </trkpt>
      <trkpt lat="44.61849" lon="6.19335">
        <ele>1318.5999755859</ele>
        <time>2016-07-14T12:08:22.000Z</time>
      </trkpt>
      <trkpt lat="44.61848" lon="6.19334">
        <ele>1318.8000488281</ele>
        <time>2016-07-14T12:08:31.000Z</time>
      </trkpt>
      <trkpt lat="44.61844" lon="6.1934">
        <ele>1319.5999755859</ele>
        <time>2016-07-14T12:08:40.000Z</time>
      </trkpt>
      <trkpt lat="44.61841" lon="6.19357">
        <ele>1320.4000244141</ele>
        <time>2016-07-14T12:08:49.000Z</time>
      </trkpt>
      <trkpt lat="44.61836" lon="6.19373">
        <ele>1323</ele>
        <time>2016-07-14T12:08:58.000Z</time>
      </trkpt>
      <trkpt lat="44.61831" lon="6.19391">
        <ele>1327.1999511719</ele>
        <time>2016-07-14T12:09:07.000Z</time>
      </trkpt>
      <trkpt lat="44.61824" lon="6.19411">
        <ele>1330</ele>
        <time>2016-07-14T12:09:18.000Z</time>
      </trkpt>
      <trkpt lat="44.61815" lon="6.1943">
        <ele>1332.4000244141</ele>
        <time>2016-07-14T12:09:29.000Z</time>
      </trkpt>
      <trkpt lat="44.61805" lon="6.19444">
        <ele>1333.4000244141</ele>
        <time>2016-07-14T12:09:39.000Z</time>
      </trkpt>
      <trkpt lat="44.618" lon="6.19464">
        <ele>1333</ele>
        <time>2016-07-14T12:09:49.000Z</time>
      </trkpt>
      <trkpt lat="44.61797" lon="6.19485">
        <ele>1332.8000488281</ele>
        <time>2016-07-14T12:09:59.000Z</time>
      </trkpt>
      <trkpt lat="44.61796" lon="6.19507">
        <ele>1332.4000244141</ele>
        <time>2016-07-14T12:10:09.000Z</time>
      </trkpt>
      <trkpt lat="44.61794" lon="6.19514">
        <ele>1332.4000244141</ele>
        <time>2016-07-14T12:10:13.000Z</time>
      </trkpt>
      <trkpt lat="44.6179" lon="6.19515">
        <ele>1333</ele>
        <time>2016-07-14T12:10:19.000Z</time>
      </trkpt>
      <trkpt lat="44.61786" lon="6.19506">
        <ele>1333.8000488281</ele>
        <time>2016-07-14T12:10:25.000Z</time>
      </trkpt>
      <trkpt lat="44.61786" lon="6.19498">
        <ele>1334.1999511719</ele>
        <time>2016-07-14T12:10:29.000Z</time>
      </trkpt>
      <trkpt lat="44.61784" lon="6.19489">
        <ele>1335</ele>
        <time>2016-07-14T12:10:35.000Z</time>
      </trkpt>
      <trkpt lat="44.61776" lon="6.19484">
        <ele>1336.5999755859</ele>
        <time>2016-07-14T12:10:42.000Z</time>
      </trkpt>
      <trkpt lat="44.61768" lon="6.19488">
        <ele>1338.1999511719</ele>
        <time>2016-07-14T12:10:49.000Z</time>
      </trkpt>
      <trkpt lat="44.61758" lon="6.19493">
        <ele>1340</ele>
        <time>2016-07-14T12:10:58.000Z</time>
      </trkpt>
      <trkpt lat="44.61749" lon="6.19497">
        <ele>1341.8000488281</ele>
        <time>2016-07-14T12:11:06.000Z</time>
      </trkpt>
      <trkpt lat="44.6174" lon="6.19492">
        <ele>1343.8000488281</ele>
        <time>2016-07-14T12:11:13.000Z</time>
      </trkpt>
      <trkpt lat="44.61741" lon="6.19483">
        <ele>1343.8000488281</ele>
        <time>2016-07-14T12:11:19.000Z</time>
      </trkpt>
      <trkpt lat="44.61745" lon="6.19472">
        <ele>1343</ele>
        <time>2016-07-14T12:11:27.000Z</time>
      </trkpt>
      <trkpt lat="44.61748" lon="6.19459">
        <ele>1342</ele>
        <time>2016-07-14T12:11:35.000Z</time>
      </trkpt>
      <trkpt lat="44.61748" lon="6.19457">
        <ele>1341.8000488281</ele>
        <time>2016-07-14T12:11:36.000Z</time>
      </trkpt>
      <trkpt lat="44.6174" lon="6.19452">
        <ele>1343.1999511719</ele>
        <time>2016-07-14T12:11:43.000Z</time>
      </trkpt>
      <trkpt lat="44.61731" lon="6.19457">
        <ele>1345.1999511719</ele>
        <time>2016-07-14T12:11:51.000Z</time>
      </trkpt>
      <trkpt lat="44.61722" lon="6.19459">
        <ele>1347.1999511719</ele>
        <time>2016-07-14T12:11:58.000Z</time>
      </trkpt>
      <trkpt lat="44.61712" lon="6.19461">
        <ele>1349.1999511719</ele>
        <time>2016-07-14T12:12:06.000Z</time>
      </trkpt>
      <trkpt lat="44.61698" lon="6.19459">
        <ele>1351.8000488281</ele>
        <time>2016-07-14T12:12:16.000Z</time>
      </trkpt>
      <trkpt lat="44.61684" lon="6.19454">
        <ele>1353.1999511719</ele>
        <time>2016-07-14T12:12:26.000Z</time>
      </trkpt>
      <trkpt lat="44.61676" lon="6.19451">
        <ele>1354.1999511719</ele>
        <time>2016-07-14T12:12:32.000Z</time>
      </trkpt>
      <trkpt lat="44.61666" lon="6.19451">
        <ele>1355.5999755859</ele>
        <time>2016-07-14T12:12:40.000Z</time>
      </trkpt>
      <trkpt lat="44.61658" lon="6.19458">
        <ele>1357</ele>
        <time>2016-07-14T12:12:47.000Z</time>
      </trkpt>
      <trkpt lat="44.61651" lon="6.19467">
        <ele>1358.8000488281</ele>
        <time>2016-07-14T12:12:55.000Z</time>
      </trkpt>
      <trkpt lat="44.61643" lon="6.19474">
        <ele>1360.1999511719</ele>
        <time>2016-07-14T12:13:02.000Z</time>
      </trkpt>
      <trkpt lat="44.61638" lon="6.1948">
        <ele>1361.1999511719</ele>
        <time>2016-07-14T12:13:08.000Z</time>
      </trkpt>
      <trkpt lat="44.61632" lon="6.19491">
        <ele>1361.5999755859</ele>
        <time>2016-07-14T12:13:16.000Z</time>
      </trkpt>
      <trkpt lat="44.61628" lon="6.19494">
        <ele>1362.4000244141</ele>
        <time>2016-07-14T12:13:20.000Z</time>
      </trkpt>
      <trkpt lat="44.61617" lon="6.19498">
        <ele>1364.8000488281</ele>
        <time>2016-07-14T12:13:29.000Z</time>
      </trkpt>
      <trkpt lat="44.61612" lon="6.19502">
        <ele>1365.8000488281</ele>
        <time>2016-07-14T12:13:34.000Z</time>
      </trkpt>
      <trkpt lat="44.61604" lon="6.19505">
        <ele>1367.1999511719</ele>
        <time>2016-07-14T12:13:42.000Z</time>
      </trkpt>
      <trkpt lat="44.61601" lon="6.19508">
        <ele>1367.8000488281</ele>
        <time>2016-07-14T12:13:45.000Z</time>
      </trkpt>
      <trkpt lat="44.61597" lon="6.19512">
        <ele>1368.5999755859</ele>
        <time>2016-07-14T12:13:49.000Z</time>
      </trkpt>
      <trkpt lat="44.61587" lon="6.19519">
        <ele>1370.4000244141</ele>
        <time>2016-07-14T12:13:58.000Z</time>
      </trkpt>
      <trkpt lat="44.61577" lon="6.19525">
        <ele>1372.4000244141</ele>
        <time>2016-07-14T12:14:07.000Z</time>
      </trkpt>
      <trkpt lat="44.61565" lon="6.1953">
        <ele>1374.8000488281</ele>
        <time>2016-07-14T12:14:16.000Z</time>
      </trkpt>
      <trkpt lat="44.61555" lon="6.19533">
        <ele>1376.8000488281</ele>
        <time>2016-07-14T12:14:24.000Z</time>
      </trkpt>
      <trkpt lat="44.61547" lon="6.19536">
        <ele>1378.1999511719</ele>
        <time>2016-07-14T12:14:31.000Z</time>
      </trkpt>
      <trkpt lat="44.61527" lon="6.1953">
        <ele>1381</ele>
        <time>2016-07-14T12:14:46.000Z</time>
      </trkpt>
      <trkpt lat="44.61519" lon="6.19532">
        <ele>1382.1999511719</ele>
        <time>2016-07-14T12:14:53.000Z</time>
      </trkpt>
      <trkpt lat="44.61508" lon="6.19535">
        <ele>1383.5999755859</ele>
        <time>2016-07-14T12:15:01.000Z</time>
      </trkpt>
      <trkpt lat="44.61499" lon="6.19536">
        <ele>1384.8000488281</ele>
        <time>2016-07-14T12:15:08.000Z</time>
      </trkpt>
      <trkpt lat="44.61497" lon="6.19535">
        <ele>1385.1999511719</ele>
        <time>2016-07-14T12:15:14.000Z</time>
      </trkpt>
      <trkpt lat="44.61496" lon="6.19536">
        <ele>1385.4000244141</ele>
        <time>2016-07-14T12:15:25.000Z</time>
      </trkpt>
      <trkpt lat="44.61493" lon="6.19546">
        <ele>1386.5999755859</ele>
        <time>2016-07-14T12:15:32.000Z</time>
      </trkpt>
      <trkpt lat="44.61485" lon="6.19554">
        <ele>1388</ele>
        <time>2016-07-14T12:15:39.000Z</time>
      </trkpt>
      <trkpt lat="44.61479" lon="6.19561">
        <ele>1389.4000244141</ele>
        <time>2016-07-14T12:15:46.000Z</time>
      </trkpt>
      <trkpt lat="44.61474" lon="6.19567">
        <ele>1390.8000488281</ele>
        <time>2016-07-14T12:15:51.000Z</time>
      </trkpt>
      <trkpt lat="44.6147" lon="6.19577">
        <ele>1392.8000488281</ele>
        <time>2016-07-14T12:15:58.000Z</time>
      </trkpt>
      <trkpt lat="44.61461" lon="6.19593">
        <ele>1395.1999511719</ele>
        <time>2016-07-14T12:16:08.000Z</time>
      </trkpt>
      <trkpt lat="44.61452" lon="6.19602">
        <ele>1396.8000488281</ele>
        <time>2016-07-14T12:16:15.000Z</time>
      </trkpt>
      <trkpt lat="44.61451" lon="6.19604">
        <ele>1397.1999511719</ele>
        <time>2016-07-14T12:16:16.000Z</time>
      </trkpt>
      <trkpt lat="44.61444" lon="6.19612">
        <ele>1398.5999755859</ele>
        <time>2016-07-14T12:16:22.000Z</time>
      </trkpt>
      <trkpt lat="44.61434" lon="6.19618">
        <ele>1400.1999511719</ele>
        <time>2016-07-14T12:16:29.000Z</time>
      </trkpt>
      <trkpt lat="44.61422" lon="6.19626">
        <ele>1402.1999511719</ele>
        <time>2016-07-14T12:16:38.000Z</time>
      </trkpt>
      <trkpt lat="44.61417" lon="6.19631">
        <ele>1403</ele>
        <time>2016-07-14T12:16:43.000Z</time>
      </trkpt>
      <trkpt lat="44.61412" lon="6.19635">
        <ele>1403.8000488281</ele>
        <time>2016-07-14T12:16:47.000Z</time>
      </trkpt>
      <trkpt lat="44.61404" lon="6.19645">
        <ele>1405.5999755859</ele>
        <time>2016-07-14T12:16:54.000Z</time>
      </trkpt>
      <trkpt lat="44.61396" lon="6.19654">
        <ele>1407</ele>
        <time>2016-07-14T12:17:01.000Z</time>
      </trkpt>
      <trkpt lat="44.61385" lon="6.19663">
        <ele>1408.8000488281</ele>
        <time>2016-07-14T12:17:09.000Z</time>
      </trkpt>
      <trkpt lat="44.61372" lon="6.19668">
        <ele>1410.5999755859</ele>
        <time>2016-07-14T12:17:18.000Z</time>
      </trkpt>
      <trkpt lat="44.6136" lon="6.19677">
        <ele>1412.8000488281</ele>
        <time>2016-07-14T12:17:27.000Z</time>
      </trkpt>
      <trkpt lat="44.61347" lon="6.19685">
        <ele>1415.4000244141</ele>
        <time>2016-07-14T12:17:38.000Z</time>
      </trkpt>
      <trkpt lat="44.61335" lon="6.19688">
        <ele>1417.4000244141</ele>
        <time>2016-07-14T12:17:46.000Z</time>
      </trkpt>
      <trkpt lat="44.6132" lon="6.19694">
        <ele>1420</ele>
        <time>2016-07-14T12:17:57.000Z</time>
      </trkpt>
      <trkpt lat="44.61311" lon="6.19703">
        <ele>1421.8000488281</ele>
        <time>2016-07-14T12:18:05.000Z</time>
      </trkpt>
      <trkpt lat="44.61304" lon="6.19715">
        <ele>1423.5999755859</ele>
        <time>2016-07-14T12:18:12.000Z</time>
      </trkpt>
      <trkpt lat="44.61296" lon="6.19719">
        <ele>1425</ele>
        <time>2016-07-14T12:18:19.000Z</time>
      </trkpt>
      <trkpt lat="44.61286" lon="6.19717">
        <ele>1426</ele>
        <time>2016-07-14T12:18:26.000Z</time>
      </trkpt>
      <trkpt lat="44.61279" lon="6.19723">
        <ele>1427.5999755859</ele>
        <time>2016-07-14T12:18:32.000Z</time>
      </trkpt>
      <trkpt lat="44.61272" lon="6.19728">
        <ele>1429.4000244141</ele>
        <time>2016-07-14T12:18:38.000Z</time>
      </trkpt>
      <trkpt lat="44.61263" lon="6.19724">
        <ele>1430.5999755859</ele>
        <time>2016-07-14T12:18:44.000Z</time>
      </trkpt>
      <trkpt lat="44.61255" lon="6.19723">
        <ele>1432</ele>
        <time>2016-07-14T12:18:50.000Z</time>
      </trkpt>
      <trkpt lat="44.61254" lon="6.19724">
        <ele>1432.4000244141</ele>
        <time>2016-07-14T12:18:51.000Z</time>
      </trkpt>
      <trkpt lat="44.61239" lon="6.19734">
        <ele>1436.1999511719</ele>
        <time>2016-07-14T12:19:03.000Z</time>
      </trkpt>
      <trkpt lat="44.61229" lon="6.19741">
        <ele>1438.8000488281</ele>
        <time>2016-07-14T12:19:11.000Z</time>
      </trkpt>
      <trkpt lat="44.61221" lon="6.19751">
        <ele>1441.4000244141</ele>
        <time>2016-07-14T12:19:18.000Z</time>
      </trkpt>
      <trkpt lat="44.61216" lon="6.19757">
        <ele>1442.8000488281</ele>
        <time>2016-07-14T12:19:23.000Z</time>
      </trkpt>
      <trkpt lat="44.61208" lon="6.19751">
        <ele>1443.1999511719</ele>
        <time>2016-07-14T12:19:29.000Z</time>
      </trkpt>
      <trkpt lat="44.61203" lon="6.19755">
        <ele>1444.4000244141</ele>
        <time>2016-07-14T12:19:34.000Z</time>
      </trkpt>
      <trkpt lat="44.61202" lon="6.19756">
        <ele>1444.5999755859</ele>
        <time>2016-07-14T12:19:35.000Z</time>
      </trkpt>
      <trkpt lat="44.61197" lon="6.19767">
        <ele>1446.5999755859</ele>
        <time>2016-07-14T12:19:42.000Z</time>
      </trkpt>
      <trkpt lat="44.61192" lon="6.19765">
        <ele>1447.1999511719</ele>
        <time>2016-07-14T12:19:47.000Z</time>
      </trkpt>
      <trkpt lat="44.61191" lon="6.19764">
        <ele>1447.1999511719</ele>
        <time>2016-07-14T12:19:48.000Z</time>
      </trkpt>
      <trkpt lat="44.61184" lon="6.19755">
        <ele>1447.5999755859</ele>
        <time>2016-07-14T12:19:55.000Z</time>
      </trkpt>
      <trkpt lat="44.61176" lon="6.19745">
        <ele>1448</ele>
        <time>2016-07-14T12:20:03.000Z</time>
      </trkpt>
      <trkpt lat="44.61165" lon="6.19742">
        <ele>1449.5999755859</ele>
        <time>2016-07-14T12:20:11.000Z</time>
      </trkpt>
      <trkpt lat="44.61164" lon="6.19742">
        <ele>1449.8000488281</ele>
        <time>2016-07-14T12:20:12.000Z</time>
      </trkpt>
      <trkpt lat="44.61163" lon="6.19745">
        <ele>1450.1999511719</ele>
        <time>2016-07-14T12:20:18.000Z</time>
      </trkpt>
      <trkpt lat="44.61161" lon="6.19745">
        <ele>1450.4000244141</ele>
        <time>2016-07-14T12:20:21.000Z</time>
      </trkpt>
      <trkpt lat="44.6116" lon="6.1975">
        <ele>1451.1999511719</ele>
        <time>2016-07-14T12:20:27.000Z</time>
      </trkpt>
      <trkpt lat="44.61161" lon="6.19746">
        <ele>1450.5999755859</ele>
        <time>2016-07-14T12:20:31.000Z</time>
      </trkpt>
      <trkpt lat="44.61162" lon="6.19744">
        <ele>1450.1999511719</ele>
        <time>2016-07-14T12:20:36.000Z</time>
      </trkpt>
      <trkpt lat="44.61155" lon="6.1975">
        <ele>1452</ele>
        <time>2016-07-14T12:20:42.000Z</time>
      </trkpt>
      <trkpt lat="44.61148" lon="6.1975">
        <ele>1453.1999511719</ele>
        <time>2016-07-14T12:20:49.000Z</time>
      </trkpt>
      <trkpt lat="44.6114" lon="6.19751">
        <ele>1454.5999755859</ele>
        <time>2016-07-14T12:21:18.000Z</time>
      </trkpt>
      <trkpt lat="44.61125" lon="6.19758">
        <ele>1456.5999755859</ele>
        <time>2016-07-14T12:21:29.000Z</time>
      </trkpt>
      <trkpt lat="44.61111" lon="6.19761">
        <ele>1459</ele>
        <time>2016-07-14T12:21:39.000Z</time>
      </trkpt>
      <trkpt lat="44.61102" lon="6.19764">
        <ele>1461</ele>
        <time>2016-07-14T12:21:46.000Z</time>
      </trkpt>
      <trkpt lat="44.6109" lon="6.19774">
        <ele>1463.5999755859</ele>
        <time>2016-07-14T12:21:55.000Z</time>
      </trkpt>
      <trkpt lat="44.61088" lon="6.19775">
        <ele>1464.1999511719</ele>
        <time>2016-07-14T12:21:56.000Z</time>
      </trkpt>
      <trkpt lat="44.61079" lon="6.19768">
        <ele>1465.4000244141</ele>
        <time>2016-07-14T12:22:01.000Z</time>
      </trkpt>
      <trkpt lat="44.61078" lon="6.19767">
        <ele>1465.5999755859</ele>
        <time>2016-07-14T12:22:02.000Z</time>
      </trkpt>
      <trkpt lat="44.61071" lon="6.19755">
        <ele>1466.4000244141</ele>
        <time>2016-07-14T12:22:10.000Z</time>
      </trkpt>
      <trkpt lat="44.6107" lon="6.19754">
        <ele>1466.5999755859</ele>
        <time>2016-07-14T12:22:11.000Z</time>
      </trkpt>
      <trkpt lat="44.61066" lon="6.19754">
        <ele>1467.4000244141</ele>
        <time>2016-07-14T12:22:15.000Z</time>
      </trkpt>
      <trkpt lat="44.61055" lon="6.19761">
        <ele>1470</ele>
        <time>2016-07-14T12:22:23.000Z</time>
      </trkpt>
      <trkpt lat="44.61046" lon="6.19765">
        <ele>1472</ele>
        <time>2016-07-14T12:22:30.000Z</time>
      </trkpt>
      <trkpt lat="44.61038" lon="6.19777">
        <ele>1474.1999511719</ele>
        <time>2016-07-14T12:22:38.000Z</time>
      </trkpt>
      <trkpt lat="44.61037" lon="6.19789">
        <ele>1475.1999511719</ele>
        <time>2016-07-14T12:22:46.000Z</time>
      </trkpt>
      <trkpt lat="44.61035" lon="6.19789">
        <ele>1475.5999755859</ele>
        <time>2016-07-14T12:22:54.000Z</time>
      </trkpt>
      <trkpt lat="44.61023" lon="6.19783">
        <ele>1476.8000488281</ele>
        <time>2016-07-14T12:23:03.000Z</time>
      </trkpt>
      <trkpt lat="44.61011" lon="6.19786">
        <ele>1478.5999755859</ele>
        <time>2016-07-14T12:23:12.000Z</time>
      </trkpt>
      <trkpt lat="44.61" lon="6.19795">
        <ele>1481.5999755859</ele>
        <time>2016-07-14T12:23:21.000Z</time>
      </trkpt>
      <trkpt lat="44.60983" lon="6.198">
        <ele>1485.1999511719</ele>
        <time>2016-07-14T12:23:33.000Z</time>
      </trkpt>
      <trkpt lat="44.60966" lon="6.19812">
        <ele>1489.4000244141</ele>
        <time>2016-07-14T12:23:47.000Z</time>
      </trkpt>
      <trkpt lat="44.60963" lon="6.19826">
        <ele>1490.1999511719</ele>
        <time>2016-07-14T12:23:54.000Z</time>
      </trkpt>
      <trkpt lat="44.60961" lon="6.19829">
        <ele>1491</ele>
        <time>2016-07-14T12:23:56.000Z</time>
      </trkpt>
      <trkpt lat="44.60956" lon="6.1983">
        <ele>1492.1999511719</ele>
        <time>2016-07-14T12:24:00.000Z</time>
      </trkpt>
      <trkpt lat="44.60954" lon="6.19829">
        <ele>1492.8000488281</ele>
        <time>2016-07-14T12:24:02.000Z</time>
      </trkpt>
      <trkpt lat="44.6095" lon="6.19839">
        <ele>1494.1999511719</ele>
        <time>2016-07-14T12:24:08.000Z</time>
      </trkpt>
      <trkpt lat="44.60944" lon="6.19842">
        <ele>1495.5999755859</ele>
        <time>2016-07-14T12:24:13.000Z</time>
      </trkpt>
      <trkpt lat="44.60942" lon="6.1984">
        <ele>1495.8000488281</ele>
        <time>2016-07-14T12:24:15.000Z</time>
      </trkpt>
      <trkpt lat="44.6093" lon="6.19836">
        <ele>1497.5999755859</ele>
        <time>2016-07-14T12:24:24.000Z</time>
      </trkpt>
      <trkpt lat="44.60925" lon="6.19842">
        <ele>1499</ele>
        <time>2016-07-14T12:24:31.000Z</time>
      </trkpt>
      <trkpt lat="44.60921" lon="6.19852">
        <ele>1500.4000244141</ele>
        <time>2016-07-14T12:24:38.000Z</time>
      </trkpt>
      <trkpt lat="44.60911" lon="6.19857">
        <ele>1502.5999755859</ele>
        <time>2016-07-14T12:24:46.000Z</time>
      </trkpt>
      <trkpt lat="44.609" lon="6.19859">
        <ele>1505</ele>
        <time>2016-07-14T12:24:56.000Z</time>
      </trkpt>
      <trkpt lat="44.60892" lon="6.19869">
        <ele>1507.1999511719</ele>
        <time>2016-07-14T12:25:04.000Z</time>
      </trkpt>
      <trkpt lat="44.60884" lon="6.19877">
        <ele>1509.5999755859</ele>
        <time>2016-07-14T12:25:12.000Z</time>
      </trkpt>
      <trkpt lat="44.60875" lon="6.19877">
        <ele>1511.1999511719</ele>
        <time>2016-07-14T12:25:19.000Z</time>
      </trkpt>
      <trkpt lat="44.60864" lon="6.19886">
        <ele>1514.1999511719</ele>
        <time>2016-07-14T12:25:29.000Z</time>
      </trkpt>
      <trkpt lat="44.60857" lon="6.19891">
        <ele>1515.4000244141</ele>
        <time>2016-07-14T12:25:34.000Z</time>
      </trkpt>
      <trkpt lat="44.60844" lon="6.19896">
        <ele>1517</ele>
        <time>2016-07-14T12:25:44.000Z</time>
      </trkpt>
      <trkpt lat="44.60831" lon="6.19905">
        <ele>1519.8000488281</ele>
        <time>2016-07-14T12:25:55.000Z</time>
      </trkpt>
      <trkpt lat="44.60819" lon="6.1991">
        <ele>1521.5999755859</ele>
        <time>2016-07-14T12:26:04.000Z</time>
      </trkpt>
      <trkpt lat="44.6081" lon="6.19912">
        <ele>1523.1999511719</ele>
        <time>2016-07-14T12:26:11.000Z</time>
      </trkpt>
      <trkpt lat="44.60799" lon="6.19913">
        <ele>1524.5999755859</ele>
        <time>2016-07-14T12:26:19.000Z</time>
      </trkpt>
      <trkpt lat="44.60787" lon="6.19916">
        <ele>1526</ele>
        <time>2016-07-14T12:26:27.000Z</time>
      </trkpt>
      <trkpt lat="44.60776" lon="6.19917">
        <ele>1528.4000244141</ele>
        <time>2016-07-14T12:26:35.000Z</time>
      </trkpt>
      <trkpt lat="44.60762" lon="6.19919">
        <ele>1531.5999755859</ele>
        <time>2016-07-14T12:26:45.000Z</time>
      </trkpt>
      <trkpt lat="44.60752" lon="6.19922">
        <ele>1534</ele>
        <time>2016-07-14T12:26:52.000Z</time>
      </trkpt>
      <trkpt lat="44.60742" lon="6.19921">
        <ele>1536.1999511719</ele>
        <time>2016-07-14T12:27:00.000Z</time>
      </trkpt>
      <trkpt lat="44.60734" lon="6.19914">
        <ele>1537</ele>
        <time>2016-07-14T12:27:07.000Z</time>
      </trkpt>
      <trkpt lat="44.60725" lon="6.19911">
        <ele>1538.8000488281</ele>
        <time>2016-07-14T12:27:14.000Z</time>
      </trkpt>
      <trkpt lat="44.60716" lon="6.19907">
        <ele>1540.1999511719</ele>
        <time>2016-07-14T12:27:21.000Z</time>
      </trkpt>
      <trkpt lat="44.60704" lon="6.19906">
        <ele>1542.8000488281</ele>
        <time>2016-07-14T12:27:29.000Z</time>
      </trkpt>
      <trkpt lat="44.60693" lon="6.19905">
        <ele>1545.1999511719</ele>
        <time>2016-07-14T12:27:37.000Z</time>
      </trkpt>
      <trkpt lat="44.60689" lon="6.19902">
        <ele>1545.5999755859</ele>
        <time>2016-07-14T12:27:41.000Z</time>
      </trkpt>
      <trkpt lat="44.60686" lon="6.19902">
        <ele>1546</ele>
        <time>2016-07-14T12:27:43.000Z</time>
      </trkpt>
      <trkpt lat="44.6068" lon="6.19911">
        <ele>1548.5999755859</ele>
        <time>2016-07-14T12:27:50.000Z</time>
      </trkpt>
      <trkpt lat="44.60672" lon="6.19926">
        <ele>1552.1999511719</ele>
        <time>2016-07-14T12:28:00.000Z</time>
      </trkpt>
      <trkpt lat="44.60659" lon="6.19927">
        <ele>1555</ele>
        <time>2016-07-14T12:28:09.000Z</time>
      </trkpt>
      <trkpt lat="44.60649" lon="6.19922">
        <ele>1556.4000244141</ele>
        <time>2016-07-14T12:28:17.000Z</time>
      </trkpt>
      <trkpt lat="44.60641" lon="6.19917">
        <ele>1557.4000244141</ele>
        <time>2016-07-14T12:28:24.000Z</time>
      </trkpt>
      <trkpt lat="44.60634" lon="6.1993">
        <ele>1560.5999755859</ele>
        <time>2016-07-14T12:28:33.000Z</time>
      </trkpt>
      <trkpt lat="44.6063" lon="6.19934">
        <ele>1562.1999511719</ele>
        <time>2016-07-14T12:28:37.000Z</time>
      </trkpt>
      <trkpt lat="44.60628" lon="6.19933">
        <ele>1562.5999755859</ele>
        <time>2016-07-14T12:28:47.000Z</time>
      </trkpt>
      <trkpt lat="44.60624" lon="6.19928">
        <ele>1562.5999755859</ele>
        <time>2016-07-14T12:28:52.000Z</time>
      </trkpt>
      <trkpt lat="44.60617" lon="6.19922">
        <ele>1563.4000244141</ele>
        <time>2016-07-14T12:28:58.000Z</time>
      </trkpt>
      <trkpt lat="44.60609" lon="6.19917">
        <ele>1564.5999755859</ele>
        <time>2016-07-14T12:29:04.000Z</time>
      </trkpt>
      <trkpt lat="44.60606" lon="6.19915">
        <ele>1565</ele>
        <time>2016-07-14T12:29:07.000Z</time>
      </trkpt>
      <trkpt lat="44.60602" lon="6.19921">
        <ele>1567</ele>
        <time>2016-07-14T12:29:12.000Z</time>
      </trkpt>
      <trkpt lat="44.606" lon="6.19923">
        <ele>1567.5999755859</ele>
        <time>2016-07-14T12:29:13.000Z</time>
      </trkpt>
      <trkpt lat="44.60591" lon="6.19929">
        <ele>1571</ele>
        <time>2016-07-14T12:29:19.000Z</time>
      </trkpt>
      <trkpt lat="44.6058" lon="6.19932">
        <ele>1574.1999511719</ele>
        <time>2016-07-14T12:29:28.000Z</time>
      </trkpt>
      <trkpt lat="44.60573" lon="6.19931">
        <ele>1575.8000488281</ele>
        <time>2016-07-14T12:29:32.000Z</time>
      </trkpt>
      <trkpt lat="44.60561" lon="6.19932">
        <ele>1578.8000488281</ele>
        <time>2016-07-14T12:29:41.000Z</time>
      </trkpt>
      <trkpt lat="44.60547" lon="6.19928">
        <ele>1581.8000488281</ele>
        <time>2016-07-14T12:29:52.000Z</time>
      </trkpt>
      <trkpt lat="44.60535" lon="6.19921">
        <ele>1583.8000488281</ele>
        <time>2016-07-14T12:30:01.000Z</time>
      </trkpt>
      <trkpt lat="44.60524" lon="6.1992">
        <ele>1586.1999511719</ele>
        <time>2016-07-14T12:30:10.000Z</time>
      </trkpt>
      <trkpt lat="44.60513" lon="6.19925">
        <ele>1589.5999755859</ele>
        <time>2016-07-14T12:30:19.000Z</time>
      </trkpt>
      <trkpt lat="44.60508" lon="6.19932">
        <ele>1592</ele>
        <time>2016-07-14T12:30:26.000Z</time>
      </trkpt>
      <trkpt lat="44.60507" lon="6.19934">
        <ele>1592.1999511719</ele>
        <time>2016-07-14T12:30:32.000Z</time>
      </trkpt>
      <trkpt lat="44.60505" lon="6.19933">
        <ele>1592.8000488281</ele>
        <time>2016-07-14T12:30:37.000Z</time>
      </trkpt>
      <trkpt lat="44.60505" lon="6.19935">
        <ele>1593</ele>
        <time>2016-07-14T12:30:48.000Z</time>
      </trkpt>
      <trkpt lat="44.60506" lon="6.19936">
        <ele>1592.8000488281</ele>
        <time>2016-07-14T12:30:53.000Z</time>
      </trkpt>
      <trkpt lat="44.60509" lon="6.19939">
        <ele>1592.5999755859</ele>
        <time>2016-07-14T12:31:23.000Z</time>
      </trkpt>
      <trkpt lat="44.6051" lon="6.1994">
        <ele>1592.5999755859</ele>
        <time>2016-07-14T12:31:39.000Z</time>
      </trkpt>
      <trkpt lat="44.60508" lon="6.19939">
        <ele>1593</ele>
        <time>2016-07-14T12:32:28.000Z</time>
      </trkpt>
      <trkpt lat="44.60509" lon="6.19938">
        <ele>1592.4000244141</ele>
        <time>2016-07-14T12:33:48.000Z</time>
      </trkpt>
      <trkpt lat="44.60509" lon="6.19937">
        <ele>1592.4000244141</ele>
        <time>2016-07-14T12:34:19.000Z</time>
      </trkpt>
      <trkpt lat="44.60508" lon="6.19934">
        <ele>1592.1999511719</ele>
        <time>2016-07-14T12:34:46.000Z</time>
      </trkpt>
      <trkpt lat="44.60508" lon="6.19935">
        <ele>1592.1999511719</ele>
        <time>2016-07-14T12:34:52.000Z</time>
      </trkpt>
      <trkpt lat="44.60505" lon="6.19929">
        <ele>1592.1999511719</ele>
        <time>2016-07-14T12:34:57.000Z</time>
      </trkpt>
      <trkpt lat="44.60501" lon="6.19924">
        <ele>1592.4000244141</ele>
        <time>2016-07-14T12:35:01.000Z</time>
      </trkpt>
      <trkpt lat="44.605" lon="6.19923">
        <ele>1592.4000244141</ele>
        <time>2016-07-14T12:35:02.000Z</time>
      </trkpt>
      <trkpt lat="44.60495" lon="6.19913">
        <ele>1592.4000244141</ele>
        <time>2016-07-14T12:35:10.000Z</time>
      </trkpt>
      <trkpt lat="44.60493" lon="6.19913">
        <ele>1592.5999755859</ele>
        <time>2016-07-14T12:35:11.000Z</time>
      </trkpt>
      <trkpt lat="44.60487" lon="6.1991">
        <ele>1593.5999755859</ele>
        <time>2016-07-14T12:35:17.000Z</time>
      </trkpt>
      <trkpt lat="44.60485" lon="6.19909">
        <ele>1594.1999511719</ele>
        <time>2016-07-14T12:35:20.000Z</time>
      </trkpt>
      <trkpt lat="44.60485" lon="6.19902">
        <ele>1593</ele>
        <time>2016-07-14T12:35:26.000Z</time>
      </trkpt>
      <trkpt lat="44.60485" lon="6.19901">
        <ele>1593</ele>
        <time>2016-07-14T12:35:28.000Z</time>
      </trkpt>
      <trkpt lat="44.60482" lon="6.19899">
        <ele>1593.1999511719</ele>
        <time>2016-07-14T12:35:31.000Z</time>
      </trkpt>
      <trkpt lat="44.60476" lon="6.19892">
        <ele>1593.8000488281</ele>
        <time>2016-07-14T12:35:39.000Z</time>
      </trkpt>
      <trkpt lat="44.60469" lon="6.19885">
        <ele>1594.8000488281</ele>
        <time>2016-07-14T12:35:48.000Z</time>
      </trkpt>
      <trkpt lat="44.60463" lon="6.1988">
        <ele>1595.8000488281</ele>
        <time>2016-07-14T12:35:54.000Z</time>
      </trkpt>
      <trkpt lat="44.60461" lon="6.19877">
        <ele>1596</ele>
        <time>2016-07-14T12:35:57.000Z</time>
      </trkpt>
      <trkpt lat="44.60457" lon="6.19868">
        <ele>1596.1999511719</ele>
        <time>2016-07-14T12:36:04.000Z</time>
      </trkpt>
      <trkpt lat="44.60451" lon="6.19864">
        <ele>1597.1999511719</ele>
        <time>2016-07-14T12:36:10.000Z</time>
      </trkpt>
      <trkpt lat="44.60446" lon="6.19864">
        <ele>1598.1999511719</ele>
        <time>2016-07-14T12:36:16.000Z</time>
      </trkpt>
      <trkpt lat="44.60447" lon="6.19861">
        <ele>1597.8000488281</ele>
        <time>2016-07-14T12:36:29.000Z</time>
      </trkpt>
      <trkpt lat="44.60445" lon="6.19856">
        <ele>1597.8000488281</ele>
        <time>2016-07-14T12:36:49.000Z</time>
      </trkpt>
      <trkpt lat="44.60444" lon="6.19854">
        <ele>1597.8000488281</ele>
        <time>2016-07-14T12:36:54.000Z</time>
      </trkpt>
      <trkpt lat="44.60445" lon="6.19851">
        <ele>1597.1999511719</ele>
        <time>2016-07-14T12:37:07.000Z</time>
      </trkpt>
      <trkpt lat="44.60446" lon="6.1985">
        <ele>1597</ele>
        <time>2016-07-14T12:37:15.000Z</time>
      </trkpt>
      <trkpt lat="44.60442" lon="6.19853">
        <ele>1598</ele>
        <time>2016-07-14T12:37:20.000Z</time>
      </trkpt>
      <trkpt lat="44.60435" lon="6.19855">
        <ele>1599.8000488281</ele>
        <time>2016-07-14T12:37:26.000Z</time>
      </trkpt>
      <trkpt lat="44.6042" lon="6.19856">
        <ele>1603</ele>
        <time>2016-07-14T12:37:36.000Z</time>
      </trkpt>
      <trkpt lat="44.6041" lon="6.19853">
        <ele>1605</ele>
        <time>2016-07-14T12:37:44.000Z</time>
      </trkpt>
      <trkpt lat="44.60402" lon="6.19846">
        <ele>1606</ele>
        <time>2016-07-14T12:37:51.000Z</time>
      </trkpt>
      <trkpt lat="44.60393" lon="6.19846">
        <ele>1607.8000488281</ele>
        <time>2016-07-14T12:37:58.000Z</time>
      </trkpt>
      <trkpt lat="44.60384" lon="6.19852">
        <ele>1610</ele>
        <time>2016-07-14T12:38:05.000Z</time>
      </trkpt>
      <trkpt lat="44.6038" lon="6.19853">
        <ele>1610.8000488281</ele>
        <time>2016-07-14T12:38:08.000Z</time>
      </trkpt>
      <trkpt lat="44.60368" lon="6.19859">
        <ele>1613.4000244141</ele>
        <time>2016-07-14T12:38:17.000Z</time>
      </trkpt>
      <trkpt lat="44.6036" lon="6.19856">
        <ele>1617</ele>
        <time>2016-07-14T12:38:24.000Z</time>
      </trkpt>
      <trkpt lat="44.60346" lon="6.19847">
        <ele>1622.1999511719</ele>
        <time>2016-07-14T12:38:34.000Z</time>
      </trkpt>
      <trkpt lat="44.6034" lon="6.19842">
        <ele>1624.5999755859</ele>
        <time>2016-07-14T12:38:40.000Z</time>
      </trkpt>
      <trkpt lat="44.60335" lon="6.19831">
        <ele>1625.5999755859</ele>
        <time>2016-07-14T12:38:47.000Z</time>
      </trkpt>
      <trkpt lat="44.60335" lon="6.19829">
        <ele>1625.8000488281</ele>
        <time>2016-07-14T12:38:48.000Z</time>
      </trkpt>
      <trkpt lat="44.60332" lon="6.19819">
        <ele>1626.4000244141</ele>
        <time>2016-07-14T12:38:54.000Z</time>
      </trkpt>
      <trkpt lat="44.60328" lon="6.19802">
        <ele>1628.1999511719</ele>
        <time>2016-07-14T12:39:03.000Z</time>
      </trkpt>
      <trkpt lat="44.60332" lon="6.1979">
        <ele>1627.8000488281</ele>
        <time>2016-07-14T12:39:09.000Z</time>
      </trkpt>
      <trkpt lat="44.60341" lon="6.19785">
        <ele>1624.5999755859</ele>
        <time>2016-07-14T12:39:15.000Z</time>
      </trkpt>
      <trkpt lat="44.60348" lon="6.19775">
        <ele>1621.5999755859</ele>
        <time>2016-07-14T12:39:22.000Z</time>
      </trkpt>
      <trkpt lat="44.60357" lon="6.19765">
        <ele>1617.5999755859</ele>
        <time>2016-07-14T12:39:30.000Z</time>
      </trkpt>
      <trkpt lat="44.60364" lon="6.19756">
        <ele>1614.5999755859</ele>
        <time>2016-07-14T12:39:37.000Z</time>
      </trkpt>
      <trkpt lat="44.60365" lon="6.19755">
        <ele>1614.1999511719</ele>
        <time>2016-07-14T12:39:38.000Z</time>
      </trkpt>
      <trkpt lat="44.60368" lon="6.19752">
        <ele>1612.8000488281</ele>
        <time>2016-07-14T12:39:43.000Z</time>
      </trkpt>
      <trkpt lat="44.60373" lon="6.19745">
        <ele>1612.1999511719</ele>
        <time>2016-07-14T12:39:50.000Z</time>
      </trkpt>
      <trkpt lat="44.60378" lon="6.19735">
        <ele>1611.4000244141</ele>
        <time>2016-07-14T12:39:56.000Z</time>
      </trkpt>
      <trkpt lat="44.6038" lon="6.19723">
        <ele>1611.4000244141</ele>
        <time>2016-07-14T12:40:03.000Z</time>
      </trkpt>
      <trkpt lat="44.60381" lon="6.19717">
        <ele>1611.8000488281</ele>
        <time>2016-07-14T12:40:07.000Z</time>
      </trkpt>
      <trkpt lat="44.60383" lon="6.19704">
        <ele>1612.5999755859</ele>
        <time>2016-07-14T12:40:13.000Z</time>
      </trkpt>
      <trkpt lat="44.60384" lon="6.19697">
        <ele>1612.8000488281</ele>
        <time>2016-07-14T12:40:16.000Z</time>
      </trkpt>
      <trkpt lat="44.60387" lon="6.19684">
        <ele>1613.1999511719</ele>
        <time>2016-07-14T12:40:22.000Z</time>
      </trkpt>
      <trkpt lat="44.60389" lon="6.19671">
        <ele>1614.1999511719</ele>
        <time>2016-07-14T12:40:28.000Z</time>
      </trkpt>
      <trkpt lat="44.60387" lon="6.19661">
        <ele>1615.1999511719</ele>
        <time>2016-07-14T12:40:34.000Z</time>
      </trkpt>
      <trkpt lat="44.60387" lon="6.19659">
        <ele>1615.1999511719</ele>
        <time>2016-07-14T12:40:35.000Z</time>
      </trkpt>
      <trkpt lat="44.60384" lon="6.19647">
        <ele>1616.4000244141</ele>
        <time>2016-07-14T12:40:42.000Z</time>
      </trkpt>
      <trkpt lat="44.60382" lon="6.19635">
        <ele>1616.8000488281</ele>
        <time>2016-07-14T12:40:50.000Z</time>
      </trkpt>
      <trkpt lat="44.60382" lon="6.19634">
        <ele>1616.8000488281</ele>
        <time>2016-07-14T12:40:51.000Z</time>
      </trkpt>
      <trkpt lat="44.60386" lon="6.19624">
        <ele>1615.4000244141</ele>
        <time>2016-07-14T12:40:56.000Z</time>
      </trkpt>
      <trkpt lat="44.60387" lon="6.19619">
        <ele>1615</ele>
        <time>2016-07-14T12:40:59.000Z</time>
      </trkpt>
      <trkpt lat="44.60386" lon="6.19617">
        <ele>1615.4000244141</ele>
        <time>2016-07-14T12:41:09.000Z</time>
      </trkpt>
      <trkpt lat="44.60385" lon="6.1961">
        <ele>1615.5999755859</ele>
        <time>2016-07-14T12:41:22.000Z</time>
      </trkpt>
      <trkpt lat="44.60384" lon="6.19596">
        <ele>1615.8000488281</ele>
        <time>2016-07-14T12:41:29.000Z</time>
      </trkpt>
      <trkpt lat="44.60385" lon="6.19592">
        <ele>1615.1999511719</ele>
        <time>2016-07-14T12:41:33.000Z</time>
      </trkpt>
      <trkpt lat="44.60384" lon="6.19597">
        <ele>1615.5999755859</ele>
        <time>2016-07-14T12:41:41.000Z</time>
      </trkpt>
      <trkpt lat="44.60384" lon="6.19599">
        <ele>1615.8000488281</ele>
        <time>2016-07-14T12:41:43.000Z</time>
      </trkpt>
      <trkpt lat="44.60386" lon="6.19608">
        <ele>1615.1999511719</ele>
        <time>2016-07-14T12:41:49.000Z</time>
      </trkpt>
      <trkpt lat="44.60386" lon="6.19611">
        <ele>1615.1999511719</ele>
        <time>2016-07-14T12:41:51.000Z</time>
      </trkpt>
      <trkpt lat="44.60385" lon="6.19603">
        <ele>1615.5999755859</ele>
        <time>2016-07-14T12:42:07.000Z</time>
      </trkpt>
      <trkpt lat="44.60385" lon="6.19602">
        <ele>1615.5999755859</ele>
        <time>2016-07-14T12:42:08.000Z</time>
      </trkpt>
      <trkpt lat="44.60387" lon="6.19595">
        <ele>1614.8000488281</ele>
        <time>2016-07-14T12:42:12.000Z</time>
      </trkpt>
      <trkpt lat="44.60388" lon="6.19593">
        <ele>1614.5999755859</ele>
        <time>2016-07-14T12:42:14.000Z</time>
      </trkpt>
      <trkpt lat="44.60394" lon="6.19587">
        <ele>1612</ele>
        <time>2016-07-14T12:42:21.000Z</time>
      </trkpt>
      <trkpt lat="44.60397" lon="6.19583">
        <ele>1611.5999755859</ele>
        <time>2016-07-14T12:42:25.000Z</time>
      </trkpt>
      <trkpt lat="44.60407" lon="6.19578">
        <ele>1609.5999755859</ele>
        <time>2016-07-14T12:42:34.000Z</time>
      </trkpt>
      <trkpt lat="44.60415" lon="6.1957">
        <ele>1608.1999511719</ele>
        <time>2016-07-14T12:42:43.000Z</time>
      </trkpt>
      <trkpt lat="44.60422" lon="6.19556">
        <ele>1606.5999755859</ele>
        <time>2016-07-14T12:42:53.000Z</time>
      </trkpt>
      <trkpt lat="44.60424" lon="6.19546">
        <ele>1605.5999755859</ele>
        <time>2016-07-14T12:43:00.000Z</time>
      </trkpt>
      <trkpt lat="44.60424" lon="6.19542">
        <ele>1605.4000244141</ele>
        <time>2016-07-14T12:43:03.000Z</time>
      </trkpt>
      <trkpt lat="44.60424" lon="6.1953">
        <ele>1605.1999511719</ele>
        <time>2016-07-14T12:43:10.000Z</time>
      </trkpt>
      <trkpt lat="44.60425" lon="6.19516">
        <ele>1605.5999755859</ele>
        <time>2016-07-14T12:43:18.000Z</time>
      </trkpt>
      <trkpt lat="44.60426" lon="6.19509">
        <ele>1605.8000488281</ele>
        <time>2016-07-14T12:43:23.000Z</time>
      </trkpt>
      <trkpt lat="44.60425" lon="6.19504">
        <ele>1606.4000244141</ele>
        <time>2016-07-14T12:43:27.000Z</time>
      </trkpt>
      <trkpt lat="44.60424" lon="6.19499">
        <ele>1606.5999755859</ele>
        <time>2016-07-14T12:43:33.000Z</time>
      </trkpt>
      <trkpt lat="44.60425" lon="6.19499">
        <ele>1606.4000244141</ele>
        <time>2016-07-14T12:43:42.000Z</time>
      </trkpt>
      <trkpt lat="44.60428" lon="6.19491">
        <ele>1606.4000244141</ele>
        <time>2016-07-14T12:43:48.000Z</time>
      </trkpt>
      <trkpt lat="44.60429" lon="6.19488">
        <ele>1606.4000244141</ele>
        <time>2016-07-14T12:43:50.000Z</time>
      </trkpt>
      <trkpt lat="44.6043" lon="6.19477">
        <ele>1606.5999755859</ele>
        <time>2016-07-14T12:43:56.000Z</time>
      </trkpt>
      <trkpt lat="44.6043" lon="6.19474">
        <ele>1606.4000244141</ele>
        <time>2016-07-14T12:43:57.000Z</time>
      </trkpt>
      <trkpt lat="44.60434" lon="6.19458">
        <ele>1604.5999755859</ele>
        <time>2016-07-14T12:44:05.000Z</time>
      </trkpt>
      <trkpt lat="44.6044" lon="6.19446">
        <ele>1604.1999511719</ele>
        <time>2016-07-14T12:44:12.000Z</time>
      </trkpt>
      <trkpt lat="44.60439" lon="6.19434">
        <ele>1604.1999511719</ele>
        <time>2016-07-14T12:44:18.000Z</time>
      </trkpt>
      <trkpt lat="44.60439" lon="6.19432">
        <ele>1604.1999511719</ele>
        <time>2016-07-14T12:44:19.000Z</time>
      </trkpt>
      <trkpt lat="44.60438" lon="6.19422">
        <ele>1604.1999511719</ele>
        <time>2016-07-14T12:44:25.000Z</time>
      </trkpt>
      <trkpt lat="44.60438" lon="6.19421">
        <ele>1604.4000244141</ele>
        <time>2016-07-14T12:44:26.000Z</time>
      </trkpt>
      <trkpt lat="44.60431" lon="6.19407">
        <ele>1605</ele>
        <time>2016-07-14T12:44:36.000Z</time>
      </trkpt>
      <trkpt lat="44.60431" lon="6.19404">
        <ele>1605</ele>
        <time>2016-07-14T12:44:38.000Z</time>
      </trkpt>
      <trkpt lat="44.60425" lon="6.19393">
        <ele>1605.4000244141</ele>
        <time>2016-07-14T12:44:45.000Z</time>
      </trkpt>
      <trkpt lat="44.60416" lon="6.19387">
        <ele>1606</ele>
        <time>2016-07-14T12:44:52.000Z</time>
      </trkpt>
      <trkpt lat="44.60412" lon="6.19388">
        <ele>1606.4000244141</ele>
        <time>2016-07-14T12:44:55.000Z</time>
      </trkpt>
      <trkpt lat="44.60402" lon="6.19379">
        <ele>1607</ele>
        <time>2016-07-14T12:45:02.000Z</time>
      </trkpt>
      <trkpt lat="44.60392" lon="6.19371">
        <ele>1607.5999755859</ele>
        <time>2016-07-14T12:45:09.000Z</time>
      </trkpt>
      <trkpt lat="44.60381" lon="6.19364">
        <ele>1608.4000244141</ele>
        <time>2016-07-14T12:45:17.000Z</time>
      </trkpt>
      <trkpt lat="44.6038" lon="6.19363">
        <ele>1608.4000244141</ele>
        <time>2016-07-14T12:45:18.000Z</time>
      </trkpt>
      <trkpt lat="44.60367" lon="6.19357">
        <ele>1609</ele>
        <time>2016-07-14T12:45:27.000Z</time>
      </trkpt>
      <trkpt lat="44.60349" lon="6.19354">
        <ele>1608.1999511719</ele>
        <time>2016-07-14T12:45:38.000Z</time>
      </trkpt>
      <trkpt lat="44.60341" lon="6.19345">
        <ele>1607.1999511719</ele>
        <time>2016-07-14T12:45:45.000Z</time>
      </trkpt>
      <trkpt lat="44.60335" lon="6.1933">
        <ele>1606.4000244141</ele>
        <time>2016-07-14T12:45:53.000Z</time>
      </trkpt>
      <trkpt lat="44.60334" lon="6.19315">
        <ele>1605.5999755859</ele>
        <time>2016-07-14T12:46:02.000Z</time>
      </trkpt>
      <trkpt lat="44.60334" lon="6.19305">
        <ele>1605.1999511719</ele>
        <time>2016-07-14T12:46:08.000Z</time>
      </trkpt>
      <trkpt lat="44.60333" lon="6.19294">
        <ele>1605</ele>
        <time>2016-07-14T12:46:15.000Z</time>
      </trkpt>
      <trkpt lat="44.60332" lon="6.19288">
        <ele>1605</ele>
        <time>2016-07-14T12:46:18.000Z</time>
      </trkpt>
      <trkpt lat="44.60327" lon="6.19277">
        <ele>1604.5999755859</ele>
        <time>2016-07-14T12:46:24.000Z</time>
      </trkpt>
      <trkpt lat="44.60324" lon="6.19272">
        <ele>1604.4000244141</ele>
        <time>2016-07-14T12:46:27.000Z</time>
      </trkpt>
      <trkpt lat="44.60313" lon="6.19261">
        <ele>1603.8000488281</ele>
        <time>2016-07-14T12:46:34.000Z</time>
      </trkpt>
      <trkpt lat="44.603" lon="6.19261">
        <ele>1603</ele>
        <time>2016-07-14T12:46:43.000Z</time>
      </trkpt>
      <trkpt lat="44.60288" lon="6.19267">
        <ele>1602.5999755859</ele>
        <time>2016-07-14T12:46:52.000Z</time>
      </trkpt>
      <trkpt lat="44.60278" lon="6.19272">
        <ele>1601.4000244141</ele>
        <time>2016-07-14T12:47:00.000Z</time>
      </trkpt>
      <trkpt lat="44.60271" lon="6.19274">
        <ele>1600.1999511719</ele>
        <time>2016-07-14T12:47:06.000Z</time>
      </trkpt>
      <trkpt lat="44.60264" lon="6.19277">
        <ele>1599.1999511719</ele>
        <time>2016-07-14T12:47:13.000Z</time>
      </trkpt>
      <trkpt lat="44.60254" lon="6.1928">
        <ele>1597.8000488281</ele>
        <time>2016-07-14T12:47:20.000Z</time>
      </trkpt>
      <trkpt lat="44.60246" lon="6.19287">
        <ele>1596.1999511719</ele>
        <time>2016-07-14T12:47:28.000Z</time>
      </trkpt>
      <trkpt lat="44.6024" lon="6.19302">
        <ele>1595</ele>
        <time>2016-07-14T12:47:35.000Z</time>
      </trkpt>
      <trkpt lat="44.60232" lon="6.19321">
        <ele>1594.1999511719</ele>
        <time>2016-07-14T12:47:43.000Z</time>
      </trkpt>
      <trkpt lat="44.60224" lon="6.19338">
        <ele>1594.1999511719</ele>
        <time>2016-07-14T12:47:50.000Z</time>
      </trkpt>
      <trkpt lat="44.60218" lon="6.19343">
        <ele>1593.1999511719</ele>
        <time>2016-07-14T12:47:56.000Z</time>
      </trkpt>
      <trkpt lat="44.60216" lon="6.19343">
        <ele>1592.8000488281</ele>
        <time>2016-07-14T12:48:03.000Z</time>
      </trkpt>
      <trkpt lat="44.60215" lon="6.19345">
        <ele>1592.8000488281</ele>
        <time>2016-07-14T12:48:14.000Z</time>
      </trkpt>
      <trkpt lat="44.60209" lon="6.19368">
        <ele>1592.8000488281</ele>
        <time>2016-07-14T12:48:26.000Z</time>
      </trkpt>
      <trkpt lat="44.60208" lon="6.1937">
        <ele>1592.8000488281</ele>
        <time>2016-07-14T12:48:28.000Z</time>
      </trkpt>
      <trkpt lat="44.602" lon="6.19364">
        <ele>1590.8000488281</ele>
        <time>2016-07-14T12:48:36.000Z</time>
      </trkpt>
      <trkpt lat="44.60194" lon="6.19358">
        <ele>1589.1999511719</ele>
        <time>2016-07-14T12:48:41.000Z</time>
      </trkpt>
      <trkpt lat="44.60188" lon="6.19345">
        <ele>1587.4000244141</ele>
        <time>2016-07-14T12:48:47.000Z</time>
      </trkpt>
      <trkpt lat="44.60183" lon="6.19332">
        <ele>1585.5999755859</ele>
        <time>2016-07-14T12:48:53.000Z</time>
      </trkpt>
      <trkpt lat="44.60178" lon="6.19319">
        <ele>1583.8000488281</ele>
        <time>2016-07-14T12:49:00.000Z</time>
      </trkpt>
      <trkpt lat="44.60175" lon="6.19298">
        <ele>1582.5999755859</ele>
        <time>2016-07-14T12:49:10.000Z</time>
      </trkpt>
      <trkpt lat="44.60172" lon="6.19286">
        <ele>1582</ele>
        <time>2016-07-14T12:49:16.000Z</time>
      </trkpt>
      <trkpt lat="44.60175" lon="6.19276">
        <ele>1582.5999755859</ele>
        <time>2016-07-14T12:49:21.000Z</time>
      </trkpt>
      <trkpt lat="44.60171" lon="6.19267">
        <ele>1581.8000488281</ele>
        <time>2016-07-14T12:49:25.000Z</time>
      </trkpt>
      <trkpt lat="44.60169" lon="6.19265">
        <ele>1581.5999755859</ele>
        <time>2016-07-14T12:49:26.000Z</time>
      </trkpt>
      <trkpt lat="44.60165" lon="6.19262">
        <ele>1580.8000488281</ele>
        <time>2016-07-14T12:49:29.000Z</time>
      </trkpt>
      <trkpt lat="44.60135" lon="6.19259">
        <ele>1574.5999755859</ele>
        <time>2016-07-14T12:49:48.000Z</time>
      </trkpt>
      <trkpt lat="44.60124" lon="6.19252">
        <ele>1572.4000244141</ele>
        <time>2016-07-14T12:49:56.000Z</time>
      </trkpt>
      <trkpt lat="44.6012" lon="6.19249">
        <ele>1571.5999755859</ele>
        <time>2016-07-14T12:50:02.000Z</time>
      </trkpt>
      <trkpt lat="44.60119" lon="6.19251">
        <ele>1571.4000244141</ele>
        <time>2016-07-14T12:50:10.000Z</time>
      </trkpt>
      <trkpt lat="44.60118" lon="6.19247">
        <ele>1571.1999511719</ele>
        <time>2016-07-14T12:50:48.000Z</time>
      </trkpt>
      <trkpt lat="44.60118" lon="6.1925">
        <ele>1571.1999511719</ele>
        <time>2016-07-14T12:51:10.000Z</time>
      </trkpt>
      <trkpt lat="44.6012" lon="6.19253">
        <ele>1571.5999755859</ele>
        <time>2016-07-14T12:51:21.000Z</time>
      </trkpt>
      <trkpt lat="44.60118" lon="6.19249">
        <ele>1571.1999511719</ele>
        <time>2016-07-14T12:51:32.000Z</time>
      </trkpt>
      <trkpt lat="44.60119" lon="6.19249">
        <ele>1571.4000244141</ele>
        <time>2016-07-14T12:51:52.000Z</time>
      </trkpt>
      <trkpt lat="44.60118" lon="6.1925">
        <ele>1571.1999511719</ele>
        <time>2016-07-14T12:51:59.000Z</time>
      </trkpt>
      <trkpt lat="44.60119" lon="6.19249">
        <ele>1571.4000244141</ele>
        <time>2016-07-14T12:52:27.000Z</time>
      </trkpt>
      <trkpt lat="44.60119" lon="6.1925">
        <ele>1571.4000244141</ele>
        <time>2016-07-14T12:52:38.000Z</time>
      </trkpt>
      <trkpt lat="44.60117" lon="6.19251">
        <ele>1570.8000488281</ele>
        <time>2016-07-14T12:53:07.000Z</time>
      </trkpt>
      <trkpt lat="44.60123" lon="6.19255">
        <ele>1572.1999511719</ele>
        <time>2016-07-14T12:53:13.000Z</time>
      </trkpt>
      <trkpt lat="44.60136" lon="6.1926">
        <ele>1574.8000488281</ele>
        <time>2016-07-14T12:53:22.000Z</time>
      </trkpt>
      <trkpt lat="44.60139" lon="6.19262">
        <ele>1575.4000244141</ele>
        <time>2016-07-14T12:53:25.000Z</time>
      </trkpt>
      <trkpt lat="44.6015" lon="6.1926">
        <ele>1577.5999755859</ele>
        <time>2016-07-14T12:53:33.000Z</time>
      </trkpt>
      <trkpt lat="44.60152" lon="6.1926">
        <ele>1577.8000488281</ele>
        <time>2016-07-14T12:53:34.000Z</time>
      </trkpt>
      <trkpt lat="44.60167" lon="6.19264">
        <ele>1581</ele>
        <time>2016-07-14T12:53:45.000Z</time>
      </trkpt>
      <trkpt lat="44.60172" lon="6.19273">
        <ele>1582</ele>
        <time>2016-07-14T12:53:50.000Z</time>
      </trkpt>
      <trkpt lat="44.6017" lon="6.1929">
        <ele>1581.5999755859</ele>
        <time>2016-07-14T12:53:56.000Z</time>
      </trkpt>
      <trkpt lat="44.60171" lon="6.19294">
        <ele>1581.8000488281</ele>
        <time>2016-07-14T12:53:57.000Z</time>
      </trkpt>
      <trkpt lat="44.6018" lon="6.19323">
        <ele>1584.4000244141</ele>
        <time>2016-07-14T12:54:06.000Z</time>
      </trkpt>
      <trkpt lat="44.60181" lon="6.19324">
        <ele>1584.8000488281</ele>
        <time>2016-07-14T12:54:07.000Z</time>
      </trkpt>
      <trkpt lat="44.60188" lon="6.19329">
        <ele>1586.4000244141</ele>
        <time>2016-07-14T12:54:13.000Z</time>
      </trkpt>
      <trkpt lat="44.60189" lon="6.19331">
        <ele>1586.8000488281</ele>
        <time>2016-07-14T12:54:14.000Z</time>
      </trkpt>
      <trkpt lat="44.60192" lon="6.19334">
        <ele>1587.4000244141</ele>
        <time>2016-07-14T12:54:16.000Z</time>
      </trkpt>
      <trkpt lat="44.60194" lon="6.19346">
        <ele>1588.5999755859</ele>
        <time>2016-07-14T12:54:22.000Z</time>
      </trkpt>
      <trkpt lat="44.60201" lon="6.19365">
        <ele>1591</ele>
        <time>2016-07-14T12:54:32.000Z</time>
      </trkpt>
      <trkpt lat="44.60203" lon="6.19371">
        <ele>1592</ele>
        <time>2016-07-14T12:54:35.000Z</time>
      </trkpt>
      <trkpt lat="44.60207" lon="6.19368">
        <ele>1592.5999755859</ele>
        <time>2016-07-14T12:54:40.000Z</time>
      </trkpt>
      <trkpt lat="44.60208" lon="6.19367">
        <ele>1592.5999755859</ele>
        <time>2016-07-14T12:54:41.000Z</time>
      </trkpt>
      <trkpt lat="44.60213" lon="6.19353">
        <ele>1592.8000488281</ele>
        <time>2016-07-14T12:54:49.000Z</time>
      </trkpt>
      <trkpt lat="44.60217" lon="6.19346">
        <ele>1593.1999511719</ele>
        <time>2016-07-14T12:54:55.000Z</time>
      </trkpt>
      <trkpt lat="44.60217" lon="6.19339">
        <ele>1592.8000488281</ele>
        <time>2016-07-14T12:55:15.000Z</time>
      </trkpt>
      <trkpt lat="44.60222" lon="6.19325">
        <ele>1592.8000488281</ele>
        <time>2016-07-14T12:55:21.000Z</time>
      </trkpt>
      <trkpt lat="44.60232" lon="6.19312">
        <ele>1593.4000244141</ele>
        <time>2016-07-14T12:55:25.000Z</time>
      </trkpt>
      <trkpt lat="44.60245" lon="6.19294">
        <ele>1596</ele>
        <time>2016-07-14T12:55:31.000Z</time>
      </trkpt>
      <trkpt lat="44.60264" lon="6.1927">
        <ele>1599.1999511719</ele>
        <time>2016-07-14T12:55:45.000Z</time>
      </trkpt>
      <trkpt lat="44.60271" lon="6.19269">
        <ele>1600.4000244141</ele>
        <time>2016-07-14T12:55:52.000Z</time>
      </trkpt>
      <trkpt lat="44.60271" lon="6.19262">
        <ele>1600.1999511719</ele>
        <time>2016-07-14T12:55:56.000Z</time>
      </trkpt>
      <trkpt lat="44.60271" lon="6.19254">
        <ele>1600.1999511719</ele>
        <time>2016-07-14T12:56:00.000Z</time>
      </trkpt>
      <trkpt lat="44.60276" lon="6.19239">
        <ele>1600.8000488281</ele>
        <time>2016-07-14T12:56:08.000Z</time>
      </trkpt>
      <trkpt lat="44.6028" lon="6.19237">
        <ele>1601.4000244141</ele>
        <time>2016-07-14T12:56:11.000Z</time>
      </trkpt>
      <trkpt lat="44.60294" lon="6.19245">
        <ele>1602.5999755859</ele>
        <time>2016-07-14T12:56:22.000Z</time>
      </trkpt>
      <trkpt lat="44.60301" lon="6.1924">
        <ele>1602.5999755859</ele>
        <time>2016-07-14T12:56:28.000Z</time>
      </trkpt>
      <trkpt lat="44.60302" lon="6.19238">
        <ele>1602.5999755859</ele>
        <time>2016-07-14T12:56:29.000Z</time>
      </trkpt>
      <trkpt lat="44.60301" lon="6.1923">
        <ele>1602</ele>
        <time>2016-07-14T12:56:34.000Z</time>
      </trkpt>
      <trkpt lat="44.60305" lon="6.1922">
        <ele>1601</ele>
        <time>2016-07-14T12:56:40.000Z</time>
      </trkpt>
      <trkpt lat="44.60305" lon="6.19213">
        <ele>1600.4000244141</ele>
        <time>2016-07-14T12:56:44.000Z</time>
      </trkpt>
      <trkpt lat="44.60301" lon="6.19203">
        <ele>1599.1999511719</ele>
        <time>2016-07-14T12:56:52.000Z</time>
      </trkpt>
      <trkpt lat="44.60301" lon="6.19202">
        <ele>1599.1999511719</ele>
        <time>2016-07-14T12:57:00.000Z</time>
      </trkpt>
      <trkpt lat="44.60302" lon="6.19201">
        <ele>1599</ele>
        <time>2016-07-14T12:57:05.000Z</time>
      </trkpt>
      <trkpt lat="44.60303" lon="6.19197">
        <ele>1598.5999755859</ele>
        <time>2016-07-14T12:57:12.000Z</time>
      </trkpt>
      <trkpt lat="44.60301" lon="6.19187">
        <ele>1597.5999755859</ele>
        <time>2016-07-14T12:57:17.000Z</time>
      </trkpt>
      <trkpt lat="44.60299" lon="6.19179">
        <ele>1596.5999755859</ele>
        <time>2016-07-14T12:57:24.000Z</time>
      </trkpt>
      <trkpt lat="44.60301" lon="6.19174">
        <ele>1596</ele>
        <time>2016-07-14T12:57:30.000Z</time>
      </trkpt>
      <trkpt lat="44.60302" lon="6.19165">
        <ele>1595.1999511719</ele>
        <time>2016-07-14T12:57:35.000Z</time>
      </trkpt>
      <trkpt lat="44.60302" lon="6.19164">
        <ele>1595</ele>
        <time>2016-07-14T12:57:36.000Z</time>
      </trkpt>
      <trkpt lat="44.60306" lon="6.19151">
        <ele>1594.4000244141</ele>
        <time>2016-07-14T12:57:43.000Z</time>
      </trkpt>
      <trkpt lat="44.60305" lon="6.19146">
        <ele>1594</ele>
        <time>2016-07-14T12:57:48.000Z</time>
      </trkpt>
      <trkpt lat="44.60308" lon="6.1914">
        <ele>1593.1999511719</ele>
        <time>2016-07-14T12:57:53.000Z</time>
      </trkpt>
      <trkpt lat="44.60308" lon="6.19135">
        <ele>1592.4000244141</ele>
        <time>2016-07-14T12:58:03.000Z</time>
      </trkpt>
      <trkpt lat="44.60308" lon="6.19131">
        <ele>1591.8000488281</ele>
        <time>2016-07-14T12:58:06.000Z</time>
      </trkpt>
      <trkpt lat="44.60309" lon="6.19121">
        <ele>1590.1999511719</ele>
        <time>2016-07-14T12:58:13.000Z</time>
      </trkpt>
      <trkpt lat="44.60309" lon="6.19116">
        <ele>1589.1999511719</ele>
        <time>2016-07-14T12:58:17.000Z</time>
      </trkpt>
      <trkpt lat="44.60314" lon="6.19106">
        <ele>1587.8000488281</ele>
        <time>2016-07-14T12:58:24.000Z</time>
      </trkpt>
      <trkpt lat="44.60317" lon="6.19099">
        <ele>1586.8000488281</ele>
        <time>2016-07-14T12:58:30.000Z</time>
      </trkpt>
      <trkpt lat="44.60319" lon="6.19091">
        <ele>1585.5999755859</ele>
        <time>2016-07-14T12:58:35.000Z</time>
      </trkpt>
      <trkpt lat="44.60321" lon="6.19082">
        <ele>1584.1999511719</ele>
        <time>2016-07-14T12:58:41.000Z</time>
      </trkpt>
      <trkpt lat="44.60322" lon="6.19076">
        <ele>1583.1999511719</ele>
        <time>2016-07-14T12:58:47.000Z</time>
      </trkpt>
      <trkpt lat="44.60319" lon="6.1907">
        <ele>1582</ele>
        <time>2016-07-14T12:58:52.000Z</time>
      </trkpt>
      <trkpt lat="44.60318" lon="6.19064">
        <ele>1581</ele>
        <time>2016-07-14T12:58:56.000Z</time>
      </trkpt>
      <trkpt lat="44.6032" lon="6.19054">
        <ele>1579.8000488281</ele>
        <time>2016-07-14T12:59:02.000Z</time>
      </trkpt>
      <trkpt lat="44.60323" lon="6.19042">
        <ele>1578.1999511719</ele>
        <time>2016-07-14T12:59:10.000Z</time>
      </trkpt>
      <trkpt lat="44.60323" lon="6.19041">
        <ele>1578.1999511719</ele>
        <time>2016-07-14T12:59:11.000Z</time>
      </trkpt>
      <trkpt lat="44.60326" lon="6.19031">
        <ele>1577</ele>
        <time>2016-07-14T12:59:17.000Z</time>
      </trkpt>
      <trkpt lat="44.60331" lon="6.1902">
        <ele>1575.5999755859</ele>
        <time>2016-07-14T12:59:25.000Z</time>
      </trkpt>
      <trkpt lat="44.60333" lon="6.19017">
        <ele>1575.4000244141</ele>
        <time>2016-07-14T12:59:27.000Z</time>
      </trkpt>
      <trkpt lat="44.60339" lon="6.19008">
        <ele>1574.5999755859</ele>
        <time>2016-07-14T12:59:34.000Z</time>
      </trkpt>
      <trkpt lat="44.60346" lon="6.18995">
        <ele>1573.1999511719</ele>
        <time>2016-07-14T12:59:43.000Z</time>
      </trkpt>
      <trkpt lat="44.60348" lon="6.18991">
        <ele>1572.8000488281</ele>
        <time>2016-07-14T12:59:49.000Z</time>
      </trkpt>
      <trkpt lat="44.60348" lon="6.18992">
        <ele>1572.8000488281</ele>
        <time>2016-07-14T12:59:54.000Z</time>
      </trkpt>
      <trkpt lat="44.60351" lon="6.18987">
        <ele>1572.1999511719</ele>
        <time>2016-07-14T12:59:59.000Z</time>
      </trkpt>
      <trkpt lat="44.60354" lon="6.18977">
        <ele>1571.1999511719</ele>
        <time>2016-07-14T13:00:05.000Z</time>
      </trkpt>
      <trkpt lat="44.60357" lon="6.18964">
        <ele>1569.5999755859</ele>
        <time>2016-07-14T13:00:12.000Z</time>
      </trkpt>
      <trkpt lat="44.60358" lon="6.18953">
        <ele>1568.5999755859</ele>
        <time>2016-07-14T13:00:18.000Z</time>
      </trkpt>
      <trkpt lat="44.60357" lon="6.18945">
        <ele>1567.5999755859</ele>
        <time>2016-07-14T13:00:23.000Z</time>
      </trkpt>
      <trkpt lat="44.60356" lon="6.18938">
        <ele>1566.8000488281</ele>
        <time>2016-07-14T13:00:27.000Z</time>
      </trkpt>
      <trkpt lat="44.60352" lon="6.18923">
        <ele>1565</ele>
        <time>2016-07-14T13:00:37.000Z</time>
      </trkpt>
      <trkpt lat="44.60352" lon="6.18922">
        <ele>1564.8000488281</ele>
        <time>2016-07-14T13:00:38.000Z</time>
      </trkpt>
      <trkpt lat="44.60349" lon="6.18911">
        <ele>1563.4000244141</ele>
        <time>2016-07-14T13:00:45.000Z</time>
      </trkpt>
      <trkpt lat="44.60348" lon="6.18909">
        <ele>1563.1999511719</ele>
        <time>2016-07-14T13:00:46.000Z</time>
      </trkpt>
      <trkpt lat="44.60346" lon="6.18904">
        <ele>1562.4000244141</ele>
        <time>2016-07-14T13:00:49.000Z</time>
      </trkpt>
      <trkpt lat="44.60342" lon="6.18894">
        <ele>1561</ele>
        <time>2016-07-14T13:00:56.000Z</time>
      </trkpt>
      <trkpt lat="44.60336" lon="6.18881">
        <ele>1559</ele>
        <time>2016-07-14T13:01:05.000Z</time>
      </trkpt>
      <trkpt lat="44.60331" lon="6.18869">
        <ele>1557.1999511719</ele>
        <time>2016-07-14T13:01:12.000Z</time>
      </trkpt>
      <trkpt lat="44.60326" lon="6.18861">
        <ele>1556</ele>
        <time>2016-07-14T13:01:18.000Z</time>
      </trkpt>
      <trkpt lat="44.60322" lon="6.18854">
        <ele>1554.8000488281</ele>
        <time>2016-07-14T13:01:23.000Z</time>
      </trkpt>
      <trkpt lat="44.60313" lon="6.18836">
        <ele>1552</ele>
        <time>2016-07-14T13:01:35.000Z</time>
      </trkpt>
      <trkpt lat="44.60309" lon="6.18825">
        <ele>1550.4000244141</ele>
        <time>2016-07-14T13:01:41.000Z</time>
      </trkpt>
      <trkpt lat="44.60304" lon="6.18819">
        <ele>1549.4000244141</ele>
        <time>2016-07-14T13:01:46.000Z</time>
      </trkpt>
      <trkpt lat="44.60301" lon="6.18815">
        <ele>1548.8000488281</ele>
        <time>2016-07-14T13:01:50.000Z</time>
      </trkpt>
      <trkpt lat="44.60299" lon="6.18811">
        <ele>1548.1999511719</ele>
        <time>2016-07-14T13:01:53.000Z</time>
      </trkpt>
      <trkpt lat="44.60298" lon="6.18804">
        <ele>1547.1999511719</ele>
        <time>2016-07-14T13:01:59.000Z</time>
      </trkpt>
      <trkpt lat="44.60298" lon="6.18802">
        <ele>1547</ele>
        <time>2016-07-14T13:02:01.000Z</time>
      </trkpt>
      <trkpt lat="44.60299" lon="6.188">
        <ele>1546.8000488281</ele>
        <time>2016-07-14T13:02:03.000Z</time>
      </trkpt>
      <trkpt lat="44.60297" lon="6.18791">
        <ele>1545.8000488281</ele>
        <time>2016-07-14T13:02:09.000Z</time>
      </trkpt>
      <trkpt lat="44.60297" lon="6.18784">
        <ele>1545</ele>
        <time>2016-07-14T13:02:13.000Z</time>
      </trkpt>
      <trkpt lat="44.603" lon="6.18771">
        <ele>1543.8000488281</ele>
        <time>2016-07-14T13:02:22.000Z</time>
      </trkpt>
      <trkpt lat="44.603" lon="6.18769">
        <ele>1543.5999755859</ele>
        <time>2016-07-14T13:02:23.000Z</time>
      </trkpt>
      <trkpt lat="44.603" lon="6.18764">
        <ele>1543.1999511719</ele>
        <time>2016-07-14T13:02:29.000Z</time>
      </trkpt>
      <trkpt lat="44.60297" lon="6.18754">
        <ele>1541.8000488281</ele>
        <time>2016-07-14T13:02:36.000Z</time>
      </trkpt>
      <trkpt lat="44.60298" lon="6.18748">
        <ele>1541.1999511719</ele>
        <time>2016-07-14T13:02:39.000Z</time>
      </trkpt>
      <trkpt lat="44.60296" lon="6.18732">
        <ele>1539.1999511719</ele>
        <time>2016-07-14T13:02:48.000Z</time>
      </trkpt>
      <trkpt lat="44.60296" lon="6.18731">
        <ele>1538.8000488281</ele>
        <time>2016-07-14T13:02:49.000Z</time>
      </trkpt>
      <trkpt lat="44.60296" lon="6.18721">
        <ele>1537.8000488281</ele>
        <time>2016-07-14T13:02:55.000Z</time>
      </trkpt>
      <trkpt lat="44.60296" lon="6.18708">
        <ele>1536.5999755859</ele>
        <time>2016-07-14T13:03:03.000Z</time>
      </trkpt>
      <trkpt lat="44.60297" lon="6.18698">
        <ele>1535.5999755859</ele>
        <time>2016-07-14T13:03:09.000Z</time>
      </trkpt>
      <trkpt lat="44.60299" lon="6.18687">
        <ele>1534.8000488281</ele>
        <time>2016-07-14T13:03:15.000Z</time>
      </trkpt>
      <trkpt lat="44.603" lon="6.18686">
        <ele>1534.5999755859</ele>
        <time>2016-07-14T13:03:16.000Z</time>
      </trkpt>
      <trkpt lat="44.60304" lon="6.18681">
        <ele>1534.4000244141</ele>
        <time>2016-07-14T13:03:21.000Z</time>
      </trkpt>
      <trkpt lat="44.60309" lon="6.18664">
        <ele>1532.8000488281</ele>
        <time>2016-07-14T13:03:32.000Z</time>
      </trkpt>
      <trkpt lat="44.60309" lon="6.18663">
        <ele>1532.5999755859</ele>
        <time>2016-07-14T13:03:33.000Z</time>
      </trkpt>
      <trkpt lat="44.60308" lon="6.18658">
        <ele>1532</ele>
        <time>2016-07-14T13:03:36.000Z</time>
      </trkpt>
      <trkpt lat="44.60308" lon="6.18655">
        <ele>1531.5999755859</ele>
        <time>2016-07-14T13:03:38.000Z</time>
      </trkpt>
      <trkpt lat="44.60312" lon="6.18631">
        <ele>1528.8000488281</ele>
        <time>2016-07-14T13:03:53.000Z</time>
      </trkpt>
      <trkpt lat="44.60314" lon="6.1862">
        <ele>1527.8000488281</ele>
        <time>2016-07-14T13:04:00.000Z</time>
      </trkpt>
      <trkpt lat="44.60317" lon="6.18609">
        <ele>1526.5999755859</ele>
        <time>2016-07-14T13:04:07.000Z</time>
      </trkpt>
      <trkpt lat="44.60316" lon="6.18608">
        <ele>1526.4000244141</ele>
        <time>2016-07-14T13:04:08.000Z</time>
      </trkpt>
      <trkpt lat="44.60321" lon="6.18598">
        <ele>1525.4000244141</ele>
        <time>2016-07-14T13:04:16.000Z</time>
      </trkpt>
      <trkpt lat="44.60322" lon="6.18592">
        <ele>1524.8000488281</ele>
        <time>2016-07-14T13:04:21.000Z</time>
      </trkpt>
      <trkpt lat="44.60324" lon="6.18587">
        <ele>1524.4000244141</ele>
        <time>2016-07-14T13:04:24.000Z</time>
      </trkpt>
      <trkpt lat="44.60331" lon="6.18579">
        <ele>1523.8000488281</ele>
        <time>2016-07-14T13:04:31.000Z</time>
      </trkpt>
      <trkpt lat="44.60341" lon="6.18572">
        <ele>1523.4000244141</ele>
        <time>2016-07-14T13:04:40.000Z</time>
      </trkpt>
      <trkpt lat="44.60345" lon="6.18568">
        <ele>1523</ele>
        <time>2016-07-14T13:04:45.000Z</time>
      </trkpt>
      <trkpt lat="44.60349" lon="6.18564">
        <ele>1522.8000488281</ele>
        <time>2016-07-14T13:04:49.000Z</time>
      </trkpt>
      <trkpt lat="44.60356" lon="6.18556">
        <ele>1521.8000488281</ele>
        <time>2016-07-14T13:04:57.000Z</time>
      </trkpt>
      <trkpt lat="44.60357" lon="6.18555">
        <ele>1521.5999755859</ele>
        <time>2016-07-14T13:04:58.000Z</time>
      </trkpt>
      <trkpt lat="44.60361" lon="6.18551">
        <ele>1521.4000244141</ele>
        <time>2016-07-14T13:05:02.000Z</time>
      </trkpt>
      <trkpt lat="44.60367" lon="6.18546">
        <ele>1521.5999755859</ele>
        <time>2016-07-14T13:05:08.000Z</time>
      </trkpt>
      <trkpt lat="44.6037" lon="6.18543">
        <ele>1521.1999511719</ele>
        <time>2016-07-14T13:05:11.000Z</time>
      </trkpt>
      <trkpt lat="44.60376" lon="6.18534">
        <ele>1519.4000244141</ele>
        <time>2016-07-14T13:05:19.000Z</time>
      </trkpt>
      <trkpt lat="44.60379" lon="6.18526">
        <ele>1518.1999511719</ele>
        <time>2016-07-14T13:05:24.000Z</time>
      </trkpt>
      <trkpt lat="44.60384" lon="6.18512">
        <ele>1516.1999511719</ele>
        <time>2016-07-14T13:05:33.000Z</time>
      </trkpt>
      <trkpt lat="44.60391" lon="6.18487">
        <ele>1514.1999511719</ele>
        <time>2016-07-14T13:05:47.000Z</time>
      </trkpt>
      <trkpt lat="44.60394" lon="6.18473">
        <ele>1513.1999511719</ele>
        <time>2016-07-14T13:05:55.000Z</time>
      </trkpt>
      <trkpt lat="44.60397" lon="6.18457">
        <ele>1510.4000244141</ele>
        <time>2016-07-14T13:06:04.000Z</time>
      </trkpt>
      <trkpt lat="44.604" lon="6.18443">
        <ele>1507.8000488281</ele>
        <time>2016-07-14T13:06:13.000Z</time>
      </trkpt>
      <trkpt lat="44.60403" lon="6.18431">
        <ele>1505.5999755859</ele>
        <time>2016-07-14T13:06:20.000Z</time>
      </trkpt>
      <trkpt lat="44.60404" lon="6.18427">
        <ele>1505.4000244141</ele>
        <time>2016-07-14T13:06:25.000Z</time>
      </trkpt>
      <trkpt lat="44.60405" lon="6.18429">
        <ele>1505.4000244141</ele>
        <time>2016-07-14T13:06:30.000Z</time>
      </trkpt>
      <trkpt lat="44.60406" lon="6.1843">
        <ele>1505.5999755859</ele>
        <time>2016-07-14T13:07:52.000Z</time>
      </trkpt>
      <trkpt lat="44.60405" lon="6.18403">
        <ele>1505.1999511719</ele>
        <time>2016-07-14T13:08:07.000Z</time>
      </trkpt>
      <trkpt lat="44.60407" lon="6.18386">
        <ele>1504.4000244141</ele>
        <time>2016-07-14T13:08:16.000Z</time>
      </trkpt>
      <trkpt lat="44.60415" lon="6.18368">
        <ele>1503.1999511719</ele>
        <time>2016-07-14T13:08:27.000Z</time>
      </trkpt>
      <trkpt lat="44.6042" lon="6.18354">
        <ele>1502.8000488281</ele>
        <time>2016-07-14T13:08:35.000Z</time>
      </trkpt>
      <trkpt lat="44.60422" lon="6.18331">
        <ele>1502</ele>
        <time>2016-07-14T13:08:48.000Z</time>
      </trkpt>
      <trkpt lat="44.60426" lon="6.18318">
        <ele>1501.8000488281</ele>
        <time>2016-07-14T13:08:56.000Z</time>
      </trkpt>
      <trkpt lat="44.60429" lon="6.1831">
        <ele>1501.8000488281</ele>
        <time>2016-07-14T13:09:02.000Z</time>
      </trkpt>
      <trkpt lat="44.6043" lon="6.18296">
        <ele>1500.4000244141</ele>
        <time>2016-07-14T13:09:10.000Z</time>
      </trkpt>
      <trkpt lat="44.6043" lon="6.18286">
        <ele>1499.1999511719</ele>
        <time>2016-07-14T13:09:16.000Z</time>
      </trkpt>
      <trkpt lat="44.60433" lon="6.18276">
        <ele>1498</ele>
        <time>2016-07-14T13:09:23.000Z</time>
      </trkpt>
      <trkpt lat="44.60426" lon="6.18258">
        <ele>1494.8000488281</ele>
        <time>2016-07-14T13:09:36.000Z</time>
      </trkpt>
      <trkpt lat="44.60422" lon="6.18245">
        <ele>1492.5999755859</ele>
        <time>2016-07-14T13:09:45.000Z</time>
      </trkpt>
      <trkpt lat="44.60422" lon="6.18229">
        <ele>1490.4000244141</ele>
        <time>2016-07-14T13:09:54.000Z</time>
      </trkpt>
      <trkpt lat="44.60426" lon="6.18217">
        <ele>1489.1999511719</ele>
        <time>2016-07-14T13:10:02.000Z</time>
      </trkpt>
      <trkpt lat="44.60428" lon="6.18204">
        <ele>1487.8000488281</ele>
        <time>2016-07-14T13:10:10.000Z</time>
      </trkpt>
      <trkpt lat="44.60423" lon="6.18194">
        <ele>1486</ele>
        <time>2016-07-14T13:10:18.000Z</time>
      </trkpt>
      <trkpt lat="44.60422" lon="6.18194">
        <ele>1486</ele>
        <time>2016-07-14T13:10:19.000Z</time>
      </trkpt>
      <trkpt lat="44.6042" lon="6.18188">
        <ele>1484.8000488281</ele>
        <time>2016-07-14T13:10:23.000Z</time>
      </trkpt>
      <trkpt lat="44.60419" lon="6.1818">
        <ele>1483.5999755859</ele>
        <time>2016-07-14T13:10:28.000Z</time>
      </trkpt>
      <trkpt lat="44.60422" lon="6.18166">
        <ele>1481.5999755859</ele>
        <time>2016-07-14T13:10:36.000Z</time>
      </trkpt>
      <trkpt lat="44.60422" lon="6.18164">
        <ele>1481.1999511719</ele>
        <time>2016-07-14T13:10:37.000Z</time>
      </trkpt>
      <trkpt lat="44.60426" lon="6.18148">
        <ele>1478.8000488281</ele>
        <time>2016-07-14T13:10:47.000Z</time>
      </trkpt>
      <trkpt lat="44.60427" lon="6.18134">
        <ele>1477</ele>
        <time>2016-07-14T13:10:55.000Z</time>
      </trkpt>
      <trkpt lat="44.60429" lon="6.18129">
        <ele>1476.4000244141</ele>
        <time>2016-07-14T13:10:59.000Z</time>
      </trkpt>
      <trkpt lat="44.60428" lon="6.18121">
        <ele>1475.1999511719</ele>
        <time>2016-07-14T13:11:05.000Z</time>
      </trkpt>
      <trkpt lat="44.60435" lon="6.18107">
        <ele>1473</ele>
        <time>2016-07-14T13:11:17.000Z</time>
      </trkpt>
      <trkpt lat="44.60436" lon="6.18097">
        <ele>1471.4000244141</ele>
        <time>2016-07-14T13:11:23.000Z</time>
      </trkpt>
      <trkpt lat="44.60436" lon="6.18094">
        <ele>1471</ele>
        <time>2016-07-14T13:11:25.000Z</time>
      </trkpt>
      <trkpt lat="44.60437" lon="6.18083">
        <ele>1469.1999511719</ele>
        <time>2016-07-14T13:11:31.000Z</time>
      </trkpt>
      <trkpt lat="44.60441" lon="6.18051">
        <ele>1464.1999511719</ele>
        <time>2016-07-14T13:11:50.000Z</time>
      </trkpt>
      <trkpt lat="44.60442" lon="6.18042">
        <ele>1463</ele>
        <time>2016-07-14T13:11:57.000Z</time>
      </trkpt>
      <trkpt lat="44.60441" lon="6.18041">
        <ele>1462.8000488281</ele>
        <time>2016-07-14T13:12:05.000Z</time>
      </trkpt>
      <trkpt lat="44.60441" lon="6.18035">
        <ele>1462.1999511719</ele>
        <time>2016-07-14T13:12:17.000Z</time>
      </trkpt>
      <trkpt lat="44.60439" lon="6.18033">
        <ele>1461.8000488281</ele>
        <time>2016-07-14T13:12:20.000Z</time>
      </trkpt>
      <trkpt lat="44.60439" lon="6.1803">
        <ele>1461.4000244141</ele>
        <time>2016-07-14T13:12:28.000Z</time>
      </trkpt>
      <trkpt lat="44.60439" lon="6.18031">
        <ele>1461.5999755859</ele>
        <time>2016-07-14T13:12:44.000Z</time>
      </trkpt>
      <trkpt lat="44.60438" lon="6.18029">
        <ele>1461.1999511719</ele>
        <time>2016-07-14T13:13:24.000Z</time>
      </trkpt>
      <trkpt lat="44.60439" lon="6.18029">
        <ele>1461.1999511719</ele>
        <time>2016-07-14T13:13:30.000Z</time>
      </trkpt>
      <trkpt lat="44.60439" lon="6.1803">
        <ele>1461.4000244141</ele>
        <time>2016-07-14T13:14:25.000Z</time>
      </trkpt>
      <trkpt lat="44.60439" lon="6.18032">
        <ele>1461.5999755859</ele>
        <time>2016-07-14T13:14:48.000Z</time>
      </trkpt>
      <trkpt lat="44.60438" lon="6.18031">
        <ele>1461.4000244141</ele>
        <time>2016-07-14T13:14:53.000Z</time>
      </trkpt>
      <trkpt lat="44.60435" lon="6.18028">
        <ele>1461</ele>
        <time>2016-07-14T13:15:06.000Z</time>
      </trkpt>
      <trkpt lat="44.60425" lon="6.18025">
        <ele>1460.4000244141</ele>
        <time>2016-07-14T13:15:12.000Z</time>
      </trkpt>
      <trkpt lat="44.60413" lon="6.18019">
        <ele>1459</ele>
        <time>2016-07-14T13:15:21.000Z</time>
      </trkpt>
      <trkpt lat="44.60396" lon="6.18011">
        <ele>1457.4000244141</ele>
        <time>2016-07-14T13:15:33.000Z</time>
      </trkpt>
      <trkpt lat="44.60387" lon="6.18003">
        <ele>1456</ele>
        <time>2016-07-14T13:15:41.000Z</time>
      </trkpt>
      <trkpt lat="44.60378" lon="6.18">
        <ele>1455.1999511719</ele>
        <time>2016-07-14T13:15:48.000Z</time>
      </trkpt>
      <trkpt lat="44.60371" lon="6.17998">
        <ele>1454.8000488281</ele>
        <time>2016-07-14T13:15:53.000Z</time>
      </trkpt>
      <trkpt lat="44.6036" lon="6.17998">
        <ele>1454</ele>
        <time>2016-07-14T13:16:01.000Z</time>
      </trkpt>
      <trkpt lat="44.6035" lon="6.17998">
        <ele>1453.4000244141</ele>
        <time>2016-07-14T13:16:09.000Z</time>
      </trkpt>
      <trkpt lat="44.60342" lon="6.17998">
        <ele>1453</ele>
        <time>2016-07-14T13:16:16.000Z</time>
      </trkpt>
      <trkpt lat="44.60332" lon="6.18">
        <ele>1452.8000488281</ele>
        <time>2016-07-14T13:16:23.000Z</time>
      </trkpt>
      <trkpt lat="44.60317" lon="6.18004">
        <ele>1452.4000244141</ele>
        <time>2016-07-14T13:16:35.000Z</time>
      </trkpt>
      <trkpt lat="44.60307" lon="6.18007">
        <ele>1451.5999755859</ele>
        <time>2016-07-14T13:16:43.000Z</time>
      </trkpt>
      <trkpt lat="44.6028" lon="6.18012">
        <ele>1448.4000244141</ele>
        <time>2016-07-14T13:17:03.000Z</time>
      </trkpt>
      <trkpt lat="44.60274" lon="6.18013">
        <ele>1447.5999755859</ele>
        <time>2016-07-14T13:17:09.000Z</time>
      </trkpt>
      <trkpt lat="44.60263" lon="6.18017">
        <ele>1446.4000244141</ele>
        <time>2016-07-14T13:17:19.000Z</time>
      </trkpt>
      <trkpt lat="44.60255" lon="6.18022">
        <ele>1445.5999755859</ele>
        <time>2016-07-14T13:17:27.000Z</time>
      </trkpt>
      <trkpt lat="44.60246" lon="6.18028">
        <ele>1444.5999755859</ele>
        <time>2016-07-14T13:17:36.000Z</time>
      </trkpt>
      <trkpt lat="44.60241" lon="6.18031">
        <ele>1443.8000488281</ele>
        <time>2016-07-14T13:17:42.000Z</time>
      </trkpt>
      <trkpt lat="44.6024" lon="6.18031">
        <ele>1443.5999755859</ele>
        <time>2016-07-14T13:17:44.000Z</time>
      </trkpt>
      <trkpt lat="44.60237" lon="6.18031">
        <ele>1443</ele>
        <time>2016-07-14T13:17:54.000Z</time>
      </trkpt>
      <trkpt lat="44.60235" lon="6.18031">
        <ele>1442.5999755859</ele>
        <time>2016-07-14T13:17:56.000Z</time>
      </trkpt>
      <trkpt lat="44.6023" lon="6.18031">
        <ele>1441.8000488281</ele>
        <time>2016-07-14T13:18:02.000Z</time>
      </trkpt>
      <trkpt lat="44.60225" lon="6.18031">
        <ele>1440.8000488281</ele>
        <time>2016-07-14T13:18:10.000Z</time>
      </trkpt>
      <trkpt lat="44.60221" lon="6.18034">
        <ele>1440.1999511719</ele>
        <time>2016-07-14T13:18:14.000Z</time>
      </trkpt>
      <trkpt lat="44.60218" lon="6.18036">
        <ele>1439.5999755859</ele>
        <time>2016-07-14T13:18:18.000Z</time>
      </trkpt>
      <trkpt lat="44.60216" lon="6.18038">
        <ele>1439.1999511719</ele>
        <time>2016-07-14T13:18:21.000Z</time>
      </trkpt>
      <trkpt lat="44.60211" lon="6.18042">
        <ele>1438.4000244141</ele>
        <time>2016-07-14T13:18:27.000Z</time>
      </trkpt>
      <trkpt lat="44.60208" lon="6.18042">
        <ele>1438</ele>
        <time>2016-07-14T13:18:30.000Z</time>
      </trkpt>
      <trkpt lat="44.60202" lon="6.18041">
        <ele>1436.8000488281</ele>
        <time>2016-07-14T13:18:36.000Z</time>
      </trkpt>
      <trkpt lat="44.60191" lon="6.18042">
        <ele>1435.5999755859</ele>
        <time>2016-07-14T13:18:45.000Z</time>
      </trkpt>
      <trkpt lat="44.60187" lon="6.18042">
        <ele>1435</ele>
        <time>2016-07-14T13:18:50.000Z</time>
      </trkpt>
      <trkpt lat="44.60176" lon="6.18042">
        <ele>1434</ele>
        <time>2016-07-14T13:18:58.000Z</time>
      </trkpt>
      <trkpt lat="44.60163" lon="6.18037">
        <ele>1432.8000488281</ele>
        <time>2016-07-14T13:19:08.000Z</time>
      </trkpt>
      <trkpt lat="44.60154" lon="6.18035">
        <ele>1432</ele>
        <time>2016-07-14T13:19:16.000Z</time>
      </trkpt>
      <trkpt lat="44.60144" lon="6.18035">
        <ele>1431.4000244141</ele>
        <time>2016-07-14T13:19:24.000Z</time>
      </trkpt>
      <trkpt lat="44.60139" lon="6.18035">
        <ele>1430.8000488281</ele>
        <time>2016-07-14T13:19:29.000Z</time>
      </trkpt>
      <trkpt lat="44.60126" lon="6.18037">
        <ele>1430.1999511719</ele>
        <time>2016-07-14T13:19:39.000Z</time>
      </trkpt>
      <trkpt lat="44.60117" lon="6.1804">
        <ele>1429.5999755859</ele>
        <time>2016-07-14T13:19:46.000Z</time>
      </trkpt>
      <trkpt lat="44.6012" lon="6.18053">
        <ele>1430.5999755859</ele>
        <time>2016-07-14T13:19:58.000Z</time>
      </trkpt>
      <trkpt lat="44.60116" lon="6.18052">
        <ele>1430.4000244141</ele>
        <time>2016-07-14T13:20:04.000Z</time>
      </trkpt>
      <trkpt lat="44.60114" lon="6.18047">
        <ele>1430</ele>
        <time>2016-07-14T13:20:08.000Z</time>
      </trkpt>
      <trkpt lat="44.60115" lon="6.18045">
        <ele>1429.8000488281</ele>
        <time>2016-07-14T13:20:14.000Z</time>
      </trkpt>
      <trkpt lat="44.60116" lon="6.18045">
        <ele>1430</ele>
        <time>2016-07-14T13:20:21.000Z</time>
      </trkpt>
      <trkpt lat="44.60117" lon="6.18049">
        <ele>1430.1999511719</ele>
        <time>2016-07-14T13:20:41.000Z</time>
      </trkpt>
      <trkpt lat="44.60118" lon="6.1806">
        <ele>1431</ele>
        <time>2016-07-14T13:20:50.000Z</time>
      </trkpt>
      <trkpt lat="44.60118" lon="6.18059">
        <ele>1430.8000488281</ele>
        <time>2016-07-14T13:20:55.000Z</time>
      </trkpt>
      <trkpt lat="44.60117" lon="6.18053">
        <ele>1430.4000244141</ele>
        <time>2016-07-14T13:21:00.000Z</time>
      </trkpt>
      <trkpt lat="44.60115" lon="6.18047">
        <ele>1430</ele>
        <time>2016-07-14T13:21:04.000Z</time>
      </trkpt>
      <trkpt lat="44.60114" lon="6.18044">
        <ele>1429.8000488281</ele>
        <time>2016-07-14T13:21:11.000Z</time>
      </trkpt>
      <trkpt lat="44.60114" lon="6.18046">
        <ele>1429.8000488281</ele>
        <time>2016-07-14T13:21:18.000Z</time>
      </trkpt>
      <trkpt lat="44.60115" lon="6.18045">
        <ele>1429.8000488281</ele>
        <time>2016-07-14T13:21:27.000Z</time>
      </trkpt>
      <trkpt lat="44.60112" lon="6.18041">
        <ele>1429.4000244141</ele>
        <time>2016-07-14T13:21:32.000Z</time>
      </trkpt>
      <trkpt lat="44.60104" lon="6.18039">
        <ele>1429</ele>
        <time>2016-07-14T13:21:38.000Z</time>
      </trkpt>
      <trkpt lat="44.60102" lon="6.18039">
        <ele>1428.8000488281</ele>
        <time>2016-07-14T13:21:40.000Z</time>
      </trkpt>
      <trkpt lat="44.60092" lon="6.18035">
        <ele>1428.1999511719</ele>
        <time>2016-07-14T13:21:48.000Z</time>
      </trkpt>
      <trkpt lat="44.60082" lon="6.18033">
        <ele>1427.5999755859</ele>
        <time>2016-07-14T13:21:55.000Z</time>
      </trkpt>
      <trkpt lat="44.60078" lon="6.18036">
        <ele>1427.5999755859</ele>
        <time>2016-07-14T13:21:59.000Z</time>
      </trkpt>
      <trkpt lat="44.60073" lon="6.1805">
        <ele>1428.5999755859</ele>
        <time>2016-07-14T13:22:07.000Z</time>
      </trkpt>
      <trkpt lat="44.60068" lon="6.1806">
        <ele>1429.1999511719</ele>
        <time>2016-07-14T13:22:14.000Z</time>
      </trkpt>
      <trkpt lat="44.6006" lon="6.18061">
        <ele>1428.8000488281</ele>
        <time>2016-07-14T13:22:20.000Z</time>
      </trkpt>
      <trkpt lat="44.60049" lon="6.18055">
        <ele>1428</ele>
        <time>2016-07-14T13:22:28.000Z</time>
      </trkpt>
      <trkpt lat="44.60039" lon="6.18046">
        <ele>1427</ele>
        <time>2016-07-14T13:22:35.000Z</time>
      </trkpt>
      <trkpt lat="44.60032" lon="6.18042">
        <ele>1426.4000244141</ele>
        <time>2016-07-14T13:22:43.000Z</time>
      </trkpt>
      <trkpt lat="44.60024" lon="6.18034">
        <ele>1425</ele>
        <time>2016-07-14T13:22:50.000Z</time>
      </trkpt>
      <trkpt lat="44.60015" lon="6.18033">
        <ele>1424</ele>
        <time>2016-07-14T13:22:55.000Z</time>
      </trkpt>
      <trkpt lat="44.60004" lon="6.1804">
        <ele>1423.8000488281</ele>
        <time>2016-07-14T13:23:04.000Z</time>
      </trkpt>
      <trkpt lat="44.59996" lon="6.18049">
        <ele>1424.4000244141</ele>
        <time>2016-07-14T13:23:11.000Z</time>
      </trkpt>
      <trkpt lat="44.59992" lon="6.18053">
        <ele>1424.5999755859</ele>
        <time>2016-07-14T13:23:15.000Z</time>
      </trkpt>
      <trkpt lat="44.59982" lon="6.18065">
        <ele>1425.1999511719</ele>
        <time>2016-07-14T13:23:24.000Z</time>
      </trkpt>
      <trkpt lat="44.59972" lon="6.18078">
        <ele>1426.1999511719</ele>
        <time>2016-07-14T13:23:33.000Z</time>
      </trkpt>
      <trkpt lat="44.59969" lon="6.1808">
        <ele>1426.4000244141</ele>
        <time>2016-07-14T13:23:35.000Z</time>
      </trkpt>
      <trkpt lat="44.59968" lon="6.18079">
        <ele>1426.1999511719</ele>
        <time>2016-07-14T13:23:37.000Z</time>
      </trkpt>
      <trkpt lat="44.59974" lon="6.18072">
        <ele>1425.5999755859</ele>
        <time>2016-07-14T13:23:44.000Z</time>
      </trkpt>
      <trkpt lat="44.59974" lon="6.18071">
        <ele>1425.4000244141</ele>
        <time>2016-07-14T13:23:45.000Z</time>
      </trkpt>
      <trkpt lat="44.59967" lon="6.18072">
        <ele>1425.1999511719</ele>
        <time>2016-07-14T13:23:54.000Z</time>
      </trkpt>
      <trkpt lat="44.59958" lon="6.18074">
        <ele>1425.1999511719</ele>
        <time>2016-07-14T13:24:00.000Z</time>
      </trkpt>
      <trkpt lat="44.5995" lon="6.18076">
        <ele>1425.4000244141</ele>
        <time>2016-07-14T13:24:07.000Z</time>
      </trkpt>
      <trkpt lat="44.59946" lon="6.18077">
        <ele>1425.1999511719</ele>
        <time>2016-07-14T13:24:10.000Z</time>
      </trkpt>
      <trkpt lat="44.5994" lon="6.18085">
        <ele>1425.5999755859</ele>
        <time>2016-07-14T13:24:16.000Z</time>
      </trkpt>
      <trkpt lat="44.59936" lon="6.18087">
        <ele>1425.5999755859</ele>
        <time>2016-07-14T13:24:22.000Z</time>
      </trkpt>
      <trkpt lat="44.59929" lon="6.1809">
        <ele>1425.1999511719</ele>
        <time>2016-07-14T13:24:28.000Z</time>
      </trkpt>
      <trkpt lat="44.59926" lon="6.181">
        <ele>1426.5999755859</ele>
        <time>2016-07-14T13:24:34.000Z</time>
      </trkpt>
      <trkpt lat="44.59918" lon="6.18109">
        <ele>1427</ele>
        <time>2016-07-14T13:24:41.000Z</time>
      </trkpt>
      <trkpt lat="44.5991" lon="6.18111">
        <ele>1426.1999511719</ele>
        <time>2016-07-14T13:24:47.000Z</time>
      </trkpt>
      <trkpt lat="44.5991" lon="6.1811">
        <ele>1426.1999511719</ele>
        <time>2016-07-14T13:24:55.000Z</time>
      </trkpt>
      <trkpt lat="44.59923" lon="6.18108">
        <ele>1427.5999755859</ele>
        <time>2016-07-14T13:25:05.000Z</time>
      </trkpt>
      <trkpt lat="44.59929" lon="6.18104">
        <ele>1427.5999755859</ele>
        <time>2016-07-14T13:25:12.000Z</time>
      </trkpt>
      <trkpt lat="44.59923" lon="6.18101">
        <ele>1426.4000244141</ele>
        <time>2016-07-14T13:25:18.000Z</time>
      </trkpt>
      <trkpt lat="44.59923" lon="6.18095">
        <ele>1425.4000244141</ele>
        <time>2016-07-14T13:25:22.000Z</time>
      </trkpt>
      <trkpt lat="44.59923" lon="6.18093">
        <ele>1425</ele>
        <time>2016-07-14T13:25:30.000Z</time>
      </trkpt>
      <trkpt lat="44.59923" lon="6.18096">
        <ele>1425.4000244141</ele>
        <time>2016-07-14T13:25:38.000Z</time>
      </trkpt>
      <trkpt lat="44.59928" lon="6.18093">
        <ele>1425.5999755859</ele>
        <time>2016-07-14T13:25:44.000Z</time>
      </trkpt>
      <trkpt lat="44.59932" lon="6.18091">
        <ele>1425.8000488281</ele>
        <time>2016-07-14T13:25:49.000Z</time>
      </trkpt>
      <trkpt lat="44.59933" lon="6.1809">
        <ele>1425.5999755859</ele>
        <time>2016-07-14T13:25:50.000Z</time>
      </trkpt>
      <trkpt lat="44.59936" lon="6.18087">
        <ele>1425.4000244141</ele>
        <time>2016-07-14T13:25:54.000Z</time>
      </trkpt>
      <trkpt lat="44.59937" lon="6.18085">
        <ele>1425.4000244141</ele>
        <time>2016-07-14T13:25:55.000Z</time>
      </trkpt>
      <trkpt lat="44.59938" lon="6.18084">
        <ele>1425.1999511719</ele>
        <time>2016-07-14T13:25:58.000Z</time>
      </trkpt>
      <trkpt lat="44.59939" lon="6.18083">
        <ele>1425.1999511719</ele>
        <time>2016-07-14T13:26:08.000Z</time>
      </trkpt>
      <trkpt lat="44.59938" lon="6.1808">
        <ele>1424.4000244141</ele>
        <time>2016-07-14T13:26:42.000Z</time>
      </trkpt>
      <trkpt lat="44.59938" lon="6.18081">
        <ele>1424.8000488281</ele>
        <time>2016-07-14T13:27:03.000Z</time>
      </trkpt>
      <trkpt lat="44.5995" lon="6.18076">
        <ele>1425.4000244141</ele>
        <time>2016-07-14T13:27:11.000Z</time>
      </trkpt>
      <trkpt lat="44.59962" lon="6.18073">
        <ele>1425.1999511719</ele>
        <time>2016-07-14T13:27:20.000Z</time>
      </trkpt>
      <trkpt lat="44.59967" lon="6.18072">
        <ele>1425.1999511719</ele>
        <time>2016-07-14T13:27:24.000Z</time>
      </trkpt>
      <trkpt lat="44.59973" lon="6.18066">
        <ele>1424.8000488281</ele>
        <time>2016-07-14T13:27:30.000Z</time>
      </trkpt>
      <trkpt lat="44.59985" lon="6.18055">
        <ele>1424.4000244141</ele>
        <time>2016-07-14T13:27:40.000Z</time>
      </trkpt>
      <trkpt lat="44.59995" lon="6.18044">
        <ele>1423.8000488281</ele>
        <time>2016-07-14T13:27:48.000Z</time>
      </trkpt>
      <trkpt lat="44.60005" lon="6.18035">
        <ele>1423.4000244141</ele>
        <time>2016-07-14T13:27:56.000Z</time>
      </trkpt>
      <trkpt lat="44.60012" lon="6.1802">
        <ele>1422.8000488281</ele>
        <time>2016-07-14T13:28:05.000Z</time>
      </trkpt>
      <trkpt lat="44.60012" lon="6.18018">
        <ele>1422.5999755859</ele>
        <time>2016-07-14T13:28:07.000Z</time>
      </trkpt>
      <trkpt lat="44.60007" lon="6.18003">
        <ele>1421.1999511719</ele>
        <time>2016-07-14T13:28:15.000Z</time>
      </trkpt>
      <trkpt lat="44.6" lon="6.17998">
        <ele>1420.1999511719</ele>
        <time>2016-07-14T13:28:22.000Z</time>
      </trkpt>
      <trkpt lat="44.59988" lon="6.17998">
        <ele>1418.8000488281</ele>
        <time>2016-07-14T13:28:31.000Z</time>
      </trkpt>
      <trkpt lat="44.5997" lon="6.17998">
        <ele>1417.4000244141</ele>
        <time>2016-07-14T13:28:47.000Z</time>
      </trkpt>
      <trkpt lat="44.59962" lon="6.17997">
        <ele>1416.8000488281</ele>
        <time>2016-07-14T13:28:53.000Z</time>
      </trkpt>
      <trkpt lat="44.59949" lon="6.1799">
        <ele>1415.1999511719</ele>
        <time>2016-07-14T13:29:01.000Z</time>
      </trkpt>
      <trkpt lat="44.5994" lon="6.17979">
        <ele>1413.4000244141</ele>
        <time>2016-07-14T13:29:10.000Z</time>
      </trkpt>
      <trkpt lat="44.59928" lon="6.1797">
        <ele>1411.4000244141</ele>
        <time>2016-07-14T13:29:19.000Z</time>
      </trkpt>
      <trkpt lat="44.59919" lon="6.17961">
        <ele>1409.5999755859</ele>
        <time>2016-07-14T13:29:28.000Z</time>
      </trkpt>
      <trkpt lat="44.59903" lon="6.17971">
        <ele>1409.5999755859</ele>
        <time>2016-07-14T13:29:40.000Z</time>
      </trkpt>
      <trkpt lat="44.59894" lon="6.17982">
        <ele>1410.4000244141</ele>
        <time>2016-07-14T13:29:50.000Z</time>
      </trkpt>
      <trkpt lat="44.59881" lon="6.17995">
        <ele>1410.5999755859</ele>
        <time>2016-07-14T13:30:00.000Z</time>
      </trkpt>
      <trkpt lat="44.5987" lon="6.18007">
        <ele>1409.5999755859</ele>
        <time>2016-07-14T13:30:10.000Z</time>
      </trkpt>
      <trkpt lat="44.59867" lon="6.18012">
        <ele>1409.4000244141</ele>
        <time>2016-07-14T13:30:13.000Z</time>
      </trkpt>
      <trkpt lat="44.59864" lon="6.18016">
        <ele>1408.8000488281</ele>
        <time>2016-07-14T13:30:17.000Z</time>
      </trkpt>
      <trkpt lat="44.59855" lon="6.18029">
        <ele>1407.4000244141</ele>
        <time>2016-07-14T13:30:25.000Z</time>
      </trkpt>
      <trkpt lat="44.59845" lon="6.18041">
        <ele>1406</ele>
        <time>2016-07-14T13:30:34.000Z</time>
      </trkpt>
      <trkpt lat="44.59833" lon="6.18049">
        <ele>1404.8000488281</ele>
        <time>2016-07-14T13:30:43.000Z</time>
      </trkpt>
      <trkpt lat="44.59827" lon="6.18061">
        <ele>1405</ele>
        <time>2016-07-14T13:30:49.000Z</time>
      </trkpt>
      <trkpt lat="44.59821" lon="6.18068">
        <ele>1405.1999511719</ele>
        <time>2016-07-14T13:30:55.000Z</time>
      </trkpt>
      <trkpt lat="44.59822" lon="6.18063">
        <ele>1404.5999755859</ele>
        <time>2016-07-14T13:31:00.000Z</time>
      </trkpt>
      <trkpt lat="44.59828" lon="6.18058">
        <ele>1405</ele>
        <time>2016-07-14T13:31:05.000Z</time>
      </trkpt>
      <trkpt lat="44.59829" lon="6.18057">
        <ele>1405</ele>
        <time>2016-07-14T13:31:07.000Z</time>
      </trkpt>
      <trkpt lat="44.59834" lon="6.18048">
        <ele>1405</ele>
        <time>2016-07-14T13:31:13.000Z</time>
      </trkpt>
      <trkpt lat="44.59847" lon="6.18034">
        <ele>1406</ele>
        <time>2016-07-14T13:31:24.000Z</time>
      </trkpt>
      <trkpt lat="44.59855" lon="6.18025">
        <ele>1407.4000244141</ele>
        <time>2016-07-14T13:31:32.000Z</time>
      </trkpt>
      <trkpt lat="44.59858" lon="6.18021">
        <ele>1407.8000488281</ele>
        <time>2016-07-14T13:31:35.000Z</time>
      </trkpt>
      <trkpt lat="44.59868" lon="6.18011">
        <ele>1409.5999755859</ele>
        <time>2016-07-14T13:31:48.000Z</time>
      </trkpt>
      <trkpt lat="44.59875" lon="6.17999">
        <ele>1410</ele>
        <time>2016-07-14T13:31:56.000Z</time>
      </trkpt>
      <trkpt lat="44.59884" lon="6.17988">
        <ele>1410.1999511719</ele>
        <time>2016-07-14T13:32:05.000Z</time>
      </trkpt>
      <trkpt lat="44.59892" lon="6.1798">
        <ele>1409.8000488281</ele>
        <time>2016-07-14T13:32:12.000Z</time>
      </trkpt>
      <trkpt lat="44.599" lon="6.17969">
        <ele>1409.1999511719</ele>
        <time>2016-07-14T13:32:19.000Z</time>
      </trkpt>
      <trkpt lat="44.59909" lon="6.17957">
        <ele>1408.4000244141</ele>
        <time>2016-07-14T13:32:28.000Z</time>
      </trkpt>
      <trkpt lat="44.59913" lon="6.17944">
        <ele>1407.1999511719</ele>
        <time>2016-07-14T13:32:37.000Z</time>
      </trkpt>
      <trkpt lat="44.59916" lon="6.17936">
        <ele>1406.5999755859</ele>
        <time>2016-07-14T13:32:43.000Z</time>
      </trkpt>
      <trkpt lat="44.59917" lon="6.17935">
        <ele>1406.4000244141</ele>
        <time>2016-07-14T13:32:44.000Z</time>
      </trkpt>
      <trkpt lat="44.59922" lon="6.17928">
        <ele>1406.4000244141</ele>
        <time>2016-07-14T13:32:50.000Z</time>
      </trkpt>
      <trkpt lat="44.59932" lon="6.17922">
        <ele>1406.8000488281</ele>
        <time>2016-07-14T13:32:59.000Z</time>
      </trkpt>
      <trkpt lat="44.59935" lon="6.17919">
        <ele>1406.8000488281</ele>
        <time>2016-07-14T13:33:01.000Z</time>
      </trkpt>
      <trkpt lat="44.5993" lon="6.17912">
        <ele>1405.5999755859</ele>
        <time>2016-07-14T13:33:07.000Z</time>
      </trkpt>
      <trkpt lat="44.59927" lon="6.1791">
        <ele>1405.1999511719</ele>
        <time>2016-07-14T13:33:10.000Z</time>
      </trkpt>
      <trkpt lat="44.5992" lon="6.17907">
        <ele>1404</ele>
        <time>2016-07-14T13:33:19.000Z</time>
      </trkpt>
      <trkpt lat="44.59915" lon="6.17905">
        <ele>1403.5999755859</ele>
        <time>2016-07-14T13:33:24.000Z</time>
      </trkpt>
      <trkpt lat="44.59897" lon="6.179">
        <ele>1401.1999511719</ele>
        <time>2016-07-14T13:33:40.000Z</time>
      </trkpt>
      <trkpt lat="44.59886" lon="6.17896">
        <ele>1399.8000488281</ele>
        <time>2016-07-14T13:33:49.000Z</time>
      </trkpt>
      <trkpt lat="44.59879" lon="6.17894">
        <ele>1399</ele>
        <time>2016-07-14T13:33:55.000Z</time>
      </trkpt>
      <trkpt lat="44.59869" lon="6.17895">
        <ele>1398.1999511719</ele>
        <time>2016-07-14T13:34:04.000Z</time>
      </trkpt>
      <trkpt lat="44.5986" lon="6.17896">
        <ele>1396.8000488281</ele>
        <time>2016-07-14T13:34:10.000Z</time>
      </trkpt>
      <trkpt lat="44.59849" lon="6.17898">
        <ele>1395</ele>
        <time>2016-07-14T13:34:20.000Z</time>
      </trkpt>
      <trkpt lat="44.5984" lon="6.179">
        <ele>1393.4000244141</ele>
        <time>2016-07-14T13:34:28.000Z</time>
      </trkpt>
      <trkpt lat="44.5983" lon="6.17902">
        <ele>1391.8000488281</ele>
        <time>2016-07-14T13:34:35.000Z</time>
      </trkpt>
      <trkpt lat="44.5982" lon="6.17903">
        <ele>1390.1999511719</ele>
        <time>2016-07-14T13:34:43.000Z</time>
      </trkpt>
      <trkpt lat="44.59811" lon="6.17908">
        <ele>1389.1999511719</ele>
        <time>2016-07-14T13:34:52.000Z</time>
      </trkpt>
      <trkpt lat="44.59802" lon="6.17913">
        <ele>1388.1999511719</ele>
        <time>2016-07-14T13:35:00.000Z</time>
      </trkpt>
      <trkpt lat="44.59796" lon="6.17918">
        <ele>1387.4000244141</ele>
        <time>2016-07-14T13:35:07.000Z</time>
      </trkpt>
      <trkpt lat="44.59785" lon="6.1793">
        <ele>1386</ele>
        <time>2016-07-14T13:35:18.000Z</time>
      </trkpt>
      <trkpt lat="44.59778" lon="6.17943">
        <ele>1385.5999755859</ele>
        <time>2016-07-14T13:35:26.000Z</time>
      </trkpt>
      <trkpt lat="44.5977" lon="6.17959">
        <ele>1385.4000244141</ele>
        <time>2016-07-14T13:35:37.000Z</time>
      </trkpt>
      <trkpt lat="44.59752" lon="6.17986">
        <ele>1383</ele>
        <time>2016-07-14T13:35:58.000Z</time>
      </trkpt>
      <trkpt lat="44.59742" lon="6.17999">
        <ele>1381.5999755859</ele>
        <time>2016-07-14T13:36:08.000Z</time>
      </trkpt>
      <trkpt lat="44.59729" lon="6.18012">
        <ele>1380</ele>
        <time>2016-07-14T13:36:19.000Z</time>
      </trkpt>
      <trkpt lat="44.59714" lon="6.18027">
        <ele>1379.1999511719</ele>
        <time>2016-07-14T13:36:32.000Z</time>
      </trkpt>
      <trkpt lat="44.59704" lon="6.18039">
        <ele>1378.5999755859</ele>
        <time>2016-07-14T13:36:40.000Z</time>
      </trkpt>
      <trkpt lat="44.59697" lon="6.18048">
        <ele>1378.1999511719</ele>
        <time>2016-07-14T13:36:48.000Z</time>
      </trkpt>
      <trkpt lat="44.5969" lon="6.18058">
        <ele>1378.4000244141</ele>
        <time>2016-07-14T13:36:55.000Z</time>
      </trkpt>
      <trkpt lat="44.59682" lon="6.18067">
        <ele>1378.1999511719</ele>
        <time>2016-07-14T13:37:03.000Z</time>
      </trkpt>
      <trkpt lat="44.59671" lon="6.18077">
        <ele>1377.8000488281</ele>
        <time>2016-07-14T13:37:14.000Z</time>
      </trkpt>
      <trkpt lat="44.59659" lon="6.18084">
        <ele>1376.8000488281</ele>
        <time>2016-07-14T13:37:23.000Z</time>
      </trkpt>
      <trkpt lat="44.59648" lon="6.18091">
        <ele>1375.5999755859</ele>
        <time>2016-07-14T13:37:32.000Z</time>
      </trkpt>
      <trkpt lat="44.59635" lon="6.18097">
        <ele>1373</ele>
        <time>2016-07-14T13:37:42.000Z</time>
      </trkpt>
      <trkpt lat="44.59626" lon="6.18106">
        <ele>1371.4000244141</ele>
        <time>2016-07-14T13:37:50.000Z</time>
      </trkpt>
      <trkpt lat="44.59616" lon="6.18119">
        <ele>1370</ele>
        <time>2016-07-14T13:38:00.000Z</time>
      </trkpt>
      <trkpt lat="44.59607" lon="6.18134">
        <ele>1369.1999511719</ele>
        <time>2016-07-14T13:38:10.000Z</time>
      </trkpt>
      <trkpt lat="44.59598" lon="6.18148">
        <ele>1367.5999755859</ele>
        <time>2016-07-14T13:38:19.000Z</time>
      </trkpt>
      <trkpt lat="44.59593" lon="6.18156">
        <ele>1366.5999755859</ele>
        <time>2016-07-14T13:38:25.000Z</time>
      </trkpt>
      <trkpt lat="44.59589" lon="6.18165">
        <ele>1366</ele>
        <time>2016-07-14T13:38:30.000Z</time>
      </trkpt>
      <trkpt lat="44.59582" lon="6.18179">
        <ele>1365</ele>
        <time>2016-07-14T13:38:39.000Z</time>
      </trkpt>
      <trkpt lat="44.59575" lon="6.18193">
        <ele>1364</ele>
        <time>2016-07-14T13:38:47.000Z</time>
      </trkpt>
      <trkpt lat="44.59569" lon="6.18209">
        <ele>1363.4000244141</ele>
        <time>2016-07-14T13:38:55.000Z</time>
      </trkpt>
      <trkpt lat="44.59566" lon="6.18221">
        <ele>1363.1999511719</ele>
        <time>2016-07-14T13:39:03.000Z</time>
      </trkpt>
      <trkpt lat="44.59561" lon="6.18242">
        <ele>1362</ele>
        <time>2016-07-14T13:39:14.000Z</time>
      </trkpt>
      <trkpt lat="44.59557" lon="6.18258">
        <ele>1361</ele>
        <time>2016-07-14T13:39:23.000Z</time>
      </trkpt>
      <trkpt lat="44.59554" lon="6.18273">
        <ele>1360.1999511719</ele>
        <time>2016-07-14T13:39:31.000Z</time>
      </trkpt>
      <trkpt lat="44.59547" lon="6.18308">
        <ele>1358.1999511719</ele>
        <time>2016-07-14T13:39:50.000Z</time>
      </trkpt>
      <trkpt lat="44.59541" lon="6.18326">
        <ele>1357.8000488281</ele>
        <time>2016-07-14T13:40:01.000Z</time>
      </trkpt>
      <trkpt lat="44.59532" lon="6.18342">
        <ele>1356.5999755859</ele>
        <time>2016-07-14T13:40:13.000Z</time>
      </trkpt>
      <trkpt lat="44.59523" lon="6.18347">
        <ele>1355.4000244141</ele>
        <time>2016-07-14T13:40:20.000Z</time>
      </trkpt>
      <trkpt lat="44.59514" lon="6.18344">
        <ele>1353.4000244141</ele>
        <time>2016-07-14T13:40:28.000Z</time>
      </trkpt>
      <trkpt lat="44.59508" lon="6.18334">
        <ele>1351.4000244141</ele>
        <time>2016-07-14T13:40:36.000Z</time>
      </trkpt>
      <trkpt lat="44.59503" lon="6.18318">
        <ele>1349.4000244141</ele>
        <time>2016-07-14T13:40:45.000Z</time>
      </trkpt>
      <trkpt lat="44.59501" lon="6.183">
        <ele>1348.4000244141</ele>
        <time>2016-07-14T13:40:54.000Z</time>
      </trkpt>
      <trkpt lat="44.59497" lon="6.18285">
        <ele>1347.8000488281</ele>
        <time>2016-07-14T13:41:02.000Z</time>
      </trkpt>
      <trkpt lat="44.5949" lon="6.18273">
        <ele>1346.4000244141</ele>
        <time>2016-07-14T13:41:09.000Z</time>
      </trkpt>
      <trkpt lat="44.59478" lon="6.18262">
        <ele>1344.1999511719</ele>
        <time>2016-07-14T13:41:18.000Z</time>
      </trkpt>
      <trkpt lat="44.59468" lon="6.1825">
        <ele>1342</ele>
        <time>2016-07-14T13:41:27.000Z</time>
      </trkpt>
      <trkpt lat="44.59463" lon="6.18244">
        <ele>1341.1999511719</ele>
        <time>2016-07-14T13:41:30.000Z</time>
      </trkpt>
      <trkpt lat="44.5946" lon="6.18237">
        <ele>1340.5999755859</ele>
        <time>2016-07-14T13:41:35.000Z</time>
      </trkpt>
      <trkpt lat="44.59452" lon="6.18213">
        <ele>1338.1999511719</ele>
        <time>2016-07-14T13:41:48.000Z</time>
      </trkpt>
      <trkpt lat="44.59451" lon="6.18203">
        <ele>1337.4000244141</ele>
        <time>2016-07-14T13:41:54.000Z</time>
      </trkpt>
      <trkpt lat="44.59452" lon="6.18183">
        <ele>1336.4000244141</ele>
        <time>2016-07-14T13:42:04.000Z</time>
      </trkpt>
      <trkpt lat="44.59455" lon="6.18162">
        <ele>1335.8000488281</ele>
        <time>2016-07-14T13:42:15.000Z</time>
      </trkpt>
      <trkpt lat="44.59459" lon="6.18145">
        <ele>1335.4000244141</ele>
        <time>2016-07-14T13:42:24.000Z</time>
      </trkpt>
      <trkpt lat="44.59462" lon="6.18127">
        <ele>1335</ele>
        <time>2016-07-14T13:42:33.000Z</time>
      </trkpt>
      <trkpt lat="44.59464" lon="6.18114">
        <ele>1334.5999755859</ele>
        <time>2016-07-14T13:42:40.000Z</time>
      </trkpt>
      <trkpt lat="44.59468" lon="6.18097">
        <ele>1334.1999511719</ele>
        <time>2016-07-14T13:42:49.000Z</time>
      </trkpt>
      <trkpt lat="44.59471" lon="6.1808">
        <ele>1333.8000488281</ele>
        <time>2016-07-14T13:42:57.000Z</time>
      </trkpt>
      <trkpt lat="44.59472" lon="6.18066">
        <ele>1333.1999511719</ele>
        <time>2016-07-14T13:43:04.000Z</time>
      </trkpt>
      <trkpt lat="44.59473" lon="6.18046">
        <ele>1332.1999511719</ele>
        <time>2016-07-14T13:43:13.000Z</time>
      </trkpt>
      <trkpt lat="44.59473" lon="6.1802">
        <ele>1330.5999755859</ele>
        <time>2016-07-14T13:43:25.000Z</time>
      </trkpt>
      <trkpt lat="44.59469" lon="6.17996">
        <ele>1328.4000244141</ele>
        <time>2016-07-14T13:43:36.000Z</time>
      </trkpt>
      <trkpt lat="44.59464" lon="6.17984">
        <ele>1326.5999755859</ele>
        <time>2016-07-14T13:43:42.000Z</time>
      </trkpt>
      <trkpt lat="44.5946" lon="6.17969">
        <ele>1324.4000244141</ele>
        <time>2016-07-14T13:43:50.000Z</time>
      </trkpt>
      <trkpt lat="44.59458" lon="6.17955">
        <ele>1322.5999755859</ele>
        <time>2016-07-14T13:43:57.000Z</time>
      </trkpt>
      <trkpt lat="44.59461" lon="6.17939">
        <ele>1321.1999511719</ele>
        <time>2016-07-14T13:44:05.000Z</time>
      </trkpt>
      <trkpt lat="44.59468" lon="6.17919">
        <ele>1320</ele>
        <time>2016-07-14T13:44:16.000Z</time>
      </trkpt>
      <trkpt lat="44.59471" lon="6.17909">
        <ele>1319.5999755859</ele>
        <time>2016-07-14T13:44:21.000Z</time>
      </trkpt>
      <trkpt lat="44.59474" lon="6.17899">
        <ele>1319.5999755859</ele>
        <time>2016-07-14T13:44:25.000Z</time>
      </trkpt>
      <trkpt lat="44.59485" lon="6.17867">
        <ele>1319</ele>
        <time>2016-07-14T13:44:43.000Z</time>
      </trkpt>
      <trkpt lat="44.59492" lon="6.17845">
        <ele>1318.4000244141</ele>
        <time>2016-07-14T13:44:54.000Z</time>
      </trkpt>
      <trkpt lat="44.59497" lon="6.17825">
        <ele>1318.4000244141</ele>
        <time>2016-07-14T13:45:04.000Z</time>
      </trkpt>
      <trkpt lat="44.59498" lon="6.17807">
        <ele>1317.4000244141</ele>
        <time>2016-07-14T13:45:13.000Z</time>
      </trkpt>
      <trkpt lat="44.595" lon="6.17787">
        <ele>1316.4000244141</ele>
        <time>2016-07-14T13:45:22.000Z</time>
      </trkpt>
      <trkpt lat="44.595" lon="6.17771">
        <ele>1315.4000244141</ele>
        <time>2016-07-14T13:45:30.000Z</time>
      </trkpt>
      <trkpt lat="44.59499" lon="6.17753">
        <ele>1313.8000488281</ele>
        <time>2016-07-14T13:45:39.000Z</time>
      </trkpt>
      <trkpt lat="44.59498" lon="6.17728">
        <ele>1311.8000488281</ele>
        <time>2016-07-14T13:45:50.000Z</time>
      </trkpt>
      <trkpt lat="44.59496" lon="6.17708">
        <ele>1310.4000244141</ele>
        <time>2016-07-14T13:46:00.000Z</time>
      </trkpt>
      <trkpt lat="44.59497" lon="6.1769">
        <ele>1309.5999755859</ele>
        <time>2016-07-14T13:46:09.000Z</time>
      </trkpt>
      <trkpt lat="44.59498" lon="6.17671">
        <ele>1307.8000488281</ele>
        <time>2016-07-14T13:46:18.000Z</time>
      </trkpt>
      <trkpt lat="44.59497" lon="6.17666">
        <ele>1307.1999511719</ele>
        <time>2016-07-14T13:46:21.000Z</time>
      </trkpt>
      <trkpt lat="44.59494" lon="6.17663">
        <ele>1306.1999511719</ele>
        <time>2016-07-14T13:46:25.000Z</time>
      </trkpt>
      <trkpt lat="44.59492" lon="6.17664">
        <ele>1305.8000488281</ele>
        <time>2016-07-14T13:46:27.000Z</time>
      </trkpt>
      <trkpt lat="44.59488" lon="6.17685">
        <ele>1307</ele>
        <time>2016-07-14T13:46:38.000Z</time>
      </trkpt>
      <trkpt lat="44.59484" lon="6.17705">
        <ele>1306.8000488281</ele>
        <time>2016-07-14T13:46:49.000Z</time>
      </trkpt>
      <trkpt lat="44.59479" lon="6.17722">
        <ele>1306.1999511719</ele>
        <time>2016-07-14T13:46:58.000Z</time>
      </trkpt>
      <trkpt lat="44.5947" lon="6.17741">
        <ele>1305</ele>
        <time>2016-07-14T13:47:10.000Z</time>
      </trkpt>
      <trkpt lat="44.5946" lon="6.1776">
        <ele>1303.5999755859</ele>
        <time>2016-07-14T13:47:22.000Z</time>
      </trkpt>
      <trkpt lat="44.5945" lon="6.17777">
        <ele>1302</ele>
        <time>2016-07-14T13:47:33.000Z</time>
      </trkpt>
      <trkpt lat="44.59433" lon="6.17807">
        <ele>1299.8000488281</ele>
        <time>2016-07-14T13:47:52.000Z</time>
      </trkpt>
      <trkpt lat="44.59427" lon="6.17819">
        <ele>1299.1999511719</ele>
        <time>2016-07-14T13:48:00.000Z</time>
      </trkpt>
      <trkpt lat="44.59426" lon="6.17819">
        <ele>1299</ele>
        <time>2016-07-14T13:48:01.000Z</time>
      </trkpt>
      <trkpt lat="44.59419" lon="6.17814">
        <ele>1296.8000488281</ele>
        <time>2016-07-14T13:48:06.000Z</time>
      </trkpt>
      <trkpt lat="44.59419" lon="6.17811">
        <ele>1296.1999511719</ele>
        <time>2016-07-14T13:48:08.000Z</time>
      </trkpt>
      <trkpt lat="44.59419" lon="6.17803">
        <ele>1295.8000488281</ele>
        <time>2016-07-14T13:48:12.000Z</time>
      </trkpt>
      <trkpt lat="44.59422" lon="6.17785">
        <ele>1295</ele>
        <time>2016-07-14T13:48:21.000Z</time>
      </trkpt>
      <trkpt lat="44.59419" lon="6.17767">
        <ele>1292.8000488281</ele>
        <time>2016-07-14T13:48:30.000Z</time>
      </trkpt>
      <trkpt lat="44.59413" lon="6.17747">
        <ele>1289.8000488281</ele>
        <time>2016-07-14T13:48:41.000Z</time>
      </trkpt>
      <trkpt lat="44.5941" lon="6.1773">
        <ele>1287.5999755859</ele>
        <time>2016-07-14T13:48:50.000Z</time>
      </trkpt>
      <trkpt lat="44.59406" lon="6.17709">
        <ele>1285</ele>
        <time>2016-07-14T13:49:00.000Z</time>
      </trkpt>
      <trkpt lat="44.59403" lon="6.17691">
        <ele>1282.5999755859</ele>
        <time>2016-07-14T13:49:09.000Z</time>
      </trkpt>
      <trkpt lat="44.59399" lon="6.17669">
        <ele>1279.8000488281</ele>
        <time>2016-07-14T13:49:20.000Z</time>
      </trkpt>
      <trkpt lat="44.59397" lon="6.17655">
        <ele>1278.4000244141</ele>
        <time>2016-07-14T13:49:28.000Z</time>
      </trkpt>
      <trkpt lat="44.59393" lon="6.1763">
        <ele>1276.5999755859</ele>
        <time>2016-07-14T13:49:41.000Z</time>
      </trkpt>
      <trkpt lat="44.59391" lon="6.17611">
        <ele>1275.5999755859</ele>
        <time>2016-07-14T13:49:50.000Z</time>
      </trkpt>
      <trkpt lat="44.59389" lon="6.17593">
        <ele>1275</ele>
        <time>2016-07-14T13:49:59.000Z</time>
      </trkpt>
      <trkpt lat="44.5939" lon="6.17566">
        <ele>1274.1999511719</ele>
        <time>2016-07-14T13:50:12.000Z</time>
      </trkpt>
      <trkpt lat="44.59397" lon="6.17551">
        <ele>1275.4000244141</ele>
        <time>2016-07-14T13:50:21.000Z</time>
      </trkpt>
      <trkpt lat="44.59413" lon="6.17552">
        <ele>1280</ele>
        <time>2016-07-14T13:50:33.000Z</time>
      </trkpt>
      <trkpt lat="44.59419" lon="6.17536">
        <ele>1281.1999511719</ele>
        <time>2016-07-14T13:50:45.000Z</time>
      </trkpt>
      <trkpt lat="44.59418" lon="6.17522">
        <ele>1280.1999511719</ele>
        <time>2016-07-14T13:50:52.000Z</time>
      </trkpt>
      <trkpt lat="44.59415" lon="6.17507">
        <ele>1278.5999755859</ele>
        <time>2016-07-14T13:51:00.000Z</time>
      </trkpt>
      <trkpt lat="44.59408" lon="6.17492">
        <ele>1275.8000488281</ele>
        <time>2016-07-14T13:51:09.000Z</time>
      </trkpt>
      <trkpt lat="44.59402" lon="6.17482">
        <ele>1273.5999755859</ele>
        <time>2016-07-14T13:51:16.000Z</time>
      </trkpt>
      <trkpt lat="44.59394" lon="6.17469">
        <ele>1271.5999755859</ele>
        <time>2016-07-14T13:51:24.000Z</time>
      </trkpt>
      <trkpt lat="44.59386" lon="6.17459">
        <ele>1269.8000488281</ele>
        <time>2016-07-14T13:51:31.000Z</time>
      </trkpt>
      <trkpt lat="44.59374" lon="6.17438">
        <ele>1266.8000488281</ele>
        <time>2016-07-14T13:51:42.000Z</time>
      </trkpt>
      <trkpt lat="44.59367" lon="6.17427">
        <ele>1265.4000244141</ele>
        <time>2016-07-14T13:51:49.000Z</time>
      </trkpt>
      <trkpt lat="44.59366" lon="6.17425">
        <ele>1265.1999511719</ele>
        <time>2016-07-14T13:51:50.000Z</time>
      </trkpt>
      <trkpt lat="44.59356" lon="6.17416">
        <ele>1263.8000488281</ele>
        <time>2016-07-14T13:51:58.000Z</time>
      </trkpt>
      <trkpt lat="44.59347" lon="6.17405">
        <ele>1262.5999755859</ele>
        <time>2016-07-14T13:52:06.000Z</time>
      </trkpt>
      <trkpt lat="44.59341" lon="6.17389">
        <ele>1261.8000488281</ele>
        <time>2016-07-14T13:52:15.000Z</time>
      </trkpt>
      <trkpt lat="44.59338" lon="6.17372">
        <ele>1261.5999755859</ele>
        <time>2016-07-14T13:52:23.000Z</time>
      </trkpt>
      <trkpt lat="44.59332" lon="6.17355">
        <ele>1261</ele>
        <time>2016-07-14T13:52:32.000Z</time>
      </trkpt>
      <trkpt lat="44.59325" lon="6.17341">
        <ele>1260.4000244141</ele>
        <time>2016-07-14T13:52:40.000Z</time>
      </trkpt>
      <trkpt lat="44.59314" lon="6.17339">
        <ele>1258.1999511719</ele>
        <time>2016-07-14T13:52:48.000Z</time>
      </trkpt>
      <trkpt lat="44.59303" lon="6.17328">
        <ele>1256.5999755859</ele>
        <time>2016-07-14T13:52:57.000Z</time>
      </trkpt>
      <trkpt lat="44.59295" lon="6.17312">
        <ele>1256.1999511719</ele>
        <time>2016-07-14T13:53:06.000Z</time>
      </trkpt>
      <trkpt lat="44.59287" lon="6.17293">
        <ele>1254.4000244141</ele>
        <time>2016-07-14T13:53:17.000Z</time>
      </trkpt>
      <trkpt lat="44.59282" lon="6.1728">
        <ele>1253.1999511719</ele>
        <time>2016-07-14T13:53:25.000Z</time>
      </trkpt>
      <trkpt lat="44.59275" lon="6.17262">
        <ele>1251.8000488281</ele>
        <time>2016-07-14T13:53:34.000Z</time>
      </trkpt>
      <trkpt lat="44.59269" lon="6.17243">
        <ele>1250.1999511719</ele>
        <time>2016-07-14T13:53:44.000Z</time>
      </trkpt>
      <trkpt lat="44.59264" lon="6.17226">
        <ele>1248.8000488281</ele>
        <time>2016-07-14T13:53:53.000Z</time>
      </trkpt>
      <trkpt lat="44.59263" lon="6.17211">
        <ele>1248</ele>
        <time>2016-07-14T13:54:00.000Z</time>
      </trkpt>
      <trkpt lat="44.59268" lon="6.17198">
        <ele>1248.5999755859</ele>
        <time>2016-07-14T13:54:08.000Z</time>
      </trkpt>
      <trkpt lat="44.59269" lon="6.17196">
        <ele>1248.5999755859</ele>
        <time>2016-07-14T13:54:09.000Z</time>
      </trkpt>
      <trkpt lat="44.59263" lon="6.17187">
        <ele>1246.8000488281</ele>
        <time>2016-07-14T13:54:17.000Z</time>
      </trkpt>
      <trkpt lat="44.59261" lon="6.17186">
        <ele>1246.1999511719</ele>
        <time>2016-07-14T13:54:19.000Z</time>
      </trkpt>
      <trkpt lat="44.59254" lon="6.1719">
        <ele>1244.8000488281</ele>
        <time>2016-07-14T13:54:24.000Z</time>
      </trkpt>
      <trkpt lat="44.59248" lon="6.17208">
        <ele>1244.1999511719</ele>
        <time>2016-07-14T13:54:34.000Z</time>
      </trkpt>
      <trkpt lat="44.59244" lon="6.17231">
        <ele>1244.1999511719</ele>
        <time>2016-07-14T13:54:46.000Z</time>
      </trkpt>
      <trkpt lat="44.59242" lon="6.17248">
        <ele>1243.8000488281</ele>
        <time>2016-07-14T13:54:55.000Z</time>
      </trkpt>
      <trkpt lat="44.5924" lon="6.17264">
        <ele>1243.1999511719</ele>
        <time>2016-07-14T13:55:03.000Z</time>
      </trkpt>
      <trkpt lat="44.59235" lon="6.17282">
        <ele>1243</ele>
        <time>2016-07-14T13:55:13.000Z</time>
      </trkpt>
      <trkpt lat="44.59229" lon="6.17297">
        <ele>1242.5999755859</ele>
        <time>2016-07-14T13:55:21.000Z</time>
      </trkpt>
      <trkpt lat="44.59223" lon="6.17309">
        <ele>1242</ele>
        <time>2016-07-14T13:55:29.000Z</time>
      </trkpt>
      <trkpt lat="44.59216" lon="6.17322">
        <ele>1240.8000488281</ele>
        <time>2016-07-14T13:55:38.000Z</time>
      </trkpt>
      <trkpt lat="44.5921" lon="6.17335">
        <ele>1239.5999755859</ele>
        <time>2016-07-14T13:55:46.000Z</time>
      </trkpt>
      <trkpt lat="44.59201" lon="6.1735">
        <ele>1238</ele>
        <time>2016-07-14T13:55:55.000Z</time>
      </trkpt>
      <trkpt lat="44.59189" lon="6.17374">
        <ele>1235.8000488281</ele>
        <time>2016-07-14T13:56:10.000Z</time>
      </trkpt>
      <trkpt lat="44.59188" lon="6.17389">
        <ele>1235.5999755859</ele>
        <time>2016-07-14T13:56:18.000Z</time>
      </trkpt>
      <trkpt lat="44.59183" lon="6.17392">
        <ele>1234.5999755859</ele>
        <time>2016-07-14T13:56:23.000Z</time>
      </trkpt>
      <trkpt lat="44.59178" lon="6.17395">
        <ele>1233.8000488281</ele>
        <time>2016-07-14T13:57:01.000Z</time>
      </trkpt>
      <trkpt lat="44.59178" lon="6.17397">
        <ele>1233.8000488281</ele>
        <time>2016-07-14T13:57:02.000Z</time>
      </trkpt>
      <trkpt lat="44.59178" lon="6.17413">
        <ele>1234</ele>
        <time>2016-07-14T13:57:10.000Z</time>
      </trkpt>
      <trkpt lat="44.59177" lon="6.17425">
        <ele>1234</ele>
        <time>2016-07-14T13:57:16.000Z</time>
      </trkpt>
      <trkpt lat="44.59177" lon="6.17429">
        <ele>1234</ele>
        <time>2016-07-14T13:57:18.000Z</time>
      </trkpt>
      <trkpt lat="44.59173" lon="6.17435">
        <ele>1233.4000244141</ele>
        <time>2016-07-14T13:57:22.000Z</time>
      </trkpt>
      <trkpt lat="44.59163" lon="6.17445">
        <ele>1231.8000488281</ele>
        <time>2016-07-14T13:57:32.000Z</time>
      </trkpt>
      <trkpt lat="44.5916" lon="6.17449">
        <ele>1231.4000244141</ele>
        <time>2016-07-14T13:57:35.000Z</time>
      </trkpt>
      <trkpt lat="44.59158" lon="6.17452">
        <ele>1231</ele>
        <time>2016-07-14T13:57:42.000Z</time>
      </trkpt>
      <trkpt lat="44.59154" lon="6.1746">
        <ele>1230.5999755859</ele>
        <time>2016-07-14T13:57:47.000Z</time>
      </trkpt>
      <trkpt lat="44.5915" lon="6.17471">
        <ele>1230.1999511719</ele>
        <time>2016-07-14T13:57:53.000Z</time>
      </trkpt>
      <trkpt lat="44.59142" lon="6.17469">
        <ele>1228.8000488281</ele>
        <time>2016-07-14T13:58:01.000Z</time>
      </trkpt>
      <trkpt lat="44.59141" lon="6.17467">
        <ele>1228.5999755859</ele>
        <time>2016-07-14T13:58:02.000Z</time>
      </trkpt>
      <trkpt lat="44.59137" lon="6.17456">
        <ele>1227.5999755859</ele>
        <time>2016-07-14T13:58:10.000Z</time>
      </trkpt>
      <trkpt lat="44.59129" lon="6.17453">
        <ele>1226.1999511719</ele>
        <time>2016-07-14T13:58:17.000Z</time>
      </trkpt>
      <trkpt lat="44.59123" lon="6.17453">
        <ele>1225.1999511719</ele>
        <time>2016-07-14T13:58:22.000Z</time>
      </trkpt>
      <trkpt lat="44.59117" lon="6.17454">
        <ele>1224.1999511719</ele>
        <time>2016-07-14T13:58:27.000Z</time>
      </trkpt>
      <trkpt lat="44.59104" lon="6.17457">
        <ele>1222.1999511719</ele>
        <time>2016-07-14T13:58:38.000Z</time>
      </trkpt>
      <trkpt lat="44.59093" lon="6.17459">
        <ele>1220.4000244141</ele>
        <time>2016-07-14T13:58:46.000Z</time>
      </trkpt>
      <trkpt lat="44.59082" lon="6.1746">
        <ele>1218.1999511719</ele>
        <time>2016-07-14T13:58:54.000Z</time>
      </trkpt>
      <trkpt lat="44.59072" lon="6.17466">
        <ele>1216.1999511719</ele>
        <time>2016-07-14T13:59:02.000Z</time>
      </trkpt>
      <trkpt lat="44.59062" lon="6.17471">
        <ele>1214.1999511719</ele>
        <time>2016-07-14T13:59:10.000Z</time>
      </trkpt>
      <trkpt lat="44.59056" lon="6.17475">
        <ele>1213</ele>
        <time>2016-07-14T13:59:15.000Z</time>
      </trkpt>
      <trkpt lat="44.59043" lon="6.1748">
        <ele>1210.8000488281</ele>
        <time>2016-07-14T13:59:24.000Z</time>
      </trkpt>
      <trkpt lat="44.59038" lon="6.17474">
        <ele>1209.5999755859</ele>
        <time>2016-07-14T13:59:32.000Z</time>
      </trkpt>
      <trkpt lat="44.59038" lon="6.17473">
        <ele>1209.5999755859</ele>
        <time>2016-07-14T13:59:38.000Z</time>
      </trkpt>
      <trkpt lat="44.59037" lon="6.17473">
        <ele>1209.4000244141</ele>
        <time>2016-07-14T14:00:09.000Z</time>
      </trkpt>
      <trkpt lat="44.59034" lon="6.17478">
        <ele>1208.8000488281</ele>
        <time>2016-07-14T14:00:13.000Z</time>
      </trkpt>
      <trkpt lat="44.59023" lon="6.17484">
        <ele>1207.1999511719</ele>
        <time>2016-07-14T14:00:21.000Z</time>
      </trkpt>
      <trkpt lat="44.59015" lon="6.17493">
        <ele>1206</ele>
        <time>2016-07-14T14:00:28.000Z</time>
      </trkpt>
      <trkpt lat="44.59009" lon="6.17505">
        <ele>1205.5999755859</ele>
        <time>2016-07-14T14:00:36.000Z</time>
      </trkpt>
      <trkpt lat="44.59004" lon="6.1752">
        <ele>1205.4000244141</ele>
        <time>2016-07-14T14:00:44.000Z</time>
      </trkpt>
      <trkpt lat="44.58998" lon="6.17538">
        <ele>1204.8000488281</ele>
        <time>2016-07-14T14:00:54.000Z</time>
      </trkpt>
      <trkpt lat="44.58995" lon="6.17555">
        <ele>1204.4000244141</ele>
        <time>2016-07-14T14:01:03.000Z</time>
      </trkpt>
      <trkpt lat="44.58993" lon="6.17571">
        <ele>1203.8000488281</ele>
        <time>2016-07-14T14:01:11.000Z</time>
      </trkpt>
      <trkpt lat="44.5899" lon="6.17586">
        <ele>1203</ele>
        <time>2016-07-14T14:01:19.000Z</time>
      </trkpt>
      <trkpt lat="44.58986" lon="6.17611">
        <ele>1202.1999511719</ele>
        <time>2016-07-14T14:01:32.000Z</time>
      </trkpt>
      <trkpt lat="44.58983" lon="6.17648">
        <ele>1202.1999511719</ele>
        <time>2016-07-14T14:01:51.000Z</time>
      </trkpt>
      <trkpt lat="44.58982" lon="6.17651">
        <ele>1202</ele>
        <time>2016-07-14T14:01:53.000Z</time>
      </trkpt>
      <trkpt lat="44.58981" lon="6.17656">
        <ele>1202</ele>
        <time>2016-07-14T14:01:57.000Z</time>
      </trkpt>
      <trkpt lat="44.58982" lon="6.17655">
        <ele>1202</ele>
        <time>2016-07-14T14:02:02.000Z</time>
      </trkpt>
      <trkpt lat="44.58981" lon="6.17661">
        <ele>1202.1999511719</ele>
        <time>2016-07-14T14:02:10.000Z</time>
      </trkpt>
      <trkpt lat="44.58979" lon="6.17673">
        <ele>1202</ele>
        <time>2016-07-14T14:02:17.000Z</time>
      </trkpt>
      <trkpt lat="44.58976" lon="6.17685">
        <ele>1202</ele>
        <time>2016-07-14T14:02:24.000Z</time>
      </trkpt>
      <trkpt lat="44.5897" lon="6.17705">
        <ele>1202</ele>
        <time>2016-07-14T14:02:35.000Z</time>
      </trkpt>
      <trkpt lat="44.58964" lon="6.1772">
        <ele>1201.5999755859</ele>
        <time>2016-07-14T14:02:44.000Z</time>
      </trkpt>
      <trkpt lat="44.58953" lon="6.17739">
        <ele>1201</ele>
        <time>2016-07-14T14:02:56.000Z</time>
      </trkpt>
      <trkpt lat="44.58945" lon="6.1775">
        <ele>1200.8000488281</ele>
        <time>2016-07-14T14:03:04.000Z</time>
      </trkpt>
      <trkpt lat="44.58935" lon="6.17763">
        <ele>1200</ele>
        <time>2016-07-14T14:03:14.000Z</time>
      </trkpt>
      <trkpt lat="44.58924" lon="6.17775">
        <ele>1199</ele>
        <time>2016-07-14T14:03:24.000Z</time>
      </trkpt>
      <trkpt lat="44.58911" lon="6.17791">
        <ele>1198</ele>
        <time>2016-07-14T14:03:36.000Z</time>
      </trkpt>
      <trkpt lat="44.58901" lon="6.17807">
        <ele>1197.5999755859</ele>
        <time>2016-07-14T14:03:47.000Z</time>
      </trkpt>
      <trkpt lat="44.58896" lon="6.17818">
        <ele>1197.4000244141</ele>
        <time>2016-07-14T14:03:54.000Z</time>
      </trkpt>
      <trkpt lat="44.58891" lon="6.17827">
        <ele>1196.8000488281</ele>
        <time>2016-07-14T14:04:00.000Z</time>
      </trkpt>
      <trkpt lat="44.58887" lon="6.17832">
        <ele>1196.4000244141</ele>
        <time>2016-07-14T14:04:04.000Z</time>
      </trkpt>
      <trkpt lat="44.58881" lon="6.17843">
        <ele>1196</ele>
        <time>2016-07-14T14:04:12.000Z</time>
      </trkpt>
      <trkpt lat="44.58875" lon="6.17856">
        <ele>1195.8000488281</ele>
        <time>2016-07-14T14:04:20.000Z</time>
      </trkpt>
      <trkpt lat="44.5887" lon="6.17867">
        <ele>1195.8000488281</ele>
        <time>2016-07-14T14:04:27.000Z</time>
      </trkpt>
      <trkpt lat="44.58864" lon="6.17884">
        <ele>1195.5999755859</ele>
        <time>2016-07-14T14:04:37.000Z</time>
      </trkpt>
      <trkpt lat="44.58861" lon="6.17903">
        <ele>1196.1999511719</ele>
        <time>2016-07-14T14:04:47.000Z</time>
      </trkpt>
      <trkpt lat="44.58857" lon="6.17919">
        <ele>1196.1999511719</ele>
        <time>2016-07-14T14:04:56.000Z</time>
      </trkpt>
      <trkpt lat="44.58852" lon="6.17936">
        <ele>1196</ele>
        <time>2016-07-14T14:05:05.000Z</time>
      </trkpt>
      <trkpt lat="44.58847" lon="6.17952">
        <ele>1196</ele>
        <time>2016-07-14T14:05:13.000Z</time>
      </trkpt>
      <trkpt lat="44.58846" lon="6.1797">
        <ele>1196</ele>
        <time>2016-07-14T14:05:22.000Z</time>
      </trkpt>
      <trkpt lat="44.58841" lon="6.17986">
        <ele>1195</ele>
        <time>2016-07-14T14:05:31.000Z</time>
      </trkpt>
      <trkpt lat="44.58834" lon="6.17999">
        <ele>1193.1999511719</ele>
        <time>2016-07-14T14:05:40.000Z</time>
      </trkpt>
      <trkpt lat="44.5883" lon="6.18016">
        <ele>1192.4000244141</ele>
        <time>2016-07-14T14:05:49.000Z</time>
      </trkpt>
      <trkpt lat="44.58829" lon="6.18031">
        <ele>1192</ele>
        <time>2016-07-14T14:05:58.000Z</time>
      </trkpt>
      <trkpt lat="44.58824" lon="6.18041">
        <ele>1191.1999511719</ele>
        <time>2016-07-14T14:06:05.000Z</time>
      </trkpt>
      <trkpt lat="44.58813" lon="6.18049">
        <ele>1189.4000244141</ele>
        <time>2016-07-14T14:06:14.000Z</time>
      </trkpt>
      <trkpt lat="44.58807" lon="6.18055">
        <ele>1188.1999511719</ele>
        <time>2016-07-14T14:06:20.000Z</time>
      </trkpt>
      <trkpt lat="44.58803" lon="6.18066">
        <ele>1187.8000488281</ele>
        <time>2016-07-14T14:06:26.000Z</time>
      </trkpt>
      <trkpt lat="44.58805" lon="6.18083">
        <ele>1189.1999511719</ele>
        <time>2016-07-14T14:06:34.000Z</time>
      </trkpt>
      <trkpt lat="44.58804" lon="6.1809">
        <ele>1189.5999755859</ele>
        <time>2016-07-14T14:06:41.000Z</time>
      </trkpt>
      <trkpt lat="44.58801" lon="6.18095">
        <ele>1189.1999511719</ele>
        <time>2016-07-14T14:06:55.000Z</time>
      </trkpt>
      <trkpt lat="44.58792" lon="6.18111">
        <ele>1189</ele>
        <time>2016-07-14T14:07:06.000Z</time>
      </trkpt>
      <trkpt lat="44.58783" lon="6.18127">
        <ele>1188.4000244141</ele>
        <time>2016-07-14T14:07:16.000Z</time>
      </trkpt>
      <trkpt lat="44.58775" lon="6.18135">
        <ele>1187.5999755859</ele>
        <time>2016-07-14T14:07:24.000Z</time>
      </trkpt>
      <trkpt lat="44.58774" lon="6.18136">
        <ele>1187.4000244141</ele>
        <time>2016-07-14T14:07:25.000Z</time>
      </trkpt>
      <trkpt lat="44.58771" lon="6.18136">
        <ele>1186.8000488281</ele>
        <time>2016-07-14T14:07:28.000Z</time>
      </trkpt>
      <trkpt lat="44.58766" lon="6.18141">
        <ele>1186</ele>
        <time>2016-07-14T14:07:32.000Z</time>
      </trkpt>
      <trkpt lat="44.58753" lon="6.18153">
        <ele>1184.4000244141</ele>
        <time>2016-07-14T14:07:43.000Z</time>
      </trkpt>
      <trkpt lat="44.58743" lon="6.18166">
        <ele>1183.8000488281</ele>
        <time>2016-07-14T14:07:53.000Z</time>
      </trkpt>
      <trkpt lat="44.58737" lon="6.18181">
        <ele>1184.1999511719</ele>
        <time>2016-07-14T14:08:03.000Z</time>
      </trkpt>
      <trkpt lat="44.58734" lon="6.18194">
        <ele>1183.5999755859</ele>
        <time>2016-07-14T14:08:10.000Z</time>
      </trkpt>
      <trkpt lat="44.5873" lon="6.18209">
        <ele>1183.1999511719</ele>
        <time>2016-07-14T14:08:19.000Z</time>
      </trkpt>
      <trkpt lat="44.58727" lon="6.18226">
        <ele>1183</ele>
        <time>2016-07-14T14:08:28.000Z</time>
      </trkpt>
      <trkpt lat="44.58721" lon="6.18246">
        <ele>1182.1999511719</ele>
        <time>2016-07-14T14:08:40.000Z</time>
      </trkpt>
      <trkpt lat="44.58716" lon="6.18261">
        <ele>1181.1999511719</ele>
        <time>2016-07-14T14:08:49.000Z</time>
      </trkpt>
      <trkpt lat="44.58709" lon="6.18273">
        <ele>1179.5999755859</ele>
        <time>2016-07-14T14:08:57.000Z</time>
      </trkpt>
      <trkpt lat="44.58707" lon="6.18288">
        <ele>1179.5999755859</ele>
        <time>2016-07-14T14:09:05.000Z</time>
      </trkpt>
      <trkpt lat="44.58706" lon="6.18307">
        <ele>1180.1999511719</ele>
        <time>2016-07-14T14:09:14.000Z</time>
      </trkpt>
      <trkpt lat="44.58706" lon="6.18328">
        <ele>1180.5999755859</ele>
        <time>2016-07-14T14:09:24.000Z</time>
      </trkpt>
      <trkpt lat="44.58704" lon="6.18348">
        <ele>1180.5999755859</ele>
        <time>2016-07-14T14:09:34.000Z</time>
      </trkpt>
      <trkpt lat="44.58701" lon="6.18369">
        <ele>1180.1999511719</ele>
        <time>2016-07-14T14:09:44.000Z</time>
      </trkpt>
      <trkpt lat="44.587" lon="6.18385">
        <ele>1180.4000244141</ele>
        <time>2016-07-14T14:09:53.000Z</time>
      </trkpt>
      <trkpt lat="44.58697" lon="6.18406">
        <ele>1180.1999511719</ele>
        <time>2016-07-14T14:10:04.000Z</time>
      </trkpt>
      <trkpt lat="44.58693" lon="6.18421">
        <ele>1179.8000488281</ele>
        <time>2016-07-14T14:10:12.000Z</time>
      </trkpt>
      <trkpt lat="44.58689" lon="6.18446">
        <ele>1179.1999511719</ele>
        <time>2016-07-14T14:10:25.000Z</time>
      </trkpt>
      <trkpt lat="44.58685" lon="6.18469">
        <ele>1178.8000488281</ele>
        <time>2016-07-14T14:10:37.000Z</time>
      </trkpt>
      <trkpt lat="44.58681" lon="6.18486">
        <ele>1178.5999755859</ele>
        <time>2016-07-14T14:10:46.000Z</time>
      </trkpt>
      <trkpt lat="44.58681" lon="6.18504">
        <ele>1179.5999755859</ele>
        <time>2016-07-14T14:10:55.000Z</time>
      </trkpt>
      <trkpt lat="44.58682" lon="6.18514">
        <ele>1180.1999511719</ele>
        <time>2016-07-14T14:11:00.000Z</time>
      </trkpt>
      <trkpt lat="44.58677" lon="6.1853">
        <ele>1180.1999511719</ele>
        <time>2016-07-14T14:11:06.000Z</time>
      </trkpt>
      <trkpt lat="44.58674" lon="6.18535">
        <ele>1179.8000488281</ele>
        <time>2016-07-14T14:11:09.000Z</time>
      </trkpt>
      <trkpt lat="44.58672" lon="6.18542">
        <ele>1179.4000244141</ele>
        <time>2016-07-14T14:11:13.000Z</time>
      </trkpt>
      <trkpt lat="44.58664" lon="6.18553">
        <ele>1178.1999511719</ele>
        <time>2016-07-14T14:11:21.000Z</time>
      </trkpt>
      <trkpt lat="44.58658" lon="6.18558">
        <ele>1177.1999511719</ele>
        <time>2016-07-14T14:11:27.000Z</time>
      </trkpt>
      <trkpt lat="44.5865" lon="6.18563">
        <ele>1175.8000488281</ele>
        <time>2016-07-14T14:11:34.000Z</time>
      </trkpt>
      <trkpt lat="44.58643" lon="6.18573">
        <ele>1175.1999511719</ele>
        <time>2016-07-14T14:11:41.000Z</time>
      </trkpt>
      <trkpt lat="44.5864" lon="6.18582">
        <ele>1175.4000244141</ele>
        <time>2016-07-14T14:11:48.000Z</time>
      </trkpt>
      <trkpt lat="44.58637" lon="6.18593">
        <ele>1176</ele>
        <time>2016-07-14T14:11:54.000Z</time>
      </trkpt>
      <trkpt lat="44.58634" lon="6.18602">
        <ele>1176.4000244141</ele>
        <time>2016-07-14T14:12:00.000Z</time>
      </trkpt>
      <trkpt lat="44.5863" lon="6.18611">
        <ele>1176.8000488281</ele>
        <time>2016-07-14T14:12:06.000Z</time>
      </trkpt>
      <trkpt lat="44.58627" lon="6.18626">
        <ele>1177.5999755859</ele>
        <time>2016-07-14T14:12:15.000Z</time>
      </trkpt>
      <trkpt lat="44.58626" lon="6.1863">
        <ele>1178</ele>
        <time>2016-07-14T14:12:20.000Z</time>
      </trkpt>
      <trkpt lat="44.58626" lon="6.1864">
        <ele>1179</ele>
        <time>2016-07-14T14:12:26.000Z</time>
      </trkpt>
      <trkpt lat="44.58625" lon="6.18657">
        <ele>1180</ele>
        <time>2016-07-14T14:12:35.000Z</time>
      </trkpt>
      <trkpt lat="44.58624" lon="6.18664">
        <ele>1180</ele>
        <time>2016-07-14T14:12:40.000Z</time>
      </trkpt>
      <trkpt lat="44.58626" lon="6.18674">
        <ele>1180.5999755859</ele>
        <time>2016-07-14T14:12:47.000Z</time>
      </trkpt>
      <trkpt lat="44.58626" lon="6.18688">
        <ele>1181.1999511719</ele>
        <time>2016-07-14T14:12:55.000Z</time>
      </trkpt>
      <trkpt lat="44.58625" lon="6.18698">
        <ele>1181.4000244141</ele>
        <time>2016-07-14T14:13:02.000Z</time>
      </trkpt>
      <trkpt lat="44.58622" lon="6.18711">
        <ele>1181.1999511719</ele>
        <time>2016-07-14T14:13:10.000Z</time>
      </trkpt>
      <trkpt lat="44.5862" lon="6.18724">
        <ele>1181.1999511719</ele>
        <time>2016-07-14T14:13:17.000Z</time>
      </trkpt>
      <trkpt lat="44.58618" lon="6.18738">
        <ele>1181.4000244141</ele>
        <time>2016-07-14T14:13:24.000Z</time>
      </trkpt>
      <trkpt lat="44.58616" lon="6.18749">
        <ele>1181.4000244141</ele>
        <time>2016-07-14T14:13:30.000Z</time>
      </trkpt>
      <trkpt lat="44.58623" lon="6.18753">
        <ele>1183</ele>
        <time>2016-07-14T14:13:37.000Z</time>
      </trkpt>
      <trkpt lat="44.58636" lon="6.1876">
        <ele>1186.5999755859</ele>
        <time>2016-07-14T14:13:49.000Z</time>
      </trkpt>
      <trkpt lat="44.58638" lon="6.18766">
        <ele>1187</ele>
        <time>2016-07-14T14:13:52.000Z</time>
      </trkpt>
      <trkpt lat="44.5864" lon="6.18771">
        <ele>1187.5999755859</ele>
        <time>2016-07-14T14:13:56.000Z</time>
      </trkpt>
      <trkpt lat="44.58637" lon="6.18785">
        <ele>1187.5999755859</ele>
        <time>2016-07-14T14:14:03.000Z</time>
      </trkpt>
      <trkpt lat="44.5864" lon="6.18796">
        <ele>1188.5999755859</ele>
        <time>2016-07-14T14:14:10.000Z</time>
      </trkpt>
      <trkpt lat="44.5864" lon="6.18797">
        <ele>1188.8000488281</ele>
        <time>2016-07-14T14:14:11.000Z</time>
      </trkpt>
      <trkpt lat="44.58641" lon="6.188">
        <ele>1189.1999511719</ele>
        <time>2016-07-14T14:14:13.000Z</time>
      </trkpt>
      <trkpt lat="44.58642" lon="6.18808">
        <ele>1189.4000244141</ele>
        <time>2016-07-14T14:14:18.000Z</time>
      </trkpt>
      <trkpt lat="44.58642" lon="6.18811">
        <ele>1189.5999755859</ele>
        <time>2016-07-14T14:14:20.000Z</time>
      </trkpt>
      <trkpt lat="44.58641" lon="6.18814">
        <ele>1189.8000488281</ele>
        <time>2016-07-14T14:14:23.000Z</time>
      </trkpt>
      <trkpt lat="44.58642" lon="6.18819">
        <ele>1190.4000244141</ele>
        <time>2016-07-14T14:14:28.000Z</time>
      </trkpt>
      <trkpt lat="44.58641" lon="6.1882">
        <ele>1190.4000244141</ele>
        <time>2016-07-14T14:14:29.000Z</time>
      </trkpt>
      <trkpt lat="44.5864" lon="6.18831">
        <ele>1190.8000488281</ele>
        <time>2016-07-14T14:14:35.000Z</time>
      </trkpt>
      <trkpt lat="44.58638" lon="6.18838">
        <ele>1191</ele>
        <time>2016-07-14T14:14:39.000Z</time>
      </trkpt>
      <trkpt lat="44.58638" lon="6.18853">
        <ele>1192</ele>
        <time>2016-07-14T14:14:48.000Z</time>
      </trkpt>
      <trkpt lat="44.5864" lon="6.18861">
        <ele>1193.1999511719</ele>
        <time>2016-07-14T14:14:52.000Z</time>
      </trkpt>
      <trkpt lat="44.58641" lon="6.18864">
        <ele>1193.4000244141</ele>
        <time>2016-07-14T14:14:54.000Z</time>
      </trkpt>
      <trkpt lat="44.58641" lon="6.18867">
        <ele>1193.8000488281</ele>
        <time>2016-07-14T14:14:56.000Z</time>
      </trkpt>
      <trkpt lat="44.5864" lon="6.18874">
        <ele>1194</ele>
        <time>2016-07-14T14:15:00.000Z</time>
      </trkpt>
      <trkpt lat="44.58636" lon="6.1888">
        <ele>1193.4000244141</ele>
        <time>2016-07-14T14:15:05.000Z</time>
      </trkpt>
      <trkpt lat="44.58635" lon="6.18882">
        <ele>1193.4000244141</ele>
        <time>2016-07-14T14:15:06.000Z</time>
      </trkpt>
      <trkpt lat="44.58634" lon="6.1889">
        <ele>1193.8000488281</ele>
        <time>2016-07-14T14:15:11.000Z</time>
      </trkpt>
      <trkpt lat="44.58639" lon="6.18897">
        <ele>1195.4000244141</ele>
        <time>2016-07-14T14:15:17.000Z</time>
      </trkpt>
      <trkpt lat="44.58639" lon="6.18906">
        <ele>1195.8000488281</ele>
        <time>2016-07-14T14:15:22.000Z</time>
      </trkpt>
      <trkpt lat="44.58634" lon="6.1892">
        <ele>1195.5999755859</ele>
        <time>2016-07-14T14:15:30.000Z</time>
      </trkpt>
      <trkpt lat="44.58633" lon="6.18923">
        <ele>1195.5999755859</ele>
        <time>2016-07-14T14:15:32.000Z</time>
      </trkpt>
      <trkpt lat="44.58631" lon="6.18934">
        <ele>1196.4000244141</ele>
        <time>2016-07-14T14:15:38.000Z</time>
      </trkpt>
      <trkpt lat="44.58628" lon="6.18947">
        <ele>1197</ele>
        <time>2016-07-14T14:15:45.000Z</time>
      </trkpt>
      <trkpt lat="44.58626" lon="6.1896">
        <ele>1198</ele>
        <time>2016-07-14T14:15:52.000Z</time>
      </trkpt>
      <trkpt lat="44.58624" lon="6.1897">
        <ele>1198.4000244141</ele>
        <time>2016-07-14T14:15:58.000Z</time>
      </trkpt>
      <trkpt lat="44.58619" lon="6.18979">
        <ele>1198.1999511719</ele>
        <time>2016-07-14T14:16:04.000Z</time>
      </trkpt>
      <trkpt lat="44.58606" lon="6.18997">
        <ele>1195.8000488281</ele>
        <time>2016-07-14T14:16:16.000Z</time>
      </trkpt>
      <trkpt lat="44.58599" lon="6.1901">
        <ele>1194.4000244141</ele>
        <time>2016-07-14T14:16:24.000Z</time>
      </trkpt>
      <trkpt lat="44.58595" lon="6.19024">
        <ele>1193.4000244141</ele>
        <time>2016-07-14T14:16:32.000Z</time>
      </trkpt>
      <trkpt lat="44.58591" lon="6.19045">
        <ele>1192.8000488281</ele>
        <time>2016-07-14T14:16:42.000Z</time>
      </trkpt>
      <trkpt lat="44.58591" lon="6.19047">
        <ele>1192.8000488281</ele>
        <time>2016-07-14T14:16:43.000Z</time>
      </trkpt>
      <trkpt lat="44.58589" lon="6.19046">
        <ele>1192.4000244141</ele>
        <time>2016-07-14T14:16:48.000Z</time>
      </trkpt>
      <trkpt lat="44.58588" lon="6.19043">
        <ele>1192.4000244141</ele>
        <time>2016-07-14T14:16:53.000Z</time>
      </trkpt>
      <trkpt lat="44.5858" lon="6.19046">
        <ele>1190.5999755859</ele>
        <time>2016-07-14T14:17:01.000Z</time>
      </trkpt>
      <trkpt lat="44.58579" lon="6.19046">
        <ele>1190.4000244141</ele>
        <time>2016-07-14T14:17:02.000Z</time>
      </trkpt>
      <trkpt lat="44.58573" lon="6.19046">
        <ele>1189.1999511719</ele>
        <time>2016-07-14T14:17:08.000Z</time>
      </trkpt>
      <trkpt lat="44.58568" lon="6.19047">
        <ele>1188</ele>
        <time>2016-07-14T14:17:13.000Z</time>
      </trkpt>
      <trkpt lat="44.58565" lon="6.19048">
        <ele>1187.1999511719</ele>
        <time>2016-07-14T14:17:17.000Z</time>
      </trkpt>
      <trkpt lat="44.58557" lon="6.19051">
        <ele>1185.5999755859</ele>
        <time>2016-07-14T14:17:24.000Z</time>
      </trkpt>
      <trkpt lat="44.58547" lon="6.19054">
        <ele>1183.5999755859</ele>
        <time>2016-07-14T14:17:32.000Z</time>
      </trkpt>
      <trkpt lat="44.58534" lon="6.19062">
        <ele>1181</ele>
        <time>2016-07-14T14:17:45.000Z</time>
      </trkpt>
      <trkpt lat="44.58532" lon="6.19065">
        <ele>1180.5999755859</ele>
        <time>2016-07-14T14:17:48.000Z</time>
      </trkpt>
      <trkpt lat="44.58528" lon="6.19072">
        <ele>1180.1999511719</ele>
        <time>2016-07-14T14:17:55.000Z</time>
      </trkpt>
      <trkpt lat="44.58526" lon="6.19074">
        <ele>1179.8000488281</ele>
        <time>2016-07-14T14:18:00.000Z</time>
      </trkpt>
      <trkpt lat="44.58523" lon="6.19074">
        <ele>1179.1999511719</ele>
        <time>2016-07-14T14:18:06.000Z</time>
      </trkpt>
      <trkpt lat="44.58523" lon="6.19075">
        <ele>1179</ele>
        <time>2016-07-14T14:18:12.000Z</time>
      </trkpt>
      <trkpt lat="44.5852" lon="6.19075">
        <ele>1178.4000244141</ele>
        <time>2016-07-14T14:18:22.000Z</time>
      </trkpt>
      <trkpt lat="44.58519" lon="6.19075">
        <ele>1178.1999511719</ele>
        <time>2016-07-14T14:18:24.000Z</time>
      </trkpt>
      <trkpt lat="44.58508" lon="6.19087">
        <ele>1176.5999755859</ele>
        <time>2016-07-14T14:18:36.000Z</time>
      </trkpt>
      <trkpt lat="44.58501" lon="6.19096">
        <ele>1175.4000244141</ele>
        <time>2016-07-14T14:18:44.000Z</time>
      </trkpt>
      <trkpt lat="44.585" lon="6.19097">
        <ele>1175.4000244141</ele>
        <time>2016-07-14T14:18:45.000Z</time>
      </trkpt>
      <trkpt lat="44.58496" lon="6.19103">
        <ele>1174.5999755859</ele>
        <time>2016-07-14T14:18:50.000Z</time>
      </trkpt>
      <trkpt lat="44.58488" lon="6.19115">
        <ele>1173.1999511719</ele>
        <time>2016-07-14T14:18:59.000Z</time>
      </trkpt>
      <trkpt lat="44.58482" lon="6.19124">
        <ele>1172.1999511719</ele>
        <time>2016-07-14T14:19:06.000Z</time>
      </trkpt>
      <trkpt lat="44.58478" lon="6.19132">
        <ele>1171.8000488281</ele>
        <time>2016-07-14T14:19:11.000Z</time>
      </trkpt>
      <trkpt lat="44.58476" lon="6.19138">
        <ele>1171.5999755859</ele>
        <time>2016-07-14T14:19:14.000Z</time>
      </trkpt>
      <trkpt lat="44.58472" lon="6.19146">
        <ele>1170.8000488281</ele>
        <time>2016-07-14T14:19:19.000Z</time>
      </trkpt>
      <trkpt lat="44.58471" lon="6.19148">
        <ele>1170.8000488281</ele>
        <time>2016-07-14T14:19:21.000Z</time>
      </trkpt>
      <trkpt lat="44.58471" lon="6.19151">
        <ele>1170.8000488281</ele>
        <time>2016-07-14T14:19:27.000Z</time>
      </trkpt>
      <trkpt lat="44.5847" lon="6.19154">
        <ele>1170.5999755859</ele>
        <time>2016-07-14T14:19:33.000Z</time>
      </trkpt>
      <trkpt lat="44.58468" lon="6.19156">
        <ele>1170.4000244141</ele>
        <time>2016-07-14T14:19:40.000Z</time>
      </trkpt>
      <trkpt lat="44.58466" lon="6.1916">
        <ele>1170</ele>
        <time>2016-07-14T14:19:45.000Z</time>
      </trkpt>
      <trkpt lat="44.58465" lon="6.19161">
        <ele>1169.8000488281</ele>
        <time>2016-07-14T14:19:46.000Z</time>
      </trkpt>
      <trkpt lat="44.58462" lon="6.19163">
        <ele>1169.4000244141</ele>
        <time>2016-07-14T14:19:49.000Z</time>
      </trkpt>
      <trkpt lat="44.58459" lon="6.19168">
        <ele>1169.4000244141</ele>
        <time>2016-07-14T14:19:52.000Z</time>
      </trkpt>
      <trkpt lat="44.58455" lon="6.19175">
        <ele>1169.1999511719</ele>
        <time>2016-07-14T14:19:57.000Z</time>
      </trkpt>
      <trkpt lat="44.58453" lon="6.19178">
        <ele>1169.1999511719</ele>
        <time>2016-07-14T14:19:59.000Z</time>
      </trkpt>
      <trkpt lat="44.58449" lon="6.19182">
        <ele>1168.8000488281</ele>
        <time>2016-07-14T14:20:03.000Z</time>
      </trkpt>
      <trkpt lat="44.58444" lon="6.19193">
        <ele>1168.4000244141</ele>
        <time>2016-07-14T14:20:10.000Z</time>
      </trkpt>
      <trkpt lat="44.58436" lon="6.19198">
        <ele>1167.1999511719</ele>
        <time>2016-07-14T14:20:16.000Z</time>
      </trkpt>
      <trkpt lat="44.58432" lon="6.19201">
        <ele>1166.4000244141</ele>
        <time>2016-07-14T14:20:20.000Z</time>
      </trkpt>
      <trkpt lat="44.58426" lon="6.19209">
        <ele>1166</ele>
        <time>2016-07-14T14:20:32.000Z</time>
      </trkpt>
      <trkpt lat="44.58425" lon="6.1921">
        <ele>1165.8000488281</ele>
        <time>2016-07-14T14:20:33.000Z</time>
      </trkpt>
      <trkpt lat="44.58411" lon="6.19214">
        <ele>1163.1999511719</ele>
        <time>2016-07-14T14:20:45.000Z</time>
      </trkpt>
      <trkpt lat="44.58409" lon="6.19213">
        <ele>1163</ele>
        <time>2016-07-14T14:20:46.000Z</time>
      </trkpt>
      <trkpt lat="44.584" lon="6.19211">
        <ele>1160.8000488281</ele>
        <time>2016-07-14T14:20:54.000Z</time>
      </trkpt>
      <trkpt lat="44.58399" lon="6.1921">
        <ele>1160.5999755859</ele>
        <time>2016-07-14T14:20:55.000Z</time>
      </trkpt>
      <trkpt lat="44.58392" lon="6.19207">
        <ele>1158.8000488281</ele>
        <time>2016-07-14T14:21:01.000Z</time>
      </trkpt>
      <trkpt lat="44.58387" lon="6.19201">
        <ele>1157.4000244141</ele>
        <time>2016-07-14T14:21:06.000Z</time>
      </trkpt>
      <trkpt lat="44.58385" lon="6.19192">
        <ele>1156</ele>
        <time>2016-07-14T14:21:11.000Z</time>
      </trkpt>
      <trkpt lat="44.5839" lon="6.19178">
        <ele>1155.5999755859</ele>
        <time>2016-07-14T14:21:19.000Z</time>
      </trkpt>
      <trkpt lat="44.58395" lon="6.19166">
        <ele>1155.5999755859</ele>
        <time>2016-07-14T14:21:26.000Z</time>
      </trkpt>
      <trkpt lat="44.58396" lon="6.19164">
        <ele>1155.5999755859</ele>
        <time>2016-07-14T14:21:27.000Z</time>
      </trkpt>
      <trkpt lat="44.58403" lon="6.19151">
        <ele>1156</ele>
        <time>2016-07-14T14:21:35.000Z</time>
      </trkpt>
      <trkpt lat="44.58407" lon="6.19143">
        <ele>1156.1999511719</ele>
        <time>2016-07-14T14:21:41.000Z</time>
      </trkpt>
      <trkpt lat="44.58409" lon="6.1913">
        <ele>1155.4000244141</ele>
        <time>2016-07-14T14:21:49.000Z</time>
      </trkpt>
      <trkpt lat="44.5841" lon="6.19127">
        <ele>1155.1999511719</ele>
        <time>2016-07-14T14:21:51.000Z</time>
      </trkpt>
      <trkpt lat="44.58409" lon="6.1912">
        <ele>1154.4000244141</ele>
        <time>2016-07-14T14:21:55.000Z</time>
      </trkpt>
      <trkpt lat="44.58406" lon="6.19112">
        <ele>1153</ele>
        <time>2016-07-14T14:22:01.000Z</time>
      </trkpt>
      <trkpt lat="44.58399" lon="6.19109">
        <ele>1151.4000244141</ele>
        <time>2016-07-14T14:22:07.000Z</time>
      </trkpt>
      <trkpt lat="44.58392" lon="6.19115">
        <ele>1150.1999511719</ele>
        <time>2016-07-14T14:22:14.000Z</time>
      </trkpt>
      <trkpt lat="44.58391" lon="6.19116">
        <ele>1150.1999511719</ele>
        <time>2016-07-14T14:22:16.000Z</time>
      </trkpt>
      <trkpt lat="44.58387" lon="6.19121">
        <ele>1149.8000488281</ele>
        <time>2016-07-14T14:22:20.000Z</time>
      </trkpt>
      <trkpt lat="44.58379" lon="6.19132">
        <ele>1149.1999511719</ele>
        <time>2016-07-14T14:22:28.000Z</time>
      </trkpt>
      <trkpt lat="44.58376" lon="6.19136">
        <ele>1149</ele>
        <time>2016-07-14T14:22:32.000Z</time>
      </trkpt>
      <trkpt lat="44.58371" lon="6.19139">
        <ele>1148.1999511719</ele>
        <time>2016-07-14T14:22:36.000Z</time>
      </trkpt>
      <trkpt lat="44.58365" lon="6.1913">
        <ele>1145.8000488281</ele>
        <time>2016-07-14T14:22:45.000Z</time>
      </trkpt>
      <trkpt lat="44.5837" lon="6.19113">
        <ele>1145.4000244141</ele>
        <time>2016-07-14T14:22:55.000Z</time>
      </trkpt>
      <trkpt lat="44.58373" lon="6.19103">
        <ele>1145</ele>
        <time>2016-07-14T14:23:02.000Z</time>
      </trkpt>
      <trkpt lat="44.58367" lon="6.19097">
        <ele>1143.1999511719</ele>
        <time>2016-07-14T14:23:09.000Z</time>
      </trkpt>
      <trkpt lat="44.58362" lon="6.19101">
        <ele>1142.1999511719</ele>
        <time>2016-07-14T14:23:15.000Z</time>
      </trkpt>
      <trkpt lat="44.58356" lon="6.19112">
        <ele>1141.5999755859</ele>
        <time>2016-07-14T14:23:23.000Z</time>
      </trkpt>
      <trkpt lat="44.58341" lon="6.1913">
        <ele>1139.5999755859</ele>
        <time>2016-07-14T14:23:38.000Z</time>
      </trkpt>
      <trkpt lat="44.58338" lon="6.19134">
        <ele>1139</ele>
        <time>2016-07-14T14:23:41.000Z</time>
      </trkpt>
      <trkpt lat="44.58332" lon="6.19141">
        <ele>1138.1999511719</ele>
        <time>2016-07-14T14:23:46.000Z</time>
      </trkpt>
      <trkpt lat="44.5833" lon="6.19145">
        <ele>1138</ele>
        <time>2016-07-14T14:23:49.000Z</time>
      </trkpt>
      <trkpt lat="44.58324" lon="6.19157">
        <ele>1137.5999755859</ele>
        <time>2016-07-14T14:23:57.000Z</time>
      </trkpt>
      <trkpt lat="44.58319" lon="6.19168">
        <ele>1137.1999511719</ele>
        <time>2016-07-14T14:24:05.000Z</time>
      </trkpt>
      <trkpt lat="44.58313" lon="6.19178">
        <ele>1136.5999755859</ele>
        <time>2016-07-14T14:24:13.000Z</time>
      </trkpt>
      <trkpt lat="44.5831" lon="6.19181">
        <ele>1136</ele>
        <time>2016-07-14T14:24:16.000Z</time>
      </trkpt>
      <trkpt lat="44.58302" lon="6.19174">
        <ele>1133.4000244141</ele>
        <time>2016-07-14T14:24:24.000Z</time>
      </trkpt>
      <trkpt lat="44.58302" lon="6.19172">
        <ele>1133.1999511719</ele>
        <time>2016-07-14T14:24:25.000Z</time>
      </trkpt>
      <trkpt lat="44.58305" lon="6.19161">
        <ele>1133</ele>
        <time>2016-07-14T14:24:32.000Z</time>
      </trkpt>
      <trkpt lat="44.58309" lon="6.19159">
        <ele>1133.5999755859</ele>
        <time>2016-07-14T14:24:38.000Z</time>
      </trkpt>
      <trkpt lat="44.58309" lon="6.19161">
        <ele>1133.8000488281</ele>
        <time>2016-07-14T14:24:46.000Z</time>
      </trkpt>
      <trkpt lat="44.5831" lon="6.19164">
        <ele>1134.5999755859</ele>
        <time>2016-07-14T14:24:51.000Z</time>
      </trkpt>
      <trkpt lat="44.58308" lon="6.19162">
        <ele>1133.8000488281</ele>
        <time>2016-07-14T14:24:56.000Z</time>
      </trkpt>
      <trkpt lat="44.58305" lon="6.19157">
        <ele>1132.5999755859</ele>
        <time>2016-07-14T14:25:03.000Z</time>
      </trkpt>
      <trkpt lat="44.58307" lon="6.19152">
        <ele>1132.5999755859</ele>
        <time>2016-07-14T14:25:06.000Z</time>
      </trkpt>
      <trkpt lat="44.5831" lon="6.19144">
        <ele>1132.5999755859</ele>
        <time>2016-07-14T14:25:11.000Z</time>
      </trkpt>
      <trkpt lat="44.58313" lon="6.1913">
        <ele>1132</ele>
        <time>2016-07-14T14:25:19.000Z</time>
      </trkpt>
      <trkpt lat="44.58312" lon="6.19124">
        <ele>1131</ele>
        <time>2016-07-14T14:25:27.000Z</time>
      </trkpt>
      <trkpt lat="44.58309" lon="6.19121">
        <ele>1130.1999511719</ele>
        <time>2016-07-14T14:25:40.000Z</time>
      </trkpt>
      <trkpt lat="44.58301" lon="6.19123">
        <ele>1128.1999511719</ele>
        <time>2016-07-14T14:25:48.000Z</time>
      </trkpt>
      <trkpt lat="44.58295" lon="6.19135">
        <ele>1128</ele>
        <time>2016-07-14T14:25:56.000Z</time>
      </trkpt>
      <trkpt lat="44.58291" lon="6.19144">
        <ele>1127.5999755859</ele>
        <time>2016-07-14T14:26:02.000Z</time>
      </trkpt>
      <trkpt lat="44.58286" lon="6.19151">
        <ele>1126.8000488281</ele>
        <time>2016-07-14T14:26:09.000Z</time>
      </trkpt>
      <trkpt lat="44.58288" lon="6.19148">
        <ele>1127.1999511719</ele>
        <time>2016-07-14T14:26:17.000Z</time>
      </trkpt>
      <trkpt lat="44.58287" lon="6.19151">
        <ele>1127</ele>
        <time>2016-07-14T14:26:34.000Z</time>
      </trkpt>
      <trkpt lat="44.58281" lon="6.19156">
        <ele>1126</ele>
        <time>2016-07-14T14:26:40.000Z</time>
      </trkpt>
      <trkpt lat="44.58273" lon="6.19152">
        <ele>1123.5999755859</ele>
        <time>2016-07-14T14:26:47.000Z</time>
      </trkpt>
      <trkpt lat="44.58274" lon="6.19142">
        <ele>1122.8000488281</ele>
        <time>2016-07-14T14:26:52.000Z</time>
      </trkpt>
      <trkpt lat="44.58275" lon="6.1914">
        <ele>1122.8000488281</ele>
        <time>2016-07-14T14:26:53.000Z</time>
      </trkpt>
      <trkpt lat="44.5828" lon="6.19126">
        <ele>1122.8000488281</ele>
        <time>2016-07-14T14:27:02.000Z</time>
      </trkpt>
      <trkpt lat="44.58283" lon="6.19115">
        <ele>1122.5999755859</ele>
        <time>2016-07-14T14:27:09.000Z</time>
      </trkpt>
      <trkpt lat="44.58285" lon="6.19101">
        <ele>1122</ele>
        <time>2016-07-14T14:27:17.000Z</time>
      </trkpt>
      <trkpt lat="44.58286" lon="6.19096">
        <ele>1121.8000488281</ele>
        <time>2016-07-14T14:27:20.000Z</time>
      </trkpt>
      <trkpt lat="44.58285" lon="6.1909">
        <ele>1120.8000488281</ele>
        <time>2016-07-14T14:27:24.000Z</time>
      </trkpt>
      <trkpt lat="44.58282" lon="6.19078">
        <ele>1118.8000488281</ele>
        <time>2016-07-14T14:27:32.000Z</time>
      </trkpt>
      <trkpt lat="44.58273" lon="6.19072">
        <ele>1115.5999755859</ele>
        <time>2016-07-14T14:27:40.000Z</time>
      </trkpt>
      <trkpt lat="44.5827" lon="6.19075">
        <ele>1114.8000488281</ele>
        <time>2016-07-14T14:27:43.000Z</time>
      </trkpt>
      <trkpt lat="44.58263" lon="6.19085">
        <ele>1113.8000488281</ele>
        <time>2016-07-14T14:27:51.000Z</time>
      </trkpt>
      <trkpt lat="44.58258" lon="6.19095">
        <ele>1113.1999511719</ele>
        <time>2016-07-14T14:27:58.000Z</time>
      </trkpt>
      <trkpt lat="44.58251" lon="6.19107">
        <ele>1112.1999511719</ele>
        <time>2016-07-14T14:28:07.000Z</time>
      </trkpt>
      <trkpt lat="44.58246" lon="6.19115">
        <ele>1111.5999755859</ele>
        <time>2016-07-14T14:28:13.000Z</time>
      </trkpt>
      <trkpt lat="44.58239" lon="6.19124">
        <ele>1111</ele>
        <time>2016-07-14T14:28:20.000Z</time>
      </trkpt>
      <trkpt lat="44.58232" lon="6.19132">
        <ele>1110</ele>
        <time>2016-07-14T14:28:27.000Z</time>
      </trkpt>
      <trkpt lat="44.58225" lon="6.19132">
        <ele>1108</ele>
        <time>2016-07-14T14:28:33.000Z</time>
      </trkpt>
      <trkpt lat="44.58222" lon="6.19127">
        <ele>1106.5999755859</ele>
        <time>2016-07-14T14:28:37.000Z</time>
      </trkpt>
      <trkpt lat="44.58222" lon="6.19114">
        <ele>1105</ele>
        <time>2016-07-14T14:28:44.000Z</time>
      </trkpt>
      <trkpt lat="44.58226" lon="6.19102">
        <ele>1104.8000488281</ele>
        <time>2016-07-14T14:28:51.000Z</time>
      </trkpt>
      <trkpt lat="44.58231" lon="6.19091">
        <ele>1104.5999755859</ele>
        <time>2016-07-14T14:28:58.000Z</time>
      </trkpt>
      <trkpt lat="44.58233" lon="6.19084">
        <ele>1104.8000488281</ele>
        <time>2016-07-14T14:29:02.000Z</time>
      </trkpt>
      <trkpt lat="44.58234" lon="6.19076">
        <ele>1104.4000244141</ele>
        <time>2016-07-14T14:29:07.000Z</time>
      </trkpt>
      <trkpt lat="44.58234" lon="6.19074">
        <ele>1104</ele>
        <time>2016-07-14T14:29:09.000Z</time>
      </trkpt>
      <trkpt lat="44.58233" lon="6.19072">
        <ele>1103.5999755859</ele>
        <time>2016-07-14T14:29:10.000Z</time>
      </trkpt>
      <trkpt lat="44.58229" lon="6.19063">
        <ele>1101.4000244141</ele>
        <time>2016-07-14T14:29:17.000Z</time>
      </trkpt>
      <trkpt lat="44.58222" lon="6.19058">
        <ele>1098.8000488281</ele>
        <time>2016-07-14T14:29:24.000Z</time>
      </trkpt>
      <trkpt lat="44.58215" lon="6.19063">
        <ele>1097.1999511719</ele>
        <time>2016-07-14T14:29:31.000Z</time>
      </trkpt>
      <trkpt lat="44.58207" lon="6.19077">
        <ele>1096.5999755859</ele>
        <time>2016-07-14T14:29:41.000Z</time>
      </trkpt>
      <trkpt lat="44.58205" lon="6.1908">
        <ele>1096.1999511719</ele>
        <time>2016-07-14T14:29:44.000Z</time>
      </trkpt>
      <trkpt lat="44.58199" lon="6.19092">
        <ele>1096.1999511719</ele>
        <time>2016-07-14T14:29:52.000Z</time>
      </trkpt>
      <trkpt lat="44.58199" lon="6.19094">
        <ele>1096.1999511719</ele>
        <time>2016-07-14T14:29:53.000Z</time>
      </trkpt>
      <trkpt lat="44.58194" lon="6.19103">
        <ele>1096</ele>
        <time>2016-07-14T14:30:00.000Z</time>
      </trkpt>
      <trkpt lat="44.58187" lon="6.19113">
        <ele>1095.5999755859</ele>
        <time>2016-07-14T14:30:08.000Z</time>
      </trkpt>
      <trkpt lat="44.58181" lon="6.19122">
        <ele>1094.8000488281</ele>
        <time>2016-07-14T14:30:15.000Z</time>
      </trkpt>
      <trkpt lat="44.58177" lon="6.19126">
        <ele>1094.1999511719</ele>
        <time>2016-07-14T14:30:18.000Z</time>
      </trkpt>
      <trkpt lat="44.58173" lon="6.19127">
        <ele>1092.8000488281</ele>
        <time>2016-07-14T14:30:22.000Z</time>
      </trkpt>
      <trkpt lat="44.58167" lon="6.19126">
        <ele>1090.8000488281</ele>
        <time>2016-07-14T14:30:27.000Z</time>
      </trkpt>
      <trkpt lat="44.58165" lon="6.19124">
        <ele>1090.1999511719</ele>
        <time>2016-07-14T14:30:29.000Z</time>
      </trkpt>
      <trkpt lat="44.58162" lon="6.19113">
        <ele>1088.4000244141</ele>
        <time>2016-07-14T14:30:36.000Z</time>
      </trkpt>
      <trkpt lat="44.58163" lon="6.19105">
        <ele>1088.1999511719</ele>
        <time>2016-07-14T14:30:40.000Z</time>
      </trkpt>
      <trkpt lat="44.58164" lon="6.19101">
        <ele>1087.8000488281</ele>
        <time>2016-07-14T14:30:46.000Z</time>
      </trkpt>
      <trkpt lat="44.58166" lon="6.19093">
        <ele>1087.5999755859</ele>
        <time>2016-07-14T14:30:50.000Z</time>
      </trkpt>
      <trkpt lat="44.58169" lon="6.19083">
        <ele>1086.8000488281</ele>
        <time>2016-07-14T14:30:56.000Z</time>
      </trkpt>
      <trkpt lat="44.58168" lon="6.19066">
        <ele>1084.8000488281</ele>
        <time>2016-07-14T14:31:05.000Z</time>
      </trkpt>
      <trkpt lat="44.58166" lon="6.19055">
        <ele>1083</ele>
        <time>2016-07-14T14:31:12.000Z</time>
      </trkpt>
      <trkpt lat="44.58165" lon="6.19054">
        <ele>1082.5999755859</ele>
        <time>2016-07-14T14:31:13.000Z</time>
      </trkpt>
      <trkpt lat="44.58158" lon="6.19057">
        <ele>1081.1999511719</ele>
        <time>2016-07-14T14:31:19.000Z</time>
      </trkpt>
      <trkpt lat="44.58157" lon="6.19059">
        <ele>1081</ele>
        <time>2016-07-14T14:31:20.000Z</time>
      </trkpt>
      <trkpt lat="44.58152" lon="6.19073">
        <ele>1081.4000244141</ele>
        <time>2016-07-14T14:31:28.000Z</time>
      </trkpt>
      <trkpt lat="44.58148" lon="6.19087">
        <ele>1082</ele>
        <time>2016-07-14T14:31:36.000Z</time>
      </trkpt>
      <trkpt lat="44.58141" lon="6.191">
        <ele>1081</ele>
        <time>2016-07-14T14:31:45.000Z</time>
      </trkpt>
      <trkpt lat="44.58136" lon="6.19111">
        <ele>1080.1999511719</ele>
        <time>2016-07-14T14:31:52.000Z</time>
      </trkpt>
      <trkpt lat="44.58135" lon="6.19117">
        <ele>1080.4000244141</ele>
        <time>2016-07-14T14:31:55.000Z</time>
      </trkpt>
      <trkpt lat="44.58132" lon="6.19122">
        <ele>1079.5999755859</ele>
        <time>2016-07-14T14:31:59.000Z</time>
      </trkpt>
      <trkpt lat="44.58125" lon="6.19117">
        <ele>1077.1999511719</ele>
        <time>2016-07-14T14:32:06.000Z</time>
      </trkpt>
      <trkpt lat="44.58125" lon="6.19113">
        <ele>1076.8000488281</ele>
        <time>2016-07-14T14:32:08.000Z</time>
      </trkpt>
      <trkpt lat="44.58125" lon="6.19108">
        <ele>1076.5999755859</ele>
        <time>2016-07-14T14:32:11.000Z</time>
      </trkpt>
      <trkpt lat="44.58125" lon="6.19098">
        <ele>1075.8000488281</ele>
        <time>2016-07-14T14:32:18.000Z</time>
      </trkpt>
      <trkpt lat="44.58126" lon="6.19096">
        <ele>1076</ele>
        <time>2016-07-14T14:32:19.000Z</time>
      </trkpt>
      <trkpt lat="44.58127" lon="6.19093">
        <ele>1076</ele>
        <time>2016-07-14T14:32:21.000Z</time>
      </trkpt>
      <trkpt lat="44.58128" lon="6.19092">
        <ele>1076.4000244141</ele>
        <time>2016-07-14T14:32:31.000Z</time>
      </trkpt>
      <trkpt lat="44.58129" lon="6.19085">
        <ele>1076</ele>
        <time>2016-07-14T14:32:49.000Z</time>
      </trkpt>
      <trkpt lat="44.58129" lon="6.19074">
        <ele>1075.4000244141</ele>
        <time>2016-07-14T14:32:55.000Z</time>
      </trkpt>
      <trkpt lat="44.58129" lon="6.19064">
        <ele>1074.1999511719</ele>
        <time>2016-07-14T14:33:01.000Z</time>
      </trkpt>
      <trkpt lat="44.58128" lon="6.19058">
        <ele>1073.1999511719</ele>
        <time>2016-07-14T14:33:07.000Z</time>
      </trkpt>
      <trkpt lat="44.58127" lon="6.19051">
        <ele>1072.4000244141</ele>
        <time>2016-07-14T14:33:13.000Z</time>
      </trkpt>
      <trkpt lat="44.58127" lon="6.19039">
        <ele>1071.1999511719</ele>
        <time>2016-07-14T14:33:20.000Z</time>
      </trkpt>
      <trkpt lat="44.58126" lon="6.19027">
        <ele>1069.8000488281</ele>
        <time>2016-07-14T14:33:27.000Z</time>
      </trkpt>
      <trkpt lat="44.58123" lon="6.19011">
        <ele>1067.5999755859</ele>
        <time>2016-07-14T14:33:36.000Z</time>
      </trkpt>
      <trkpt lat="44.58119" lon="6.18999">
        <ele>1065.4000244141</ele>
        <time>2016-07-14T14:33:43.000Z</time>
      </trkpt>
      <trkpt lat="44.58114" lon="6.18988">
        <ele>1063</ele>
        <time>2016-07-14T14:33:50.000Z</time>
      </trkpt>
      <trkpt lat="44.58107" lon="6.18971">
        <ele>1059.5999755859</ele>
        <time>2016-07-14T14:34:00.000Z</time>
      </trkpt>
      <trkpt lat="44.58104" lon="6.18964">
        <ele>1058</ele>
        <time>2016-07-14T14:34:05.000Z</time>
      </trkpt>
      <trkpt lat="44.58098" lon="6.18964">
        <ele>1056.8000488281</ele>
        <time>2016-07-14T14:34:11.000Z</time>
      </trkpt>
      <trkpt lat="44.58093" lon="6.18976">
        <ele>1057.4000244141</ele>
        <time>2016-07-14T14:34:19.000Z</time>
      </trkpt>
      <trkpt lat="44.58087" lon="6.18986">
        <ele>1057</ele>
        <time>2016-07-14T14:34:27.000Z</time>
      </trkpt>
      <trkpt lat="44.58079" lon="6.18996">
        <ele>1056.1999511719</ele>
        <time>2016-07-14T14:34:35.000Z</time>
      </trkpt>
      <trkpt lat="44.58072" lon="6.18995">
        <ele>1054.8000488281</ele>
        <time>2016-07-14T14:34:41.000Z</time>
      </trkpt>
      <trkpt lat="44.58072" lon="6.18994">
        <ele>1054.5999755859</ele>
        <time>2016-07-14T14:34:42.000Z</time>
      </trkpt>
      <trkpt lat="44.58071" lon="6.18991">
        <ele>1054.1999511719</ele>
        <time>2016-07-14T14:34:49.000Z</time>
      </trkpt>
      <trkpt lat="44.58073" lon="6.18981">
        <ele>1053.4000244141</ele>
        <time>2016-07-14T14:34:55.000Z</time>
      </trkpt>
      <trkpt lat="44.58076" lon="6.1897">
        <ele>1052.8000488281</ele>
        <time>2016-07-14T14:35:01.000Z</time>
      </trkpt>
      <trkpt lat="44.58078" lon="6.18955">
        <ele>1051.4000244141</ele>
        <time>2016-07-14T14:35:10.000Z</time>
      </trkpt>
      <trkpt lat="44.58077" lon="6.18948">
        <ele>1050</ele>
        <time>2016-07-14T14:35:15.000Z</time>
      </trkpt>
      <trkpt lat="44.58069" lon="6.18948">
        <ele>1048.4000244141</ele>
        <time>2016-07-14T14:35:22.000Z</time>
      </trkpt>
      <trkpt lat="44.58068" lon="6.18949">
        <ele>1048.1999511719</ele>
        <time>2016-07-14T14:35:23.000Z</time>
      </trkpt>
      <trkpt lat="44.58065" lon="6.18952">
        <ele>1048.1999511719</ele>
        <time>2016-07-14T14:35:26.000Z</time>
      </trkpt>
      <trkpt lat="44.58059" lon="6.18957">
        <ele>1047.4000244141</ele>
        <time>2016-07-14T14:35:32.000Z</time>
      </trkpt>
      <trkpt lat="44.58057" lon="6.18957">
        <ele>1047.1999511719</ele>
        <time>2016-07-14T14:35:33.000Z</time>
      </trkpt>
      <trkpt lat="44.58046" lon="6.18966">
        <ele>1045.8000488281</ele>
        <time>2016-07-14T14:35:43.000Z</time>
      </trkpt>
      <trkpt lat="44.58041" lon="6.18971">
        <ele>1045.4000244141</ele>
        <time>2016-07-14T14:35:48.000Z</time>
      </trkpt>
      <trkpt lat="44.58035" lon="6.18972">
        <ele>1044.1999511719</ele>
        <time>2016-07-14T14:35:55.000Z</time>
      </trkpt>
      <trkpt lat="44.58032" lon="6.18967">
        <ele>1043</ele>
        <time>2016-07-14T14:35:59.000Z</time>
      </trkpt>
      <trkpt lat="44.58033" lon="6.18958">
        <ele>1042</ele>
        <time>2016-07-14T14:36:04.000Z</time>
      </trkpt>
      <trkpt lat="44.58034" lon="6.18955">
        <ele>1041.8000488281</ele>
        <time>2016-07-14T14:36:11.000Z</time>
      </trkpt>
      <trkpt lat="44.58035" lon="6.18954">
        <ele>1042</ele>
        <time>2016-07-14T14:36:25.000Z</time>
      </trkpt>
      <trkpt lat="44.58036" lon="6.18954">
        <ele>1042</ele>
        <time>2016-07-14T14:36:34.000Z</time>
      </trkpt>
      <trkpt lat="44.58034" lon="6.18956">
        <ele>1041.8000488281</ele>
        <time>2016-07-14T14:36:40.000Z</time>
      </trkpt>
      <trkpt lat="44.58036" lon="6.18954">
        <ele>1042</ele>
        <time>2016-07-14T14:36:54.000Z</time>
      </trkpt>
      <trkpt lat="44.58035" lon="6.18954">
        <ele>1042</ele>
        <time>2016-07-14T14:36:59.000Z</time>
      </trkpt>
      <trkpt lat="44.58034" lon="6.18955">
        <ele>1042</ele>
        <time>2016-07-14T14:37:09.000Z</time>
      </trkpt>
      <trkpt lat="44.58035" lon="6.18954">
        <ele>1041.8000488281</ele>
        <time>2016-07-14T14:37:18.000Z</time>
      </trkpt>
      <trkpt lat="44.58035" lon="6.18953">
        <ele>1041.8000488281</ele>
        <time>2016-07-14T14:37:23.000Z</time>
      </trkpt>
      <trkpt lat="44.58033" lon="6.18953">
        <ele>1041.4000244141</ele>
        <time>2016-07-14T14:38:35.000Z</time>
      </trkpt>
      <trkpt lat="44.5803" lon="6.18946">
        <ele>1039.8000488281</ele>
        <time>2016-07-14T14:38:56.000Z</time>
      </trkpt>
      <trkpt lat="44.58031" lon="6.18945">
        <ele>1039.8000488281</ele>
        <time>2016-07-14T14:38:57.000Z</time>
      </trkpt>
      <trkpt lat="44.58034" lon="6.18942">
        <ele>1040</ele>
        <time>2016-07-14T14:39:00.000Z</time>
      </trkpt>
      <trkpt lat="44.5804" lon="6.18935">
        <ele>1040.4000244141</ele>
        <time>2016-07-14T14:39:06.000Z</time>
      </trkpt>
      <trkpt lat="44.58042" lon="6.18934">
        <ele>1040.5999755859</ele>
        <time>2016-07-14T14:39:07.000Z</time>
      </trkpt>
      <trkpt lat="44.58046" lon="6.18933">
        <ele>1041.5999755859</ele>
        <time>2016-07-14T14:39:10.000Z</time>
      </trkpt>
      <trkpt lat="44.5805" lon="6.18925">
        <ele>1041.1999511719</ele>
        <time>2016-07-14T14:39:15.000Z</time>
      </trkpt>
      <trkpt lat="44.58048" lon="6.18915">
        <ele>1039.5999755859</ele>
        <time>2016-07-14T14:39:21.000Z</time>
      </trkpt>
      <trkpt lat="44.58042" lon="6.1891">
        <ele>1037.5999755859</ele>
        <time>2016-07-14T14:39:27.000Z</time>
      </trkpt>
      <trkpt lat="44.58041" lon="6.18909">
        <ele>1037.1999511719</ele>
        <time>2016-07-14T14:39:28.000Z</time>
      </trkpt>
      <trkpt lat="44.58033" lon="6.18913">
        <ele>1036</ele>
        <time>2016-07-14T14:39:34.000Z</time>
      </trkpt>
      <trkpt lat="44.58024" lon="6.1892">
        <ele>1034.8000488281</ele>
        <time>2016-07-14T14:39:42.000Z</time>
      </trkpt>
      <trkpt lat="44.58017" lon="6.18927">
        <ele>1034</ele>
        <time>2016-07-14T14:39:49.000Z</time>
      </trkpt>
      <trkpt lat="44.58009" lon="6.1893">
        <ele>1032.4000244141</ele>
        <time>2016-07-14T14:39:56.000Z</time>
      </trkpt>
      <trkpt lat="44.58007" lon="6.1893">
        <ele>1032.1999511719</ele>
        <time>2016-07-14T14:39:57.000Z</time>
      </trkpt>
      <trkpt lat="44.57999" lon="6.18929">
        <ele>1030</ele>
        <time>2016-07-14T14:40:03.000Z</time>
      </trkpt>
      <trkpt lat="44.57991" lon="6.18931">
        <ele>1028.1999511719</ele>
        <time>2016-07-14T14:40:10.000Z</time>
      </trkpt>
      <trkpt lat="44.57986" lon="6.18935">
        <ele>1027.1999511719</ele>
        <time>2016-07-14T14:40:15.000Z</time>
      </trkpt>
      <trkpt lat="44.57984" lon="6.1894">
        <ele>1026.8000488281</ele>
        <time>2016-07-14T14:40:20.000Z</time>
      </trkpt>
      <trkpt lat="44.57977" lon="6.18944">
        <ele>1025</ele>
        <time>2016-07-14T14:40:26.000Z</time>
      </trkpt>
      <trkpt lat="44.57972" lon="6.1895">
        <ele>1023.799987793</ele>
        <time>2016-07-14T14:40:32.000Z</time>
      </trkpt>
      <trkpt lat="44.57971" lon="6.18953">
        <ele>1023.5999755859</ele>
        <time>2016-07-14T14:40:34.000Z</time>
      </trkpt>
      <trkpt lat="44.57965" lon="6.1897">
        <ele>1022.799987793</ele>
        <time>2016-07-14T14:40:45.000Z</time>
      </trkpt>
      <trkpt lat="44.57965" lon="6.18972">
        <ele>1022.799987793</ele>
        <time>2016-07-14T14:40:46.000Z</time>
      </trkpt>
      <trkpt lat="44.57964" lon="6.18982">
        <ele>1023</ele>
        <time>2016-07-14T14:40:52.000Z</time>
      </trkpt>
      <trkpt lat="44.57962" lon="6.1899">
        <ele>1022.799987793</ele>
        <time>2016-07-14T14:40:57.000Z</time>
      </trkpt>
      <trkpt lat="44.57961" lon="6.18994">
        <ele>1022.799987793</ele>
        <time>2016-07-14T14:40:59.000Z</time>
      </trkpt>
      <trkpt lat="44.57961" lon="6.19005">
        <ele>1023.200012207</ele>
        <time>2016-07-14T14:41:05.000Z</time>
      </trkpt>
      <trkpt lat="44.57957" lon="6.19018">
        <ele>1023</ele>
        <time>2016-07-14T14:41:13.000Z</time>
      </trkpt>
      <trkpt lat="44.57957" lon="6.19019">
        <ele>1023</ele>
        <time>2016-07-14T14:41:14.000Z</time>
      </trkpt>
      <trkpt lat="44.57957" lon="6.19023">
        <ele>1023.200012207</ele>
        <time>2016-07-14T14:41:20.000Z</time>
      </trkpt>
      <trkpt lat="44.57957" lon="6.19022">
        <ele>1023.200012207</ele>
        <time>2016-07-14T14:41:25.000Z</time>
      </trkpt>
      <trkpt lat="44.57958" lon="6.1902">
        <ele>1023.5999755859</ele>
        <time>2016-07-14T14:41:30.000Z</time>
      </trkpt>
      <trkpt lat="44.57956" lon="6.19027">
        <ele>1023.200012207</ele>
        <time>2016-07-14T14:41:38.000Z</time>
      </trkpt>
      <trkpt lat="44.57953" lon="6.19043">
        <ele>1023.4000244141</ele>
        <time>2016-07-14T14:41:46.000Z</time>
      </trkpt>
      <trkpt lat="44.57954" lon="6.19061">
        <ele>1024.8000488281</ele>
        <time>2016-07-14T14:41:56.000Z</time>
      </trkpt>
      <trkpt lat="44.57955" lon="6.1908">
        <ele>1025.4000244141</ele>
        <time>2016-07-14T14:42:06.000Z</time>
      </trkpt>
      <trkpt lat="44.57956" lon="6.191">
        <ele>1026</ele>
        <time>2016-07-14T14:42:17.000Z</time>
      </trkpt>
      <trkpt lat="44.57959" lon="6.19123">
        <ele>1027.5999755859</ele>
        <time>2016-07-14T14:42:29.000Z</time>
      </trkpt>
      <trkpt lat="44.57965" lon="6.19143">
        <ele>1029.8000488281</ele>
        <time>2016-07-14T14:42:40.000Z</time>
      </trkpt>
      <trkpt lat="44.57971" lon="6.19159">
        <ele>1032.4000244141</ele>
        <time>2016-07-14T14:42:49.000Z</time>
      </trkpt>
      <trkpt lat="44.57976" lon="6.19174">
        <ele>1034.8000488281</ele>
        <time>2016-07-14T14:42:58.000Z</time>
      </trkpt>
      <trkpt lat="44.57976" lon="6.19176">
        <ele>1034.8000488281</ele>
        <time>2016-07-14T14:43:09.000Z</time>
      </trkpt>
      <trkpt lat="44.57976" lon="6.19178">
        <ele>1035</ele>
        <time>2016-07-14T14:43:26.000Z</time>
      </trkpt>
      <trkpt lat="44.57976" lon="6.19181">
        <ele>1035</ele>
        <time>2016-07-14T14:45:40.000Z</time>
      </trkpt>
      <trkpt lat="44.57975" lon="6.1918">
        <ele>1034.8000488281</ele>
        <time>2016-07-14T14:45:52.000Z</time>
      </trkpt>
      <trkpt lat="44.57977" lon="6.19183">
        <ele>1035.4000244141</ele>
        <time>2016-07-14T14:46:40.000Z</time>
      </trkpt>
      <trkpt lat="44.5798" lon="6.19189">
        <ele>1036.8000488281</ele>
        <time>2016-07-14T14:46:45.000Z</time>
      </trkpt>
      <trkpt lat="44.57985" lon="6.19201">
        <ele>1038.8000488281</ele>
        <time>2016-07-14T14:46:52.000Z</time>
      </trkpt>
      <trkpt lat="44.57984" lon="6.19202">
        <ele>1038.8000488281</ele>
        <time>2016-07-14T14:46:53.000Z</time>
      </trkpt>
      <trkpt lat="44.57983" lon="6.19207">
        <ele>1038.8000488281</ele>
        <time>2016-07-14T14:46:56.000Z</time>
      </trkpt>
      <trkpt lat="44.57981" lon="6.19213">
        <ele>1038.8000488281</ele>
        <time>2016-07-14T14:47:00.000Z</time>
      </trkpt>
      <trkpt lat="44.5798" lon="6.19215">
        <ele>1038.8000488281</ele>
        <time>2016-07-14T14:47:02.000Z</time>
      </trkpt>
      <trkpt lat="44.57979" lon="6.19217">
        <ele>1038.4000244141</ele>
        <time>2016-07-14T14:47:07.000Z</time>
      </trkpt>
      <trkpt lat="44.57979" lon="6.19216">
        <ele>1038.4000244141</ele>
        <time>2016-07-14T14:47:15.000Z</time>
      </trkpt>
      <trkpt lat="44.57978" lon="6.19217">
        <ele>1038.1999511719</ele>
        <time>2016-07-14T14:47:20.000Z</time>
      </trkpt>
      <trkpt lat="44.57978" lon="6.19216">
        <ele>1038.1999511719</ele>
        <time>2016-07-14T14:47:28.000Z</time>
      </trkpt>
      <trkpt lat="44.57976" lon="6.19219">
        <ele>1037.8000488281</ele>
        <time>2016-07-14T14:47:33.000Z</time>
      </trkpt>
      <trkpt lat="44.5797" lon="6.19227">
        <ele>1037</ele>
        <time>2016-07-14T14:47:40.000Z</time>
      </trkpt>
      <trkpt lat="44.57965" lon="6.19234">
        <ele>1036.1999511719</ele>
        <time>2016-07-14T14:47:47.000Z</time>
      </trkpt>
      <trkpt lat="44.57959" lon="6.19241">
        <ele>1035.4000244141</ele>
        <time>2016-07-14T14:47:55.000Z</time>
      </trkpt>
      <trkpt lat="44.57954" lon="6.19249">
        <ele>1034.4000244141</ele>
        <time>2016-07-14T14:48:01.000Z</time>
      </trkpt>
      <trkpt lat="44.57951" lon="6.19252">
        <ele>1034</ele>
        <time>2016-07-14T14:48:04.000Z</time>
      </trkpt>
      <trkpt lat="44.57949" lon="6.19263">
        <ele>1034</ele>
        <time>2016-07-14T14:48:11.000Z</time>
      </trkpt>
      <trkpt lat="44.57945" lon="6.19273">
        <ele>1033.4000244141</ele>
        <time>2016-07-14T14:48:18.000Z</time>
      </trkpt>
      <trkpt lat="44.57944" lon="6.19275">
        <ele>1033.1999511719</ele>
        <time>2016-07-14T14:48:20.000Z</time>
      </trkpt>
      <trkpt lat="44.57941" lon="6.1928">
        <ele>1032.5999755859</ele>
        <time>2016-07-14T14:48:25.000Z</time>
      </trkpt>
      <trkpt lat="44.57939" lon="6.19289">
        <ele>1032.5999755859</ele>
        <time>2016-07-14T14:48:31.000Z</time>
      </trkpt>
      <trkpt lat="44.57938" lon="6.19296">
        <ele>1033</ele>
        <time>2016-07-14T14:48:37.000Z</time>
      </trkpt>
      <trkpt lat="44.57938" lon="6.19298">
        <ele>1033</ele>
        <time>2016-07-14T14:48:38.000Z</time>
      </trkpt>
      <trkpt lat="44.57934" lon="6.19306">
        <ele>1032.8000488281</ele>
        <time>2016-07-14T14:48:44.000Z</time>
      </trkpt>
      <trkpt lat="44.57931" lon="6.19315">
        <ele>1032.8000488281</ele>
        <time>2016-07-14T14:48:50.000Z</time>
      </trkpt>
      <trkpt lat="44.57929" lon="6.19324">
        <ele>1032.5999755859</ele>
        <time>2016-07-14T14:48:55.000Z</time>
      </trkpt>
      <trkpt lat="44.57927" lon="6.19332">
        <ele>1032.1999511719</ele>
        <time>2016-07-14T14:48:59.000Z</time>
      </trkpt>
      <trkpt lat="44.57922" lon="6.19346">
        <ele>1031.5999755859</ele>
        <time>2016-07-14T14:49:07.000Z</time>
      </trkpt>
      <trkpt lat="44.57922" lon="6.19347">
        <ele>1031.5999755859</ele>
        <time>2016-07-14T14:49:08.000Z</time>
      </trkpt>
      <trkpt lat="44.57918" lon="6.19355">
        <ele>1030.8000488281</ele>
        <time>2016-07-14T14:49:14.000Z</time>
      </trkpt>
      <trkpt lat="44.57918" lon="6.19357">
        <ele>1030.8000488281</ele>
        <time>2016-07-14T14:49:15.000Z</time>
      </trkpt>
      <trkpt lat="44.57917" lon="6.19363">
        <ele>1031.1999511719</ele>
        <time>2016-07-14T14:49:18.000Z</time>
      </trkpt>
      <trkpt lat="44.57914" lon="6.19371">
        <ele>1031.4000244141</ele>
        <time>2016-07-14T14:49:23.000Z</time>
      </trkpt>
      <trkpt lat="44.57912" lon="6.19377">
        <ele>1031.5999755859</ele>
        <time>2016-07-14T14:49:27.000Z</time>
      </trkpt>
      <trkpt lat="44.57905" lon="6.19393">
        <ele>1031.4000244141</ele>
        <time>2016-07-14T14:49:37.000Z</time>
      </trkpt>
      <trkpt lat="44.57895" lon="6.19407">
        <ele>1029.8000488281</ele>
        <time>2016-07-14T14:49:46.000Z</time>
      </trkpt>
      <trkpt lat="44.57889" lon="6.19419">
        <ele>1028.5999755859</ele>
        <time>2016-07-14T14:49:54.000Z</time>
      </trkpt>
      <trkpt lat="44.57888" lon="6.19421">
        <ele>1028.4000244141</ele>
        <time>2016-07-14T14:49:56.000Z</time>
      </trkpt>
      <trkpt lat="44.57887" lon="6.19425">
        <ele>1028.4000244141</ele>
        <time>2016-07-14T14:50:00.000Z</time>
      </trkpt>
      <trkpt lat="44.57887" lon="6.1943">
        <ele>1028.8000488281</ele>
        <time>2016-07-14T14:50:04.000Z</time>
      </trkpt>
      <trkpt lat="44.57888" lon="6.19434">
        <ele>1029.1999511719</ele>
        <time>2016-07-14T14:50:07.000Z</time>
      </trkpt>
      <trkpt lat="44.5789" lon="6.19443">
        <ele>1030.1999511719</ele>
        <time>2016-07-14T14:50:14.000Z</time>
      </trkpt>
      <trkpt lat="44.5789" lon="6.19445">
        <ele>1030.4000244141</ele>
        <time>2016-07-14T14:50:15.000Z</time>
      </trkpt>
      <trkpt lat="44.5789" lon="6.19452">
        <ele>1030.5999755859</ele>
        <time>2016-07-14T14:50:18.000Z</time>
      </trkpt>
      <trkpt lat="44.57888" lon="6.19457">
        <ele>1030.1999511719</ele>
        <time>2016-07-14T14:50:22.000Z</time>
      </trkpt>
      <trkpt lat="44.57882" lon="6.19462">
        <ele>1029</ele>
        <time>2016-07-14T14:50:28.000Z</time>
      </trkpt>
      <trkpt lat="44.57876" lon="6.19468">
        <ele>1027.8000488281</ele>
        <time>2016-07-14T14:50:33.000Z</time>
      </trkpt>
      <trkpt lat="44.57873" lon="6.1947">
        <ele>1027</ele>
        <time>2016-07-14T14:50:36.000Z</time>
      </trkpt>
      <trkpt lat="44.57871" lon="6.19481">
        <ele>1027</ele>
        <time>2016-07-14T14:50:43.000Z</time>
      </trkpt>
      <trkpt lat="44.57873" lon="6.19484">
        <ele>1027.5999755859</ele>
        <time>2016-07-14T14:50:46.000Z</time>
      </trkpt>
      <trkpt lat="44.57874" lon="6.19485">
        <ele>1028</ele>
        <time>2016-07-14T14:50:48.000Z</time>
      </trkpt>
      <trkpt lat="44.57875" lon="6.19488">
        <ele>1028.1999511719</ele>
        <time>2016-07-14T14:50:50.000Z</time>
      </trkpt>
      <trkpt lat="44.57874" lon="6.19494">
        <ele>1027.8000488281</ele>
        <time>2016-07-14T14:50:55.000Z</time>
      </trkpt>
      <trkpt lat="44.57875" lon="6.19507">
        <ele>1027.8000488281</ele>
        <time>2016-07-14T14:51:03.000Z</time>
      </trkpt>
      <trkpt lat="44.5787" lon="6.19516">
        <ele>1025.8000488281</ele>
        <time>2016-07-14T14:51:12.000Z</time>
      </trkpt>
      <trkpt lat="44.57864" lon="6.19527">
        <ele>1023.799987793</ele>
        <time>2016-07-14T14:51:19.000Z</time>
      </trkpt>
      <trkpt lat="44.57864" lon="6.19529">
        <ele>1023.5999755859</ele>
        <time>2016-07-14T14:51:20.000Z</time>
      </trkpt>
      <trkpt lat="44.57864" lon="6.19535">
        <ele>1023.4000244141</ele>
        <time>2016-07-14T14:51:26.000Z</time>
      </trkpt>
      <trkpt lat="44.57863" lon="6.19539">
        <ele>1023</ele>
        <time>2016-07-14T14:51:29.000Z</time>
      </trkpt>
      <trkpt lat="44.57861" lon="6.19544">
        <ele>1022.4000244141</ele>
        <time>2016-07-14T14:51:32.000Z</time>
      </trkpt>
      <trkpt lat="44.57856" lon="6.19547">
        <ele>1021</ele>
        <time>2016-07-14T14:51:35.000Z</time>
      </trkpt>
      <trkpt lat="44.57851" lon="6.19556">
        <ele>1020</ele>
        <time>2016-07-14T14:51:40.000Z</time>
      </trkpt>
      <trkpt lat="44.57851" lon="6.19561">
        <ele>1020.200012207</ele>
        <time>2016-07-14T14:51:42.000Z</time>
      </trkpt>
      <trkpt lat="44.5785" lon="6.19577">
        <ele>1019.799987793</ele>
        <time>2016-07-14T14:51:49.000Z</time>
      </trkpt>
      <trkpt lat="44.57846" lon="6.19583">
        <ele>1019</ele>
        <time>2016-07-14T14:51:53.000Z</time>
      </trkpt>
      <trkpt lat="44.57846" lon="6.19595">
        <ele>1019</ele>
        <time>2016-07-14T14:52:00.000Z</time>
      </trkpt>
      <trkpt lat="44.57842" lon="6.19606">
        <ele>1018.200012207</ele>
        <time>2016-07-14T14:52:08.000Z</time>
      </trkpt>
      <trkpt lat="44.57839" lon="6.19613">
        <ele>1017.4000244141</ele>
        <time>2016-07-14T14:52:14.000Z</time>
      </trkpt>
      <trkpt lat="44.57838" lon="6.19617">
        <ele>1017.200012207</ele>
        <time>2016-07-14T14:52:16.000Z</time>
      </trkpt>
      <trkpt lat="44.57839" lon="6.19626">
        <ele>1018.200012207</ele>
        <time>2016-07-14T14:52:21.000Z</time>
      </trkpt>
      <trkpt lat="44.57842" lon="6.19646">
        <ele>1020</ele>
        <time>2016-07-14T14:52:31.000Z</time>
      </trkpt>
      <trkpt lat="44.57846" lon="6.19666">
        <ele>1021.799987793</ele>
        <time>2016-07-14T14:52:42.000Z</time>
      </trkpt>
      <trkpt lat="44.57849" lon="6.19684">
        <ele>1023.200012207</ele>
        <time>2016-07-14T14:52:52.000Z</time>
      </trkpt>
      <trkpt lat="44.57852" lon="6.19701">
        <ele>1025</ele>
        <time>2016-07-14T14:53:02.000Z</time>
      </trkpt>
      <trkpt lat="44.57853" lon="6.19718">
        <ele>1026</ele>
        <time>2016-07-14T14:53:11.000Z</time>
      </trkpt>
      <trkpt lat="44.57846" lon="6.19725">
        <ele>1025.1999511719</ele>
        <time>2016-07-14T14:53:18.000Z</time>
      </trkpt>
      <trkpt lat="44.57837" lon="6.19724">
        <ele>1023.5999755859</ele>
        <time>2016-07-14T14:53:25.000Z</time>
      </trkpt>
      <trkpt lat="44.57827" lon="6.19731">
        <ele>1022.5999755859</ele>
        <time>2016-07-14T14:53:34.000Z</time>
      </trkpt>
      <trkpt lat="44.57819" lon="6.19736">
        <ele>1021.799987793</ele>
        <time>2016-07-14T14:53:41.000Z</time>
      </trkpt>
      <trkpt lat="44.57808" lon="6.19746">
        <ele>1021</ele>
        <time>2016-07-14T14:53:50.000Z</time>
      </trkpt>
      <trkpt lat="44.57801" lon="6.1976">
        <ele>1021.200012207</ele>
        <time>2016-07-14T14:53:58.000Z</time>
      </trkpt>
      <trkpt lat="44.57794" lon="6.19775">
        <ele>1021.4000244141</ele>
        <time>2016-07-14T14:54:06.000Z</time>
      </trkpt>
      <trkpt lat="44.57789" lon="6.19785">
        <ele>1021.200012207</ele>
        <time>2016-07-14T14:54:12.000Z</time>
      </trkpt>
      <trkpt lat="44.57788" lon="6.19793">
        <ele>1022</ele>
        <time>2016-07-14T14:54:16.000Z</time>
      </trkpt>
      <trkpt lat="44.57783" lon="6.19796">
        <ele>1021.4000244141</ele>
        <time>2016-07-14T14:54:22.000Z</time>
      </trkpt>
      <trkpt lat="44.57782" lon="6.19796">
        <ele>1021</ele>
        <time>2016-07-14T14:54:24.000Z</time>
      </trkpt>
      <trkpt lat="44.5778" lon="6.19797">
        <ele>1020.799987793</ele>
        <time>2016-07-14T14:54:26.000Z</time>
      </trkpt>
      <trkpt lat="44.57773" lon="6.19812">
        <ele>1021</ele>
        <time>2016-07-14T14:54:36.000Z</time>
      </trkpt>
      <trkpt lat="44.57767" lon="6.19828">
        <ele>1021.4000244141</ele>
        <time>2016-07-14T14:54:45.000Z</time>
      </trkpt>
      <trkpt lat="44.57761" lon="6.19845">
        <ele>1021.799987793</ele>
        <time>2016-07-14T14:54:52.000Z</time>
      </trkpt>
      <trkpt lat="44.57747" lon="6.19858">
        <ele>1020.799987793</ele>
        <time>2016-07-14T14:54:58.000Z</time>
      </trkpt>
      <trkpt lat="44.57732" lon="6.19872">
        <ele>1020</ele>
        <time>2016-07-14T14:55:04.000Z</time>
      </trkpt>
      <trkpt lat="44.57726" lon="6.19884">
        <ele>1020.5999755859</ele>
        <time>2016-07-14T14:55:08.000Z</time>
      </trkpt>
      <trkpt lat="44.57718" lon="6.19897">
        <ele>1020.799987793</ele>
        <time>2016-07-14T14:55:13.000Z</time>
      </trkpt>
      <trkpt lat="44.57712" lon="6.19909">
        <ele>1021</ele>
        <time>2016-07-14T14:55:20.000Z</time>
      </trkpt>
      <trkpt lat="44.57705" lon="6.19924">
        <ele>1021.4000244141</ele>
        <time>2016-07-14T14:55:29.000Z</time>
      </trkpt>
      <trkpt lat="44.577" lon="6.19933">
        <ele>1021.4000244141</ele>
        <time>2016-07-14T14:55:35.000Z</time>
      </trkpt>
      <trkpt lat="44.57699" lon="6.19933">
        <ele>1021</ele>
        <time>2016-07-14T14:55:44.000Z</time>
      </trkpt>
      <trkpt lat="44.57698" lon="6.19935">
        <ele>1021</ele>
        <time>2016-07-14T14:55:58.000Z</time>
      </trkpt>
      <trkpt lat="44.57699" lon="6.19944">
        <ele>1022.200012207</ele>
        <time>2016-07-14T14:57:08.000Z</time>
      </trkpt>
      <trkpt lat="44.57699" lon="6.19956">
        <ele>1023.4000244141</ele>
        <time>2016-07-14T14:57:15.000Z</time>
      </trkpt>
      <trkpt lat="44.57698" lon="6.19967">
        <ele>1024.1999511719</ele>
        <time>2016-07-14T14:57:22.000Z</time>
      </trkpt>
      <trkpt lat="44.57698" lon="6.19969">
        <ele>1024.1999511719</ele>
        <time>2016-07-14T14:57:23.000Z</time>
      </trkpt>
      <trkpt lat="44.57696" lon="6.19975">
        <ele>1024.4000244141</ele>
        <time>2016-07-14T14:57:27.000Z</time>
      </trkpt>
      <trkpt lat="44.57689" lon="6.19988">
        <ele>1024</ele>
        <time>2016-07-14T14:57:36.000Z</time>
      </trkpt>
      <trkpt lat="44.57683" lon="6.19998">
        <ele>1023.200012207</ele>
        <time>2016-07-14T14:57:44.000Z</time>
      </trkpt>
      <trkpt lat="44.57676" lon="6.20007">
        <ele>1022.4000244141</ele>
        <time>2016-07-14T14:57:52.000Z</time>
      </trkpt>
      <trkpt lat="44.57674" lon="6.20018">
        <ele>1022.5999755859</ele>
        <time>2016-07-14T14:57:59.000Z</time>
      </trkpt>
      <trkpt lat="44.57672" lon="6.20031">
        <ele>1023.200012207</ele>
        <time>2016-07-14T14:58:06.000Z</time>
      </trkpt>
      <trkpt lat="44.57673" lon="6.20041">
        <ele>1023.799987793</ele>
        <time>2016-07-14T14:58:11.000Z</time>
      </trkpt>
      <trkpt lat="44.57672" lon="6.20052">
        <ele>1024</ele>
        <time>2016-07-14T14:58:17.000Z</time>
      </trkpt>
      <trkpt lat="44.57671" lon="6.20061">
        <ele>1024</ele>
        <time>2016-07-14T14:58:22.000Z</time>
      </trkpt>
      <trkpt lat="44.57668" lon="6.2007">
        <ele>1023.799987793</ele>
        <time>2016-07-14T14:58:28.000Z</time>
      </trkpt>
      <trkpt lat="44.57667" lon="6.20076">
        <ele>1023.5999755859</ele>
        <time>2016-07-14T14:58:32.000Z</time>
      </trkpt>
      <trkpt lat="44.57664" lon="6.20077">
        <ele>1023.200012207</ele>
        <time>2016-07-14T14:58:37.000Z</time>
      </trkpt>
      <trkpt lat="44.57665" lon="6.20078">
        <ele>1023.200012207</ele>
        <time>2016-07-14T14:58:49.000Z</time>
      </trkpt>
      <trkpt lat="44.57665" lon="6.20077">
        <ele>1023.4000244141</ele>
        <time>2016-07-14T14:58:57.000Z</time>
      </trkpt>
      <trkpt lat="44.57665" lon="6.20076">
        <ele>1023.4000244141</ele>
        <time>2016-07-14T14:59:05.000Z</time>
      </trkpt>
      <trkpt lat="44.57666" lon="6.2007">
        <ele>1023.200012207</ele>
        <time>2016-07-14T14:59:10.000Z</time>
      </trkpt>
      <trkpt lat="44.57666" lon="6.20074">
        <ele>1023.5999755859</ele>
        <time>2016-07-14T14:59:14.000Z</time>
      </trkpt>
      <trkpt lat="44.57662" lon="6.20077">
        <ele>1022.5999755859</ele>
        <time>2016-07-14T14:59:20.000Z</time>
      </trkpt>
      <trkpt lat="44.57662" lon="6.20075">
        <ele>1022.4000244141</ele>
        <time>2016-07-14T14:59:29.000Z</time>
      </trkpt>
      <trkpt lat="44.57663" lon="6.20077">
        <ele>1022.799987793</ele>
        <time>2016-07-14T14:59:34.000Z</time>
      </trkpt>
      <trkpt lat="44.57663" lon="6.20075">
        <ele>1022.5999755859</ele>
        <time>2016-07-14T14:59:42.000Z</time>
      </trkpt>
      <trkpt lat="44.57662" lon="6.20075">
        <ele>1022.5999755859</ele>
        <time>2016-07-14T14:59:57.000Z</time>
      </trkpt>
      <trkpt lat="44.57661" lon="6.20075">
        <ele>1022.200012207</ele>
        <time>2016-07-14T15:00:11.000Z</time>
      </trkpt>
      <trkpt lat="44.57663" lon="6.20075">
        <ele>1022.5999755859</ele>
        <time>2016-07-14T15:00:25.000Z</time>
      </trkpt>
      <trkpt lat="44.57661" lon="6.20076">
        <ele>1022.200012207</ele>
        <time>2016-07-14T15:00:55.000Z</time>
      </trkpt>
      <trkpt lat="44.57658" lon="6.20071">
        <ele>1021.200012207</ele>
        <time>2016-07-14T15:01:44.000Z</time>
      </trkpt>
      <trkpt lat="44.57657" lon="6.20073">
        <ele>1021</ele>
        <time>2016-07-14T15:01:48.000Z</time>
      </trkpt>
      <trkpt lat="44.5766" lon="6.20076">
        <ele>1022</ele>
        <time>2016-07-14T15:02:10.000Z</time>
      </trkpt>
      <trkpt lat="44.5766" lon="6.20078">
        <ele>1022</ele>
        <time>2016-07-14T15:02:13.000Z</time>
      </trkpt>
      <trkpt lat="44.57658" lon="6.20083">
        <ele>1021.799987793</ele>
        <time>2016-07-14T15:02:17.000Z</time>
      </trkpt>
      <trkpt lat="44.57655" lon="6.20097">
        <ele>1022</ele>
        <time>2016-07-14T15:02:25.000Z</time>
      </trkpt>
      <trkpt lat="44.57653" lon="6.20108">
        <ele>1022.200012207</ele>
        <time>2016-07-14T15:02:31.000Z</time>
      </trkpt>
      <trkpt lat="44.5765" lon="6.20119">
        <ele>1022.200012207</ele>
        <time>2016-07-14T15:02:37.000Z</time>
      </trkpt>
      <trkpt lat="44.57648" lon="6.20122">
        <ele>1022</ele>
        <time>2016-07-14T15:02:40.000Z</time>
      </trkpt>
      <trkpt lat="44.57646" lon="6.20126">
        <ele>1021.5999755859</ele>
        <time>2016-07-14T15:02:43.000Z</time>
      </trkpt>
      <trkpt lat="44.57643" lon="6.20128">
        <ele>1021.200012207</ele>
        <time>2016-07-14T15:02:47.000Z</time>
      </trkpt>
      <trkpt lat="44.57641" lon="6.20135">
        <ele>1021.200012207</ele>
        <time>2016-07-14T15:02:52.000Z</time>
      </trkpt>
      <trkpt lat="44.57636" lon="6.20146">
        <ele>1020.5999755859</ele>
        <time>2016-07-14T15:03:00.000Z</time>
      </trkpt>
      <trkpt lat="44.57633" lon="6.20149">
        <ele>1020</ele>
        <time>2016-07-14T15:03:03.000Z</time>
      </trkpt>
      <trkpt lat="44.57629" lon="6.20157">
        <ele>1019.200012207</ele>
        <time>2016-07-14T15:03:10.000Z</time>
      </trkpt>
      <trkpt lat="44.57626" lon="6.2016">
        <ele>1018.5999755859</ele>
        <time>2016-07-14T15:03:13.000Z</time>
      </trkpt>
      <trkpt lat="44.57623" lon="6.20162">
        <ele>1018.200012207</ele>
        <time>2016-07-14T15:03:16.000Z</time>
      </trkpt>
      <trkpt lat="44.57618" lon="6.20169">
        <ele>1017.4000244141</ele>
        <time>2016-07-14T15:03:22.000Z</time>
      </trkpt>
      <trkpt lat="44.57614" lon="6.20178">
        <ele>1017</ele>
        <time>2016-07-14T15:03:28.000Z</time>
      </trkpt>
      <trkpt lat="44.57613" lon="6.20185">
        <ele>1017.200012207</ele>
        <time>2016-07-14T15:03:32.000Z</time>
      </trkpt>
      <trkpt lat="44.57612" lon="6.20193">
        <ele>1017.4000244141</ele>
        <time>2016-07-14T15:03:39.000Z</time>
      </trkpt>
      <trkpt lat="44.57612" lon="6.20187">
        <ele>1017</ele>
        <time>2016-07-14T15:03:46.000Z</time>
      </trkpt>
      <trkpt lat="44.57612" lon="6.20188">
        <ele>1017.200012207</ele>
        <time>2016-07-14T15:03:56.000Z</time>
      </trkpt>
      <trkpt lat="44.57612" lon="6.2019">
        <ele>1017.200012207</ele>
        <time>2016-07-14T15:03:57.000Z</time>
      </trkpt>
      <trkpt lat="44.57612" lon="6.20195">
        <ele>1017.5999755859</ele>
        <time>2016-07-14T15:04:00.000Z</time>
      </trkpt>
      <trkpt lat="44.57609" lon="6.20211">
        <ele>1017.799987793</ele>
        <time>2016-07-14T15:04:09.000Z</time>
      </trkpt>
      <trkpt lat="44.57604" lon="6.20221">
        <ele>1017</ele>
        <time>2016-07-14T15:04:16.000Z</time>
      </trkpt>
      <trkpt lat="44.57595" lon="6.20236">
        <ele>1015.5999755859</ele>
        <time>2016-07-14T15:04:26.000Z</time>
      </trkpt>
      <trkpt lat="44.57588" lon="6.20251">
        <ele>1014.4000244141</ele>
        <time>2016-07-14T15:04:36.000Z</time>
      </trkpt>
      <trkpt lat="44.57587" lon="6.20253">
        <ele>1014.4000244141</ele>
        <time>2016-07-14T15:04:37.000Z</time>
      </trkpt>
      <trkpt lat="44.57581" lon="6.20258">
        <ele>1013</ele>
        <time>2016-07-14T15:04:44.000Z</time>
      </trkpt>
      <trkpt lat="44.5758" lon="6.20258">
        <ele>1012.799987793</ele>
        <time>2016-07-14T15:04:45.000Z</time>
      </trkpt>
      <trkpt lat="44.57571" lon="6.20259">
        <ele>1010.5999755859</ele>
        <time>2016-07-14T15:04:53.000Z</time>
      </trkpt>
      <trkpt lat="44.5757" lon="6.2026">
        <ele>1010.4000244141</ele>
        <time>2016-07-14T15:04:54.000Z</time>
      </trkpt>
      <trkpt lat="44.57564" lon="6.20276">
        <ele>1009.4000244141</ele>
        <time>2016-07-14T15:05:03.000Z</time>
      </trkpt>
      <trkpt lat="44.57562" lon="6.2029">
        <ele>1009.4000244141</ele>
        <time>2016-07-14T15:05:11.000Z</time>
      </trkpt>
      <trkpt lat="44.57567" lon="6.20302">
        <ele>1011.200012207</ele>
        <time>2016-07-14T15:05:18.000Z</time>
      </trkpt>
      <trkpt lat="44.57568" lon="6.20303">
        <ele>1011.4000244141</ele>
        <time>2016-07-14T15:05:19.000Z</time>
      </trkpt>
      <trkpt lat="44.57569" lon="6.20305">
        <ele>1011.799987793</ele>
        <time>2016-07-14T15:05:22.000Z</time>
      </trkpt>
      <trkpt lat="44.57568" lon="6.20307">
        <ele>1011.799987793</ele>
        <time>2016-07-14T15:05:29.000Z</time>
      </trkpt>
      <trkpt lat="44.57564" lon="6.20316">
        <ele>1010.799987793</ele>
        <time>2016-07-14T15:05:34.000Z</time>
      </trkpt>
      <trkpt lat="44.5755" lon="6.20344">
        <ele>1008.200012207</ele>
        <time>2016-07-14T15:05:51.000Z</time>
      </trkpt>
      <trkpt lat="44.57544" lon="6.20356">
        <ele>1007</ele>
        <time>2016-07-14T15:05:58.000Z</time>
      </trkpt>
      <trkpt lat="44.57538" lon="6.20373">
        <ele>1006</ele>
        <time>2016-07-14T15:06:09.000Z</time>
      </trkpt>
      <trkpt lat="44.5754" lon="6.2039">
        <ele>1007.200012207</ele>
        <time>2016-07-14T15:06:18.000Z</time>
      </trkpt>
      <trkpt lat="44.57542" lon="6.20404">
        <ele>1007.799987793</ele>
        <time>2016-07-14T15:06:26.000Z</time>
      </trkpt>
      <trkpt lat="44.57539" lon="6.20422">
        <ele>1006.5999755859</ele>
        <time>2016-07-14T15:06:35.000Z</time>
      </trkpt>
      <trkpt lat="44.57534" lon="6.20438">
        <ele>1004.799987793</ele>
        <time>2016-07-14T15:06:45.000Z</time>
      </trkpt>
      <trkpt lat="44.5753" lon="6.20458">
        <ele>1003.4000244141</ele>
        <time>2016-07-14T15:06:55.000Z</time>
      </trkpt>
      <trkpt lat="44.57526" lon="6.20473">
        <ele>1001.799987793</ele>
        <time>2016-07-14T15:07:03.000Z</time>
      </trkpt>
      <trkpt lat="44.57528" lon="6.20485">
        <ele>1002.4000244141</ele>
        <time>2016-07-14T15:07:10.000Z</time>
      </trkpt>
      <trkpt lat="44.57532" lon="6.205">
        <ele>1003.799987793</ele>
        <time>2016-07-14T15:07:18.000Z</time>
      </trkpt>
      <trkpt lat="44.57536" lon="6.20515">
        <ele>1005.4000244141</ele>
        <time>2016-07-14T15:07:27.000Z</time>
      </trkpt>
      <trkpt lat="44.57538" lon="6.20519">
        <ele>1005.799987793</ele>
        <time>2016-07-14T15:07:33.000Z</time>
      </trkpt>
      <trkpt lat="44.57537" lon="6.20519">
        <ele>1005.5999755859</ele>
        <time>2016-07-14T15:07:43.000Z</time>
      </trkpt>
      <trkpt lat="44.57536" lon="6.20528">
        <ele>1005.4000244141</ele>
        <time>2016-07-14T15:08:03.000Z</time>
      </trkpt>
      <trkpt lat="44.57529" lon="6.20537">
        <ele>1004</ele>
        <time>2016-07-14T15:08:10.000Z</time>
      </trkpt>
      <trkpt lat="44.57521" lon="6.20546">
        <ele>1002</ele>
        <time>2016-07-14T15:08:18.000Z</time>
      </trkpt>
      <trkpt lat="44.57512" lon="6.20561">
        <ele>1000.200012207</ele>
        <time>2016-07-14T15:08:28.000Z</time>
      </trkpt>
      <trkpt lat="44.5751" lon="6.20576">
        <ele>1000</ele>
        <time>2016-07-14T15:08:37.000Z</time>
      </trkpt>
      <trkpt lat="44.57513" lon="6.20593">
        <ele>1001.200012207</ele>
        <time>2016-07-14T15:08:46.000Z</time>
      </trkpt>
      <trkpt lat="44.57513" lon="6.20596">
        <ele>1001.4000244141</ele>
        <time>2016-07-14T15:08:47.000Z</time>
      </trkpt>
      <trkpt lat="44.57512" lon="6.20607">
        <ele>1001.4000244141</ele>
        <time>2016-07-14T15:08:53.000Z</time>
      </trkpt>
      <trkpt lat="44.57512" lon="6.20619">
        <ele>1001.799987793</ele>
        <time>2016-07-14T15:09:00.000Z</time>
      </trkpt>
      <trkpt lat="44.57514" lon="6.20634">
        <ele>1002.5999755859</ele>
        <time>2016-07-14T15:09:09.000Z</time>
      </trkpt>
      <trkpt lat="44.57515" lon="6.20648">
        <ele>1003.200012207</ele>
        <time>2016-07-14T15:09:18.000Z</time>
      </trkpt>
      <trkpt lat="44.57514" lon="6.20651">
        <ele>1003</ele>
        <time>2016-07-14T15:09:20.000Z</time>
      </trkpt>
      <trkpt lat="44.57507" lon="6.20659">
        <ele>1001</ele>
        <time>2016-07-14T15:09:27.000Z</time>
      </trkpt>
      <trkpt lat="44.57496" lon="6.20664">
        <ele>998.40002441406</ele>
        <time>2016-07-14T15:09:35.000Z</time>
      </trkpt>
      <trkpt lat="44.57486" lon="6.20673">
        <ele>995.59997558594</ele>
        <time>2016-07-14T15:09:44.000Z</time>
      </trkpt>
      <trkpt lat="44.5748" lon="6.20679">
        <ele>994.20001220703</ele>
        <time>2016-07-14T15:09:49.000Z</time>
      </trkpt>
      <trkpt lat="44.57477" lon="6.20681">
        <ele>993.59997558594</ele>
        <time>2016-07-14T15:09:55.000Z</time>
      </trkpt>
      <trkpt lat="44.57476" lon="6.20686">
        <ele>993.40002441406</ele>
        <time>2016-07-14T15:10:00.000Z</time>
      </trkpt>
      <trkpt lat="44.57476" lon="6.20701">
        <ele>993.20001220703</ele>
        <time>2016-07-14T15:10:08.000Z</time>
      </trkpt>
      <trkpt lat="44.57474" lon="6.20711">
        <ele>992.79998779297</ele>
        <time>2016-07-14T15:10:14.000Z</time>
      </trkpt>
      <trkpt lat="44.57474" lon="6.20725">
        <ele>992.79998779297</ele>
        <time>2016-07-14T15:10:22.000Z</time>
      </trkpt>
      <trkpt lat="44.57476" lon="6.2074">
        <ele>993</ele>
        <time>2016-07-14T15:10:30.000Z</time>
      </trkpt>
      <trkpt lat="44.57475" lon="6.20752">
        <ele>992.20001220703</ele>
        <time>2016-07-14T15:10:37.000Z</time>
      </trkpt>
      <trkpt lat="44.57473" lon="6.20766">
        <ele>991.20001220703</ele>
        <time>2016-07-14T15:10:46.000Z</time>
      </trkpt>
      <trkpt lat="44.57473" lon="6.20778">
        <ele>990.59997558594</ele>
        <time>2016-07-14T15:10:53.000Z</time>
      </trkpt>
      <trkpt lat="44.57472" lon="6.20797">
        <ele>989.40002441406</ele>
        <time>2016-07-14T15:11:03.000Z</time>
      </trkpt>
      <trkpt lat="44.5747" lon="6.20817">
        <ele>988.40002441406</ele>
        <time>2016-07-14T15:11:13.000Z</time>
      </trkpt>
      <trkpt lat="44.57468" lon="6.20829">
        <ele>988.20001220703</ele>
        <time>2016-07-14T15:11:20.000Z</time>
      </trkpt>
      <trkpt lat="44.57465" lon="6.20841">
        <ele>987.40002441406</ele>
        <time>2016-07-14T15:11:27.000Z</time>
      </trkpt>
      <trkpt lat="44.57463" lon="6.20859">
        <ele>986.40002441406</ele>
        <time>2016-07-14T15:11:36.000Z</time>
      </trkpt>
      <trkpt lat="44.57461" lon="6.20882">
        <ele>985.79998779297</ele>
        <time>2016-07-14T15:11:48.000Z</time>
      </trkpt>
      <trkpt lat="44.57461" lon="6.20894">
        <ele>985.59997558594</ele>
        <time>2016-07-14T15:11:56.000Z</time>
      </trkpt>
      <trkpt lat="44.5746" lon="6.20908">
        <ele>985.40002441406</ele>
        <time>2016-07-14T15:12:03.000Z</time>
      </trkpt>
      <trkpt lat="44.57458" lon="6.20926">
        <ele>984.59997558594</ele>
        <time>2016-07-14T15:12:12.000Z</time>
      </trkpt>
      <trkpt lat="44.57455" lon="6.2094">
        <ele>983.40002441406</ele>
        <time>2016-07-14T15:12:19.000Z</time>
      </trkpt>
      <trkpt lat="44.57452" lon="6.2096">
        <ele>982.40002441406</ele>
        <time>2016-07-14T15:12:29.000Z</time>
      </trkpt>
      <trkpt lat="44.57452" lon="6.2097">
        <ele>982.20001220703</ele>
        <time>2016-07-14T15:12:34.000Z</time>
      </trkpt>
      <trkpt lat="44.57447" lon="6.20984">
        <ele>980.79998779297</ele>
        <time>2016-07-14T15:12:41.000Z</time>
      </trkpt>
      <trkpt lat="44.57446" lon="6.20986">
        <ele>980.59997558594</ele>
        <time>2016-07-14T15:12:42.000Z</time>
      </trkpt>
      <trkpt lat="44.57443" lon="6.20999">
        <ele>979.59997558594</ele>
        <time>2016-07-14T15:12:48.000Z</time>
      </trkpt>
      <trkpt lat="44.57438" lon="6.21017">
        <ele>978</ele>
        <time>2016-07-14T15:12:58.000Z</time>
      </trkpt>
      <trkpt lat="44.57434" lon="6.2103">
        <ele>977</ele>
        <time>2016-07-14T15:13:05.000Z</time>
      </trkpt>
      <trkpt lat="44.57427" lon="6.2105">
        <ele>974.79998779297</ele>
        <time>2016-07-14T15:13:15.000Z</time>
      </trkpt>
      <trkpt lat="44.57424" lon="6.21063">
        <ele>973.59997558594</ele>
        <time>2016-07-14T15:13:22.000Z</time>
      </trkpt>
      <trkpt lat="44.5742" lon="6.21075">
        <ele>972</ele>
        <time>2016-07-14T15:13:29.000Z</time>
      </trkpt>
      <trkpt lat="44.57418" lon="6.2109">
        <ele>971</ele>
        <time>2016-07-14T15:13:37.000Z</time>
      </trkpt>
      <trkpt lat="44.57419" lon="6.21102">
        <ele>971.20001220703</ele>
        <time>2016-07-14T15:13:43.000Z</time>
      </trkpt>
      <trkpt lat="44.57419" lon="6.21113">
        <ele>971.20001220703</ele>
        <time>2016-07-14T15:13:49.000Z</time>
      </trkpt>
      <trkpt lat="44.5742" lon="6.21115">
        <ele>971.59997558594</ele>
        <time>2016-07-14T15:13:50.000Z</time>
      </trkpt>
      <trkpt lat="44.57427" lon="6.21132">
        <ele>973.79998779297</ele>
        <time>2016-07-14T15:14:00.000Z</time>
      </trkpt>
      <trkpt lat="44.57432" lon="6.21146">
        <ele>975.59997558594</ele>
        <time>2016-07-14T15:14:08.000Z</time>
      </trkpt>
      <trkpt lat="44.57434" lon="6.21164">
        <ele>976.20001220703</ele>
        <time>2016-07-14T15:14:18.000Z</time>
      </trkpt>
      <trkpt lat="44.57438" lon="6.21181">
        <ele>977.40002441406</ele>
        <time>2016-07-14T15:14:28.000Z</time>
      </trkpt>
      <trkpt lat="44.57441" lon="6.21197">
        <ele>978.20001220703</ele>
        <time>2016-07-14T15:14:38.000Z</time>
      </trkpt>
      <trkpt lat="44.57444" lon="6.21213">
        <ele>978.59997558594</ele>
        <time>2016-07-14T15:14:47.000Z</time>
      </trkpt>
      <trkpt lat="44.57444" lon="6.21233">
        <ele>979</ele>
        <time>2016-07-14T15:14:57.000Z</time>
      </trkpt>
      <trkpt lat="44.57446" lon="6.21249">
        <ele>980</ele>
        <time>2016-07-14T15:15:06.000Z</time>
      </trkpt>
      <trkpt lat="44.5745" lon="6.21266">
        <ele>981.20001220703</ele>
        <time>2016-07-14T15:15:16.000Z</time>
      </trkpt>
      <trkpt lat="44.57456" lon="6.21285">
        <ele>983.40002441406</ele>
        <time>2016-07-14T15:15:27.000Z</time>
      </trkpt>
      <trkpt lat="44.57458" lon="6.21291">
        <ele>984.40002441406</ele>
        <time>2016-07-14T15:15:31.000Z</time>
      </trkpt>
      <trkpt lat="44.57459" lon="6.21304">
        <ele>984.59997558594</ele>
        <time>2016-07-14T15:15:38.000Z</time>
      </trkpt>
      <trkpt lat="44.57461" lon="6.21315">
        <ele>985.79998779297</ele>
        <time>2016-07-14T15:15:45.000Z</time>
      </trkpt>
      <trkpt lat="44.57466" lon="6.21328">
        <ele>988.40002441406</ele>
        <time>2016-07-14T15:15:54.000Z</time>
      </trkpt>
      <trkpt lat="44.57471" lon="6.21339">
        <ele>990.59997558594</ele>
        <time>2016-07-14T15:16:02.000Z</time>
      </trkpt>
      <trkpt lat="44.57477" lon="6.21355">
        <ele>992.79998779297</ele>
        <time>2016-07-14T15:16:12.000Z</time>
      </trkpt>
      <trkpt lat="44.57477" lon="6.21367">
        <ele>993.40002441406</ele>
        <time>2016-07-14T15:16:19.000Z</time>
      </trkpt>
      <trkpt lat="44.57477" lon="6.21379">
        <ele>993.20001220703</ele>
        <time>2016-07-14T15:16:26.000Z</time>
      </trkpt>
      <trkpt lat="44.57477" lon="6.21383">
        <ele>993.40002441406</ele>
        <time>2016-07-14T15:16:28.000Z</time>
      </trkpt>
      <trkpt lat="44.57476" lon="6.21398">
        <ele>993.20001220703</ele>
        <time>2016-07-14T15:16:37.000Z</time>
      </trkpt>
      <trkpt lat="44.57472" lon="6.21414">
        <ele>991.59997558594</ele>
        <time>2016-07-14T15:16:47.000Z</time>
      </trkpt>
      <trkpt lat="44.57471" lon="6.21419">
        <ele>991.20001220703</ele>
        <time>2016-07-14T15:16:50.000Z</time>
      </trkpt>
      <trkpt lat="44.57469" lon="6.21435">
        <ele>991.20001220703</ele>
        <time>2016-07-14T15:16:59.000Z</time>
      </trkpt>
      <trkpt lat="44.57468" lon="6.21448">
        <ele>991.59997558594</ele>
        <time>2016-07-14T15:17:06.000Z</time>
      </trkpt>
      <trkpt lat="44.5747" lon="6.21463">
        <ele>993</ele>
        <time>2016-07-14T15:17:14.000Z</time>
      </trkpt>
      <trkpt lat="44.57471" lon="6.21466">
        <ele>993.40002441406</ele>
        <time>2016-07-14T15:17:20.000Z</time>
      </trkpt>
      <trkpt lat="44.57471" lon="6.21468">
        <ele>993.59997558594</ele>
        <time>2016-07-14T15:17:26.000Z</time>
      </trkpt>
    </trkseg>
  </trk>
</gpx>